<?xml version="1.0" encoding="UTF-8" standalone="no" ?>
<gpx xmlns="http://www.topografix.com/GPX/1/1" xmlns:xsi="http://www.w3.org/2001/XMLSchema-instance" xsi:schemaLocation="http://www.topografix.com/GPX/1/1 http://www.topografix.com/GPX/1/1/gpx.xsd" version="1.1" creator="VisuGPX - https://www.visugpx.com">
  <metadata>
    <name>2019-07-06 17:52:03</name>
  </metadata>
  <trk>
    <name><![CDATA[2019-07-06 17:52:03]]></name>
    <trkseg>
      <trkpt lat="50.4408" lon="6.03534">
        <ele>350.54</ele>
        <time>2019-07-06T07:31:49Z</time>
      </trkpt>
      <trkpt lat="50.4408" lon="6.03534">
        <ele>350.54</ele>
        <time>2019-07-06T07:31:50Z</time>
      </trkpt>
      <trkpt lat="50.4408" lon="6.03534">
        <ele>349.1</ele>
        <time>2019-07-06T07:31:53Z</time>
      </trkpt>
      <trkpt lat="50.4408" lon="6.0354">
        <ele>349.58</ele>
        <time>2019-07-06T07:32:17Z</time>
      </trkpt>
      <trkpt lat="50.4408" lon="6.03541">
        <ele>349.58</ele>
        <time>2019-07-06T07:32:41Z</time>
      </trkpt>
      <trkpt lat="50.4408" lon="6.0354">
        <ele>349.58</ele>
        <time>2019-07-06T07:33:03Z</time>
      </trkpt>
      <trkpt lat="50.4408" lon="6.03542">
        <ele>349.58</ele>
        <time>2019-07-06T07:33:34Z</time>
      </trkpt>
      <trkpt lat="50.4408" lon="6.0354">
        <ele>350.06</ele>
        <time>2019-07-06T07:34:04Z</time>
      </trkpt>
      <trkpt lat="50.4408" lon="6.03545">
        <ele>350.06</ele>
        <time>2019-07-06T07:34:06Z</time>
      </trkpt>
      <trkpt lat="50.4408" lon="6.03549">
        <ele>350.06</ele>
        <time>2019-07-06T07:34:07Z</time>
      </trkpt>
      <trkpt lat="50.4408" lon="6.03552">
        <ele>350.06</ele>
        <time>2019-07-06T07:34:08Z</time>
      </trkpt>
      <trkpt lat="50.4408" lon="6.03556">
        <ele>350.06</ele>
        <time>2019-07-06T07:34:09Z</time>
      </trkpt>
      <trkpt lat="50.4408" lon="6.0356">
        <ele>350.06</ele>
        <time>2019-07-06T07:34:10Z</time>
      </trkpt>
      <trkpt lat="50.44083" lon="6.0357">
        <ele>350.06</ele>
        <time>2019-07-06T07:34:13Z</time>
      </trkpt>
      <trkpt lat="50.44085" lon="6.0357">
        <ele>350.06</ele>
        <time>2019-07-06T07:34:14Z</time>
      </trkpt>
      <trkpt lat="50.44086" lon="6.03563">
        <ele>350.06</ele>
        <time>2019-07-06T07:34:24Z</time>
      </trkpt>
      <trkpt lat="50.44087" lon="6.0356">
        <ele>350.06</ele>
        <time>2019-07-06T07:34:25Z</time>
      </trkpt>
      <trkpt lat="50.44089" lon="6.03558">
        <ele>350.06</ele>
        <time>2019-07-06T07:34:26Z</time>
      </trkpt>
      <trkpt lat="50.44089" lon="6.03554">
        <ele>350.06</ele>
        <time>2019-07-06T07:34:27Z</time>
      </trkpt>
      <trkpt lat="50.44089" lon="6.03552">
        <ele>350.06</ele>
        <time>2019-07-06T07:34:28Z</time>
      </trkpt>
      <trkpt lat="50.44088" lon="6.03548">
        <ele>350.06</ele>
        <time>2019-07-06T07:34:29Z</time>
      </trkpt>
      <trkpt lat="50.4408" lon="6.03487">
        <ele>350.06</ele>
        <time>2019-07-06T07:34:39Z</time>
      </trkpt>
      <trkpt lat="50.44074" lon="6.03457">
        <ele>350.06</ele>
        <time>2019-07-06T07:34:43Z</time>
      </trkpt>
      <trkpt lat="50.44037" lon="6.03354">
        <ele>350.06</ele>
        <time>2019-07-06T07:34:57Z</time>
      </trkpt>
      <trkpt lat="50.43979" lon="6.03246">
        <ele>351.5</ele>
        <time>2019-07-06T07:35:13Z</time>
      </trkpt>
      <trkpt lat="50.43939" lon="6.03178">
        <ele>350.06</ele>
        <time>2019-07-06T07:35:22Z</time>
      </trkpt>
      <trkpt lat="50.43928" lon="6.03149">
        <ele>348.62</ele>
        <time>2019-07-06T07:35:25Z</time>
      </trkpt>
      <trkpt lat="50.43914" lon="6.03121">
        <ele>348.13</ele>
        <time>2019-07-06T07:35:28Z</time>
      </trkpt>
      <trkpt lat="50.43909" lon="6.03113">
        <ele>348.13</ele>
        <time>2019-07-06T07:35:29Z</time>
      </trkpt>
      <trkpt lat="50.43902" lon="6.03106">
        <ele>347.65</ele>
        <time>2019-07-06T07:35:30Z</time>
      </trkpt>
      <trkpt lat="50.43895" lon="6.03101">
        <ele>347.17</ele>
        <time>2019-07-06T07:35:31Z</time>
      </trkpt>
      <trkpt lat="50.43888" lon="6.03097">
        <ele>347.17</ele>
        <time>2019-07-06T07:35:32Z</time>
      </trkpt>
      <trkpt lat="50.43767" lon="6.03029">
        <ele>344.77</ele>
        <time>2019-07-06T07:35:48Z</time>
      </trkpt>
      <trkpt lat="50.43674" lon="6.02975">
        <ele>344.29</ele>
        <time>2019-07-06T07:36:02Z</time>
      </trkpt>
      <trkpt lat="50.43579" lon="6.02923">
        <ele>343.33</ele>
        <time>2019-07-06T07:36:16Z</time>
      </trkpt>
      <trkpt lat="50.43572" lon="6.02921">
        <ele>342.85</ele>
        <time>2019-07-06T07:36:17Z</time>
      </trkpt>
      <trkpt lat="50.43565" lon="6.02919">
        <ele>342.85</ele>
        <time>2019-07-06T07:36:18Z</time>
      </trkpt>
      <trkpt lat="50.43558" lon="6.02919">
        <ele>342.85</ele>
        <time>2019-07-06T07:36:19Z</time>
      </trkpt>
      <trkpt lat="50.43551" lon="6.0292">
        <ele>342.85</ele>
        <time>2019-07-06T07:36:20Z</time>
      </trkpt>
      <trkpt lat="50.43544" lon="6.02922">
        <ele>342.85</ele>
        <time>2019-07-06T07:36:21Z</time>
      </trkpt>
      <trkpt lat="50.43537" lon="6.02925">
        <ele>342.37</ele>
        <time>2019-07-06T07:36:22Z</time>
      </trkpt>
      <trkpt lat="50.43531" lon="6.02928">
        <ele>342.37</ele>
        <time>2019-07-06T07:36:23Z</time>
      </trkpt>
      <trkpt lat="50.43524" lon="6.02932">
        <ele>342.37</ele>
        <time>2019-07-06T07:36:24Z</time>
      </trkpt>
      <trkpt lat="50.43518" lon="6.02937">
        <ele>341.89</ele>
        <time>2019-07-06T07:36:25Z</time>
      </trkpt>
      <trkpt lat="50.43427" lon="6.02996">
        <ele>339.96</ele>
        <time>2019-07-06T07:36:38Z</time>
      </trkpt>
      <trkpt lat="50.43419" lon="6.02996">
        <ele>339.96</ele>
        <time>2019-07-06T07:36:39Z</time>
      </trkpt>
      <trkpt lat="50.43333" lon="6.02959">
        <ele>338.04</ele>
        <time>2019-07-06T07:36:51Z</time>
      </trkpt>
      <trkpt lat="50.43223" lon="6.02885">
        <ele>336.6</ele>
        <time>2019-07-06T07:37:08Z</time>
      </trkpt>
      <trkpt lat="50.43121" lon="6.0282">
        <ele>335.64</ele>
        <time>2019-07-06T07:37:24Z</time>
      </trkpt>
      <trkpt lat="50.43031" lon="6.02761">
        <ele>334.68</ele>
        <time>2019-07-06T07:37:38Z</time>
      </trkpt>
      <trkpt lat="50.42924" lon="6.02693">
        <ele>334.2</ele>
        <time>2019-07-06T07:37:55Z</time>
      </trkpt>
      <trkpt lat="50.42864" lon="6.02647">
        <ele>334.2</ele>
        <time>2019-07-06T07:38:05Z</time>
      </trkpt>
      <trkpt lat="50.4286" lon="6.02639">
        <ele>334.2</ele>
        <time>2019-07-06T07:38:06Z</time>
      </trkpt>
      <trkpt lat="50.42802" lon="6.02537">
        <ele>333.23</ele>
        <time>2019-07-06T07:38:19Z</time>
      </trkpt>
      <trkpt lat="50.42759" lon="6.02486">
        <ele>333.23</ele>
        <time>2019-07-06T07:38:27Z</time>
      </trkpt>
      <trkpt lat="50.42753" lon="6.02482">
        <ele>332.75</ele>
        <time>2019-07-06T07:38:28Z</time>
      </trkpt>
      <trkpt lat="50.42747" lon="6.02476">
        <ele>332.75</ele>
        <time>2019-07-06T07:38:29Z</time>
      </trkpt>
      <trkpt lat="50.42742" lon="6.02472">
        <ele>332.75</ele>
        <time>2019-07-06T07:38:30Z</time>
      </trkpt>
      <trkpt lat="50.42736" lon="6.02468">
        <ele>332.75</ele>
        <time>2019-07-06T07:38:31Z</time>
      </trkpt>
      <trkpt lat="50.42724" lon="6.02463">
        <ele>332.75</ele>
        <time>2019-07-06T07:38:33Z</time>
      </trkpt>
      <trkpt lat="50.42717" lon="6.02466">
        <ele>332.75</ele>
        <time>2019-07-06T07:38:34Z</time>
      </trkpt>
      <trkpt lat="50.42711" lon="6.02469">
        <ele>332.75</ele>
        <time>2019-07-06T07:38:35Z</time>
      </trkpt>
      <trkpt lat="50.42704" lon="6.02473">
        <ele>332.75</ele>
        <time>2019-07-06T07:38:36Z</time>
      </trkpt>
      <trkpt lat="50.42698" lon="6.02478">
        <ele>332.75</ele>
        <time>2019-07-06T07:38:37Z</time>
      </trkpt>
      <trkpt lat="50.42633" lon="6.02518">
        <ele>332.75</ele>
        <time>2019-07-06T07:38:48Z</time>
      </trkpt>
      <trkpt lat="50.42628" lon="6.02518">
        <ele>332.75</ele>
        <time>2019-07-06T07:38:49Z</time>
      </trkpt>
      <trkpt lat="50.42609" lon="6.02514">
        <ele>332.75</ele>
        <time>2019-07-06T07:38:53Z</time>
      </trkpt>
      <trkpt lat="50.42605" lon="6.02516">
        <ele>332.75</ele>
        <time>2019-07-06T07:38:54Z</time>
      </trkpt>
      <trkpt lat="50.42601" lon="6.02521">
        <ele>332.75</ele>
        <time>2019-07-06T07:38:55Z</time>
      </trkpt>
      <trkpt lat="50.42598" lon="6.0253">
        <ele>332.75</ele>
        <time>2019-07-06T07:38:56Z</time>
      </trkpt>
      <trkpt lat="50.42597" lon="6.02537">
        <ele>333.71</ele>
        <time>2019-07-06T07:38:57Z</time>
      </trkpt>
      <trkpt lat="50.42596" lon="6.02546">
        <ele>333.71</ele>
        <time>2019-07-06T07:38:58Z</time>
      </trkpt>
      <trkpt lat="50.42596" lon="6.02554">
        <ele>333.71</ele>
        <time>2019-07-06T07:38:59Z</time>
      </trkpt>
      <trkpt lat="50.42596" lon="6.02563">
        <ele>333.71</ele>
        <time>2019-07-06T07:39:00Z</time>
      </trkpt>
      <trkpt lat="50.42597" lon="6.02571">
        <ele>333.71</ele>
        <time>2019-07-06T07:39:01Z</time>
      </trkpt>
      <trkpt lat="50.42597" lon="6.02581">
        <ele>334.2</ele>
        <time>2019-07-06T07:39:02Z</time>
      </trkpt>
      <trkpt lat="50.42596" lon="6.0259">
        <ele>334.2</ele>
        <time>2019-07-06T07:39:03Z</time>
      </trkpt>
      <trkpt lat="50.42595" lon="6.02597">
        <ele>334.68</ele>
        <time>2019-07-06T07:39:04Z</time>
      </trkpt>
      <trkpt lat="50.42594" lon="6.02607">
        <ele>334.68</ele>
        <time>2019-07-06T07:39:05Z</time>
      </trkpt>
      <trkpt lat="50.42591" lon="6.02615">
        <ele>334.68</ele>
        <time>2019-07-06T07:39:06Z</time>
      </trkpt>
      <trkpt lat="50.42586" lon="6.0263">
        <ele>334.68</ele>
        <time>2019-07-06T07:39:08Z</time>
      </trkpt>
      <trkpt lat="50.42583" lon="6.02638">
        <ele>334.68</ele>
        <time>2019-07-06T07:39:09Z</time>
      </trkpt>
      <trkpt lat="50.42564" lon="6.02671">
        <ele>335.64</ele>
        <time>2019-07-06T07:39:14Z</time>
      </trkpt>
      <trkpt lat="50.42555" lon="6.02682">
        <ele>335.64</ele>
        <time>2019-07-06T07:39:16Z</time>
      </trkpt>
      <trkpt lat="50.42541" lon="6.02696">
        <ele>335.64</ele>
        <time>2019-07-06T07:39:19Z</time>
      </trkpt>
      <trkpt lat="50.42538" lon="6.02704">
        <ele>336.12</ele>
        <time>2019-07-06T07:39:20Z</time>
      </trkpt>
      <trkpt lat="50.42536" lon="6.02713">
        <ele>336.12</ele>
        <time>2019-07-06T07:39:21Z</time>
      </trkpt>
      <trkpt lat="50.42535" lon="6.02722">
        <ele>336.12</ele>
        <time>2019-07-06T07:39:22Z</time>
      </trkpt>
      <trkpt lat="50.42536" lon="6.02731">
        <ele>336.6</ele>
        <time>2019-07-06T07:39:23Z</time>
      </trkpt>
      <trkpt lat="50.4255" lon="6.02884">
        <ele>338.04</ele>
        <time>2019-07-06T07:39:39Z</time>
      </trkpt>
      <trkpt lat="50.42537" lon="6.02996">
        <ele>339.48</ele>
        <time>2019-07-06T07:39:51Z</time>
      </trkpt>
      <trkpt lat="50.42533" lon="6.03024">
        <ele>339.48</ele>
        <time>2019-07-06T07:39:54Z</time>
      </trkpt>
      <trkpt lat="50.4253" lon="6.03051">
        <ele>339.48</ele>
        <time>2019-07-06T07:39:57Z</time>
      </trkpt>
      <trkpt lat="50.42529" lon="6.0306">
        <ele>339.48</ele>
        <time>2019-07-06T07:39:58Z</time>
      </trkpt>
      <trkpt lat="50.42528" lon="6.03069">
        <ele>339.48</ele>
        <time>2019-07-06T07:39:59Z</time>
      </trkpt>
      <trkpt lat="50.42522" lon="6.03093">
        <ele>339.96</ele>
        <time>2019-07-06T07:40:02Z</time>
      </trkpt>
      <trkpt lat="50.42519" lon="6.03097">
        <ele>339.96</ele>
        <time>2019-07-06T07:40:03Z</time>
      </trkpt>
      <trkpt lat="50.42514" lon="6.031">
        <ele>339.96</ele>
        <time>2019-07-06T07:40:04Z</time>
      </trkpt>
      <trkpt lat="50.42498" lon="6.03109">
        <ele>339.96</ele>
        <time>2019-07-06T07:40:07Z</time>
      </trkpt>
      <trkpt lat="50.42493" lon="6.03116">
        <ele>339.96</ele>
        <time>2019-07-06T07:40:08Z</time>
      </trkpt>
      <trkpt lat="50.42484" lon="6.03129">
        <ele>339.96</ele>
        <time>2019-07-06T07:40:10Z</time>
      </trkpt>
      <trkpt lat="50.4248" lon="6.03134">
        <ele>339.96</ele>
        <time>2019-07-06T07:40:11Z</time>
      </trkpt>
      <trkpt lat="50.42456" lon="6.03171">
        <ele>340.44</ele>
        <time>2019-07-06T07:40:17Z</time>
      </trkpt>
      <trkpt lat="50.4242" lon="6.03296">
        <ele>341.41</ele>
        <time>2019-07-06T07:40:32Z</time>
      </trkpt>
      <trkpt lat="50.42416" lon="6.03303">
        <ele>341.41</ele>
        <time>2019-07-06T07:40:33Z</time>
      </trkpt>
      <trkpt lat="50.42411" lon="6.03307">
        <ele>341.89</ele>
        <time>2019-07-06T07:40:34Z</time>
      </trkpt>
      <trkpt lat="50.42405" lon="6.0331">
        <ele>341.89</ele>
        <time>2019-07-06T07:40:35Z</time>
      </trkpt>
      <trkpt lat="50.424" lon="6.03311">
        <ele>342.37</ele>
        <time>2019-07-06T07:40:36Z</time>
      </trkpt>
      <trkpt lat="50.42395" lon="6.03312">
        <ele>342.37</ele>
        <time>2019-07-06T07:40:37Z</time>
      </trkpt>
      <trkpt lat="50.4239" lon="6.03313">
        <ele>342.37</ele>
        <time>2019-07-06T07:40:38Z</time>
      </trkpt>
      <trkpt lat="50.42365" lon="6.03325">
        <ele>343.33</ele>
        <time>2019-07-06T07:40:44Z</time>
      </trkpt>
      <trkpt lat="50.42364" lon="6.0333">
        <ele>343.33</ele>
        <time>2019-07-06T07:40:45Z</time>
      </trkpt>
      <trkpt lat="50.42364" lon="6.03337">
        <ele>343.33</ele>
        <time>2019-07-06T07:40:46Z</time>
      </trkpt>
      <trkpt lat="50.42366" lon="6.03342">
        <ele>343.33</ele>
        <time>2019-07-06T07:40:47Z</time>
      </trkpt>
      <trkpt lat="50.42371" lon="6.03346">
        <ele>343.81</ele>
        <time>2019-07-06T07:40:48Z</time>
      </trkpt>
      <trkpt lat="50.42376" lon="6.03349">
        <ele>343.81</ele>
        <time>2019-07-06T07:40:49Z</time>
      </trkpt>
      <trkpt lat="50.4238" lon="6.03354">
        <ele>343.81</ele>
        <time>2019-07-06T07:40:50Z</time>
      </trkpt>
      <trkpt lat="50.42384" lon="6.03361">
        <ele>343.81</ele>
        <time>2019-07-06T07:40:51Z</time>
      </trkpt>
      <trkpt lat="50.42387" lon="6.03369">
        <ele>343.81</ele>
        <time>2019-07-06T07:40:52Z</time>
      </trkpt>
      <trkpt lat="50.4239" lon="6.03378">
        <ele>343.81</ele>
        <time>2019-07-06T07:40:53Z</time>
      </trkpt>
      <trkpt lat="50.42393" lon="6.03387">
        <ele>343.81</ele>
        <time>2019-07-06T07:40:54Z</time>
      </trkpt>
      <trkpt lat="50.42395" lon="6.03397">
        <ele>343.81</ele>
        <time>2019-07-06T07:40:55Z</time>
      </trkpt>
      <trkpt lat="50.42396" lon="6.03407">
        <ele>343.81</ele>
        <time>2019-07-06T07:40:56Z</time>
      </trkpt>
      <trkpt lat="50.42399" lon="6.03544">
        <ele>343.81</ele>
        <time>2019-07-06T07:41:10Z</time>
      </trkpt>
      <trkpt lat="50.42402" lon="6.03571">
        <ele>343.81</ele>
        <time>2019-07-06T07:41:13Z</time>
      </trkpt>
      <trkpt lat="50.42404" lon="6.0358">
        <ele>344.29</ele>
        <time>2019-07-06T07:41:14Z</time>
      </trkpt>
      <trkpt lat="50.42435" lon="6.03657">
        <ele>345.73</ele>
        <time>2019-07-06T07:41:24Z</time>
      </trkpt>
      <trkpt lat="50.42445" lon="6.03678">
        <ele>346.69</ele>
        <time>2019-07-06T07:41:27Z</time>
      </trkpt>
      <trkpt lat="50.42448" lon="6.03686">
        <ele>346.69</ele>
        <time>2019-07-06T07:41:28Z</time>
      </trkpt>
      <trkpt lat="50.4245" lon="6.03695">
        <ele>346.69</ele>
        <time>2019-07-06T07:41:29Z</time>
      </trkpt>
      <trkpt lat="50.4245" lon="6.03704">
        <ele>346.69</ele>
        <time>2019-07-06T07:41:30Z</time>
      </trkpt>
      <trkpt lat="50.4245" lon="6.03713">
        <ele>346.69</ele>
        <time>2019-07-06T07:41:31Z</time>
      </trkpt>
      <trkpt lat="50.42448" lon="6.03722">
        <ele>347.17</ele>
        <time>2019-07-06T07:41:32Z</time>
      </trkpt>
      <trkpt lat="50.42446" lon="6.03731">
        <ele>347.17</ele>
        <time>2019-07-06T07:41:33Z</time>
      </trkpt>
      <trkpt lat="50.42442" lon="6.03739">
        <ele>347.17</ele>
        <time>2019-07-06T07:41:34Z</time>
      </trkpt>
      <trkpt lat="50.42394" lon="6.03867">
        <ele>349.1</ele>
        <time>2019-07-06T07:41:50Z</time>
      </trkpt>
      <trkpt lat="50.42352" lon="6.04001">
        <ele>351.02</ele>
        <time>2019-07-06T07:42:07Z</time>
      </trkpt>
      <trkpt lat="50.42326" lon="6.04103">
        <ele>353.9</ele>
        <time>2019-07-06T07:42:20Z</time>
      </trkpt>
      <trkpt lat="50.42321" lon="6.04125">
        <ele>353.9</ele>
        <time>2019-07-06T07:42:23Z</time>
      </trkpt>
      <trkpt lat="50.42319" lon="6.04132">
        <ele>354.86</ele>
        <time>2019-07-06T07:42:24Z</time>
      </trkpt>
      <trkpt lat="50.42304" lon="6.04193">
        <ele>356.79</ele>
        <time>2019-07-06T07:42:33Z</time>
      </trkpt>
      <trkpt lat="50.42303" lon="6.042">
        <ele>357.27</ele>
        <time>2019-07-06T07:42:34Z</time>
      </trkpt>
      <trkpt lat="50.42302" lon="6.04214">
        <ele>357.27</ele>
        <time>2019-07-06T07:42:36Z</time>
      </trkpt>
      <trkpt lat="50.423" lon="6.04221">
        <ele>357.75</ele>
        <time>2019-07-06T07:42:37Z</time>
      </trkpt>
      <trkpt lat="50.42298" lon="6.04226">
        <ele>357.75</ele>
        <time>2019-07-06T07:42:38Z</time>
      </trkpt>
      <trkpt lat="50.42295" lon="6.04232">
        <ele>357.75</ele>
        <time>2019-07-06T07:42:39Z</time>
      </trkpt>
      <trkpt lat="50.42291" lon="6.04238">
        <ele>357.75</ele>
        <time>2019-07-06T07:42:40Z</time>
      </trkpt>
      <trkpt lat="50.42272" lon="6.04275">
        <ele>354.38</ele>
        <time>2019-07-06T07:42:45Z</time>
      </trkpt>
      <trkpt lat="50.42269" lon="6.0428">
        <ele>354.38</ele>
        <time>2019-07-06T07:42:46Z</time>
      </trkpt>
      <trkpt lat="50.42266" lon="6.04285">
        <ele>353.42</ele>
        <time>2019-07-06T07:42:47Z</time>
      </trkpt>
      <trkpt lat="50.42263" lon="6.0429">
        <ele>353.42</ele>
        <time>2019-07-06T07:42:48Z</time>
      </trkpt>
      <trkpt lat="50.42258" lon="6.043">
        <ele>353.42</ele>
        <time>2019-07-06T07:42:50Z</time>
      </trkpt>
      <trkpt lat="50.42255" lon="6.04304">
        <ele>352.94</ele>
        <time>2019-07-06T07:42:51Z</time>
      </trkpt>
      <trkpt lat="50.42243" lon="6.04318">
        <ele>352.94</ele>
        <time>2019-07-06T07:42:54Z</time>
      </trkpt>
      <trkpt lat="50.42233" lon="6.04324">
        <ele>352.94</ele>
        <time>2019-07-06T07:42:56Z</time>
      </trkpt>
      <trkpt lat="50.42229" lon="6.04326">
        <ele>352.94</ele>
        <time>2019-07-06T07:42:57Z</time>
      </trkpt>
      <trkpt lat="50.42201" lon="6.04334">
        <ele>356.31</ele>
        <time>2019-07-06T07:43:04Z</time>
      </trkpt>
      <trkpt lat="50.42197" lon="6.04336">
        <ele>356.31</ele>
        <time>2019-07-06T07:43:05Z</time>
      </trkpt>
      <trkpt lat="50.42168" lon="6.0435">
        <ele>359.67</ele>
        <time>2019-07-06T07:43:14Z</time>
      </trkpt>
      <trkpt lat="50.42145" lon="6.04366">
        <ele>363.04</ele>
        <time>2019-07-06T07:43:23Z</time>
      </trkpt>
      <trkpt lat="50.42138" lon="6.04374">
        <ele>364</ele>
        <time>2019-07-06T07:43:27Z</time>
      </trkpt>
      <trkpt lat="50.42137" lon="6.04377">
        <ele>364.48</ele>
        <time>2019-07-06T07:43:28Z</time>
      </trkpt>
      <trkpt lat="50.42117" lon="6.04407">
        <ele>367.84</ele>
        <time>2019-07-06T07:43:38Z</time>
      </trkpt>
      <trkpt lat="50.42098" lon="6.0444">
        <ele>371.21</ele>
        <time>2019-07-06T07:43:48Z</time>
      </trkpt>
      <trkpt lat="50.42076" lon="6.04492">
        <ele>375.05</ele>
        <time>2019-07-06T07:44:01Z</time>
      </trkpt>
      <trkpt lat="50.42066" lon="6.04539">
        <ele>378.42</ele>
        <time>2019-07-06T07:44:12Z</time>
      </trkpt>
      <trkpt lat="50.42064" lon="6.04587">
        <ele>381.78</ele>
        <time>2019-07-06T07:44:22Z</time>
      </trkpt>
      <trkpt lat="50.42064" lon="6.04593">
        <ele>381.78</ele>
        <time>2019-07-06T07:44:24Z</time>
      </trkpt>
      <trkpt lat="50.42064" lon="6.04596">
        <ele>381.78</ele>
        <time>2019-07-06T07:44:25Z</time>
      </trkpt>
      <trkpt lat="50.42063" lon="6.046">
        <ele>381.78</ele>
        <time>2019-07-06T07:44:26Z</time>
      </trkpt>
      <trkpt lat="50.42063" lon="6.04604">
        <ele>381.78</ele>
        <time>2019-07-06T07:44:27Z</time>
      </trkpt>
      <trkpt lat="50.42063" lon="6.04606">
        <ele>381.78</ele>
        <time>2019-07-06T07:44:28Z</time>
      </trkpt>
      <trkpt lat="50.42063" lon="6.04611">
        <ele>381.78</ele>
        <time>2019-07-06T07:44:29Z</time>
      </trkpt>
      <trkpt lat="50.42064" lon="6.04616">
        <ele>381.78</ele>
        <time>2019-07-06T07:44:30Z</time>
      </trkpt>
      <trkpt lat="50.42066" lon="6.04629">
        <ele>381.78</ele>
        <time>2019-07-06T07:44:32Z</time>
      </trkpt>
      <trkpt lat="50.42067" lon="6.04645">
        <ele>380.34</ele>
        <time>2019-07-06T07:44:34Z</time>
      </trkpt>
      <trkpt lat="50.42071" lon="6.04683">
        <ele>377.94</ele>
        <time>2019-07-06T07:44:38Z</time>
      </trkpt>
      <trkpt lat="50.42072" lon="6.04694">
        <ele>376.97</ele>
        <time>2019-07-06T07:44:39Z</time>
      </trkpt>
      <trkpt lat="50.42075" lon="6.04752">
        <ele>373.61</ele>
        <time>2019-07-06T07:44:44Z</time>
      </trkpt>
      <trkpt lat="50.42072" lon="6.04822">
        <ele>370.24</ele>
        <time>2019-07-06T07:44:50Z</time>
      </trkpt>
      <trkpt lat="50.42067" lon="6.04883">
        <ele>367.36</ele>
        <time>2019-07-06T07:44:55Z</time>
      </trkpt>
      <trkpt lat="50.42066" lon="6.04896">
        <ele>366.4</ele>
        <time>2019-07-06T07:44:56Z</time>
      </trkpt>
      <trkpt lat="50.42063" lon="6.04931">
        <ele>364.96</ele>
        <time>2019-07-06T07:45:00Z</time>
      </trkpt>
      <trkpt lat="50.42063" lon="6.04938">
        <ele>364.96</ele>
        <time>2019-07-06T07:45:01Z</time>
      </trkpt>
      <trkpt lat="50.42061" lon="6.04969">
        <ele>364.48</ele>
        <time>2019-07-06T07:45:05Z</time>
      </trkpt>
      <trkpt lat="50.4207" lon="6.05041">
        <ele>364.48</ele>
        <time>2019-07-06T07:45:18Z</time>
      </trkpt>
      <trkpt lat="50.42084" lon="6.0508">
        <ele>364.48</ele>
        <time>2019-07-06T07:45:28Z</time>
      </trkpt>
      <trkpt lat="50.42109" lon="6.05117">
        <ele>366.88</ele>
        <time>2019-07-06T07:45:39Z</time>
      </trkpt>
      <trkpt lat="50.42144" lon="6.05147">
        <ele>368.32</ele>
        <time>2019-07-06T07:45:51Z</time>
      </trkpt>
      <trkpt lat="50.42179" lon="6.05173">
        <ele>367.84</ele>
        <time>2019-07-06T07:46:00Z</time>
      </trkpt>
      <trkpt lat="50.42206" lon="6.05204">
        <ele>369.28</ele>
        <time>2019-07-06T07:46:09Z</time>
      </trkpt>
      <trkpt lat="50.42211" lon="6.05211">
        <ele>369.76</ele>
        <time>2019-07-06T07:46:21Z</time>
      </trkpt>
      <trkpt lat="50.42212" lon="6.05211">
        <ele>369.76</ele>
        <time>2019-07-06T07:46:29Z</time>
      </trkpt>
      <trkpt lat="50.42212" lon="6.0521">
        <ele>369.76</ele>
        <time>2019-07-06T07:46:39Z</time>
      </trkpt>
      <trkpt lat="50.42213" lon="6.05209">
        <ele>369.76</ele>
        <time>2019-07-06T07:46:53Z</time>
      </trkpt>
      <trkpt lat="50.42205" lon="6.05202">
        <ele>369.76</ele>
        <time>2019-07-06T07:46:58Z</time>
      </trkpt>
      <trkpt lat="50.42204" lon="6.05199">
        <ele>369.76</ele>
        <time>2019-07-06T07:46:59Z</time>
      </trkpt>
      <trkpt lat="50.42179" lon="6.05166">
        <ele>368.32</ele>
        <time>2019-07-06T07:47:09Z</time>
      </trkpt>
      <trkpt lat="50.42144" lon="6.05141">
        <ele>367.84</ele>
        <time>2019-07-06T07:47:20Z</time>
      </trkpt>
      <trkpt lat="50.42104" lon="6.05108">
        <ele>365.92</ele>
        <time>2019-07-06T07:47:31Z</time>
      </trkpt>
      <trkpt lat="50.421" lon="6.05103">
        <ele>365.92</ele>
        <time>2019-07-06T07:47:32Z</time>
      </trkpt>
      <trkpt lat="50.42097" lon="6.05098">
        <ele>365.92</ele>
        <time>2019-07-06T07:47:33Z</time>
      </trkpt>
      <trkpt lat="50.42095" lon="6.05093">
        <ele>365.44</ele>
        <time>2019-07-06T07:47:34Z</time>
      </trkpt>
      <trkpt lat="50.42092" lon="6.05088">
        <ele>365.44</ele>
        <time>2019-07-06T07:47:35Z</time>
      </trkpt>
      <trkpt lat="50.42067" lon="6.05032">
        <ele>364.48</ele>
        <time>2019-07-06T07:47:47Z</time>
      </trkpt>
      <trkpt lat="50.42066" lon="6.0503">
        <ele>364</ele>
        <time>2019-07-06T07:47:48Z</time>
      </trkpt>
      <trkpt lat="50.42061" lon="6.05023">
        <ele>364</ele>
        <time>2019-07-06T07:48:01Z</time>
      </trkpt>
      <trkpt lat="50.4206" lon="6.05023">
        <ele>364</ele>
        <time>2019-07-06T07:48:02Z</time>
      </trkpt>
      <trkpt lat="50.42051" lon="6.05027">
        <ele>363.52</ele>
        <time>2019-07-06T07:48:10Z</time>
      </trkpt>
      <trkpt lat="50.4204" lon="6.05042">
        <ele>363.04</ele>
        <time>2019-07-06T07:48:23Z</time>
      </trkpt>
      <trkpt lat="50.42027" lon="6.0505">
        <ele>363.04</ele>
        <time>2019-07-06T07:48:33Z</time>
      </trkpt>
      <trkpt lat="50.42019" lon="6.05058">
        <ele>363.04</ele>
        <time>2019-07-06T07:48:46Z</time>
      </trkpt>
      <trkpt lat="50.42019" lon="6.0506">
        <ele>363.04</ele>
        <time>2019-07-06T07:48:47Z</time>
      </trkpt>
      <trkpt lat="50.42017" lon="6.05063">
        <ele>363.04</ele>
        <time>2019-07-06T07:48:49Z</time>
      </trkpt>
      <trkpt lat="50.42017" lon="6.05065">
        <ele>363.04</ele>
        <time>2019-07-06T07:48:50Z</time>
      </trkpt>
      <trkpt lat="50.42016" lon="6.05067">
        <ele>363.04</ele>
        <time>2019-07-06T07:48:51Z</time>
      </trkpt>
      <trkpt lat="50.42016" lon="6.0507">
        <ele>363.04</ele>
        <time>2019-07-06T07:48:52Z</time>
      </trkpt>
      <trkpt lat="50.42016" lon="6.05072">
        <ele>363.04</ele>
        <time>2019-07-06T07:48:54Z</time>
      </trkpt>
      <trkpt lat="50.42015" lon="6.05074">
        <ele>363.04</ele>
        <time>2019-07-06T07:48:55Z</time>
      </trkpt>
      <trkpt lat="50.42014" lon="6.05076">
        <ele>363.04</ele>
        <time>2019-07-06T07:48:56Z</time>
      </trkpt>
      <trkpt lat="50.42014" lon="6.05078">
        <ele>363.04</ele>
        <time>2019-07-06T07:48:57Z</time>
      </trkpt>
      <trkpt lat="50.42012" lon="6.0508">
        <ele>364.48</ele>
        <time>2019-07-06T07:49:00Z</time>
      </trkpt>
      <trkpt lat="50.42009" lon="6.05084">
        <ele>364.48</ele>
        <time>2019-07-06T07:49:12Z</time>
      </trkpt>
      <trkpt lat="50.41985" lon="6.05103">
        <ele>366.4</ele>
        <time>2019-07-06T07:49:23Z</time>
      </trkpt>
      <trkpt lat="50.41978" lon="6.05104">
        <ele>367.36</ele>
        <time>2019-07-06T07:49:26Z</time>
      </trkpt>
      <trkpt lat="50.41976" lon="6.05106">
        <ele>367.36</ele>
        <time>2019-07-06T07:49:27Z</time>
      </trkpt>
      <trkpt lat="50.41975" lon="6.05109">
        <ele>367.36</ele>
        <time>2019-07-06T07:49:28Z</time>
      </trkpt>
      <trkpt lat="50.41976" lon="6.05114">
        <ele>367.84</ele>
        <time>2019-07-06T07:49:29Z</time>
      </trkpt>
      <trkpt lat="50.41976" lon="6.05118">
        <ele>367.84</ele>
        <time>2019-07-06T07:49:30Z</time>
      </trkpt>
      <trkpt lat="50.41977" lon="6.05122">
        <ele>367.84</ele>
        <time>2019-07-06T07:49:31Z</time>
      </trkpt>
      <trkpt lat="50.41978" lon="6.05127">
        <ele>367.84</ele>
        <time>2019-07-06T07:49:32Z</time>
      </trkpt>
      <trkpt lat="50.41979" lon="6.05131">
        <ele>367.84</ele>
        <time>2019-07-06T07:49:33Z</time>
      </trkpt>
      <trkpt lat="50.4198" lon="6.05136">
        <ele>367.84</ele>
        <time>2019-07-06T07:49:34Z</time>
      </trkpt>
      <trkpt lat="50.41998" lon="6.05191">
        <ele>368.8</ele>
        <time>2019-07-06T07:49:45Z</time>
      </trkpt>
      <trkpt lat="50.42033" lon="6.0527">
        <ele>370.24</ele>
        <time>2019-07-06T07:50:00Z</time>
      </trkpt>
      <trkpt lat="50.42046" lon="6.05296">
        <ele>370.73</ele>
        <time>2019-07-06T07:50:05Z</time>
      </trkpt>
      <trkpt lat="50.42049" lon="6.05301">
        <ele>370.73</ele>
        <time>2019-07-06T07:50:06Z</time>
      </trkpt>
      <trkpt lat="50.42058" lon="6.05315">
        <ele>371.21</ele>
        <time>2019-07-06T07:50:09Z</time>
      </trkpt>
      <trkpt lat="50.42061" lon="6.05319">
        <ele>371.21</ele>
        <time>2019-07-06T07:50:10Z</time>
      </trkpt>
      <trkpt lat="50.42064" lon="6.05324">
        <ele>371.69</ele>
        <time>2019-07-06T07:50:11Z</time>
      </trkpt>
      <trkpt lat="50.42067" lon="6.05328">
        <ele>371.69</ele>
        <time>2019-07-06T07:50:12Z</time>
      </trkpt>
      <trkpt lat="50.4207" lon="6.05333">
        <ele>371.69</ele>
        <time>2019-07-06T07:50:13Z</time>
      </trkpt>
      <trkpt lat="50.42073" lon="6.05337">
        <ele>371.69</ele>
        <time>2019-07-06T07:50:14Z</time>
      </trkpt>
      <trkpt lat="50.42088" lon="6.0536">
        <ele>372.65</ele>
        <time>2019-07-06T07:50:19Z</time>
      </trkpt>
      <trkpt lat="50.4211" lon="6.0539">
        <ele>373.13</ele>
        <time>2019-07-06T07:50:26Z</time>
      </trkpt>
      <trkpt lat="50.42142" lon="6.05437">
        <ele>374.09</ele>
        <time>2019-07-06T07:50:36Z</time>
      </trkpt>
      <trkpt lat="50.42155" lon="6.05456">
        <ele>374.57</ele>
        <time>2019-07-06T07:50:40Z</time>
      </trkpt>
      <trkpt lat="50.42158" lon="6.05461">
        <ele>374.57</ele>
        <time>2019-07-06T07:50:41Z</time>
      </trkpt>
      <trkpt lat="50.42169" lon="6.05476">
        <ele>375.05</ele>
        <time>2019-07-06T07:50:44Z</time>
      </trkpt>
      <trkpt lat="50.42185" lon="6.05499">
        <ele>376.01</ele>
        <time>2019-07-06T07:50:49Z</time>
      </trkpt>
      <trkpt lat="50.42195" lon="6.05513">
        <ele>376.49</ele>
        <time>2019-07-06T07:50:52Z</time>
      </trkpt>
      <trkpt lat="50.42244" lon="6.0558">
        <ele>378.42</ele>
        <time>2019-07-06T07:51:07Z</time>
      </trkpt>
      <trkpt lat="50.42299" lon="6.05667">
        <ele>380.34</ele>
        <time>2019-07-06T07:51:24Z</time>
      </trkpt>
      <trkpt lat="50.42314" lon="6.05695">
        <ele>380.82</ele>
        <time>2019-07-06T07:51:29Z</time>
      </trkpt>
      <trkpt lat="50.42317" lon="6.057">
        <ele>380.82</ele>
        <time>2019-07-06T07:51:30Z</time>
      </trkpt>
      <trkpt lat="50.42367" lon="6.058">
        <ele>383.22</ele>
        <time>2019-07-06T07:51:47Z</time>
      </trkpt>
      <trkpt lat="50.42415" lon="6.05897">
        <ele>385.63</ele>
        <time>2019-07-06T07:52:03Z</time>
      </trkpt>
      <trkpt lat="50.42419" lon="6.05902">
        <ele>385.63</ele>
        <time>2019-07-06T07:52:04Z</time>
      </trkpt>
      <trkpt lat="50.42422" lon="6.05908">
        <ele>386.11</ele>
        <time>2019-07-06T07:52:05Z</time>
      </trkpt>
      <trkpt lat="50.42434" lon="6.05931">
        <ele>386.59</ele>
        <time>2019-07-06T07:52:09Z</time>
      </trkpt>
      <trkpt lat="50.42461" lon="6.05974">
        <ele>387.07</ele>
        <time>2019-07-06T07:52:17Z</time>
      </trkpt>
      <trkpt lat="50.42487" lon="6.06005">
        <ele>388.03</ele>
        <time>2019-07-06T07:52:24Z</time>
      </trkpt>
      <trkpt lat="50.4253" lon="6.06041">
        <ele>389.47</ele>
        <time>2019-07-06T07:52:34Z</time>
      </trkpt>
      <trkpt lat="50.42534" lon="6.06044">
        <ele>389.95</ele>
        <time>2019-07-06T07:52:35Z</time>
      </trkpt>
      <trkpt lat="50.42538" lon="6.06048">
        <ele>389.95</ele>
        <time>2019-07-06T07:52:36Z</time>
      </trkpt>
      <trkpt lat="50.42542" lon="6.06052">
        <ele>389.95</ele>
        <time>2019-07-06T07:52:37Z</time>
      </trkpt>
      <trkpt lat="50.42546" lon="6.06055">
        <ele>389.95</ele>
        <time>2019-07-06T07:52:38Z</time>
      </trkpt>
      <trkpt lat="50.4255" lon="6.06059">
        <ele>389.95</ele>
        <time>2019-07-06T07:52:39Z</time>
      </trkpt>
      <trkpt lat="50.42554" lon="6.06062">
        <ele>389.95</ele>
        <time>2019-07-06T07:52:40Z</time>
      </trkpt>
      <trkpt lat="50.42559" lon="6.06065">
        <ele>390.43</ele>
        <time>2019-07-06T07:52:41Z</time>
      </trkpt>
      <trkpt lat="50.42567" lon="6.06072">
        <ele>390.43</ele>
        <time>2019-07-06T07:52:43Z</time>
      </trkpt>
      <trkpt lat="50.42571" lon="6.06076">
        <ele>390.91</ele>
        <time>2019-07-06T07:52:44Z</time>
      </trkpt>
      <trkpt lat="50.42575" lon="6.06079">
        <ele>390.91</ele>
        <time>2019-07-06T07:52:45Z</time>
      </trkpt>
      <trkpt lat="50.42638" lon="6.06134">
        <ele>392.36</ele>
        <time>2019-07-06T07:53:00Z</time>
      </trkpt>
      <trkpt lat="50.42663" lon="6.06156">
        <ele>393.32</ele>
        <time>2019-07-06T07:53:06Z</time>
      </trkpt>
      <trkpt lat="50.42667" lon="6.0616">
        <ele>393.32</ele>
        <time>2019-07-06T07:53:07Z</time>
      </trkpt>
      <trkpt lat="50.42688" lon="6.0618">
        <ele>394.28</ele>
        <time>2019-07-06T07:53:12Z</time>
      </trkpt>
      <trkpt lat="50.42716" lon="6.0621">
        <ele>395.24</ele>
        <time>2019-07-06T07:53:19Z</time>
      </trkpt>
      <trkpt lat="50.42719" lon="6.06216">
        <ele>395.72</ele>
        <time>2019-07-06T07:53:20Z</time>
      </trkpt>
      <trkpt lat="50.42759" lon="6.06284">
        <ele>397.16</ele>
        <time>2019-07-06T07:53:32Z</time>
      </trkpt>
      <trkpt lat="50.42765" lon="6.06296">
        <ele>397.16</ele>
        <time>2019-07-06T07:53:34Z</time>
      </trkpt>
      <trkpt lat="50.42768" lon="6.06301">
        <ele>397.16</ele>
        <time>2019-07-06T07:53:35Z</time>
      </trkpt>
      <trkpt lat="50.4277" lon="6.06307">
        <ele>397.64</ele>
        <time>2019-07-06T07:53:36Z</time>
      </trkpt>
      <trkpt lat="50.42772" lon="6.06313">
        <ele>397.64</ele>
        <time>2019-07-06T07:53:37Z</time>
      </trkpt>
      <trkpt lat="50.42775" lon="6.0632">
        <ele>397.64</ele>
        <time>2019-07-06T07:53:38Z</time>
      </trkpt>
      <trkpt lat="50.42788" lon="6.06366">
        <ele>398.6</ele>
        <time>2019-07-06T07:53:45Z</time>
      </trkpt>
      <trkpt lat="50.42801" lon="6.06477">
        <ele>400.53</ele>
        <time>2019-07-06T07:54:00Z</time>
      </trkpt>
      <trkpt lat="50.428" lon="6.06543">
        <ele>401.97</ele>
        <time>2019-07-06T07:54:09Z</time>
      </trkpt>
      <trkpt lat="50.42799" lon="6.0655">
        <ele>401.97</ele>
        <time>2019-07-06T07:54:10Z</time>
      </trkpt>
      <trkpt lat="50.42798" lon="6.06557">
        <ele>401.97</ele>
        <time>2019-07-06T07:54:11Z</time>
      </trkpt>
      <trkpt lat="50.42797" lon="6.06564">
        <ele>402.45</ele>
        <time>2019-07-06T07:54:12Z</time>
      </trkpt>
      <trkpt lat="50.42795" lon="6.0657">
        <ele>402.45</ele>
        <time>2019-07-06T07:54:13Z</time>
      </trkpt>
      <trkpt lat="50.42794" lon="6.06576">
        <ele>402.45</ele>
        <time>2019-07-06T07:54:14Z</time>
      </trkpt>
      <trkpt lat="50.42777" lon="6.06639">
        <ele>403.89</ele>
        <time>2019-07-06T07:54:25Z</time>
      </trkpt>
      <trkpt lat="50.42742" lon="6.06723">
        <ele>405.33</ele>
        <time>2019-07-06T07:54:40Z</time>
      </trkpt>
      <trkpt lat="50.42705" lon="6.06804">
        <ele>406.29</ele>
        <time>2019-07-06T07:54:51Z</time>
      </trkpt>
      <trkpt lat="50.42672" lon="6.0687">
        <ele>408.22</ele>
        <time>2019-07-06T07:55:01Z</time>
      </trkpt>
      <trkpt lat="50.42669" lon="6.06875">
        <ele>408.7</ele>
        <time>2019-07-06T07:55:02Z</time>
      </trkpt>
      <trkpt lat="50.42666" lon="6.06879">
        <ele>408.7</ele>
        <time>2019-07-06T07:55:03Z</time>
      </trkpt>
      <trkpt lat="50.42662" lon="6.06885">
        <ele>408.7</ele>
        <time>2019-07-06T07:55:04Z</time>
      </trkpt>
      <trkpt lat="50.42658" lon="6.0689">
        <ele>408.7</ele>
        <time>2019-07-06T07:55:05Z</time>
      </trkpt>
      <trkpt lat="50.4265" lon="6.06901">
        <ele>408.7</ele>
        <time>2019-07-06T07:55:07Z</time>
      </trkpt>
      <trkpt lat="50.42584" lon="6.06967">
        <ele>411.1</ele>
        <time>2019-07-06T07:55:21Z</time>
      </trkpt>
      <trkpt lat="50.42528" lon="6.07019">
        <ele>412.54</ele>
        <time>2019-07-06T07:55:34Z</time>
      </trkpt>
      <trkpt lat="50.42498" lon="6.07057">
        <ele>413.5</ele>
        <time>2019-07-06T07:55:42Z</time>
      </trkpt>
      <trkpt lat="50.42478" lon="6.07091">
        <ele>413.98</ele>
        <time>2019-07-06T07:55:48Z</time>
      </trkpt>
      <trkpt lat="50.42466" lon="6.07116">
        <ele>414.95</ele>
        <time>2019-07-06T07:55:52Z</time>
      </trkpt>
      <trkpt lat="50.42431" lon="6.07224">
        <ele>416.87</ele>
        <time>2019-07-06T07:56:07Z</time>
      </trkpt>
      <trkpt lat="50.42427" lon="6.07245">
        <ele>417.35</ele>
        <time>2019-07-06T07:56:10Z</time>
      </trkpt>
      <trkpt lat="50.42422" lon="6.07267">
        <ele>417.35</ele>
        <time>2019-07-06T07:56:13Z</time>
      </trkpt>
      <trkpt lat="50.42416" lon="6.07304">
        <ele>418.31</ele>
        <time>2019-07-06T07:56:18Z</time>
      </trkpt>
      <trkpt lat="50.42411" lon="6.07405">
        <ele>420.23</ele>
        <time>2019-07-06T07:56:31Z</time>
      </trkpt>
      <trkpt lat="50.42411" lon="6.07413">
        <ele>420.23</ele>
        <time>2019-07-06T07:56:32Z</time>
      </trkpt>
      <trkpt lat="50.42414" lon="6.0754">
        <ele>422.64</ele>
        <time>2019-07-06T07:56:48Z</time>
      </trkpt>
      <trkpt lat="50.42413" lon="6.07578">
        <ele>423.6</ele>
        <time>2019-07-06T07:56:53Z</time>
      </trkpt>
      <trkpt lat="50.42412" lon="6.07586">
        <ele>423.6</ele>
        <time>2019-07-06T07:56:54Z</time>
      </trkpt>
      <trkpt lat="50.42388" lon="6.07705">
        <ele>425.52</ele>
        <time>2019-07-06T07:57:10Z</time>
      </trkpt>
      <trkpt lat="50.4237" lon="6.07757">
        <ele>426.48</ele>
        <time>2019-07-06T07:57:18Z</time>
      </trkpt>
      <trkpt lat="50.42367" lon="6.07763">
        <ele>426.48</ele>
        <time>2019-07-06T07:57:19Z</time>
      </trkpt>
      <trkpt lat="50.42353" lon="6.07792">
        <ele>427.44</ele>
        <time>2019-07-06T07:57:24Z</time>
      </trkpt>
      <trkpt lat="50.42331" lon="6.07828">
        <ele>428.4</ele>
        <time>2019-07-06T07:57:31Z</time>
      </trkpt>
      <trkpt lat="50.42327" lon="6.07833">
        <ele>428.4</ele>
        <time>2019-07-06T07:57:32Z</time>
      </trkpt>
      <trkpt lat="50.42311" lon="6.07854">
        <ele>429.37</ele>
        <time>2019-07-06T07:57:37Z</time>
      </trkpt>
      <trkpt lat="50.42251" lon="6.07914">
        <ele>431.29</ele>
        <time>2019-07-06T07:57:50Z</time>
      </trkpt>
      <trkpt lat="50.42175" lon="6.07976">
        <ele>433.21</ele>
        <time>2019-07-06T07:58:08Z</time>
      </trkpt>
      <trkpt lat="50.42167" lon="6.07982">
        <ele>433.69</ele>
        <time>2019-07-06T07:58:10Z</time>
      </trkpt>
      <trkpt lat="50.42127" lon="6.08044">
        <ele>435.13</ele>
        <time>2019-07-06T07:58:24Z</time>
      </trkpt>
      <trkpt lat="50.42124" lon="6.08048">
        <ele>435.61</ele>
        <time>2019-07-06T07:58:25Z</time>
      </trkpt>
      <trkpt lat="50.42121" lon="6.08052">
        <ele>435.61</ele>
        <time>2019-07-06T07:58:26Z</time>
      </trkpt>
      <trkpt lat="50.42118" lon="6.08057">
        <ele>435.61</ele>
        <time>2019-07-06T07:58:27Z</time>
      </trkpt>
      <trkpt lat="50.42092" lon="6.08119">
        <ele>436.58</ele>
        <time>2019-07-06T07:58:37Z</time>
      </trkpt>
      <trkpt lat="50.42083" lon="6.08152">
        <ele>437.06</ele>
        <time>2019-07-06T07:58:42Z</time>
      </trkpt>
      <trkpt lat="50.42072" lon="6.08206">
        <ele>438.5</ele>
        <time>2019-07-06T07:58:50Z</time>
      </trkpt>
      <trkpt lat="50.42069" lon="6.08228">
        <ele>438.98</ele>
        <time>2019-07-06T07:58:53Z</time>
      </trkpt>
      <trkpt lat="50.42069" lon="6.08235">
        <ele>438.98</ele>
        <time>2019-07-06T07:58:54Z</time>
      </trkpt>
      <trkpt lat="50.42067" lon="6.0828">
        <ele>439.46</ele>
        <time>2019-07-06T07:59:00Z</time>
      </trkpt>
      <trkpt lat="50.42067" lon="6.08288">
        <ele>440.42</ele>
        <time>2019-07-06T07:59:01Z</time>
      </trkpt>
      <trkpt lat="50.42077" lon="6.08372">
        <ele>441.38</ele>
        <time>2019-07-06T07:59:12Z</time>
      </trkpt>
      <trkpt lat="50.42082" lon="6.08393">
        <ele>441.86</ele>
        <time>2019-07-06T07:59:15Z</time>
      </trkpt>
      <trkpt lat="50.42084" lon="6.084">
        <ele>441.86</ele>
        <time>2019-07-06T07:59:16Z</time>
      </trkpt>
      <trkpt lat="50.42091" lon="6.08426">
        <ele>441.86</ele>
        <time>2019-07-06T07:59:20Z</time>
      </trkpt>
      <trkpt lat="50.42114" lon="6.08479">
        <ele>443.31</ele>
        <time>2019-07-06T07:59:28Z</time>
      </trkpt>
      <trkpt lat="50.42162" lon="6.08558">
        <ele>445.71</ele>
        <time>2019-07-06T07:59:42Z</time>
      </trkpt>
      <trkpt lat="50.42222" lon="6.08643">
        <ele>447.63</ele>
        <time>2019-07-06T07:59:58Z</time>
      </trkpt>
      <trkpt lat="50.42261" lon="6.08733">
        <ele>448.59</ele>
        <time>2019-07-06T08:00:11Z</time>
      </trkpt>
      <trkpt lat="50.42272" lon="6.08779">
        <ele>448.59</ele>
        <time>2019-07-06T08:00:17Z</time>
      </trkpt>
      <trkpt lat="50.42272" lon="6.08787">
        <ele>449.07</ele>
        <time>2019-07-06T08:00:18Z</time>
      </trkpt>
      <trkpt lat="50.42273" lon="6.08805">
        <ele>449.07</ele>
        <time>2019-07-06T08:00:20Z</time>
      </trkpt>
      <trkpt lat="50.42275" lon="6.08839">
        <ele>449.55</ele>
        <time>2019-07-06T08:00:24Z</time>
      </trkpt>
      <trkpt lat="50.42275" lon="6.08848">
        <ele>449.55</ele>
        <time>2019-07-06T08:00:25Z</time>
      </trkpt>
      <trkpt lat="50.42275" lon="6.08865">
        <ele>449.55</ele>
        <time>2019-07-06T08:00:27Z</time>
      </trkpt>
      <trkpt lat="50.42276" lon="6.08874">
        <ele>449.55</ele>
        <time>2019-07-06T08:00:28Z</time>
      </trkpt>
      <trkpt lat="50.42277" lon="6.0889">
        <ele>449.55</ele>
        <time>2019-07-06T08:00:30Z</time>
      </trkpt>
      <trkpt lat="50.42278" lon="6.089">
        <ele>450.03</ele>
        <time>2019-07-06T08:00:31Z</time>
      </trkpt>
      <trkpt lat="50.42284" lon="6.08964">
        <ele>451</ele>
        <time>2019-07-06T08:00:39Z</time>
      </trkpt>
      <trkpt lat="50.42285" lon="6.08972">
        <ele>451</ele>
        <time>2019-07-06T08:00:40Z</time>
      </trkpt>
      <trkpt lat="50.42306" lon="6.09092">
        <ele>451.96</ele>
        <time>2019-07-06T08:00:55Z</time>
      </trkpt>
      <trkpt lat="50.42311" lon="6.09107">
        <ele>452.44</ele>
        <time>2019-07-06T08:00:57Z</time>
      </trkpt>
      <trkpt lat="50.42316" lon="6.09122">
        <ele>452.44</ele>
        <time>2019-07-06T08:00:59Z</time>
      </trkpt>
      <trkpt lat="50.42319" lon="6.09131">
        <ele>452.44</ele>
        <time>2019-07-06T08:01:00Z</time>
      </trkpt>
      <trkpt lat="50.42322" lon="6.09138">
        <ele>452.44</ele>
        <time>2019-07-06T08:01:01Z</time>
      </trkpt>
      <trkpt lat="50.42353" lon="6.0921">
        <ele>453.4</ele>
        <time>2019-07-06T08:01:11Z</time>
      </trkpt>
      <trkpt lat="50.42357" lon="6.09217">
        <ele>453.4</ele>
        <time>2019-07-06T08:01:12Z</time>
      </trkpt>
      <trkpt lat="50.4236" lon="6.09223">
        <ele>453.88</ele>
        <time>2019-07-06T08:01:13Z</time>
      </trkpt>
      <trkpt lat="50.42363" lon="6.09229">
        <ele>453.88</ele>
        <time>2019-07-06T08:01:14Z</time>
      </trkpt>
      <trkpt lat="50.42367" lon="6.09237">
        <ele>453.88</ele>
        <time>2019-07-06T08:01:15Z</time>
      </trkpt>
      <trkpt lat="50.4237" lon="6.09243">
        <ele>453.88</ele>
        <time>2019-07-06T08:01:16Z</time>
      </trkpt>
      <trkpt lat="50.42378" lon="6.09257">
        <ele>453.88</ele>
        <time>2019-07-06T08:01:18Z</time>
      </trkpt>
      <trkpt lat="50.42381" lon="6.09264">
        <ele>453.88</ele>
        <time>2019-07-06T08:01:19Z</time>
      </trkpt>
      <trkpt lat="50.42388" lon="6.09277">
        <ele>453.88</ele>
        <time>2019-07-06T08:01:21Z</time>
      </trkpt>
      <trkpt lat="50.42418" lon="6.09349">
        <ele>454.84</ele>
        <time>2019-07-06T08:01:31Z</time>
      </trkpt>
      <trkpt lat="50.4244" lon="6.09488">
        <ele>456.76</ele>
        <time>2019-07-06T08:01:47Z</time>
      </trkpt>
      <trkpt lat="50.42431" lon="6.09609">
        <ele>457.72</ele>
        <time>2019-07-06T08:02:01Z</time>
      </trkpt>
      <trkpt lat="50.42429" lon="6.09617">
        <ele>457.72</ele>
        <time>2019-07-06T08:02:02Z</time>
      </trkpt>
      <trkpt lat="50.42419" lon="6.09651">
        <ele>458.21</ele>
        <time>2019-07-06T08:02:07Z</time>
      </trkpt>
      <trkpt lat="50.42413" lon="6.09671">
        <ele>458.21</ele>
        <time>2019-07-06T08:02:10Z</time>
      </trkpt>
      <trkpt lat="50.42371" lon="6.09754">
        <ele>459.17</ele>
        <time>2019-07-06T08:02:23Z</time>
      </trkpt>
      <trkpt lat="50.42329" lon="6.09808">
        <ele>460.61</ele>
        <time>2019-07-06T08:02:32Z</time>
      </trkpt>
      <trkpt lat="50.4224" lon="6.09879">
        <ele>462.53</ele>
        <time>2019-07-06T08:02:49Z</time>
      </trkpt>
      <trkpt lat="50.4217" lon="6.0998">
        <ele>464.93</ele>
        <time>2019-07-06T08:03:06Z</time>
      </trkpt>
      <trkpt lat="50.42145" lon="6.10047">
        <ele>464.93</ele>
        <time>2019-07-06T08:03:15Z</time>
      </trkpt>
      <trkpt lat="50.42111" lon="6.10148">
        <ele>465.9</ele>
        <time>2019-07-06T08:03:28Z</time>
      </trkpt>
      <trkpt lat="50.4207" lon="6.10256">
        <ele>467.82</ele>
        <time>2019-07-06T08:03:42Z</time>
      </trkpt>
      <trkpt lat="50.42043" lon="6.10301">
        <ele>469.26</ele>
        <time>2019-07-06T08:03:49Z</time>
      </trkpt>
      <trkpt lat="50.41975" lon="6.10366">
        <ele>469.74</ele>
        <time>2019-07-06T08:04:03Z</time>
      </trkpt>
      <trkpt lat="50.41875" lon="6.10415">
        <ele>472.14</ele>
        <time>2019-07-06T08:04:21Z</time>
      </trkpt>
      <trkpt lat="50.41844" lon="6.10432">
        <ele>472.63</ele>
        <time>2019-07-06T08:04:28Z</time>
      </trkpt>
      <trkpt lat="50.41822" lon="6.10439">
        <ele>472.63</ele>
        <time>2019-07-06T08:04:32Z</time>
      </trkpt>
      <trkpt lat="50.4175" lon="6.10475">
        <ele>473.59</ele>
        <time>2019-07-06T08:04:45Z</time>
      </trkpt>
      <trkpt lat="50.4174" lon="6.10481">
        <ele>473.59</ele>
        <time>2019-07-06T08:04:47Z</time>
      </trkpt>
      <trkpt lat="50.41714" lon="6.10502">
        <ele>474.55</ele>
        <time>2019-07-06T08:04:52Z</time>
      </trkpt>
      <trkpt lat="50.41683" lon="6.10539">
        <ele>475.03</ele>
        <time>2019-07-06T08:04:59Z</time>
      </trkpt>
      <trkpt lat="50.41632" lon="6.10638">
        <ele>476.47</ele>
        <time>2019-07-06T08:05:13Z</time>
      </trkpt>
      <trkpt lat="50.4161" lon="6.10745">
        <ele>476.95</ele>
        <time>2019-07-06T08:05:26Z</time>
      </trkpt>
      <trkpt lat="50.41603" lon="6.1089">
        <ele>478.39</ele>
        <time>2019-07-06T08:05:42Z</time>
      </trkpt>
      <trkpt lat="50.41598" lon="6.11025">
        <ele>480.8</ele>
        <time>2019-07-06T08:05:57Z</time>
      </trkpt>
      <trkpt lat="50.41582" lon="6.11146">
        <ele>481.76</ele>
        <time>2019-07-06T08:06:13Z</time>
      </trkpt>
      <trkpt lat="50.41575" lon="6.11173">
        <ele>482.72</ele>
        <time>2019-07-06T08:06:23Z</time>
      </trkpt>
      <trkpt lat="50.41575" lon="6.11174">
        <ele>482.72</ele>
        <time>2019-07-06T08:06:26Z</time>
      </trkpt>
      <trkpt lat="50.41574" lon="6.11176">
        <ele>482.72</ele>
        <time>2019-07-06T08:06:27Z</time>
      </trkpt>
      <trkpt lat="50.41574" lon="6.1118">
        <ele>482.72</ele>
        <time>2019-07-06T08:06:28Z</time>
      </trkpt>
      <trkpt lat="50.41566" lon="6.11208">
        <ele>483.2</ele>
        <time>2019-07-06T08:06:34Z</time>
      </trkpt>
      <trkpt lat="50.41563" lon="6.11215">
        <ele>483.2</ele>
        <time>2019-07-06T08:06:35Z</time>
      </trkpt>
      <trkpt lat="50.41561" lon="6.11222">
        <ele>483.68</ele>
        <time>2019-07-06T08:06:36Z</time>
      </trkpt>
      <trkpt lat="50.41559" lon="6.11229">
        <ele>483.68</ele>
        <time>2019-07-06T08:06:37Z</time>
      </trkpt>
      <trkpt lat="50.41557" lon="6.11237">
        <ele>484.16</ele>
        <time>2019-07-06T08:06:38Z</time>
      </trkpt>
      <trkpt lat="50.41554" lon="6.11245">
        <ele>484.16</ele>
        <time>2019-07-06T08:06:39Z</time>
      </trkpt>
      <trkpt lat="50.41511" lon="6.11339">
        <ele>486.56</ele>
        <time>2019-07-06T08:06:53Z</time>
      </trkpt>
      <trkpt lat="50.41507" lon="6.11345">
        <ele>486.56</ele>
        <time>2019-07-06T08:06:54Z</time>
      </trkpt>
      <trkpt lat="50.41459" lon="6.11415">
        <ele>488.49</ele>
        <time>2019-07-06T08:07:07Z</time>
      </trkpt>
      <trkpt lat="50.41401" lon="6.11472">
        <ele>490.41</ele>
        <time>2019-07-06T08:07:20Z</time>
      </trkpt>
      <trkpt lat="50.41388" lon="6.11482">
        <ele>490.89</ele>
        <time>2019-07-06T08:07:23Z</time>
      </trkpt>
      <trkpt lat="50.41383" lon="6.11485">
        <ele>491.37</ele>
        <time>2019-07-06T08:07:24Z</time>
      </trkpt>
      <trkpt lat="50.41379" lon="6.11488">
        <ele>491.37</ele>
        <time>2019-07-06T08:07:25Z</time>
      </trkpt>
      <trkpt lat="50.41375" lon="6.11491">
        <ele>491.37</ele>
        <time>2019-07-06T08:07:26Z</time>
      </trkpt>
      <trkpt lat="50.41372" lon="6.11494">
        <ele>491.37</ele>
        <time>2019-07-06T08:07:27Z</time>
      </trkpt>
      <trkpt lat="50.41369" lon="6.11497">
        <ele>491.37</ele>
        <time>2019-07-06T08:07:35Z</time>
      </trkpt>
      <trkpt lat="50.41368" lon="6.11498">
        <ele>491.37</ele>
        <time>2019-07-06T08:07:42Z</time>
      </trkpt>
      <trkpt lat="50.41367" lon="6.11498">
        <ele>491.85</ele>
        <time>2019-07-06T08:07:43Z</time>
      </trkpt>
      <trkpt lat="50.41365" lon="6.11499">
        <ele>491.85</ele>
        <time>2019-07-06T08:07:44Z</time>
      </trkpt>
      <trkpt lat="50.41341" lon="6.11517">
        <ele>492.33</ele>
        <time>2019-07-06T08:07:51Z</time>
      </trkpt>
      <trkpt lat="50.41329" lon="6.11523">
        <ele>492.33</ele>
        <time>2019-07-06T08:07:53Z</time>
      </trkpt>
      <trkpt lat="50.41239" lon="6.11585">
        <ele>495.22</ele>
        <time>2019-07-06T08:08:10Z</time>
      </trkpt>
      <trkpt lat="50.41223" lon="6.11596">
        <ele>497.14</ele>
        <time>2019-07-06T08:08:13Z</time>
      </trkpt>
      <trkpt lat="50.41164" lon="6.1165">
        <ele>497.62</ele>
        <time>2019-07-06T08:08:26Z</time>
      </trkpt>
      <trkpt lat="50.41144" lon="6.11675">
        <ele>498.58</ele>
        <time>2019-07-06T08:08:32Z</time>
      </trkpt>
      <trkpt lat="50.41137" lon="6.11685">
        <ele>499.06</ele>
        <time>2019-07-06T08:08:34Z</time>
      </trkpt>
      <trkpt lat="50.41134" lon="6.11692">
        <ele>499.06</ele>
        <time>2019-07-06T08:08:35Z</time>
      </trkpt>
      <trkpt lat="50.4113" lon="6.11698">
        <ele>499.06</ele>
        <time>2019-07-06T08:08:36Z</time>
      </trkpt>
      <trkpt lat="50.41082" lon="6.11805">
        <ele>500.98</ele>
        <time>2019-07-06T08:08:52Z</time>
      </trkpt>
      <trkpt lat="50.41058" lon="6.11943">
        <ele>503.87</ele>
        <time>2019-07-06T08:09:09Z</time>
      </trkpt>
      <trkpt lat="50.41053" lon="6.11986">
        <ele>504.35</ele>
        <time>2019-07-06T08:09:14Z</time>
      </trkpt>
      <trkpt lat="50.41052" lon="6.12001">
        <ele>505.31</ele>
        <time>2019-07-06T08:09:16Z</time>
      </trkpt>
      <trkpt lat="50.41051" lon="6.12011">
        <ele>505.31</ele>
        <time>2019-07-06T08:09:17Z</time>
      </trkpt>
      <trkpt lat="50.4105" lon="6.12034">
        <ele>505.79</ele>
        <time>2019-07-06T08:09:20Z</time>
      </trkpt>
      <trkpt lat="50.41044" lon="6.12169">
        <ele>505.31</ele>
        <time>2019-07-06T08:09:35Z</time>
      </trkpt>
      <trkpt lat="50.4105" lon="6.12306">
        <ele>505.79</ele>
        <time>2019-07-06T08:09:49Z</time>
      </trkpt>
      <trkpt lat="50.41046" lon="6.12453">
        <ele>505.79</ele>
        <time>2019-07-06T08:10:04Z</time>
      </trkpt>
      <trkpt lat="50.4103" lon="6.12594">
        <ele>505.79</ele>
        <time>2019-07-06T08:10:18Z</time>
      </trkpt>
      <trkpt lat="50.41004" lon="6.12769">
        <ele>506.27</ele>
        <time>2019-07-06T08:10:35Z</time>
      </trkpt>
      <trkpt lat="50.40997" lon="6.1281">
        <ele>506.27</ele>
        <time>2019-07-06T08:10:39Z</time>
      </trkpt>
      <trkpt lat="50.40967" lon="6.12931">
        <ele>506.75</ele>
        <time>2019-07-06T08:10:52Z</time>
      </trkpt>
      <trkpt lat="50.40925" lon="6.13082">
        <ele>508.19</ele>
        <time>2019-07-06T08:11:09Z</time>
      </trkpt>
      <trkpt lat="50.40883" lon="6.13225">
        <ele>509.64</ele>
        <time>2019-07-06T08:11:26Z</time>
      </trkpt>
      <trkpt lat="50.40839" lon="6.13371">
        <ele>511.08</ele>
        <time>2019-07-06T08:11:43Z</time>
      </trkpt>
      <trkpt lat="50.40803" lon="6.13506">
        <ele>512.52</ele>
        <time>2019-07-06T08:11:58Z</time>
      </trkpt>
      <trkpt lat="50.40787" lon="6.13575">
        <ele>512.52</ele>
        <time>2019-07-06T08:12:07Z</time>
      </trkpt>
      <trkpt lat="50.4077" lon="6.13688">
        <ele>513.48</ele>
        <time>2019-07-06T08:12:19Z</time>
      </trkpt>
      <trkpt lat="50.40758" lon="6.13748">
        <ele>513.48</ele>
        <time>2019-07-06T08:12:25Z</time>
      </trkpt>
      <trkpt lat="50.4074" lon="6.13858">
        <ele>513.96</ele>
        <time>2019-07-06T08:12:36Z</time>
      </trkpt>
      <trkpt lat="50.40739" lon="6.13868">
        <ele>513.96</ele>
        <time>2019-07-06T08:12:37Z</time>
      </trkpt>
      <trkpt lat="50.40707" lon="6.1406">
        <ele>515.4</ele>
        <time>2019-07-06T08:12:56Z</time>
      </trkpt>
      <trkpt lat="50.40674" lon="6.14262">
        <ele>516.37</ele>
        <time>2019-07-06T08:13:16Z</time>
      </trkpt>
      <trkpt lat="50.40653" lon="6.14398">
        <ele>516.85</ele>
        <time>2019-07-06T08:13:30Z</time>
      </trkpt>
      <trkpt lat="50.40623" lon="6.1455">
        <ele>518.29</ele>
        <time>2019-07-06T08:13:45Z</time>
      </trkpt>
      <trkpt lat="50.40579" lon="6.14676">
        <ele>519.73</ele>
        <time>2019-07-06T08:13:59Z</time>
      </trkpt>
      <trkpt lat="50.40541" lon="6.14818">
        <ele>521.17</ele>
        <time>2019-07-06T08:14:15Z</time>
      </trkpt>
      <trkpt lat="50.40531" lon="6.14966">
        <ele>522.61</ele>
        <time>2019-07-06T08:14:30Z</time>
      </trkpt>
      <trkpt lat="50.40534" lon="6.15014">
        <ele>523.09</ele>
        <time>2019-07-06T08:14:35Z</time>
      </trkpt>
      <trkpt lat="50.40562" lon="6.15151">
        <ele>524.06</ele>
        <time>2019-07-06T08:14:50Z</time>
      </trkpt>
      <trkpt lat="50.40583" lon="6.15211">
        <ele>525.5</ele>
        <time>2019-07-06T08:14:57Z</time>
      </trkpt>
      <trkpt lat="50.40596" lon="6.15244">
        <ele>525.98</ele>
        <time>2019-07-06T08:15:01Z</time>
      </trkpt>
      <trkpt lat="50.40603" lon="6.15261">
        <ele>525.98</ele>
        <time>2019-07-06T08:15:03Z</time>
      </trkpt>
      <trkpt lat="50.40606" lon="6.15269">
        <ele>526.46</ele>
        <time>2019-07-06T08:15:04Z</time>
      </trkpt>
      <trkpt lat="50.40646" lon="6.15427">
        <ele>527.9</ele>
        <time>2019-07-06T08:15:21Z</time>
      </trkpt>
      <trkpt lat="50.40657" lon="6.15471">
        <ele>528.38</ele>
        <time>2019-07-06T08:15:28Z</time>
      </trkpt>
      <trkpt lat="50.40659" lon="6.15478">
        <ele>528.38</ele>
        <time>2019-07-06T08:15:29Z</time>
      </trkpt>
      <trkpt lat="50.40661" lon="6.15486">
        <ele>528.38</ele>
        <time>2019-07-06T08:15:30Z</time>
      </trkpt>
      <trkpt lat="50.40694" lon="6.15611">
        <ele>529.34</ele>
        <time>2019-07-06T08:15:45Z</time>
      </trkpt>
      <trkpt lat="50.40735" lon="6.15772">
        <ele>531.75</ele>
        <time>2019-07-06T08:16:03Z</time>
      </trkpt>
      <trkpt lat="50.40746" lon="6.15817">
        <ele>532.23</ele>
        <time>2019-07-06T08:16:08Z</time>
      </trkpt>
      <trkpt lat="50.40754" lon="6.15983">
        <ele>534.15</ele>
        <time>2019-07-06T08:16:25Z</time>
      </trkpt>
      <trkpt lat="50.40747" lon="6.16062">
        <ele>535.11</ele>
        <time>2019-07-06T08:16:34Z</time>
      </trkpt>
      <trkpt lat="50.40711" lon="6.16198">
        <ele>536.07</ele>
        <time>2019-07-06T08:16:50Z</time>
      </trkpt>
      <trkpt lat="50.40676" lon="6.16317">
        <ele>537.51</ele>
        <time>2019-07-06T08:17:04Z</time>
      </trkpt>
      <trkpt lat="50.40663" lon="6.16446">
        <ele>538.96</ele>
        <time>2019-07-06T08:17:18Z</time>
      </trkpt>
      <trkpt lat="50.40662" lon="6.16464">
        <ele>538.96</ele>
        <time>2019-07-06T08:17:20Z</time>
      </trkpt>
      <trkpt lat="50.40672" lon="6.16601">
        <ele>540.4</ele>
        <time>2019-07-06T08:17:35Z</time>
      </trkpt>
      <trkpt lat="50.40695" lon="6.16699">
        <ele>541.36</ele>
        <time>2019-07-06T08:17:46Z</time>
      </trkpt>
      <trkpt lat="50.40729" lon="6.16781">
        <ele>542.8</ele>
        <time>2019-07-06T08:17:56Z</time>
      </trkpt>
      <trkpt lat="50.40733" lon="6.16789">
        <ele>542.8</ele>
        <time>2019-07-06T08:17:57Z</time>
      </trkpt>
      <trkpt lat="50.40737" lon="6.16796">
        <ele>542.8</ele>
        <time>2019-07-06T08:17:58Z</time>
      </trkpt>
      <trkpt lat="50.40741" lon="6.16804">
        <ele>542.8</ele>
        <time>2019-07-06T08:17:59Z</time>
      </trkpt>
      <trkpt lat="50.40744" lon="6.16812">
        <ele>542.8</ele>
        <time>2019-07-06T08:18:00Z</time>
      </trkpt>
      <trkpt lat="50.40747" lon="6.1682">
        <ele>543.28</ele>
        <time>2019-07-06T08:18:01Z</time>
      </trkpt>
      <trkpt lat="50.40754" lon="6.16836">
        <ele>543.28</ele>
        <time>2019-07-06T08:18:03Z</time>
      </trkpt>
      <trkpt lat="50.40804" lon="6.16948">
        <ele>545.2</ele>
        <time>2019-07-06T08:18:17Z</time>
      </trkpt>
      <trkpt lat="50.40867" lon="6.17068">
        <ele>546.65</ele>
        <time>2019-07-06T08:18:33Z</time>
      </trkpt>
      <trkpt lat="50.40882" lon="6.17085">
        <ele>547.13</ele>
        <time>2019-07-06T08:18:36Z</time>
      </trkpt>
      <trkpt lat="50.40913" lon="6.17117">
        <ele>547.61</ele>
        <time>2019-07-06T08:18:42Z</time>
      </trkpt>
      <trkpt lat="50.40978" lon="6.17175">
        <ele>549.05</ele>
        <time>2019-07-06T08:18:55Z</time>
      </trkpt>
      <trkpt lat="50.40983" lon="6.17177">
        <ele>549.53</ele>
        <time>2019-07-06T08:18:56Z</time>
      </trkpt>
      <trkpt lat="50.41047" lon="6.17196">
        <ele>550.01</ele>
        <time>2019-07-06T08:19:07Z</time>
      </trkpt>
      <trkpt lat="50.41115" lon="6.17211">
        <ele>550.97</ele>
        <time>2019-07-06T08:19:19Z</time>
      </trkpt>
      <trkpt lat="50.4119" lon="6.17226">
        <ele>551.93</ele>
        <time>2019-07-06T08:19:32Z</time>
      </trkpt>
      <trkpt lat="50.41256" lon="6.1724">
        <ele>553.86</ele>
        <time>2019-07-06T08:19:44Z</time>
      </trkpt>
      <trkpt lat="50.41328" lon="6.17254">
        <ele>554.82</ele>
        <time>2019-07-06T08:19:56Z</time>
      </trkpt>
      <trkpt lat="50.41419" lon="6.17273">
        <ele>556.26</ele>
        <time>2019-07-06T08:20:11Z</time>
      </trkpt>
      <trkpt lat="50.41461" lon="6.17275">
        <ele>556.74</ele>
        <time>2019-07-06T08:20:18Z</time>
      </trkpt>
      <trkpt lat="50.41537" lon="6.17266">
        <ele>557.22</ele>
        <time>2019-07-06T08:20:30Z</time>
      </trkpt>
      <trkpt lat="50.41641" lon="6.17243">
        <ele>557.7</ele>
        <time>2019-07-06T08:20:46Z</time>
      </trkpt>
      <trkpt lat="50.41737" lon="6.17199">
        <ele>557.7</ele>
        <time>2019-07-06T08:21:01Z</time>
      </trkpt>
      <trkpt lat="50.41831" lon="6.1715">
        <ele>557.7</ele>
        <time>2019-07-06T08:21:16Z</time>
      </trkpt>
      <trkpt lat="50.41931" lon="6.17092">
        <ele>557.7</ele>
        <time>2019-07-06T08:21:32Z</time>
      </trkpt>
      <trkpt lat="50.42041" lon="6.17028">
        <ele>558.18</ele>
        <time>2019-07-06T08:21:49Z</time>
      </trkpt>
      <trkpt lat="50.4215" lon="6.16978">
        <ele>558.18</ele>
        <time>2019-07-06T08:22:05Z</time>
      </trkpt>
      <trkpt lat="50.42254" lon="6.16943">
        <ele>558.18</ele>
        <time>2019-07-06T08:22:20Z</time>
      </trkpt>
      <trkpt lat="50.42329" lon="6.16933">
        <ele>558.66</ele>
        <time>2019-07-06T08:22:31Z</time>
      </trkpt>
      <trkpt lat="50.42424" lon="6.16958">
        <ele>558.66</ele>
        <time>2019-07-06T08:22:45Z</time>
      </trkpt>
      <trkpt lat="50.42443" lon="6.16968">
        <ele>557.22</ele>
        <time>2019-07-06T08:22:48Z</time>
      </trkpt>
      <trkpt lat="50.42527" lon="6.17037">
        <ele>555.78</ele>
        <time>2019-07-06T08:23:01Z</time>
      </trkpt>
      <trkpt lat="50.42597" lon="6.17152">
        <ele>554.82</ele>
        <time>2019-07-06T08:23:14Z</time>
      </trkpt>
      <trkpt lat="50.42624" lon="6.172">
        <ele>553.86</ele>
        <time>2019-07-06T08:23:19Z</time>
      </trkpt>
      <trkpt lat="50.42629" lon="6.17209">
        <ele>553.86</ele>
        <time>2019-07-06T08:23:20Z</time>
      </trkpt>
      <trkpt lat="50.42708" lon="6.17329">
        <ele>551.93</ele>
        <time>2019-07-06T08:23:34Z</time>
      </trkpt>
      <trkpt lat="50.42768" lon="6.17378">
        <ele>550.49</ele>
        <time>2019-07-06T08:23:45Z</time>
      </trkpt>
      <trkpt lat="50.42775" lon="6.17379">
        <ele>550.49</ele>
        <time>2019-07-06T08:23:51Z</time>
      </trkpt>
      <trkpt lat="50.42774" lon="6.17378">
        <ele>550.49</ele>
        <time>2019-07-06T08:23:53Z</time>
      </trkpt>
      <trkpt lat="50.42772" lon="6.17377">
        <ele>550.49</ele>
        <time>2019-07-06T08:23:54Z</time>
      </trkpt>
      <trkpt lat="50.42768" lon="6.17376">
        <ele>550.49</ele>
        <time>2019-07-06T08:23:56Z</time>
      </trkpt>
      <trkpt lat="50.42762" lon="6.17373">
        <ele>550.49</ele>
        <time>2019-07-06T08:24:00Z</time>
      </trkpt>
      <trkpt lat="50.4276" lon="6.17373">
        <ele>550.49</ele>
        <time>2019-07-06T08:24:11Z</time>
      </trkpt>
      <trkpt lat="50.42758" lon="6.17372">
        <ele>550.49</ele>
        <time>2019-07-06T08:24:17Z</time>
      </trkpt>
      <trkpt lat="50.42757" lon="6.17371">
        <ele>550.49</ele>
        <time>2019-07-06T08:24:18Z</time>
      </trkpt>
      <trkpt lat="50.42755" lon="6.17369">
        <ele>550.49</ele>
        <time>2019-07-06T08:24:19Z</time>
      </trkpt>
      <trkpt lat="50.42754" lon="6.17368">
        <ele>550.49</ele>
        <time>2019-07-06T08:24:20Z</time>
      </trkpt>
      <trkpt lat="50.42751" lon="6.17367">
        <ele>550.49</ele>
        <time>2019-07-06T08:24:21Z</time>
      </trkpt>
      <trkpt lat="50.42749" lon="6.17365">
        <ele>550.49</ele>
        <time>2019-07-06T08:24:22Z</time>
      </trkpt>
      <trkpt lat="50.42746" lon="6.17363">
        <ele>550.49</ele>
        <time>2019-07-06T08:24:23Z</time>
      </trkpt>
      <trkpt lat="50.42718" lon="6.17339">
        <ele>550.49</ele>
        <time>2019-07-06T08:24:35Z</time>
      </trkpt>
      <trkpt lat="50.42695" lon="6.17315">
        <ele>550.49</ele>
        <time>2019-07-06T08:24:42Z</time>
      </trkpt>
      <trkpt lat="50.42687" lon="6.17305">
        <ele>551.93</ele>
        <time>2019-07-06T08:24:44Z</time>
      </trkpt>
      <trkpt lat="50.42638" lon="6.17227">
        <ele>553.38</ele>
        <time>2019-07-06T08:24:56Z</time>
      </trkpt>
      <trkpt lat="50.42601" lon="6.17157">
        <ele>553.86</ele>
        <time>2019-07-06T08:25:08Z</time>
      </trkpt>
      <trkpt lat="50.42573" lon="6.17103">
        <ele>554.34</ele>
        <time>2019-07-06T08:25:17Z</time>
      </trkpt>
      <trkpt lat="50.42559" lon="6.1708">
        <ele>555.3</ele>
        <time>2019-07-06T08:25:21Z</time>
      </trkpt>
      <trkpt lat="50.42548" lon="6.17063">
        <ele>555.3</ele>
        <time>2019-07-06T08:25:24Z</time>
      </trkpt>
      <trkpt lat="50.42544" lon="6.17058">
        <ele>555.3</ele>
        <time>2019-07-06T08:25:25Z</time>
      </trkpt>
      <trkpt lat="50.4254" lon="6.17053">
        <ele>555.3</ele>
        <time>2019-07-06T08:25:26Z</time>
      </trkpt>
      <trkpt lat="50.42536" lon="6.17048">
        <ele>555.3</ele>
        <time>2019-07-06T08:25:27Z</time>
      </trkpt>
      <trkpt lat="50.42533" lon="6.17043">
        <ele>555.3</ele>
        <time>2019-07-06T08:25:28Z</time>
      </trkpt>
      <trkpt lat="50.4253" lon="6.17038">
        <ele>555.78</ele>
        <time>2019-07-06T08:25:29Z</time>
      </trkpt>
      <trkpt lat="50.42526" lon="6.17033">
        <ele>555.78</ele>
        <time>2019-07-06T08:25:30Z</time>
      </trkpt>
      <trkpt lat="50.42522" lon="6.17029">
        <ele>555.78</ele>
        <time>2019-07-06T08:25:31Z</time>
      </trkpt>
      <trkpt lat="50.42518" lon="6.17026">
        <ele>555.78</ele>
        <time>2019-07-06T08:25:32Z</time>
      </trkpt>
      <trkpt lat="50.42498" lon="6.17008">
        <ele>555.78</ele>
        <time>2019-07-06T08:25:38Z</time>
      </trkpt>
      <trkpt lat="50.42489" lon="6.16999">
        <ele>555.78</ele>
        <time>2019-07-06T08:25:40Z</time>
      </trkpt>
      <trkpt lat="50.42485" lon="6.16996">
        <ele>556.26</ele>
        <time>2019-07-06T08:25:41Z</time>
      </trkpt>
      <trkpt lat="50.4248" lon="6.16992">
        <ele>556.26</ele>
        <time>2019-07-06T08:25:42Z</time>
      </trkpt>
      <trkpt lat="50.42476" lon="6.16989">
        <ele>556.26</ele>
        <time>2019-07-06T08:25:43Z</time>
      </trkpt>
      <trkpt lat="50.42471" lon="6.16985">
        <ele>556.26</ele>
        <time>2019-07-06T08:25:44Z</time>
      </trkpt>
      <trkpt lat="50.42462" lon="6.16978">
        <ele>556.74</ele>
        <time>2019-07-06T08:25:46Z</time>
      </trkpt>
      <trkpt lat="50.42419" lon="6.16954">
        <ele>557.22</ele>
        <time>2019-07-06T08:25:55Z</time>
      </trkpt>
      <trkpt lat="50.42415" lon="6.16952">
        <ele>557.22</ele>
        <time>2019-07-06T08:25:56Z</time>
      </trkpt>
      <trkpt lat="50.42412" lon="6.16953">
        <ele>557.22</ele>
        <time>2019-07-06T08:25:57Z</time>
      </trkpt>
      <trkpt lat="50.42411" lon="6.16958">
        <ele>557.7</ele>
        <time>2019-07-06T08:25:58Z</time>
      </trkpt>
      <trkpt lat="50.42415" lon="6.16968">
        <ele>557.7</ele>
        <time>2019-07-06T08:26:00Z</time>
      </trkpt>
      <trkpt lat="50.42419" lon="6.16971">
        <ele>557.7</ele>
        <time>2019-07-06T08:26:01Z</time>
      </trkpt>
      <trkpt lat="50.42423" lon="6.16973">
        <ele>557.7</ele>
        <time>2019-07-06T08:26:02Z</time>
      </trkpt>
      <trkpt lat="50.42429" lon="6.16976">
        <ele>557.7</ele>
        <time>2019-07-06T08:26:03Z</time>
      </trkpt>
      <trkpt lat="50.42453" lon="6.16992">
        <ele>557.7</ele>
        <time>2019-07-06T08:26:07Z</time>
      </trkpt>
      <trkpt lat="50.42459" lon="6.16996">
        <ele>557.7</ele>
        <time>2019-07-06T08:26:08Z</time>
      </trkpt>
      <trkpt lat="50.42523" lon="6.17064">
        <ele>557.7</ele>
        <time>2019-07-06T08:26:21Z</time>
      </trkpt>
      <trkpt lat="50.42528" lon="6.17071">
        <ele>557.7</ele>
        <time>2019-07-06T08:26:22Z</time>
      </trkpt>
      <trkpt lat="50.42533" lon="6.17079">
        <ele>557.7</ele>
        <time>2019-07-06T08:26:23Z</time>
      </trkpt>
      <trkpt lat="50.42581" lon="6.17162">
        <ele>558.18</ele>
        <time>2019-07-06T08:26:34Z</time>
      </trkpt>
      <trkpt lat="50.42609" lon="6.17219">
        <ele>558.66</ele>
        <time>2019-07-06T08:26:41Z</time>
      </trkpt>
      <trkpt lat="50.42614" lon="6.17226">
        <ele>558.66</ele>
        <time>2019-07-06T08:26:42Z</time>
      </trkpt>
      <trkpt lat="50.42677" lon="6.17374">
        <ele>559.14</ele>
        <time>2019-07-06T08:26:59Z</time>
      </trkpt>
      <trkpt lat="50.42709" lon="6.17527">
        <ele>560.11</ele>
        <time>2019-07-06T08:27:14Z</time>
      </trkpt>
      <trkpt lat="50.42728" lon="6.17719">
        <ele>560.11</ele>
        <time>2019-07-06T08:27:32Z</time>
      </trkpt>
      <trkpt lat="50.42746" lon="6.17891">
        <ele>560.59</ele>
        <time>2019-07-06T08:27:48Z</time>
      </trkpt>
      <trkpt lat="50.42765" lon="6.18046">
        <ele>560.59</ele>
        <time>2019-07-06T08:28:02Z</time>
      </trkpt>
      <trkpt lat="50.42779" lon="6.18214">
        <ele>561.07</ele>
        <time>2019-07-06T08:28:17Z</time>
      </trkpt>
      <trkpt lat="50.42797" lon="6.18367">
        <ele>559.62</ele>
        <time>2019-07-06T08:28:31Z</time>
      </trkpt>
      <trkpt lat="50.42831" lon="6.18499">
        <ele>560.59</ele>
        <time>2019-07-06T08:28:44Z</time>
      </trkpt>
      <trkpt lat="50.42906" lon="6.18631">
        <ele>561.07</ele>
        <time>2019-07-06T08:29:00Z</time>
      </trkpt>
      <trkpt lat="50.4301" lon="6.1872">
        <ele>561.07</ele>
        <time>2019-07-06T08:29:17Z</time>
      </trkpt>
      <trkpt lat="50.43133" lon="6.18805">
        <ele>561.07</ele>
        <time>2019-07-06T08:29:36Z</time>
      </trkpt>
      <trkpt lat="50.43218" lon="6.189">
        <ele>561.07</ele>
        <time>2019-07-06T08:29:51Z</time>
      </trkpt>
      <trkpt lat="50.43279" lon="6.19035">
        <ele>561.07</ele>
        <time>2019-07-06T08:30:06Z</time>
      </trkpt>
      <trkpt lat="50.4331" lon="6.19173">
        <ele>561.55</ele>
        <time>2019-07-06T08:30:19Z</time>
      </trkpt>
      <trkpt lat="50.43315" lon="6.19308">
        <ele>561.55</ele>
        <time>2019-07-06T08:30:31Z</time>
      </trkpt>
      <trkpt lat="50.43318" lon="6.19442">
        <ele>560.59</ele>
        <time>2019-07-06T08:30:43Z</time>
      </trkpt>
      <trkpt lat="50.43323" lon="6.19597">
        <ele>562.03</ele>
        <time>2019-07-06T08:30:57Z</time>
      </trkpt>
      <trkpt lat="50.43326" lon="6.19699">
        <ele>562.03</ele>
        <time>2019-07-06T08:31:06Z</time>
      </trkpt>
      <trkpt lat="50.43333" lon="6.1986">
        <ele>562.03</ele>
        <time>2019-07-06T08:31:20Z</time>
      </trkpt>
      <trkpt lat="50.4334" lon="6.20057">
        <ele>562.03</ele>
        <time>2019-07-06T08:31:37Z</time>
      </trkpt>
      <trkpt lat="50.43347" lon="6.20261">
        <ele>562.03</ele>
        <time>2019-07-06T08:31:55Z</time>
      </trkpt>
      <trkpt lat="50.43352" lon="6.20447">
        <ele>562.03</ele>
        <time>2019-07-06T08:32:12Z</time>
      </trkpt>
      <trkpt lat="50.43349" lon="6.20614">
        <ele>562.03</ele>
        <time>2019-07-06T08:32:27Z</time>
      </trkpt>
      <trkpt lat="50.43339" lon="6.20667">
        <ele>562.03</ele>
        <time>2019-07-06T08:32:32Z</time>
      </trkpt>
      <trkpt lat="50.43336" lon="6.20677">
        <ele>562.03</ele>
        <time>2019-07-06T08:32:33Z</time>
      </trkpt>
      <trkpt lat="50.43334" lon="6.20687">
        <ele>562.03</ele>
        <time>2019-07-06T08:32:34Z</time>
      </trkpt>
      <trkpt lat="50.43323" lon="6.20726">
        <ele>562.03</ele>
        <time>2019-07-06T08:32:38Z</time>
      </trkpt>
      <trkpt lat="50.4332" lon="6.20735">
        <ele>562.03</ele>
        <time>2019-07-06T08:32:39Z</time>
      </trkpt>
      <trkpt lat="50.43297" lon="6.20789">
        <ele>562.03</ele>
        <time>2019-07-06T08:32:45Z</time>
      </trkpt>
      <trkpt lat="50.43284" lon="6.20813">
        <ele>562.51</ele>
        <time>2019-07-06T08:32:48Z</time>
      </trkpt>
      <trkpt lat="50.4327" lon="6.20835">
        <ele>562.51</ele>
        <time>2019-07-06T08:32:51Z</time>
      </trkpt>
      <trkpt lat="50.43258" lon="6.20848">
        <ele>562.51</ele>
        <time>2019-07-06T08:32:53Z</time>
      </trkpt>
      <trkpt lat="50.4319" lon="6.20913">
        <ele>562.51</ele>
        <time>2019-07-06T08:33:04Z</time>
      </trkpt>
      <trkpt lat="50.4311" lon="6.20974">
        <ele>562.51</ele>
        <time>2019-07-06T08:33:16Z</time>
      </trkpt>
      <trkpt lat="50.43021" lon="6.21045">
        <ele>562.99</ele>
        <time>2019-07-06T08:33:30Z</time>
      </trkpt>
      <trkpt lat="50.43017" lon="6.2105">
        <ele>562.99</ele>
        <time>2019-07-06T08:33:31Z</time>
      </trkpt>
      <trkpt lat="50.43012" lon="6.21055">
        <ele>562.99</ele>
        <time>2019-07-06T08:33:32Z</time>
      </trkpt>
      <trkpt lat="50.43007" lon="6.21059">
        <ele>562.99</ele>
        <time>2019-07-06T08:33:33Z</time>
      </trkpt>
      <trkpt lat="50.43" lon="6.21065">
        <ele>562.99</ele>
        <time>2019-07-06T08:33:34Z</time>
      </trkpt>
      <trkpt lat="50.42995" lon="6.2107">
        <ele>562.99</ele>
        <time>2019-07-06T08:33:35Z</time>
      </trkpt>
      <trkpt lat="50.42927" lon="6.21125">
        <ele>562.99</ele>
        <time>2019-07-06T08:33:46Z</time>
      </trkpt>
      <trkpt lat="50.42828" lon="6.21205">
        <ele>562.99</ele>
        <time>2019-07-06T08:34:01Z</time>
      </trkpt>
      <trkpt lat="50.42732" lon="6.21283">
        <ele>562.99</ele>
        <time>2019-07-06T08:34:16Z</time>
      </trkpt>
      <trkpt lat="50.42677" lon="6.21331">
        <ele>562.99</ele>
        <time>2019-07-06T08:34:25Z</time>
      </trkpt>
      <trkpt lat="50.42596" lon="6.21426">
        <ele>562.99</ele>
        <time>2019-07-06T08:34:39Z</time>
      </trkpt>
      <trkpt lat="50.42544" lon="6.21548">
        <ele>562.99</ele>
        <time>2019-07-06T08:34:52Z</time>
      </trkpt>
      <trkpt lat="50.42527" lon="6.21624">
        <ele>562.99</ele>
        <time>2019-07-06T08:34:59Z</time>
      </trkpt>
      <trkpt lat="50.42525" lon="6.21635">
        <ele>562.99</ele>
        <time>2019-07-06T08:35:00Z</time>
      </trkpt>
      <trkpt lat="50.42494" lon="6.21811">
        <ele>562.03</ele>
        <time>2019-07-06T08:35:16Z</time>
      </trkpt>
      <trkpt lat="50.42475" lon="6.21931">
        <ele>562.03</ele>
        <time>2019-07-06T08:35:27Z</time>
      </trkpt>
      <trkpt lat="50.42474" lon="6.21944">
        <ele>562.03</ele>
        <time>2019-07-06T08:35:28Z</time>
      </trkpt>
      <trkpt lat="50.42473" lon="6.21955">
        <ele>562.03</ele>
        <time>2019-07-06T08:35:29Z</time>
      </trkpt>
      <trkpt lat="50.42442" lon="6.22132">
        <ele>562.03</ele>
        <time>2019-07-06T08:35:45Z</time>
      </trkpt>
      <trkpt lat="50.42416" lon="6.22275">
        <ele>562.03</ele>
        <time>2019-07-06T08:35:58Z</time>
      </trkpt>
      <trkpt lat="50.42384" lon="6.22452">
        <ele>562.03</ele>
        <time>2019-07-06T08:36:14Z</time>
      </trkpt>
      <trkpt lat="50.42351" lon="6.2263">
        <ele>562.03</ele>
        <time>2019-07-06T08:36:30Z</time>
      </trkpt>
      <trkpt lat="50.42326" lon="6.22786">
        <ele>562.03</ele>
        <time>2019-07-06T08:36:44Z</time>
      </trkpt>
      <trkpt lat="50.42325" lon="6.22874">
        <ele>562.03</ele>
        <time>2019-07-06T08:36:52Z</time>
      </trkpt>
      <trkpt lat="50.42324" lon="6.22897">
        <ele>562.03</ele>
        <time>2019-07-06T08:36:54Z</time>
      </trkpt>
      <trkpt lat="50.42325" lon="6.22908">
        <ele>562.03</ele>
        <time>2019-07-06T08:36:55Z</time>
      </trkpt>
      <trkpt lat="50.42341" lon="6.23015">
        <ele>562.03</ele>
        <time>2019-07-06T08:37:05Z</time>
      </trkpt>
      <trkpt lat="50.42362" lon="6.23097">
        <ele>562.03</ele>
        <time>2019-07-06T08:37:13Z</time>
      </trkpt>
      <trkpt lat="50.4237" lon="6.23116">
        <ele>562.03</ele>
        <time>2019-07-06T08:37:15Z</time>
      </trkpt>
      <trkpt lat="50.42377" lon="6.23135">
        <ele>562.03</ele>
        <time>2019-07-06T08:37:17Z</time>
      </trkpt>
      <trkpt lat="50.42397" lon="6.23196">
        <ele>562.03</ele>
        <time>2019-07-06T08:37:23Z</time>
      </trkpt>
      <trkpt lat="50.424" lon="6.23206">
        <ele>562.03</ele>
        <time>2019-07-06T08:37:24Z</time>
      </trkpt>
      <trkpt lat="50.42417" lon="6.23256">
        <ele>562.03</ele>
        <time>2019-07-06T08:37:29Z</time>
      </trkpt>
      <trkpt lat="50.42421" lon="6.23265">
        <ele>562.51</ele>
        <time>2019-07-06T08:37:30Z</time>
      </trkpt>
      <trkpt lat="50.42461" lon="6.23414">
        <ele>562.51</ele>
        <time>2019-07-06T08:37:44Z</time>
      </trkpt>
      <trkpt lat="50.42475" lon="6.23562">
        <ele>562.51</ele>
        <time>2019-07-06T08:37:57Z</time>
      </trkpt>
      <trkpt lat="50.42469" lon="6.23709">
        <ele>562.51</ele>
        <time>2019-07-06T08:38:10Z</time>
      </trkpt>
      <trkpt lat="50.42443" lon="6.23861">
        <ele>562.51</ele>
        <time>2019-07-06T08:38:24Z</time>
      </trkpt>
      <trkpt lat="50.42419" lon="6.24035">
        <ele>562.51</ele>
        <time>2019-07-06T08:38:40Z</time>
      </trkpt>
      <trkpt lat="50.42409" lon="6.24089">
        <ele>562.51</ele>
        <time>2019-07-06T08:38:45Z</time>
      </trkpt>
      <trkpt lat="50.42381" lon="6.24267">
        <ele>562.51</ele>
        <time>2019-07-06T08:39:01Z</time>
      </trkpt>
      <trkpt lat="50.42354" lon="6.24412">
        <ele>562.51</ele>
        <time>2019-07-06T08:39:14Z</time>
      </trkpt>
      <trkpt lat="50.42348" lon="6.24433">
        <ele>562.51</ele>
        <time>2019-07-06T08:39:16Z</time>
      </trkpt>
      <trkpt lat="50.423" lon="6.24569">
        <ele>562.51</ele>
        <time>2019-07-06T08:39:30Z</time>
      </trkpt>
      <trkpt lat="50.42296" lon="6.24579">
        <ele>562.51</ele>
        <time>2019-07-06T08:39:31Z</time>
      </trkpt>
      <trkpt lat="50.42264" lon="6.24654">
        <ele>562.51</ele>
        <time>2019-07-06T08:39:39Z</time>
      </trkpt>
      <trkpt lat="50.42246" lon="6.24699">
        <ele>562.51</ele>
        <time>2019-07-06T08:39:45Z</time>
      </trkpt>
      <trkpt lat="50.42232" lon="6.24724">
        <ele>562.99</ele>
        <time>2019-07-06T08:39:52Z</time>
      </trkpt>
      <trkpt lat="50.42232" lon="6.24729">
        <ele>562.51</ele>
        <time>2019-07-06T08:39:55Z</time>
      </trkpt>
      <trkpt lat="50.42233" lon="6.24731">
        <ele>562.51</ele>
        <time>2019-07-06T08:39:56Z</time>
      </trkpt>
      <trkpt lat="50.42234" lon="6.24731">
        <ele>562.51</ele>
        <time>2019-07-06T08:39:57Z</time>
      </trkpt>
      <trkpt lat="50.42236" lon="6.24729">
        <ele>562.51</ele>
        <time>2019-07-06T08:39:58Z</time>
      </trkpt>
      <trkpt lat="50.42238" lon="6.24727">
        <ele>562.51</ele>
        <time>2019-07-06T08:39:59Z</time>
      </trkpt>
      <trkpt lat="50.42239" lon="6.24722">
        <ele>562.51</ele>
        <time>2019-07-06T08:40:09Z</time>
      </trkpt>
      <trkpt lat="50.4224" lon="6.24721">
        <ele>562.51</ele>
        <time>2019-07-06T08:40:10Z</time>
      </trkpt>
      <trkpt lat="50.42254" lon="6.24704">
        <ele>561.07</ele>
        <time>2019-07-06T08:40:16Z</time>
      </trkpt>
      <trkpt lat="50.42267" lon="6.24679">
        <ele>560.11</ele>
        <time>2019-07-06T08:40:20Z</time>
      </trkpt>
      <trkpt lat="50.42273" lon="6.24675">
        <ele>559.14</ele>
        <time>2019-07-06T08:40:21Z</time>
      </trkpt>
      <trkpt lat="50.42279" lon="6.24674">
        <ele>558.66</ele>
        <time>2019-07-06T08:40:22Z</time>
      </trkpt>
      <trkpt lat="50.42286" lon="6.24676">
        <ele>558.18</ele>
        <time>2019-07-06T08:40:23Z</time>
      </trkpt>
      <trkpt lat="50.42293" lon="6.24679">
        <ele>558.18</ele>
        <time>2019-07-06T08:40:24Z</time>
      </trkpt>
      <trkpt lat="50.42301" lon="6.24683">
        <ele>556.74</ele>
        <time>2019-07-06T08:40:25Z</time>
      </trkpt>
      <trkpt lat="50.42308" lon="6.24685">
        <ele>555.78</ele>
        <time>2019-07-06T08:40:26Z</time>
      </trkpt>
      <trkpt lat="50.42321" lon="6.2469">
        <ele>555.3</ele>
        <time>2019-07-06T08:40:28Z</time>
      </trkpt>
      <trkpt lat="50.42327" lon="6.24694">
        <ele>553.86</ele>
        <time>2019-07-06T08:40:29Z</time>
      </trkpt>
      <trkpt lat="50.42332" lon="6.24699">
        <ele>553.38</ele>
        <time>2019-07-06T08:40:30Z</time>
      </trkpt>
      <trkpt lat="50.42336" lon="6.24707">
        <ele>553.38</ele>
        <time>2019-07-06T08:40:31Z</time>
      </trkpt>
      <trkpt lat="50.42337" lon="6.24716">
        <ele>552.9</ele>
        <time>2019-07-06T08:40:32Z</time>
      </trkpt>
      <trkpt lat="50.42338" lon="6.24727">
        <ele>552.9</ele>
        <time>2019-07-06T08:40:33Z</time>
      </trkpt>
      <trkpt lat="50.4234" lon="6.24737">
        <ele>552.9</ele>
        <time>2019-07-06T08:40:34Z</time>
      </trkpt>
      <trkpt lat="50.42342" lon="6.24747">
        <ele>552.9</ele>
        <time>2019-07-06T08:40:35Z</time>
      </trkpt>
      <trkpt lat="50.42344" lon="6.24757">
        <ele>552.9</ele>
        <time>2019-07-06T08:40:36Z</time>
      </trkpt>
      <trkpt lat="50.42348" lon="6.24766">
        <ele>552.41</ele>
        <time>2019-07-06T08:40:37Z</time>
      </trkpt>
      <trkpt lat="50.42351" lon="6.24776">
        <ele>552.41</ele>
        <time>2019-07-06T08:40:38Z</time>
      </trkpt>
      <trkpt lat="50.42354" lon="6.24785">
        <ele>552.9</ele>
        <time>2019-07-06T08:40:39Z</time>
      </trkpt>
      <trkpt lat="50.42378" lon="6.24882">
        <ele>552.9</ele>
        <time>2019-07-06T08:40:49Z</time>
      </trkpt>
      <trkpt lat="50.42378" lon="6.24891">
        <ele>552.9</ele>
        <time>2019-07-06T08:40:50Z</time>
      </trkpt>
      <trkpt lat="50.42377" lon="6.249">
        <ele>552.9</ele>
        <time>2019-07-06T08:40:51Z</time>
      </trkpt>
      <trkpt lat="50.42376" lon="6.24907">
        <ele>553.86</ele>
        <time>2019-07-06T08:40:52Z</time>
      </trkpt>
      <trkpt lat="50.42373" lon="6.24913">
        <ele>553.86</ele>
        <time>2019-07-06T08:40:53Z</time>
      </trkpt>
      <trkpt lat="50.42371" lon="6.24919">
        <ele>553.86</ele>
        <time>2019-07-06T08:40:54Z</time>
      </trkpt>
      <trkpt lat="50.42344" lon="6.24975">
        <ele>556.74</ele>
        <time>2019-07-06T08:41:05Z</time>
      </trkpt>
      <trkpt lat="50.42336" lon="6.25004">
        <ele>557.7</ele>
        <time>2019-07-06T08:41:10Z</time>
      </trkpt>
      <trkpt lat="50.42334" lon="6.25009">
        <ele>558.18</ele>
        <time>2019-07-06T08:41:11Z</time>
      </trkpt>
      <trkpt lat="50.4233" lon="6.25022">
        <ele>558.66</ele>
        <time>2019-07-06T08:41:13Z</time>
      </trkpt>
      <trkpt lat="50.4232" lon="6.25108">
        <ele>561.55</ele>
        <time>2019-07-06T08:41:27Z</time>
      </trkpt>
      <trkpt lat="50.42324" lon="6.25191">
        <ele>563.95</ele>
        <time>2019-07-06T08:41:40Z</time>
      </trkpt>
      <trkpt lat="50.42322" lon="6.25293">
        <ele>565.87</ele>
        <time>2019-07-06T08:41:55Z</time>
      </trkpt>
      <trkpt lat="50.42321" lon="6.25336">
        <ele>567.32</ele>
        <time>2019-07-06T08:42:01Z</time>
      </trkpt>
      <trkpt lat="50.42322" lon="6.25343">
        <ele>567.32</ele>
        <time>2019-07-06T08:42:02Z</time>
      </trkpt>
      <trkpt lat="50.42324" lon="6.25357">
        <ele>567.32</ele>
        <time>2019-07-06T08:42:04Z</time>
      </trkpt>
      <trkpt lat="50.42326" lon="6.25363">
        <ele>567.32</ele>
        <time>2019-07-06T08:42:05Z</time>
      </trkpt>
      <trkpt lat="50.42327" lon="6.2537">
        <ele>567.8</ele>
        <time>2019-07-06T08:42:06Z</time>
      </trkpt>
      <trkpt lat="50.42329" lon="6.25376">
        <ele>567.8</ele>
        <time>2019-07-06T08:42:07Z</time>
      </trkpt>
      <trkpt lat="50.42332" lon="6.25381">
        <ele>568.28</ele>
        <time>2019-07-06T08:42:08Z</time>
      </trkpt>
      <trkpt lat="50.42335" lon="6.25386">
        <ele>568.28</ele>
        <time>2019-07-06T08:42:09Z</time>
      </trkpt>
      <trkpt lat="50.42338" lon="6.25391">
        <ele>568.28</ele>
        <time>2019-07-06T08:42:10Z</time>
      </trkpt>
      <trkpt lat="50.42341" lon="6.25394">
        <ele>568.76</ele>
        <time>2019-07-06T08:42:11Z</time>
      </trkpt>
      <trkpt lat="50.42345" lon="6.25398">
        <ele>568.76</ele>
        <time>2019-07-06T08:42:12Z</time>
      </trkpt>
      <trkpt lat="50.42357" lon="6.25406">
        <ele>568.76</ele>
        <time>2019-07-06T08:42:15Z</time>
      </trkpt>
      <trkpt lat="50.42369" lon="6.25409">
        <ele>569.72</ele>
        <time>2019-07-06T08:42:18Z</time>
      </trkpt>
      <trkpt lat="50.42374" lon="6.25408">
        <ele>569.72</ele>
        <time>2019-07-06T08:42:19Z</time>
      </trkpt>
      <trkpt lat="50.42377" lon="6.25407">
        <ele>569.72</ele>
        <time>2019-07-06T08:42:20Z</time>
      </trkpt>
      <trkpt lat="50.4238" lon="6.25409">
        <ele>569.72</ele>
        <time>2019-07-06T08:42:21Z</time>
      </trkpt>
      <trkpt lat="50.42383" lon="6.25414">
        <ele>569.72</ele>
        <time>2019-07-06T08:42:22Z</time>
      </trkpt>
      <trkpt lat="50.42386" lon="6.25419">
        <ele>569.72</ele>
        <time>2019-07-06T08:42:23Z</time>
      </trkpt>
      <trkpt lat="50.42389" lon="6.25426">
        <ele>569.72</ele>
        <time>2019-07-06T08:42:24Z</time>
      </trkpt>
      <trkpt lat="50.42392" lon="6.25433">
        <ele>569.72</ele>
        <time>2019-07-06T08:42:25Z</time>
      </trkpt>
      <trkpt lat="50.42394" lon="6.25442">
        <ele>568.76</ele>
        <time>2019-07-06T08:42:26Z</time>
      </trkpt>
      <trkpt lat="50.42396" lon="6.25453">
        <ele>568.28</ele>
        <time>2019-07-06T08:42:27Z</time>
      </trkpt>
      <trkpt lat="50.42396" lon="6.25465">
        <ele>567.32</ele>
        <time>2019-07-06T08:42:28Z</time>
      </trkpt>
      <trkpt lat="50.42396" lon="6.25478">
        <ele>566.83</ele>
        <time>2019-07-06T08:42:29Z</time>
      </trkpt>
      <trkpt lat="50.42397" lon="6.25492">
        <ele>566.35</ele>
        <time>2019-07-06T08:42:30Z</time>
      </trkpt>
      <trkpt lat="50.424" lon="6.25508">
        <ele>565.39</ele>
        <time>2019-07-06T08:42:31Z</time>
      </trkpt>
      <trkpt lat="50.42404" lon="6.25522">
        <ele>564.43</ele>
        <time>2019-07-06T08:42:32Z</time>
      </trkpt>
      <trkpt lat="50.4241" lon="6.25537">
        <ele>563.47</ele>
        <time>2019-07-06T08:42:33Z</time>
      </trkpt>
      <trkpt lat="50.42417" lon="6.25551">
        <ele>562.03</ele>
        <time>2019-07-06T08:42:34Z</time>
      </trkpt>
      <trkpt lat="50.42425" lon="6.25565">
        <ele>561.07</ele>
        <time>2019-07-06T08:42:35Z</time>
      </trkpt>
      <trkpt lat="50.42449" lon="6.25611">
        <ele>558.18</ele>
        <time>2019-07-06T08:42:38Z</time>
      </trkpt>
      <trkpt lat="50.42483" lon="6.25669">
        <ele>554.82</ele>
        <time>2019-07-06T08:42:42Z</time>
      </trkpt>
      <trkpt lat="50.42491" lon="6.25685">
        <ele>554.34</ele>
        <time>2019-07-06T08:42:43Z</time>
      </trkpt>
      <trkpt lat="50.42497" lon="6.25702">
        <ele>554.34</ele>
        <time>2019-07-06T08:42:44Z</time>
      </trkpt>
      <trkpt lat="50.42501" lon="6.25719">
        <ele>553.86</ele>
        <time>2019-07-06T08:42:45Z</time>
      </trkpt>
      <trkpt lat="50.42535" lon="6.25872">
        <ele>553.86</ele>
        <time>2019-07-06T08:42:55Z</time>
      </trkpt>
      <trkpt lat="50.42543" lon="6.25904">
        <ele>553.86</ele>
        <time>2019-07-06T08:42:58Z</time>
      </trkpt>
      <trkpt lat="50.42548" lon="6.25909">
        <ele>553.86</ele>
        <time>2019-07-06T08:42:59Z</time>
      </trkpt>
      <trkpt lat="50.42554" lon="6.25911">
        <ele>553.86</ele>
        <time>2019-07-06T08:43:00Z</time>
      </trkpt>
      <trkpt lat="50.42573" lon="6.25918">
        <ele>553.86</ele>
        <time>2019-07-06T08:43:03Z</time>
      </trkpt>
      <trkpt lat="50.42643" lon="6.25978">
        <ele>555.78</ele>
        <time>2019-07-06T08:43:16Z</time>
      </trkpt>
      <trkpt lat="50.42648" lon="6.25982">
        <ele>555.78</ele>
        <time>2019-07-06T08:43:17Z</time>
      </trkpt>
      <trkpt lat="50.42673" lon="6.26001">
        <ele>557.7</ele>
        <time>2019-07-06T08:43:22Z</time>
      </trkpt>
      <trkpt lat="50.42677" lon="6.26006">
        <ele>557.7</ele>
        <time>2019-07-06T08:43:23Z</time>
      </trkpt>
      <trkpt lat="50.42688" lon="6.26025">
        <ele>558.18</ele>
        <time>2019-07-06T08:43:26Z</time>
      </trkpt>
      <trkpt lat="50.427" lon="6.26053">
        <ele>558.66</ele>
        <time>2019-07-06T08:43:30Z</time>
      </trkpt>
      <trkpt lat="50.42741" lon="6.26166">
        <ele>560.11</ele>
        <time>2019-07-06T08:43:46Z</time>
      </trkpt>
      <trkpt lat="50.42743" lon="6.26171">
        <ele>560.11</ele>
        <time>2019-07-06T08:43:47Z</time>
      </trkpt>
      <trkpt lat="50.42748" lon="6.26186">
        <ele>560.11</ele>
        <time>2019-07-06T08:43:50Z</time>
      </trkpt>
      <trkpt lat="50.42748" lon="6.26194">
        <ele>560.11</ele>
        <time>2019-07-06T08:43:51Z</time>
      </trkpt>
      <trkpt lat="50.42747" lon="6.26201">
        <ele>560.11</ele>
        <time>2019-07-06T08:43:52Z</time>
      </trkpt>
      <trkpt lat="50.42744" lon="6.2621">
        <ele>560.11</ele>
        <time>2019-07-06T08:43:53Z</time>
      </trkpt>
      <trkpt lat="50.42741" lon="6.26216">
        <ele>560.11</ele>
        <time>2019-07-06T08:43:54Z</time>
      </trkpt>
      <trkpt lat="50.42736" lon="6.26223">
        <ele>560.11</ele>
        <time>2019-07-06T08:43:55Z</time>
      </trkpt>
      <trkpt lat="50.42731" lon="6.26229">
        <ele>560.11</ele>
        <time>2019-07-06T08:43:56Z</time>
      </trkpt>
      <trkpt lat="50.42726" lon="6.26233">
        <ele>560.11</ele>
        <time>2019-07-06T08:43:57Z</time>
      </trkpt>
      <trkpt lat="50.42721" lon="6.26237">
        <ele>560.11</ele>
        <time>2019-07-06T08:43:58Z</time>
      </trkpt>
      <trkpt lat="50.42716" lon="6.2624">
        <ele>560.11</ele>
        <time>2019-07-06T08:43:59Z</time>
      </trkpt>
      <trkpt lat="50.4271" lon="6.26242">
        <ele>560.11</ele>
        <time>2019-07-06T08:44:00Z</time>
      </trkpt>
      <trkpt lat="50.42705" lon="6.26243">
        <ele>560.59</ele>
        <time>2019-07-06T08:44:01Z</time>
      </trkpt>
      <trkpt lat="50.427" lon="6.26243">
        <ele>560.59</ele>
        <time>2019-07-06T08:44:02Z</time>
      </trkpt>
      <trkpt lat="50.42695" lon="6.26243">
        <ele>560.59</ele>
        <time>2019-07-06T08:44:03Z</time>
      </trkpt>
      <trkpt lat="50.4269" lon="6.26241">
        <ele>560.59</ele>
        <time>2019-07-06T08:44:04Z</time>
      </trkpt>
      <trkpt lat="50.42656" lon="6.26224">
        <ele>562.03</ele>
        <time>2019-07-06T08:44:11Z</time>
      </trkpt>
      <trkpt lat="50.42652" lon="6.26226">
        <ele>562.51</ele>
        <time>2019-07-06T08:44:12Z</time>
      </trkpt>
      <trkpt lat="50.42648" lon="6.2623">
        <ele>562.51</ele>
        <time>2019-07-06T08:44:13Z</time>
      </trkpt>
      <trkpt lat="50.42645" lon="6.26237">
        <ele>562.99</ele>
        <time>2019-07-06T08:44:14Z</time>
      </trkpt>
      <trkpt lat="50.42644" lon="6.26244">
        <ele>562.99</ele>
        <time>2019-07-06T08:44:15Z</time>
      </trkpt>
      <trkpt lat="50.42643" lon="6.2625">
        <ele>562.99</ele>
        <time>2019-07-06T08:44:16Z</time>
      </trkpt>
      <trkpt lat="50.42642" lon="6.26263">
        <ele>563.47</ele>
        <time>2019-07-06T08:44:18Z</time>
      </trkpt>
      <trkpt lat="50.42643" lon="6.26269">
        <ele>563.47</ele>
        <time>2019-07-06T08:44:19Z</time>
      </trkpt>
      <trkpt lat="50.42644" lon="6.26275">
        <ele>563.95</ele>
        <time>2019-07-06T08:44:20Z</time>
      </trkpt>
      <trkpt lat="50.42645" lon="6.26281">
        <ele>564.43</ele>
        <time>2019-07-06T08:44:21Z</time>
      </trkpt>
      <trkpt lat="50.42647" lon="6.26287">
        <ele>564.91</ele>
        <time>2019-07-06T08:44:22Z</time>
      </trkpt>
      <trkpt lat="50.42648" lon="6.26292">
        <ele>565.87</ele>
        <time>2019-07-06T08:44:23Z</time>
      </trkpt>
      <trkpt lat="50.4265" lon="6.26298">
        <ele>565.87</ele>
        <time>2019-07-06T08:44:24Z</time>
      </trkpt>
      <trkpt lat="50.42663" lon="6.26347">
        <ele>568.76</ele>
        <time>2019-07-06T08:44:33Z</time>
      </trkpt>
      <trkpt lat="50.42682" lon="6.26398">
        <ele>572.12</ele>
        <time>2019-07-06T08:44:44Z</time>
      </trkpt>
      <trkpt lat="50.42723" lon="6.26454">
        <ele>575.01</ele>
        <time>2019-07-06T08:44:58Z</time>
      </trkpt>
      <trkpt lat="50.42733" lon="6.26474">
        <ele>575.49</ele>
        <time>2019-07-06T08:45:02Z</time>
      </trkpt>
      <trkpt lat="50.42735" lon="6.26479">
        <ele>575.49</ele>
        <time>2019-07-06T08:45:03Z</time>
      </trkpt>
      <trkpt lat="50.42736" lon="6.26486">
        <ele>575.49</ele>
        <time>2019-07-06T08:45:04Z</time>
      </trkpt>
      <trkpt lat="50.42753" lon="6.26584">
        <ele>578.85</ele>
        <time>2019-07-06T08:45:20Z</time>
      </trkpt>
      <trkpt lat="50.42776" lon="6.26701">
        <ele>582.22</ele>
        <time>2019-07-06T08:45:39Z</time>
      </trkpt>
      <trkpt lat="50.42794" lon="6.26788">
        <ele>586.06</ele>
        <time>2019-07-06T08:45:53Z</time>
      </trkpt>
      <trkpt lat="50.42819" lon="6.26889">
        <ele>588.95</ele>
        <time>2019-07-06T08:46:10Z</time>
      </trkpt>
      <trkpt lat="50.42852" lon="6.2702">
        <ele>589.91</ele>
        <time>2019-07-06T08:46:28Z</time>
      </trkpt>
      <trkpt lat="50.42885" lon="6.27149">
        <ele>591.35</ele>
        <time>2019-07-06T08:46:44Z</time>
      </trkpt>
      <trkpt lat="50.42898" lon="6.27202">
        <ele>592.79</ele>
        <time>2019-07-06T08:46:51Z</time>
      </trkpt>
      <trkpt lat="50.42905" lon="6.27223">
        <ele>593.75</ele>
        <time>2019-07-06T08:46:54Z</time>
      </trkpt>
      <trkpt lat="50.4293" lon="6.27271">
        <ele>594.23</ele>
        <time>2019-07-06T08:47:02Z</time>
      </trkpt>
      <trkpt lat="50.42967" lon="6.27349">
        <ele>596.64</ele>
        <time>2019-07-06T08:47:15Z</time>
      </trkpt>
      <trkpt lat="50.42979" lon="6.27387">
        <ele>598.08</ele>
        <time>2019-07-06T08:47:21Z</time>
      </trkpt>
      <trkpt lat="50.4298" lon="6.27394">
        <ele>598.08</ele>
        <time>2019-07-06T08:47:22Z</time>
      </trkpt>
      <trkpt lat="50.42983" lon="6.27413">
        <ele>599.04</ele>
        <time>2019-07-06T08:47:25Z</time>
      </trkpt>
      <trkpt lat="50.42984" lon="6.27419">
        <ele>599.52</ele>
        <time>2019-07-06T08:47:26Z</time>
      </trkpt>
      <trkpt lat="50.43003" lon="6.27538">
        <ele>602.4</ele>
        <time>2019-07-06T08:47:43Z</time>
      </trkpt>
      <trkpt lat="50.43018" lon="6.27669">
        <ele>604.81</ele>
        <time>2019-07-06T08:48:01Z</time>
      </trkpt>
      <trkpt lat="50.43025" lon="6.27723">
        <ele>605.77</ele>
        <time>2019-07-06T08:48:08Z</time>
      </trkpt>
      <trkpt lat="50.43046" lon="6.27806">
        <ele>606.25</ele>
        <time>2019-07-06T08:48:19Z</time>
      </trkpt>
      <trkpt lat="50.43074" lon="6.27919">
        <ele>608.17</ele>
        <time>2019-07-06T08:48:34Z</time>
      </trkpt>
      <trkpt lat="50.43094" lon="6.28007">
        <ele>609.61</ele>
        <time>2019-07-06T08:48:45Z</time>
      </trkpt>
      <trkpt lat="50.43126" lon="6.28149">
        <ele>611.54</ele>
        <time>2019-07-06T08:49:03Z</time>
      </trkpt>
      <trkpt lat="50.43161" lon="6.28254">
        <ele>614.42</ele>
        <time>2019-07-06T08:49:18Z</time>
      </trkpt>
      <trkpt lat="50.4319" lon="6.28314">
        <ele>617.3</ele>
        <time>2019-07-06T08:49:28Z</time>
      </trkpt>
      <trkpt lat="50.43221" lon="6.28386">
        <ele>620.67</ele>
        <time>2019-07-06T08:49:41Z</time>
      </trkpt>
      <trkpt lat="50.43251" lon="6.28459">
        <ele>624.03</ele>
        <time>2019-07-06T08:49:54Z</time>
      </trkpt>
      <trkpt lat="50.43293" lon="6.2857">
        <ele>626.92</ele>
        <time>2019-07-06T08:50:12Z</time>
      </trkpt>
      <trkpt lat="50.43332" lon="6.28688">
        <ele>627.88</ele>
        <time>2019-07-06T08:50:28Z</time>
      </trkpt>
      <trkpt lat="50.43365" lon="6.28825">
        <ele>630.28</ele>
        <time>2019-07-06T08:50:46Z</time>
      </trkpt>
      <trkpt lat="50.43366" lon="6.28833">
        <ele>630.76</ele>
        <time>2019-07-06T08:50:47Z</time>
      </trkpt>
      <trkpt lat="50.43367" lon="6.2884">
        <ele>630.76</ele>
        <time>2019-07-06T08:50:48Z</time>
      </trkpt>
      <trkpt lat="50.43369" lon="6.28895">
        <ele>632.68</ele>
        <time>2019-07-06T08:50:55Z</time>
      </trkpt>
      <trkpt lat="50.4337" lon="6.28902">
        <ele>632.68</ele>
        <time>2019-07-06T08:50:56Z</time>
      </trkpt>
      <trkpt lat="50.43371" lon="6.2891">
        <ele>632.68</ele>
        <time>2019-07-06T08:50:57Z</time>
      </trkpt>
      <trkpt lat="50.43396" lon="6.29044">
        <ele>633.17</ele>
        <time>2019-07-06T08:51:13Z</time>
      </trkpt>
      <trkpt lat="50.43403" lon="6.29087">
        <ele>633.65</ele>
        <time>2019-07-06T08:51:18Z</time>
      </trkpt>
      <trkpt lat="50.43403" lon="6.29097">
        <ele>633.65</ele>
        <time>2019-07-06T08:51:19Z</time>
      </trkpt>
      <trkpt lat="50.43419" lon="6.29252">
        <ele>633.65</ele>
        <time>2019-07-06T08:51:36Z</time>
      </trkpt>
      <trkpt lat="50.43433" lon="6.29387">
        <ele>634.13</ele>
        <time>2019-07-06T08:51:51Z</time>
      </trkpt>
      <trkpt lat="50.43441" lon="6.29465">
        <ele>634.61</ele>
        <time>2019-07-06T08:52:00Z</time>
      </trkpt>
      <trkpt lat="50.43443" lon="6.29473">
        <ele>634.61</ele>
        <time>2019-07-06T08:52:01Z</time>
      </trkpt>
      <trkpt lat="50.43446" lon="6.2948">
        <ele>634.61</ele>
        <time>2019-07-06T08:52:02Z</time>
      </trkpt>
      <trkpt lat="50.43448" lon="6.29489">
        <ele>634.61</ele>
        <time>2019-07-06T08:52:03Z</time>
      </trkpt>
      <trkpt lat="50.43451" lon="6.29498">
        <ele>634.61</ele>
        <time>2019-07-06T08:52:04Z</time>
      </trkpt>
      <trkpt lat="50.43452" lon="6.29508">
        <ele>634.61</ele>
        <time>2019-07-06T08:52:05Z</time>
      </trkpt>
      <trkpt lat="50.43454" lon="6.29518">
        <ele>634.61</ele>
        <time>2019-07-06T08:52:06Z</time>
      </trkpt>
      <trkpt lat="50.43462" lon="6.29588">
        <ele>633.65</ele>
        <time>2019-07-06T08:52:13Z</time>
      </trkpt>
      <trkpt lat="50.43465" lon="6.29623">
        <ele>633.65</ele>
        <time>2019-07-06T08:52:17Z</time>
      </trkpt>
      <trkpt lat="50.43467" lon="6.29632">
        <ele>633.65</ele>
        <time>2019-07-06T08:52:18Z</time>
      </trkpt>
      <trkpt lat="50.43473" lon="6.29648">
        <ele>634.61</ele>
        <time>2019-07-06T08:52:20Z</time>
      </trkpt>
      <trkpt lat="50.43507" lon="6.29722">
        <ele>634.61</ele>
        <time>2019-07-06T08:52:29Z</time>
      </trkpt>
      <trkpt lat="50.43511" lon="6.2973">
        <ele>634.61</ele>
        <time>2019-07-06T08:52:30Z</time>
      </trkpt>
      <trkpt lat="50.43534" lon="6.29768">
        <ele>634.61</ele>
        <time>2019-07-06T08:52:35Z</time>
      </trkpt>
      <trkpt lat="50.43539" lon="6.29774">
        <ele>634.61</ele>
        <time>2019-07-06T08:52:36Z</time>
      </trkpt>
      <trkpt lat="50.43545" lon="6.29779">
        <ele>634.61</ele>
        <time>2019-07-06T08:52:37Z</time>
      </trkpt>
      <trkpt lat="50.43629" lon="6.29839">
        <ele>636.53</ele>
        <time>2019-07-06T08:52:52Z</time>
      </trkpt>
      <trkpt lat="50.43689" lon="6.29898">
        <ele>639.41</ele>
        <time>2019-07-06T08:53:05Z</time>
      </trkpt>
      <trkpt lat="50.43746" lon="6.29996">
        <ele>641.82</ele>
        <time>2019-07-06T08:53:21Z</time>
      </trkpt>
      <trkpt lat="50.43757" lon="6.30023">
        <ele>642.3</ele>
        <time>2019-07-06T08:53:27Z</time>
      </trkpt>
      <trkpt lat="50.43762" lon="6.30025">
        <ele>642.3</ele>
        <time>2019-07-06T08:53:28Z</time>
      </trkpt>
      <trkpt lat="50.43827" lon="6.30046">
        <ele>642.78</ele>
        <time>2019-07-06T08:53:41Z</time>
      </trkpt>
      <trkpt lat="50.43918" lon="6.30084">
        <ele>640.38</ele>
        <time>2019-07-06T08:53:56Z</time>
      </trkpt>
      <trkpt lat="50.44017" lon="6.30139">
        <ele>639.41</ele>
        <time>2019-07-06T08:54:11Z</time>
      </trkpt>
      <trkpt lat="50.44029" lon="6.30147">
        <ele>637.97</ele>
        <time>2019-07-06T08:54:13Z</time>
      </trkpt>
      <trkpt lat="50.44138" lon="6.30233">
        <ele>637.01</ele>
        <time>2019-07-06T08:54:30Z</time>
      </trkpt>
      <trkpt lat="50.44226" lon="6.30338">
        <ele>635.57</ele>
        <time>2019-07-06T08:54:45Z</time>
      </trkpt>
      <trkpt lat="50.44335" lon="6.30429">
        <ele>635.57</ele>
        <time>2019-07-06T08:55:01Z</time>
      </trkpt>
      <trkpt lat="50.44425" lon="6.3046">
        <ele>636.53</ele>
        <time>2019-07-06T08:55:14Z</time>
      </trkpt>
      <trkpt lat="50.44534" lon="6.30479">
        <ele>638.93</ele>
        <time>2019-07-06T08:55:31Z</time>
      </trkpt>
      <trkpt lat="50.44614" lon="6.30504">
        <ele>639.89</ele>
        <time>2019-07-06T08:55:44Z</time>
      </trkpt>
      <trkpt lat="50.44711" lon="6.30534">
        <ele>641.34</ele>
        <time>2019-07-06T08:56:00Z</time>
      </trkpt>
      <trkpt lat="50.44814" lon="6.30544">
        <ele>643.26</ele>
        <time>2019-07-06T08:56:16Z</time>
      </trkpt>
      <trkpt lat="50.44907" lon="6.30516">
        <ele>643.74</ele>
        <time>2019-07-06T08:56:31Z</time>
      </trkpt>
      <trkpt lat="50.45013" lon="6.3048">
        <ele>644.7</ele>
        <time>2019-07-06T08:56:48Z</time>
      </trkpt>
      <trkpt lat="50.4512" lon="6.30444">
        <ele>646.14</ele>
        <time>2019-07-06T08:57:05Z</time>
      </trkpt>
      <trkpt lat="50.4524" lon="6.304">
        <ele>643.74</ele>
        <time>2019-07-06T08:57:22Z</time>
      </trkpt>
      <trkpt lat="50.45375" lon="6.30349">
        <ele>642.78</ele>
        <time>2019-07-06T08:57:39Z</time>
      </trkpt>
      <trkpt lat="50.45484" lon="6.30309">
        <ele>641.82</ele>
        <time>2019-07-06T08:57:53Z</time>
      </trkpt>
      <trkpt lat="50.45602" lon="6.30264">
        <ele>641.82</ele>
        <time>2019-07-06T08:58:09Z</time>
      </trkpt>
      <trkpt lat="50.45658" lon="6.30241">
        <ele>641.82</ele>
        <time>2019-07-06T08:58:17Z</time>
      </trkpt>
      <trkpt lat="50.45755" lon="6.30205">
        <ele>641.82</ele>
        <time>2019-07-06T08:58:31Z</time>
      </trkpt>
      <trkpt lat="50.4583" lon="6.3018">
        <ele>641.82</ele>
        <time>2019-07-06T08:58:41Z</time>
      </trkpt>
      <trkpt lat="50.45912" lon="6.30153">
        <ele>638.93</ele>
        <time>2019-07-06T08:58:50Z</time>
      </trkpt>
      <trkpt lat="50.46001" lon="6.30125">
        <ele>635.09</ele>
        <time>2019-07-06T08:58:59Z</time>
      </trkpt>
      <trkpt lat="50.46081" lon="6.30099">
        <ele>632.2</ele>
        <time>2019-07-06T08:59:07Z</time>
      </trkpt>
      <trkpt lat="50.46092" lon="6.30096">
        <ele>632.2</ele>
        <time>2019-07-06T08:59:08Z</time>
      </trkpt>
      <trkpt lat="50.46183" lon="6.30067">
        <ele>628.84</ele>
        <time>2019-07-06T08:59:17Z</time>
      </trkpt>
      <trkpt lat="50.46224" lon="6.30067">
        <ele>627.4</ele>
        <time>2019-07-06T08:59:21Z</time>
      </trkpt>
      <trkpt lat="50.46317" lon="6.30091">
        <ele>624.51</ele>
        <time>2019-07-06T08:59:30Z</time>
      </trkpt>
      <trkpt lat="50.46408" lon="6.30111">
        <ele>621.63</ele>
        <time>2019-07-06T08:59:39Z</time>
      </trkpt>
      <trkpt lat="50.46489" lon="6.3013">
        <ele>618.26</ele>
        <time>2019-07-06T08:59:47Z</time>
      </trkpt>
      <trkpt lat="50.46574" lon="6.30151">
        <ele>614.9</ele>
        <time>2019-07-06T08:59:56Z</time>
      </trkpt>
      <trkpt lat="50.46658" lon="6.30172">
        <ele>612.02</ele>
        <time>2019-07-06T09:00:04Z</time>
      </trkpt>
      <trkpt lat="50.46768" lon="6.30199">
        <ele>610.57</ele>
        <time>2019-07-06T09:00:15Z</time>
      </trkpt>
      <trkpt lat="50.46805" lon="6.30211">
        <ele>610.09</ele>
        <time>2019-07-06T09:00:19Z</time>
      </trkpt>
      <trkpt lat="50.46922" lon="6.30306">
        <ele>609.61</ele>
        <time>2019-07-06T09:00:32Z</time>
      </trkpt>
      <trkpt lat="50.47022" lon="6.30389">
        <ele>608.17</ele>
        <time>2019-07-06T09:00:44Z</time>
      </trkpt>
      <trkpt lat="50.47073" lon="6.30434">
        <ele>608.17</ele>
        <time>2019-07-06T09:00:51Z</time>
      </trkpt>
      <trkpt lat="50.47116" lon="6.30472">
        <ele>608.17</ele>
        <time>2019-07-06T09:00:57Z</time>
      </trkpt>
      <trkpt lat="50.47204" lon="6.30545">
        <ele>608.17</ele>
        <time>2019-07-06T09:01:09Z</time>
      </trkpt>
      <trkpt lat="50.47212" lon="6.30551">
        <ele>608.17</ele>
        <time>2019-07-06T09:01:10Z</time>
      </trkpt>
      <trkpt lat="50.47285" lon="6.30613">
        <ele>607.69</ele>
        <time>2019-07-06T09:01:20Z</time>
      </trkpt>
      <trkpt lat="50.47377" lon="6.30683">
        <ele>607.21</ele>
        <time>2019-07-06T09:01:32Z</time>
      </trkpt>
      <trkpt lat="50.47385" lon="6.30687">
        <ele>607.21</ele>
        <time>2019-07-06T09:01:33Z</time>
      </trkpt>
      <trkpt lat="50.47482" lon="6.30741">
        <ele>607.69</ele>
        <time>2019-07-06T09:01:45Z</time>
      </trkpt>
      <trkpt lat="50.47547" lon="6.30775">
        <ele>609.13</ele>
        <time>2019-07-06T09:01:54Z</time>
      </trkpt>
      <trkpt lat="50.47554" lon="6.30778">
        <ele>609.13</ele>
        <time>2019-07-06T09:01:55Z</time>
      </trkpt>
      <trkpt lat="50.4764" lon="6.30825">
        <ele>611.06</ele>
        <time>2019-07-06T09:02:07Z</time>
      </trkpt>
      <trkpt lat="50.47705" lon="6.3086">
        <ele>612.5</ele>
        <time>2019-07-06T09:02:17Z</time>
      </trkpt>
      <trkpt lat="50.47755" lon="6.30886">
        <ele>612.5</ele>
        <time>2019-07-06T09:02:25Z</time>
      </trkpt>
      <trkpt lat="50.47824" lon="6.30927">
        <ele>612.5</ele>
        <time>2019-07-06T09:02:35Z</time>
      </trkpt>
      <trkpt lat="50.47831" lon="6.30932">
        <ele>612.5</ele>
        <time>2019-07-06T09:02:36Z</time>
      </trkpt>
      <trkpt lat="50.47899" lon="6.30983">
        <ele>612.5</ele>
        <time>2019-07-06T09:02:46Z</time>
      </trkpt>
      <trkpt lat="50.47992" lon="6.3105">
        <ele>613.46</ele>
        <time>2019-07-06T09:03:00Z</time>
      </trkpt>
      <trkpt lat="50.48092" lon="6.31138">
        <ele>615.38</ele>
        <time>2019-07-06T09:03:16Z</time>
      </trkpt>
      <trkpt lat="50.48143" lon="6.31202">
        <ele>616.34</ele>
        <time>2019-07-06T09:03:25Z</time>
      </trkpt>
      <trkpt lat="50.48219" lon="6.31296">
        <ele>618.75</ele>
        <time>2019-07-06T09:03:39Z</time>
      </trkpt>
      <trkpt lat="50.48258" lon="6.31331">
        <ele>619.23</ele>
        <time>2019-07-06T09:03:46Z</time>
      </trkpt>
      <trkpt lat="50.48265" lon="6.31334">
        <ele>619.23</ele>
        <time>2019-07-06T09:03:47Z</time>
      </trkpt>
      <trkpt lat="50.48271" lon="6.31337">
        <ele>619.23</ele>
        <time>2019-07-06T09:03:48Z</time>
      </trkpt>
      <trkpt lat="50.48277" lon="6.3134">
        <ele>619.23</ele>
        <time>2019-07-06T09:03:49Z</time>
      </trkpt>
      <trkpt lat="50.48284" lon="6.31342">
        <ele>619.23</ele>
        <time>2019-07-06T09:03:50Z</time>
      </trkpt>
      <trkpt lat="50.48291" lon="6.31345">
        <ele>619.23</ele>
        <time>2019-07-06T09:03:51Z</time>
      </trkpt>
      <trkpt lat="50.48297" lon="6.31348">
        <ele>619.23</ele>
        <time>2019-07-06T09:03:52Z</time>
      </trkpt>
      <trkpt lat="50.48352" lon="6.31368">
        <ele>619.71</ele>
        <time>2019-07-06T09:04:00Z</time>
      </trkpt>
      <trkpt lat="50.48429" lon="6.31397">
        <ele>619.71</ele>
        <time>2019-07-06T09:04:11Z</time>
      </trkpt>
      <trkpt lat="50.48526" lon="6.31429">
        <ele>620.67</ele>
        <time>2019-07-06T09:04:25Z</time>
      </trkpt>
      <trkpt lat="50.48604" lon="6.31457">
        <ele>623.55</ele>
        <time>2019-07-06T09:04:37Z</time>
      </trkpt>
      <trkpt lat="50.48669" lon="6.31481">
        <ele>624.51</ele>
        <time>2019-07-06T09:04:48Z</time>
      </trkpt>
      <trkpt lat="50.48675" lon="6.31484">
        <ele>624.51</ele>
        <time>2019-07-06T09:04:49Z</time>
      </trkpt>
      <trkpt lat="50.48731" lon="6.31511">
        <ele>625.47</ele>
        <time>2019-07-06T09:04:59Z</time>
      </trkpt>
      <trkpt lat="50.4879" lon="6.31543">
        <ele>626.44</ele>
        <time>2019-07-06T09:05:09Z</time>
      </trkpt>
      <trkpt lat="50.48809" lon="6.31551">
        <ele>627.4</ele>
        <time>2019-07-06T09:05:12Z</time>
      </trkpt>
      <trkpt lat="50.48833" lon="6.31556">
        <ele>627.88</ele>
        <time>2019-07-06T09:05:16Z</time>
      </trkpt>
      <trkpt lat="50.48838" lon="6.31558">
        <ele>627.88</ele>
        <time>2019-07-06T09:05:17Z</time>
      </trkpt>
      <trkpt lat="50.4885" lon="6.3156">
        <ele>627.4</ele>
        <time>2019-07-06T09:05:19Z</time>
      </trkpt>
      <trkpt lat="50.48908" lon="6.31572">
        <ele>628.36</ele>
        <time>2019-07-06T09:05:28Z</time>
      </trkpt>
      <trkpt lat="50.48999" lon="6.31577">
        <ele>629.32</ele>
        <time>2019-07-06T09:05:40Z</time>
      </trkpt>
      <trkpt lat="50.49092" lon="6.3157">
        <ele>629.32</ele>
        <time>2019-07-06T09:05:52Z</time>
      </trkpt>
      <trkpt lat="50.4919" lon="6.3155">
        <ele>629.32</ele>
        <time>2019-07-06T09:06:05Z</time>
      </trkpt>
      <trkpt lat="50.49289" lon="6.31529">
        <ele>629.32</ele>
        <time>2019-07-06T09:06:18Z</time>
      </trkpt>
      <trkpt lat="50.49319" lon="6.31524">
        <ele>629.32</ele>
        <time>2019-07-06T09:06:22Z</time>
      </trkpt>
      <trkpt lat="50.49404" lon="6.31536">
        <ele>628.36</ele>
        <time>2019-07-06T09:06:33Z</time>
      </trkpt>
      <trkpt lat="50.49485" lon="6.31571">
        <ele>627.4</ele>
        <time>2019-07-06T09:06:43Z</time>
      </trkpt>
      <trkpt lat="50.49612" lon="6.31652">
        <ele>624.99</ele>
        <time>2019-07-06T09:06:59Z</time>
      </trkpt>
      <trkpt lat="50.49625" lon="6.31664">
        <ele>624.51</ele>
        <time>2019-07-06T09:07:01Z</time>
      </trkpt>
      <trkpt lat="50.49631" lon="6.31671">
        <ele>623.55</ele>
        <time>2019-07-06T09:07:02Z</time>
      </trkpt>
      <trkpt lat="50.49637" lon="6.3168">
        <ele>623.55</ele>
        <time>2019-07-06T09:07:03Z</time>
      </trkpt>
      <trkpt lat="50.49643" lon="6.31689">
        <ele>623.55</ele>
        <time>2019-07-06T09:07:04Z</time>
      </trkpt>
      <trkpt lat="50.49648" lon="6.31699">
        <ele>623.55</ele>
        <time>2019-07-06T09:07:05Z</time>
      </trkpt>
      <trkpt lat="50.49702" lon="6.31833">
        <ele>624.51</ele>
        <time>2019-07-06T09:07:18Z</time>
      </trkpt>
      <trkpt lat="50.49766" lon="6.31989">
        <ele>625.47</ele>
        <time>2019-07-06T09:07:33Z</time>
      </trkpt>
      <trkpt lat="50.49827" lon="6.3212">
        <ele>625.47</ele>
        <time>2019-07-06T09:07:47Z</time>
      </trkpt>
      <trkpt lat="50.49894" lon="6.32204">
        <ele>625.96</ele>
        <time>2019-07-06T09:07:58Z</time>
      </trkpt>
      <trkpt lat="50.49983" lon="6.32303">
        <ele>627.4</ele>
        <time>2019-07-06T09:08:12Z</time>
      </trkpt>
      <trkpt lat="50.50008" lon="6.32329">
        <ele>627.88</ele>
        <time>2019-07-06T09:08:16Z</time>
      </trkpt>
      <trkpt lat="50.50015" lon="6.32336">
        <ele>627.88</ele>
        <time>2019-07-06T09:08:17Z</time>
      </trkpt>
      <trkpt lat="50.5002" lon="6.32342">
        <ele>627.88</ele>
        <time>2019-07-06T09:08:18Z</time>
      </trkpt>
      <trkpt lat="50.50043" lon="6.32367">
        <ele>627.88</ele>
        <time>2019-07-06T09:08:22Z</time>
      </trkpt>
      <trkpt lat="50.50048" lon="6.32375">
        <ele>628.36</ele>
        <time>2019-07-06T09:08:23Z</time>
      </trkpt>
      <trkpt lat="50.50054" lon="6.32382">
        <ele>628.84</ele>
        <time>2019-07-06T09:08:24Z</time>
      </trkpt>
      <trkpt lat="50.50076" lon="6.32412">
        <ele>629.32</ele>
        <time>2019-07-06T09:08:28Z</time>
      </trkpt>
      <trkpt lat="50.50087" lon="6.32428">
        <ele>629.32</ele>
        <time>2019-07-06T09:08:30Z</time>
      </trkpt>
      <trkpt lat="50.50162" lon="6.32524">
        <ele>632.2</ele>
        <time>2019-07-06T09:08:43Z</time>
      </trkpt>
      <trkpt lat="50.5018" lon="6.32546">
        <ele>632.2</ele>
        <time>2019-07-06T09:08:46Z</time>
      </trkpt>
      <trkpt lat="50.50185" lon="6.32555">
        <ele>632.2</ele>
        <time>2019-07-06T09:08:47Z</time>
      </trkpt>
      <trkpt lat="50.50189" lon="6.32566">
        <ele>632.2</ele>
        <time>2019-07-06T09:08:48Z</time>
      </trkpt>
      <trkpt lat="50.50193" lon="6.32577">
        <ele>632.2</ele>
        <time>2019-07-06T09:08:49Z</time>
      </trkpt>
      <trkpt lat="50.50196" lon="6.32588">
        <ele>632.2</ele>
        <time>2019-07-06T09:08:50Z</time>
      </trkpt>
      <trkpt lat="50.50198" lon="6.32599">
        <ele>632.2</ele>
        <time>2019-07-06T09:08:51Z</time>
      </trkpt>
      <trkpt lat="50.50199" lon="6.32611">
        <ele>632.2</ele>
        <time>2019-07-06T09:08:52Z</time>
      </trkpt>
      <trkpt lat="50.50199" lon="6.32622">
        <ele>632.2</ele>
        <time>2019-07-06T09:08:53Z</time>
      </trkpt>
      <trkpt lat="50.50198" lon="6.32633">
        <ele>632.2</ele>
        <time>2019-07-06T09:08:54Z</time>
      </trkpt>
      <trkpt lat="50.50196" lon="6.32666">
        <ele>632.2</ele>
        <time>2019-07-06T09:08:57Z</time>
      </trkpt>
      <trkpt lat="50.50194" lon="6.32799">
        <ele>632.2</ele>
        <time>2019-07-06T09:09:09Z</time>
      </trkpt>
      <trkpt lat="50.50192" lon="6.32811">
        <ele>632.2</ele>
        <time>2019-07-06T09:09:10Z</time>
      </trkpt>
      <trkpt lat="50.50184" lon="6.3288">
        <ele>632.2</ele>
        <time>2019-07-06T09:09:16Z</time>
      </trkpt>
      <trkpt lat="50.50184" lon="6.32904">
        <ele>632.2</ele>
        <time>2019-07-06T09:09:18Z</time>
      </trkpt>
      <trkpt lat="50.50183" lon="6.32916">
        <ele>632.2</ele>
        <time>2019-07-06T09:09:19Z</time>
      </trkpt>
      <trkpt lat="50.50172" lon="6.33028">
        <ele>632.2</ele>
        <time>2019-07-06T09:09:28Z</time>
      </trkpt>
      <trkpt lat="50.5017" lon="6.33039">
        <ele>632.2</ele>
        <time>2019-07-06T09:09:29Z</time>
      </trkpt>
      <trkpt lat="50.50139" lon="6.33137">
        <ele>630.76</ele>
        <time>2019-07-06T09:09:38Z</time>
      </trkpt>
      <trkpt lat="50.50089" lon="6.33301">
        <ele>631.24</ele>
        <time>2019-07-06T09:09:53Z</time>
      </trkpt>
      <trkpt lat="50.50056" lon="6.33428">
        <ele>631.24</ele>
        <time>2019-07-06T09:10:05Z</time>
      </trkpt>
      <trkpt lat="50.50056" lon="6.3344">
        <ele>631.24</ele>
        <time>2019-07-06T09:10:06Z</time>
      </trkpt>
      <trkpt lat="50.50056" lon="6.33463">
        <ele>631.24</ele>
        <time>2019-07-06T09:10:08Z</time>
      </trkpt>
      <trkpt lat="50.50057" lon="6.33474">
        <ele>631.24</ele>
        <time>2019-07-06T09:10:09Z</time>
      </trkpt>
      <trkpt lat="50.50058" lon="6.33485">
        <ele>631.24</ele>
        <time>2019-07-06T09:10:10Z</time>
      </trkpt>
      <trkpt lat="50.50074" lon="6.33567">
        <ele>629.8</ele>
        <time>2019-07-06T09:10:18Z</time>
      </trkpt>
      <trkpt lat="50.50106" lon="6.3371">
        <ele>630.76</ele>
        <time>2019-07-06T09:10:31Z</time>
      </trkpt>
      <trkpt lat="50.50159" lon="6.33852">
        <ele>632.68</ele>
        <time>2019-07-06T09:10:46Z</time>
      </trkpt>
      <trkpt lat="50.50217" lon="6.33965">
        <ele>633.17</ele>
        <time>2019-07-06T09:10:59Z</time>
      </trkpt>
      <trkpt lat="50.50284" lon="6.34093">
        <ele>634.13</ele>
        <time>2019-07-06T09:11:14Z</time>
      </trkpt>
      <trkpt lat="50.50351" lon="6.34238">
        <ele>634.13</ele>
        <time>2019-07-06T09:11:29Z</time>
      </trkpt>
      <trkpt lat="50.50408" lon="6.34399">
        <ele>631.24</ele>
        <time>2019-07-06T09:11:43Z</time>
      </trkpt>
      <trkpt lat="50.5045" lon="6.34567">
        <ele>628.36</ele>
        <time>2019-07-06T09:11:55Z</time>
      </trkpt>
      <trkpt lat="50.50472" lon="6.34737">
        <ele>625.96</ele>
        <time>2019-07-06T09:12:06Z</time>
      </trkpt>
      <trkpt lat="50.50468" lon="6.35024">
        <ele>623.07</ele>
        <time>2019-07-06T09:12:25Z</time>
      </trkpt>
      <trkpt lat="50.50466" lon="6.35241">
        <ele>621.15</ele>
        <time>2019-07-06T09:12:40Z</time>
      </trkpt>
      <trkpt lat="50.50477" lon="6.35429">
        <ele>619.71</ele>
        <time>2019-07-06T09:12:53Z</time>
      </trkpt>
      <trkpt lat="50.50497" lon="6.35648">
        <ele>616.82</ele>
        <time>2019-07-06T09:13:09Z</time>
      </trkpt>
      <trkpt lat="50.50514" lon="6.35825">
        <ele>616.34</ele>
        <time>2019-07-06T09:13:22Z</time>
      </trkpt>
      <trkpt lat="50.50514" lon="6.35837">
        <ele>616.34</ele>
        <time>2019-07-06T09:13:23Z</time>
      </trkpt>
      <trkpt lat="50.50514" lon="6.3585">
        <ele>616.34</ele>
        <time>2019-07-06T09:13:24Z</time>
      </trkpt>
      <trkpt lat="50.50515" lon="6.35862">
        <ele>616.34</ele>
        <time>2019-07-06T09:13:25Z</time>
      </trkpt>
      <trkpt lat="50.50518" lon="6.35875">
        <ele>616.34</ele>
        <time>2019-07-06T09:13:26Z</time>
      </trkpt>
      <trkpt lat="50.50522" lon="6.3589">
        <ele>616.34</ele>
        <time>2019-07-06T09:13:27Z</time>
      </trkpt>
      <trkpt lat="50.50525" lon="6.35897">
        <ele>616.34</ele>
        <time>2019-07-06T09:13:28Z</time>
      </trkpt>
      <trkpt lat="50.50528" lon="6.35908">
        <ele>616.34</ele>
        <time>2019-07-06T09:13:29Z</time>
      </trkpt>
      <trkpt lat="50.50589" lon="6.3603">
        <ele>617.78</ele>
        <time>2019-07-06T09:13:42Z</time>
      </trkpt>
      <trkpt lat="50.50663" lon="6.36137">
        <ele>618.26</ele>
        <time>2019-07-06T09:13:56Z</time>
      </trkpt>
      <trkpt lat="50.50669" lon="6.36144">
        <ele>618.75</ele>
        <time>2019-07-06T09:13:57Z</time>
      </trkpt>
      <trkpt lat="50.50674" lon="6.36152">
        <ele>618.75</ele>
        <time>2019-07-06T09:13:58Z</time>
      </trkpt>
      <trkpt lat="50.50745" lon="6.3626">
        <ele>620.19</ele>
        <time>2019-07-06T09:14:13Z</time>
      </trkpt>
      <trkpt lat="50.50817" lon="6.36368">
        <ele>621.63</ele>
        <time>2019-07-06T09:14:29Z</time>
      </trkpt>
      <trkpt lat="50.50844" lon="6.36408">
        <ele>622.11</ele>
        <time>2019-07-06T09:14:35Z</time>
      </trkpt>
      <trkpt lat="50.50849" lon="6.36415">
        <ele>622.11</ele>
        <time>2019-07-06T09:14:36Z</time>
      </trkpt>
      <trkpt lat="50.50936" lon="6.36546">
        <ele>623.07</ele>
        <time>2019-07-06T09:14:55Z</time>
      </trkpt>
      <trkpt lat="50.51025" lon="6.36676">
        <ele>623.55</ele>
        <time>2019-07-06T09:15:12Z</time>
      </trkpt>
      <trkpt lat="50.51046" lon="6.36709">
        <ele>622.11</ele>
        <time>2019-07-06T09:15:16Z</time>
      </trkpt>
      <trkpt lat="50.51129" lon="6.36837">
        <ele>622.11</ele>
        <time>2019-07-06T09:15:31Z</time>
      </trkpt>
      <trkpt lat="50.51198" lon="6.36937">
        <ele>623.07</ele>
        <time>2019-07-06T09:15:43Z</time>
      </trkpt>
      <trkpt lat="50.51288" lon="6.37069">
        <ele>624.03</ele>
        <time>2019-07-06T09:16:00Z</time>
      </trkpt>
      <trkpt lat="50.51379" lon="6.37204">
        <ele>624.03</ele>
        <time>2019-07-06T09:16:17Z</time>
      </trkpt>
      <trkpt lat="50.51496" lon="6.37378">
        <ele>621.63</ele>
        <time>2019-07-06T09:16:38Z</time>
      </trkpt>
      <trkpt lat="50.51619" lon="6.37559">
        <ele>618.26</ele>
        <time>2019-07-06T09:16:58Z</time>
      </trkpt>
      <trkpt lat="50.5168" lon="6.37687">
        <ele>614.9</ele>
        <time>2019-07-06T09:17:09Z</time>
      </trkpt>
      <trkpt lat="50.51716" lon="6.37794">
        <ele>612.02</ele>
        <time>2019-07-06T09:17:17Z</time>
      </trkpt>
      <trkpt lat="50.51733" lon="6.3789">
        <ele>608.65</ele>
        <time>2019-07-06T09:17:23Z</time>
      </trkpt>
      <trkpt lat="50.51744" lon="6.37939">
        <ele>606.73</ele>
        <time>2019-07-06T09:17:26Z</time>
      </trkpt>
      <trkpt lat="50.51782" lon="6.38096">
        <ele>603.36</ele>
        <time>2019-07-06T09:17:36Z</time>
      </trkpt>
      <trkpt lat="50.51838" lon="6.38343">
        <ele>600.48</ele>
        <time>2019-07-06T09:17:52Z</time>
      </trkpt>
      <trkpt lat="50.51875" lon="6.38518">
        <ele>597.12</ele>
        <time>2019-07-06T09:18:04Z</time>
      </trkpt>
      <trkpt lat="50.51922" lon="6.38766">
        <ele>593.75</ele>
        <time>2019-07-06T09:18:21Z</time>
      </trkpt>
      <trkpt lat="50.51924" lon="6.38811">
        <ele>593.27</ele>
        <time>2019-07-06T09:18:24Z</time>
      </trkpt>
      <trkpt lat="50.51915" lon="6.38952">
        <ele>591.83</ele>
        <time>2019-07-06T09:18:35Z</time>
      </trkpt>
      <trkpt lat="50.51916" lon="6.38959">
        <ele>591.83</ele>
        <time>2019-07-06T09:18:36Z</time>
      </trkpt>
      <trkpt lat="50.51917" lon="6.38965">
        <ele>591.83</ele>
        <time>2019-07-06T09:18:37Z</time>
      </trkpt>
      <trkpt lat="50.51918" lon="6.38971">
        <ele>591.83</ele>
        <time>2019-07-06T09:18:38Z</time>
      </trkpt>
      <trkpt lat="50.51918" lon="6.3898">
        <ele>591.83</ele>
        <time>2019-07-06T09:18:39Z</time>
      </trkpt>
      <trkpt lat="50.51918" lon="6.38987">
        <ele>591.83</ele>
        <time>2019-07-06T09:18:40Z</time>
      </trkpt>
      <trkpt lat="50.51904" lon="6.39106">
        <ele>591.83</ele>
        <time>2019-07-06T09:18:51Z</time>
      </trkpt>
      <trkpt lat="50.51871" lon="6.3926">
        <ele>591.35</ele>
        <time>2019-07-06T09:19:06Z</time>
      </trkpt>
      <trkpt lat="50.51866" lon="6.3928">
        <ele>591.35</ele>
        <time>2019-07-06T09:19:08Z</time>
      </trkpt>
      <trkpt lat="50.51864" lon="6.3929">
        <ele>591.35</ele>
        <time>2019-07-06T09:19:09Z</time>
      </trkpt>
      <trkpt lat="50.51824" lon="6.39452">
        <ele>591.35</ele>
        <time>2019-07-06T09:19:25Z</time>
      </trkpt>
      <trkpt lat="50.51816" lon="6.39494">
        <ele>591.35</ele>
        <time>2019-07-06T09:19:29Z</time>
      </trkpt>
      <trkpt lat="50.51816" lon="6.39506">
        <ele>591.35</ele>
        <time>2019-07-06T09:19:30Z</time>
      </trkpt>
      <trkpt lat="50.51816" lon="6.39516">
        <ele>591.35</ele>
        <time>2019-07-06T09:19:31Z</time>
      </trkpt>
      <trkpt lat="50.51821" lon="6.39708">
        <ele>589.43</ele>
        <time>2019-07-06T09:19:48Z</time>
      </trkpt>
      <trkpt lat="50.51829" lon="6.39828">
        <ele>586.06</ele>
        <time>2019-07-06T09:19:57Z</time>
      </trkpt>
      <trkpt lat="50.5183" lon="6.39842">
        <ele>586.06</ele>
        <time>2019-07-06T09:19:58Z</time>
      </trkpt>
      <trkpt lat="50.51841" lon="6.39997">
        <ele>582.7</ele>
        <time>2019-07-06T09:20:08Z</time>
      </trkpt>
      <trkpt lat="50.51851" lon="6.40176">
        <ele>579.81</ele>
        <time>2019-07-06T09:20:20Z</time>
      </trkpt>
      <trkpt lat="50.51864" lon="6.40382">
        <ele>578.85</ele>
        <time>2019-07-06T09:20:35Z</time>
      </trkpt>
      <trkpt lat="50.5188" lon="6.40654">
        <ele>577.89</ele>
        <time>2019-07-06T09:20:55Z</time>
      </trkpt>
      <trkpt lat="50.51897" lon="6.40812">
        <ele>575.97</ele>
        <time>2019-07-06T09:21:07Z</time>
      </trkpt>
      <trkpt lat="50.51904" lon="6.40839">
        <ele>575.01</ele>
        <time>2019-07-06T09:21:09Z</time>
      </trkpt>
      <trkpt lat="50.51929" lon="6.40925">
        <ele>572.12</ele>
        <time>2019-07-06T09:21:15Z</time>
      </trkpt>
      <trkpt lat="50.51932" lon="6.40941">
        <ele>572.12</ele>
        <time>2019-07-06T09:21:16Z</time>
      </trkpt>
      <trkpt lat="50.5195" lon="6.41042">
        <ele>568.28</ele>
        <time>2019-07-06T09:21:22Z</time>
      </trkpt>
      <trkpt lat="50.51963" lon="6.41091">
        <ele>567.8</ele>
        <time>2019-07-06T09:21:25Z</time>
      </trkpt>
      <trkpt lat="50.5197" lon="6.41107">
        <ele>566.35</ele>
        <time>2019-07-06T09:21:26Z</time>
      </trkpt>
      <trkpt lat="50.51977" lon="6.4112">
        <ele>566.35</ele>
        <time>2019-07-06T09:21:27Z</time>
      </trkpt>
      <trkpt lat="50.52007" lon="6.41173">
        <ele>563.47</ele>
        <time>2019-07-06T09:21:31Z</time>
      </trkpt>
      <trkpt lat="50.52016" lon="6.41185">
        <ele>562.99</ele>
        <time>2019-07-06T09:21:32Z</time>
      </trkpt>
      <trkpt lat="50.52027" lon="6.41196">
        <ele>562.03</ele>
        <time>2019-07-06T09:21:33Z</time>
      </trkpt>
      <trkpt lat="50.52038" lon="6.41205">
        <ele>561.55</ele>
        <time>2019-07-06T09:21:34Z</time>
      </trkpt>
      <trkpt lat="50.52048" lon="6.41215">
        <ele>561.07</ele>
        <time>2019-07-06T09:21:35Z</time>
      </trkpt>
      <trkpt lat="50.52058" lon="6.41227">
        <ele>560.11</ele>
        <time>2019-07-06T09:21:36Z</time>
      </trkpt>
      <trkpt lat="50.52067" lon="6.41243">
        <ele>559.62</ele>
        <time>2019-07-06T09:21:37Z</time>
      </trkpt>
      <trkpt lat="50.52073" lon="6.41259">
        <ele>559.14</ele>
        <time>2019-07-06T09:21:38Z</time>
      </trkpt>
      <trkpt lat="50.52079" lon="6.41277">
        <ele>558.18</ele>
        <time>2019-07-06T09:21:39Z</time>
      </trkpt>
      <trkpt lat="50.52083" lon="6.41297">
        <ele>557.7</ele>
        <time>2019-07-06T09:21:40Z</time>
      </trkpt>
      <trkpt lat="50.52087" lon="6.41316">
        <ele>557.22</ele>
        <time>2019-07-06T09:21:41Z</time>
      </trkpt>
      <trkpt lat="50.52108" lon="6.41413">
        <ele>553.86</ele>
        <time>2019-07-06T09:21:46Z</time>
      </trkpt>
      <trkpt lat="50.52116" lon="6.41452">
        <ele>552.9</ele>
        <time>2019-07-06T09:21:48Z</time>
      </trkpt>
      <trkpt lat="50.52118" lon="6.41472">
        <ele>551.93</ele>
        <time>2019-07-06T09:21:49Z</time>
      </trkpt>
      <trkpt lat="50.52118" lon="6.41492">
        <ele>551.45</ele>
        <time>2019-07-06T09:21:50Z</time>
      </trkpt>
      <trkpt lat="50.52113" lon="6.41591">
        <ele>547.61</ele>
        <time>2019-07-06T09:21:55Z</time>
      </trkpt>
      <trkpt lat="50.52115" lon="6.41692">
        <ele>544.72</ele>
        <time>2019-07-06T09:22:00Z</time>
      </trkpt>
      <trkpt lat="50.52115" lon="6.41771">
        <ele>541.36</ele>
        <time>2019-07-06T09:22:04Z</time>
      </trkpt>
      <trkpt lat="50.52117" lon="6.41832">
        <ele>539.92</ele>
        <time>2019-07-06T09:22:07Z</time>
      </trkpt>
      <trkpt lat="50.52121" lon="6.41913">
        <ele>537.03</ele>
        <time>2019-07-06T09:22:11Z</time>
      </trkpt>
      <trkpt lat="50.52143" lon="6.4203">
        <ele>532.71</ele>
        <time>2019-07-06T09:22:17Z</time>
      </trkpt>
      <trkpt lat="50.52178" lon="6.42142">
        <ele>529.34</ele>
        <time>2019-07-06T09:22:23Z</time>
      </trkpt>
      <trkpt lat="50.52196" lon="6.42197">
        <ele>527.42</ele>
        <time>2019-07-06T09:22:26Z</time>
      </trkpt>
      <trkpt lat="50.52226" lon="6.42285">
        <ele>524.06</ele>
        <time>2019-07-06T09:22:31Z</time>
      </trkpt>
      <trkpt lat="50.52259" lon="6.42368">
        <ele>521.17</ele>
        <time>2019-07-06T09:22:36Z</time>
      </trkpt>
      <trkpt lat="50.52297" lon="6.42446">
        <ele>518.29</ele>
        <time>2019-07-06T09:22:41Z</time>
      </trkpt>
      <trkpt lat="50.52332" lon="6.42502">
        <ele>514.92</ele>
        <time>2019-07-06T09:22:45Z</time>
      </trkpt>
      <trkpt lat="50.52389" lon="6.42582">
        <ele>511.08</ele>
        <time>2019-07-06T09:22:51Z</time>
      </trkpt>
      <trkpt lat="50.52418" lon="6.42625">
        <ele>509.16</ele>
        <time>2019-07-06T09:22:54Z</time>
      </trkpt>
      <trkpt lat="50.52465" lon="6.42694">
        <ele>506.27</ele>
        <time>2019-07-06T09:22:59Z</time>
      </trkpt>
      <trkpt lat="50.52492" lon="6.42737">
        <ele>504.83</ele>
        <time>2019-07-06T09:23:02Z</time>
      </trkpt>
      <trkpt lat="50.525" lon="6.42753">
        <ele>503.39</ele>
        <time>2019-07-06T09:23:03Z</time>
      </trkpt>
      <trkpt lat="50.52507" lon="6.42771">
        <ele>502.91</ele>
        <time>2019-07-06T09:23:04Z</time>
      </trkpt>
      <trkpt lat="50.52511" lon="6.4279">
        <ele>501.95</ele>
        <time>2019-07-06T09:23:05Z</time>
      </trkpt>
      <trkpt lat="50.52514" lon="6.4281">
        <ele>501.46</ele>
        <time>2019-07-06T09:23:06Z</time>
      </trkpt>
      <trkpt lat="50.52516" lon="6.4283">
        <ele>500.98</ele>
        <time>2019-07-06T09:23:07Z</time>
      </trkpt>
      <trkpt lat="50.52518" lon="6.42852">
        <ele>500.02</ele>
        <time>2019-07-06T09:23:08Z</time>
      </trkpt>
      <trkpt lat="50.52518" lon="6.42872">
        <ele>499.06</ele>
        <time>2019-07-06T09:23:09Z</time>
      </trkpt>
      <trkpt lat="50.52518" lon="6.42891">
        <ele>498.58</ele>
        <time>2019-07-06T09:23:10Z</time>
      </trkpt>
      <trkpt lat="50.52512" lon="6.42991">
        <ele>495.22</ele>
        <time>2019-07-06T09:23:15Z</time>
      </trkpt>
      <trkpt lat="50.52514" lon="6.4309">
        <ele>491.85</ele>
        <time>2019-07-06T09:23:20Z</time>
      </trkpt>
      <trkpt lat="50.52529" lon="6.43188">
        <ele>488.01</ele>
        <time>2019-07-06T09:23:25Z</time>
      </trkpt>
      <trkpt lat="50.5254" lon="6.43289">
        <ele>484.64</ele>
        <time>2019-07-06T09:23:30Z</time>
      </trkpt>
      <trkpt lat="50.52541" lon="6.43392">
        <ele>481.76</ele>
        <time>2019-07-06T09:23:35Z</time>
      </trkpt>
      <trkpt lat="50.52539" lon="6.43413">
        <ele>481.28</ele>
        <time>2019-07-06T09:23:36Z</time>
      </trkpt>
      <trkpt lat="50.52535" lon="6.43432">
        <ele>480.32</ele>
        <time>2019-07-06T09:23:37Z</time>
      </trkpt>
      <trkpt lat="50.52528" lon="6.4345">
        <ele>479.84</ele>
        <time>2019-07-06T09:23:38Z</time>
      </trkpt>
      <trkpt lat="50.5252" lon="6.43465">
        <ele>478.87</ele>
        <time>2019-07-06T09:23:39Z</time>
      </trkpt>
      <trkpt lat="50.5251" lon="6.43478">
        <ele>478.39</ele>
        <time>2019-07-06T09:23:40Z</time>
      </trkpt>
      <trkpt lat="50.52497" lon="6.43486">
        <ele>477.91</ele>
        <time>2019-07-06T09:23:41Z</time>
      </trkpt>
      <trkpt lat="50.52484" lon="6.43491">
        <ele>477.43</ele>
        <time>2019-07-06T09:23:42Z</time>
      </trkpt>
      <trkpt lat="50.52471" lon="6.43491">
        <ele>476.47</ele>
        <time>2019-07-06T09:23:43Z</time>
      </trkpt>
      <trkpt lat="50.52458" lon="6.43487">
        <ele>476.47</ele>
        <time>2019-07-06T09:23:44Z</time>
      </trkpt>
      <trkpt lat="50.52445" lon="6.43481">
        <ele>475.99</ele>
        <time>2019-07-06T09:23:45Z</time>
      </trkpt>
      <trkpt lat="50.52434" lon="6.43474">
        <ele>475.03</ele>
        <time>2019-07-06T09:23:46Z</time>
      </trkpt>
      <trkpt lat="50.52375" lon="6.43438">
        <ele>471.66</ele>
        <time>2019-07-06T09:23:51Z</time>
      </trkpt>
      <trkpt lat="50.52351" lon="6.43428">
        <ele>471.18</ele>
        <time>2019-07-06T09:23:53Z</time>
      </trkpt>
      <trkpt lat="50.5234" lon="6.43428">
        <ele>470.7</ele>
        <time>2019-07-06T09:23:54Z</time>
      </trkpt>
      <trkpt lat="50.52327" lon="6.43433">
        <ele>469.74</ele>
        <time>2019-07-06T09:23:55Z</time>
      </trkpt>
      <trkpt lat="50.52318" lon="6.43441">
        <ele>468.78</ele>
        <time>2019-07-06T09:23:56Z</time>
      </trkpt>
      <trkpt lat="50.52309" lon="6.43454">
        <ele>468.3</ele>
        <time>2019-07-06T09:23:57Z</time>
      </trkpt>
      <trkpt lat="50.52303" lon="6.4347">
        <ele>467.34</ele>
        <time>2019-07-06T09:23:58Z</time>
      </trkpt>
      <trkpt lat="50.523" lon="6.43488">
        <ele>466.38</ele>
        <time>2019-07-06T09:23:59Z</time>
      </trkpt>
      <trkpt lat="50.52299" lon="6.43508">
        <ele>465.42</ele>
        <time>2019-07-06T09:24:00Z</time>
      </trkpt>
      <trkpt lat="50.52302" lon="6.43528">
        <ele>464.45</ele>
        <time>2019-07-06T09:24:01Z</time>
      </trkpt>
      <trkpt lat="50.52307" lon="6.43543">
        <ele>463.49</ele>
        <time>2019-07-06T09:24:02Z</time>
      </trkpt>
      <trkpt lat="50.52315" lon="6.43559">
        <ele>463.01</ele>
        <time>2019-07-06T09:24:03Z</time>
      </trkpt>
      <trkpt lat="50.52325" lon="6.43568">
        <ele>463.01</ele>
        <time>2019-07-06T09:24:04Z</time>
      </trkpt>
      <trkpt lat="50.52337" lon="6.43574">
        <ele>462.53</ele>
        <time>2019-07-06T09:24:05Z</time>
      </trkpt>
      <trkpt lat="50.5235" lon="6.43577">
        <ele>461.57</ele>
        <time>2019-07-06T09:24:06Z</time>
      </trkpt>
      <trkpt lat="50.52362" lon="6.43577">
        <ele>461.09</ele>
        <time>2019-07-06T09:24:07Z</time>
      </trkpt>
      <trkpt lat="50.52375" lon="6.43576">
        <ele>461.09</ele>
        <time>2019-07-06T09:24:08Z</time>
      </trkpt>
      <trkpt lat="50.52423" lon="6.43579">
        <ele>458.21</ele>
        <time>2019-07-06T09:24:12Z</time>
      </trkpt>
      <trkpt lat="50.52448" lon="6.43586">
        <ele>456.28</ele>
        <time>2019-07-06T09:24:14Z</time>
      </trkpt>
      <trkpt lat="50.5246" lon="6.43592">
        <ele>455.8</ele>
        <time>2019-07-06T09:24:15Z</time>
      </trkpt>
      <trkpt lat="50.52472" lon="6.43599">
        <ele>454.84</ele>
        <time>2019-07-06T09:24:16Z</time>
      </trkpt>
      <trkpt lat="50.52483" lon="6.43606">
        <ele>454.36</ele>
        <time>2019-07-06T09:24:17Z</time>
      </trkpt>
      <trkpt lat="50.52494" lon="6.43616">
        <ele>453.4</ele>
        <time>2019-07-06T09:24:18Z</time>
      </trkpt>
      <trkpt lat="50.52504" lon="6.43628">
        <ele>453.4</ele>
        <time>2019-07-06T09:24:19Z</time>
      </trkpt>
      <trkpt lat="50.52514" lon="6.43641">
        <ele>452.44</ele>
        <time>2019-07-06T09:24:20Z</time>
      </trkpt>
      <trkpt lat="50.52523" lon="6.43656">
        <ele>451.96</ele>
        <time>2019-07-06T09:24:21Z</time>
      </trkpt>
      <trkpt lat="50.52567" lon="6.43728">
        <ele>448.59</ele>
        <time>2019-07-06T09:24:26Z</time>
      </trkpt>
      <trkpt lat="50.52575" lon="6.43744">
        <ele>447.63</ele>
        <time>2019-07-06T09:24:27Z</time>
      </trkpt>
      <trkpt lat="50.52582" lon="6.43761">
        <ele>447.15</ele>
        <time>2019-07-06T09:24:28Z</time>
      </trkpt>
      <trkpt lat="50.52588" lon="6.4378">
        <ele>446.19</ele>
        <time>2019-07-06T09:24:29Z</time>
      </trkpt>
      <trkpt lat="50.52605" lon="6.43859">
        <ele>442.82</ele>
        <time>2019-07-06T09:24:33Z</time>
      </trkpt>
      <trkpt lat="50.52617" lon="6.43945">
        <ele>439.46</ele>
        <time>2019-07-06T09:24:37Z</time>
      </trkpt>
      <trkpt lat="50.52625" lon="6.44034">
        <ele>436.1</ele>
        <time>2019-07-06T09:24:41Z</time>
      </trkpt>
      <trkpt lat="50.52636" lon="6.44126">
        <ele>433.21</ele>
        <time>2019-07-06T09:24:45Z</time>
      </trkpt>
      <trkpt lat="50.52648" lon="6.44194">
        <ele>429.85</ele>
        <time>2019-07-06T09:24:48Z</time>
      </trkpt>
      <trkpt lat="50.52652" lon="6.44217">
        <ele>429.85</ele>
        <time>2019-07-06T09:24:49Z</time>
      </trkpt>
      <trkpt lat="50.5267" lon="6.44284">
        <ele>426.48</ele>
        <time>2019-07-06T09:24:52Z</time>
      </trkpt>
      <trkpt lat="50.52699" lon="6.4437">
        <ele>423.12</ele>
        <time>2019-07-06T09:24:56Z</time>
      </trkpt>
      <trkpt lat="50.52722" lon="6.44433">
        <ele>421.68</ele>
        <time>2019-07-06T09:24:59Z</time>
      </trkpt>
      <trkpt lat="50.52741" lon="6.44496">
        <ele>420.23</ele>
        <time>2019-07-06T09:25:02Z</time>
      </trkpt>
      <trkpt lat="50.52751" lon="6.44538">
        <ele>418.79</ele>
        <time>2019-07-06T09:25:04Z</time>
      </trkpt>
      <trkpt lat="50.52753" lon="6.4456">
        <ele>418.31</ele>
        <time>2019-07-06T09:25:05Z</time>
      </trkpt>
      <trkpt lat="50.5275" lon="6.44719">
        <ele>416.39</ele>
        <time>2019-07-06T09:25:13Z</time>
      </trkpt>
      <trkpt lat="50.52742" lon="6.44791">
        <ele>415.91</ele>
        <time>2019-07-06T09:25:17Z</time>
      </trkpt>
      <trkpt lat="50.52744" lon="6.44927">
        <ele>415.43</ele>
        <time>2019-07-06T09:25:25Z</time>
      </trkpt>
      <trkpt lat="50.52745" lon="6.44944">
        <ele>414.47</ele>
        <time>2019-07-06T09:25:26Z</time>
      </trkpt>
      <trkpt lat="50.52748" lon="6.44959">
        <ele>414.47</ele>
        <time>2019-07-06T09:25:27Z</time>
      </trkpt>
      <trkpt lat="50.52751" lon="6.44975">
        <ele>414.47</ele>
        <time>2019-07-06T09:25:28Z</time>
      </trkpt>
      <trkpt lat="50.52754" lon="6.44991">
        <ele>414.47</ele>
        <time>2019-07-06T09:25:29Z</time>
      </trkpt>
      <trkpt lat="50.52787" lon="6.45154">
        <ele>413.02</ele>
        <time>2019-07-06T09:25:40Z</time>
      </trkpt>
      <trkpt lat="50.52796" lon="6.45213">
        <ele>412.54</ele>
        <time>2019-07-06T09:25:44Z</time>
      </trkpt>
      <trkpt lat="50.52799" lon="6.45227">
        <ele>412.54</ele>
        <time>2019-07-06T09:25:45Z</time>
      </trkpt>
      <trkpt lat="50.52814" lon="6.45386">
        <ele>410.62</ele>
        <time>2019-07-06T09:25:56Z</time>
      </trkpt>
      <trkpt lat="50.52813" lon="6.454">
        <ele>410.62</ele>
        <time>2019-07-06T09:25:57Z</time>
      </trkpt>
      <trkpt lat="50.52803" lon="6.45485">
        <ele>410.14</ele>
        <time>2019-07-06T09:26:03Z</time>
      </trkpt>
      <trkpt lat="50.52753" lon="6.45677">
        <ele>408.22</ele>
        <time>2019-07-06T09:26:17Z</time>
      </trkpt>
      <trkpt lat="50.52748" lon="6.45706">
        <ele>407.74</ele>
        <time>2019-07-06T09:26:19Z</time>
      </trkpt>
      <trkpt lat="50.52747" lon="6.4572">
        <ele>407.74</ele>
        <time>2019-07-06T09:26:20Z</time>
      </trkpt>
      <trkpt lat="50.52747" lon="6.45735">
        <ele>407.74</ele>
        <time>2019-07-06T09:26:21Z</time>
      </trkpt>
      <trkpt lat="50.52772" lon="6.45898">
        <ele>406.29</ele>
        <time>2019-07-06T09:26:32Z</time>
      </trkpt>
      <trkpt lat="50.52826" lon="6.46145">
        <ele>403.89</ele>
        <time>2019-07-06T09:26:49Z</time>
      </trkpt>
      <trkpt lat="50.52867" lon="6.46311">
        <ele>401.97</ele>
        <time>2019-07-06T09:27:01Z</time>
      </trkpt>
      <trkpt lat="50.52884" lon="6.46366">
        <ele>401.97</ele>
        <time>2019-07-06T09:27:05Z</time>
      </trkpt>
      <trkpt lat="50.5295" lon="6.46493">
        <ele>401.97</ele>
        <time>2019-07-06T09:27:17Z</time>
      </trkpt>
      <trkpt lat="50.5303" lon="6.46657">
        <ele>402.93</ele>
        <time>2019-07-06T09:27:34Z</time>
      </trkpt>
      <trkpt lat="50.53071" lon="6.46803">
        <ele>403.89</ele>
        <time>2019-07-06T09:27:48Z</time>
      </trkpt>
      <trkpt lat="50.53094" lon="6.46933">
        <ele>404.37</ele>
        <time>2019-07-06T09:28:00Z</time>
      </trkpt>
      <trkpt lat="50.53091" lon="6.46972">
        <ele>402.45</ele>
        <time>2019-07-06T09:28:03Z</time>
      </trkpt>
      <trkpt lat="50.53084" lon="6.47031">
        <ele>399.08</ele>
        <time>2019-07-06T09:28:07Z</time>
      </trkpt>
      <trkpt lat="50.53082" lon="6.47048">
        <ele>399.08</ele>
        <time>2019-07-06T09:28:08Z</time>
      </trkpt>
      <trkpt lat="50.53069" lon="6.47136">
        <ele>396.2</ele>
        <time>2019-07-06T09:28:13Z</time>
      </trkpt>
      <trkpt lat="50.53053" lon="6.47209">
        <ele>392.84</ele>
        <time>2019-07-06T09:28:17Z</time>
      </trkpt>
      <trkpt lat="50.53048" lon="6.47226">
        <ele>392.84</ele>
        <time>2019-07-06T09:28:18Z</time>
      </trkpt>
      <trkpt lat="50.53027" lon="6.47302">
        <ele>388.99</ele>
        <time>2019-07-06T09:28:22Z</time>
      </trkpt>
      <trkpt lat="50.53004" lon="6.47363">
        <ele>387.07</ele>
        <time>2019-07-06T09:28:26Z</time>
      </trkpt>
      <trkpt lat="50.52973" lon="6.47455">
        <ele>383.7</ele>
        <time>2019-07-06T09:28:32Z</time>
      </trkpt>
      <trkpt lat="50.52968" lon="6.47472">
        <ele>383.7</ele>
        <time>2019-07-06T09:28:33Z</time>
      </trkpt>
      <trkpt lat="50.52954" lon="6.47572">
        <ele>379.86</ele>
        <time>2019-07-06T09:28:40Z</time>
      </trkpt>
      <trkpt lat="50.52954" lon="6.47584">
        <ele>379.86</ele>
        <time>2019-07-06T09:28:41Z</time>
      </trkpt>
      <trkpt lat="50.52948" lon="6.47652">
        <ele>378.42</ele>
        <time>2019-07-06T09:28:51Z</time>
      </trkpt>
      <trkpt lat="50.52946" lon="6.47659">
        <ele>378.42</ele>
        <time>2019-07-06T09:29:00Z</time>
      </trkpt>
      <trkpt lat="50.52946" lon="6.47661">
        <ele>378.42</ele>
        <time>2019-07-06T09:29:17Z</time>
      </trkpt>
      <trkpt lat="50.52946" lon="6.47664">
        <ele>378.42</ele>
        <time>2019-07-06T09:29:27Z</time>
      </trkpt>
      <trkpt lat="50.52945" lon="6.47666">
        <ele>378.42</ele>
        <time>2019-07-06T09:29:28Z</time>
      </trkpt>
      <trkpt lat="50.5294" lon="6.47668">
        <ele>378.42</ele>
        <time>2019-07-06T09:29:40Z</time>
      </trkpt>
      <trkpt lat="50.52938" lon="6.47667">
        <ele>378.42</ele>
        <time>2019-07-06T09:29:44Z</time>
      </trkpt>
      <trkpt lat="50.52925" lon="6.4764">
        <ele>378.42</ele>
        <time>2019-07-06T09:29:54Z</time>
      </trkpt>
      <trkpt lat="50.52906" lon="6.47596">
        <ele>377.94</ele>
        <time>2019-07-06T09:30:04Z</time>
      </trkpt>
      <trkpt lat="50.52885" lon="6.4753">
        <ele>377.94</ele>
        <time>2019-07-06T09:30:18Z</time>
      </trkpt>
      <trkpt lat="50.52879" lon="6.47517">
        <ele>377.94</ele>
        <time>2019-07-06T09:30:27Z</time>
      </trkpt>
      <trkpt lat="50.5288" lon="6.47516">
        <ele>377.94</ele>
        <time>2019-07-06T09:30:41Z</time>
      </trkpt>
      <trkpt lat="50.52878" lon="6.47522">
        <ele>377.94</ele>
        <time>2019-07-06T09:30:50Z</time>
      </trkpt>
      <trkpt lat="50.5288" lon="6.47522">
        <ele>377.94</ele>
        <time>2019-07-06T09:30:59Z</time>
      </trkpt>
      <trkpt lat="50.52882" lon="6.47517">
        <ele>377.94</ele>
        <time>2019-07-06T09:31:31Z</time>
      </trkpt>
      <trkpt lat="50.52881" lon="6.47515">
        <ele>377.94</ele>
        <time>2019-07-06T09:31:36Z</time>
      </trkpt>
      <trkpt lat="50.52879" lon="6.47513">
        <ele>377.94</ele>
        <time>2019-07-06T09:31:37Z</time>
      </trkpt>
      <trkpt lat="50.52871" lon="6.47506">
        <ele>377.94</ele>
        <time>2019-07-06T09:31:46Z</time>
      </trkpt>
      <trkpt lat="50.52868" lon="6.47503">
        <ele>377.94</ele>
        <time>2019-07-06T09:31:57Z</time>
      </trkpt>
      <trkpt lat="50.52869" lon="6.47503">
        <ele>377.45</ele>
        <time>2019-07-06T09:32:26Z</time>
      </trkpt>
      <trkpt lat="50.52869" lon="6.475">
        <ele>377.45</ele>
        <time>2019-07-06T09:32:58Z</time>
      </trkpt>
      <trkpt lat="50.52869" lon="6.47505">
        <ele>377.45</ele>
        <time>2019-07-06T09:33:11Z</time>
      </trkpt>
      <trkpt lat="50.52873" lon="6.47513">
        <ele>377.45</ele>
        <time>2019-07-06T09:33:14Z</time>
      </trkpt>
      <trkpt lat="50.52873" lon="6.47516">
        <ele>377.45</ele>
        <time>2019-07-06T09:33:15Z</time>
      </trkpt>
      <trkpt lat="50.52874" lon="6.47519">
        <ele>377.45</ele>
        <time>2019-07-06T09:33:16Z</time>
      </trkpt>
      <trkpt lat="50.52875" lon="6.47522">
        <ele>377.45</ele>
        <time>2019-07-06T09:33:17Z</time>
      </trkpt>
      <trkpt lat="50.52876" lon="6.47525">
        <ele>377.45</ele>
        <time>2019-07-06T09:33:18Z</time>
      </trkpt>
      <trkpt lat="50.52876" lon="6.47528">
        <ele>377.45</ele>
        <time>2019-07-06T09:33:19Z</time>
      </trkpt>
      <trkpt lat="50.52876" lon="6.47531">
        <ele>377.45</ele>
        <time>2019-07-06T09:33:20Z</time>
      </trkpt>
      <trkpt lat="50.52877" lon="6.47533">
        <ele>377.45</ele>
        <time>2019-07-06T09:33:21Z</time>
      </trkpt>
      <trkpt lat="50.52878" lon="6.47535">
        <ele>377.45</ele>
        <time>2019-07-06T09:33:22Z</time>
      </trkpt>
      <trkpt lat="50.52886" lon="6.47538">
        <ele>377.45</ele>
        <time>2019-07-06T09:33:25Z</time>
      </trkpt>
      <trkpt lat="50.52888" lon="6.4754">
        <ele>377.45</ele>
        <time>2019-07-06T09:33:26Z</time>
      </trkpt>
      <trkpt lat="50.52889" lon="6.47544">
        <ele>377.45</ele>
        <time>2019-07-06T09:33:27Z</time>
      </trkpt>
      <trkpt lat="50.5289" lon="6.47549">
        <ele>377.45</ele>
        <time>2019-07-06T09:33:28Z</time>
      </trkpt>
      <trkpt lat="50.52892" lon="6.47553">
        <ele>377.45</ele>
        <time>2019-07-06T09:33:29Z</time>
      </trkpt>
      <trkpt lat="50.52894" lon="6.47558">
        <ele>377.45</ele>
        <time>2019-07-06T09:33:30Z</time>
      </trkpt>
      <trkpt lat="50.5291" lon="6.47603">
        <ele>376.49</ele>
        <time>2019-07-06T09:33:41Z</time>
      </trkpt>
      <trkpt lat="50.52927" lon="6.47641">
        <ele>376.49</ele>
        <time>2019-07-06T09:33:52Z</time>
      </trkpt>
      <trkpt lat="50.52935" lon="6.47655">
        <ele>376.49</ele>
        <time>2019-07-06T09:34:02Z</time>
      </trkpt>
      <trkpt lat="50.52933" lon="6.4765">
        <ele>376.01</ele>
        <time>2019-07-06T09:34:12Z</time>
      </trkpt>
      <trkpt lat="50.52928" lon="6.47654">
        <ele>376.01</ele>
        <time>2019-07-06T09:34:39Z</time>
      </trkpt>
      <trkpt lat="50.52926" lon="6.47652">
        <ele>376.01</ele>
        <time>2019-07-06T09:34:44Z</time>
      </trkpt>
      <trkpt lat="50.52925" lon="6.47652">
        <ele>376.01</ele>
        <time>2019-07-06T09:34:45Z</time>
      </trkpt>
      <trkpt lat="50.52923" lon="6.47654">
        <ele>376.01</ele>
        <time>2019-07-06T09:34:55Z</time>
      </trkpt>
      <trkpt lat="50.52922" lon="6.47652">
        <ele>376.01</ele>
        <time>2019-07-06T09:35:16Z</time>
      </trkpt>
      <trkpt lat="50.52931" lon="6.47651">
        <ele>376.01</ele>
        <time>2019-07-06T09:35:46Z</time>
      </trkpt>
      <trkpt lat="50.52932" lon="6.47647">
        <ele>376.01</ele>
        <time>2019-07-06T09:36:28Z</time>
      </trkpt>
      <trkpt lat="50.52936" lon="6.47647">
        <ele>376.01</ele>
        <time>2019-07-06T09:37:10Z</time>
      </trkpt>
      <trkpt lat="50.5294" lon="6.47653">
        <ele>376.01</ele>
        <time>2019-07-06T09:37:44Z</time>
      </trkpt>
      <trkpt lat="50.52934" lon="6.47651">
        <ele>376.01</ele>
        <time>2019-07-06T09:38:13Z</time>
      </trkpt>
      <trkpt lat="50.52931" lon="6.47648">
        <ele>376.01</ele>
        <time>2019-07-06T09:38:15Z</time>
      </trkpt>
      <trkpt lat="50.52921" lon="6.47631">
        <ele>376.01</ele>
        <time>2019-07-06T09:38:22Z</time>
      </trkpt>
      <trkpt lat="50.52919" lon="6.47627">
        <ele>376.01</ele>
        <time>2019-07-06T09:38:23Z</time>
      </trkpt>
      <trkpt lat="50.52918" lon="6.47623">
        <ele>376.01</ele>
        <time>2019-07-06T09:38:24Z</time>
      </trkpt>
      <trkpt lat="50.52916" lon="6.47619">
        <ele>376.01</ele>
        <time>2019-07-06T09:38:25Z</time>
      </trkpt>
      <trkpt lat="50.52915" lon="6.47613">
        <ele>376.01</ele>
        <time>2019-07-06T09:38:26Z</time>
      </trkpt>
      <trkpt lat="50.52913" lon="6.47608">
        <ele>376.01</ele>
        <time>2019-07-06T09:38:27Z</time>
      </trkpt>
      <trkpt lat="50.5291" lon="6.47603">
        <ele>376.01</ele>
        <time>2019-07-06T09:38:28Z</time>
      </trkpt>
      <trkpt lat="50.52884" lon="6.47522">
        <ele>377.45</ele>
        <time>2019-07-06T09:38:41Z</time>
      </trkpt>
      <trkpt lat="50.52867" lon="6.47463">
        <ele>378.42</ele>
        <time>2019-07-06T09:38:55Z</time>
      </trkpt>
      <trkpt lat="50.52842" lon="6.47431">
        <ele>379.38</ele>
        <time>2019-07-06T09:39:08Z</time>
      </trkpt>
      <trkpt lat="50.52801" lon="6.4744">
        <ele>379.38</ele>
        <time>2019-07-06T09:39:21Z</time>
      </trkpt>
      <trkpt lat="50.52771" lon="6.4745">
        <ele>379.38</ele>
        <time>2019-07-06T09:39:32Z</time>
      </trkpt>
      <trkpt lat="50.52769" lon="6.47448">
        <ele>379.38</ele>
        <time>2019-07-06T09:39:33Z</time>
      </trkpt>
      <trkpt lat="50.52768" lon="6.47446">
        <ele>379.38</ele>
        <time>2019-07-06T09:39:34Z</time>
      </trkpt>
      <trkpt lat="50.52766" lon="6.47445">
        <ele>378.9</ele>
        <time>2019-07-06T09:39:42Z</time>
      </trkpt>
      <trkpt lat="50.52769" lon="6.47442">
        <ele>378.9</ele>
        <time>2019-07-06T09:40:08Z</time>
      </trkpt>
      <trkpt lat="50.52772" lon="6.47444">
        <ele>378.9</ele>
        <time>2019-07-06T09:40:32Z</time>
      </trkpt>
      <trkpt lat="50.52774" lon="6.47444">
        <ele>378.9</ele>
        <time>2019-07-06T09:40:53Z</time>
      </trkpt>
      <trkpt lat="50.52778" lon="6.47444">
        <ele>378.9</ele>
        <time>2019-07-06T09:41:21Z</time>
      </trkpt>
      <trkpt lat="50.52775" lon="6.47446">
        <ele>378.42</ele>
        <time>2019-07-06T09:41:46Z</time>
      </trkpt>
      <trkpt lat="50.52773" lon="6.47448">
        <ele>378.42</ele>
        <time>2019-07-06T09:41:50Z</time>
      </trkpt>
      <trkpt lat="50.52774" lon="6.47448">
        <ele>378.42</ele>
        <time>2019-07-06T09:41:51Z</time>
      </trkpt>
      <trkpt lat="50.52776" lon="6.47448">
        <ele>378.42</ele>
        <time>2019-07-06T09:41:52Z</time>
      </trkpt>
      <trkpt lat="50.52778" lon="6.47448">
        <ele>378.42</ele>
        <time>2019-07-06T09:41:53Z</time>
      </trkpt>
      <trkpt lat="50.52779" lon="6.47448">
        <ele>378.42</ele>
        <time>2019-07-06T09:41:54Z</time>
      </trkpt>
      <trkpt lat="50.52781" lon="6.47448">
        <ele>378.42</ele>
        <time>2019-07-06T09:41:55Z</time>
      </trkpt>
      <trkpt lat="50.52798" lon="6.47449">
        <ele>378.42</ele>
        <time>2019-07-06T09:42:02Z</time>
      </trkpt>
      <trkpt lat="50.52798" lon="6.47454">
        <ele>378.42</ele>
        <time>2019-07-06T09:42:03Z</time>
      </trkpt>
      <trkpt lat="50.52798" lon="6.47457">
        <ele>378.42</ele>
        <time>2019-07-06T09:42:04Z</time>
      </trkpt>
      <trkpt lat="50.52796" lon="6.47475">
        <ele>376.49</ele>
        <time>2019-07-06T09:42:14Z</time>
      </trkpt>
      <trkpt lat="50.52796" lon="6.47475">
        <ele>376.49</ele>
        <time>2019-07-06T09:42:19Z</time>
      </trkpt>
      <trkpt lat="50.52792" lon="6.47473">
        <ele>376.49</ele>
        <time>2019-07-06T09:42:36Z</time>
      </trkpt>
      <trkpt lat="50.52795" lon="6.47474">
        <ele>376.49</ele>
        <time>2019-07-06T09:43:09Z</time>
      </trkpt>
      <trkpt lat="50.52793" lon="6.47474">
        <ele>376.01</ele>
        <time>2019-07-06T09:43:52Z</time>
      </trkpt>
      <trkpt lat="50.52794" lon="6.47473">
        <ele>376.49</ele>
        <time>2019-07-06T09:44:31Z</time>
      </trkpt>
      <trkpt lat="50.52795" lon="6.47473">
        <ele>376.01</ele>
        <time>2019-07-06T09:45:16Z</time>
      </trkpt>
      <trkpt lat="50.52797" lon="6.47472">
        <ele>376.01</ele>
        <time>2019-07-06T09:46:05Z</time>
      </trkpt>
      <trkpt lat="50.52796" lon="6.47472">
        <ele>376.01</ele>
        <time>2019-07-06T09:46:50Z</time>
      </trkpt>
      <trkpt lat="50.52793" lon="6.47471">
        <ele>375.53</ele>
        <time>2019-07-06T09:47:27Z</time>
      </trkpt>
      <trkpt lat="50.52793" lon="6.4747">
        <ele>375.53</ele>
        <time>2019-07-06T09:48:08Z</time>
      </trkpt>
      <trkpt lat="50.52794" lon="6.47474">
        <ele>375.53</ele>
        <time>2019-07-06T09:48:42Z</time>
      </trkpt>
      <trkpt lat="50.52794" lon="6.47474">
        <ele>375.05</ele>
        <time>2019-07-06T09:49:12Z</time>
      </trkpt>
      <trkpt lat="50.52797" lon="6.4747">
        <ele>375.05</ele>
        <time>2019-07-06T09:49:57Z</time>
      </trkpt>
      <trkpt lat="50.52795" lon="6.47473">
        <ele>376.01</ele>
        <time>2019-07-06T09:50:30Z</time>
      </trkpt>
      <trkpt lat="50.52795" lon="6.47475">
        <ele>376.01</ele>
        <time>2019-07-06T09:51:13Z</time>
      </trkpt>
      <trkpt lat="50.52795" lon="6.47473">
        <ele>376.01</ele>
        <time>2019-07-06T09:51:53Z</time>
      </trkpt>
      <trkpt lat="50.52797" lon="6.47472">
        <ele>375.53</ele>
        <time>2019-07-06T09:52:36Z</time>
      </trkpt>
      <trkpt lat="50.52796" lon="6.47474">
        <ele>375.53</ele>
        <time>2019-07-06T09:53:16Z</time>
      </trkpt>
      <trkpt lat="50.52795" lon="6.47473">
        <ele>374.57</ele>
        <time>2019-07-06T09:54:04Z</time>
      </trkpt>
      <trkpt lat="50.52796" lon="6.47472">
        <ele>374.09</ele>
        <time>2019-07-06T09:54:40Z</time>
      </trkpt>
      <trkpt lat="50.52795" lon="6.47471">
        <ele>374.09</ele>
        <time>2019-07-06T09:55:20Z</time>
      </trkpt>
      <trkpt lat="50.52793" lon="6.47473">
        <ele>374.09</ele>
        <time>2019-07-06T09:55:58Z</time>
      </trkpt>
      <trkpt lat="50.52795" lon="6.47472">
        <ele>375.05</ele>
        <time>2019-07-06T09:56:35Z</time>
      </trkpt>
      <trkpt lat="50.52796" lon="6.47476">
        <ele>375.05</ele>
        <time>2019-07-06T09:57:20Z</time>
      </trkpt>
      <trkpt lat="50.52796" lon="6.47476">
        <ele>375.05</ele>
        <time>2019-07-06T09:58:08Z</time>
      </trkpt>
      <trkpt lat="50.5279" lon="6.47472">
        <ele>375.53</ele>
        <time>2019-07-06T09:58:43Z</time>
      </trkpt>
      <trkpt lat="50.52792" lon="6.47471">
        <ele>375.53</ele>
        <time>2019-07-06T09:59:34Z</time>
      </trkpt>
      <trkpt lat="50.52792" lon="6.47472">
        <ele>375.53</ele>
        <time>2019-07-06T10:00:07Z</time>
      </trkpt>
      <trkpt lat="50.52794" lon="6.47473">
        <ele>375.53</ele>
        <time>2019-07-06T10:00:48Z</time>
      </trkpt>
      <trkpt lat="50.52794" lon="6.47473">
        <ele>375.53</ele>
        <time>2019-07-06T10:01:25Z</time>
      </trkpt>
      <trkpt lat="50.52793" lon="6.47472">
        <ele>375.53</ele>
        <time>2019-07-06T10:02:09Z</time>
      </trkpt>
      <trkpt lat="50.52795" lon="6.4747">
        <ele>375.53</ele>
        <time>2019-07-06T10:02:44Z</time>
      </trkpt>
      <trkpt lat="50.52794" lon="6.4747">
        <ele>375.53</ele>
        <time>2019-07-06T10:03:22Z</time>
      </trkpt>
      <trkpt lat="50.52792" lon="6.47474">
        <ele>375.53</ele>
        <time>2019-07-06T10:03:56Z</time>
      </trkpt>
      <trkpt lat="50.52793" lon="6.47471">
        <ele>375.05</ele>
        <time>2019-07-06T10:04:40Z</time>
      </trkpt>
      <trkpt lat="50.52793" lon="6.47472">
        <ele>375.05</ele>
        <time>2019-07-06T10:05:19Z</time>
      </trkpt>
      <trkpt lat="50.52795" lon="6.47472">
        <ele>375.05</ele>
        <time>2019-07-06T10:05:51Z</time>
      </trkpt>
      <trkpt lat="50.52794" lon="6.47471">
        <ele>375.05</ele>
        <time>2019-07-06T10:06:36Z</time>
      </trkpt>
      <trkpt lat="50.52795" lon="6.47472">
        <ele>374.57</ele>
        <time>2019-07-06T10:07:06Z</time>
      </trkpt>
      <trkpt lat="50.52796" lon="6.47468">
        <ele>374.57</ele>
        <time>2019-07-06T10:07:44Z</time>
      </trkpt>
      <trkpt lat="50.52793" lon="6.47473">
        <ele>374.57</ele>
        <time>2019-07-06T10:08:11Z</time>
      </trkpt>
      <trkpt lat="50.52792" lon="6.47474">
        <ele>374.57</ele>
        <time>2019-07-06T10:08:44Z</time>
      </trkpt>
      <trkpt lat="50.52797" lon="6.47474">
        <ele>374.57</ele>
        <time>2019-07-06T10:09:21Z</time>
      </trkpt>
      <trkpt lat="50.52796" lon="6.47473">
        <ele>374.57</ele>
        <time>2019-07-06T10:10:02Z</time>
      </trkpt>
      <trkpt lat="50.52795" lon="6.47471">
        <ele>373.61</ele>
        <time>2019-07-06T10:10:15Z</time>
      </trkpt>
      <trkpt lat="50.52793" lon="6.47474">
        <ele>373.13</ele>
        <time>2019-07-06T10:10:46Z</time>
      </trkpt>
      <trkpt lat="50.52794" lon="6.47472">
        <ele>373.13</ele>
        <time>2019-07-06T10:11:24Z</time>
      </trkpt>
      <trkpt lat="50.52792" lon="6.47475">
        <ele>373.13</ele>
        <time>2019-07-06T10:12:02Z</time>
      </trkpt>
      <trkpt lat="50.52792" lon="6.47472">
        <ele>374.09</ele>
        <time>2019-07-06T10:12:51Z</time>
      </trkpt>
      <trkpt lat="50.52793" lon="6.47474">
        <ele>374.09</ele>
        <time>2019-07-06T10:13:36Z</time>
      </trkpt>
      <trkpt lat="50.52795" lon="6.47475">
        <ele>374.09</ele>
        <time>2019-07-06T10:14:15Z</time>
      </trkpt>
      <trkpt lat="50.52794" lon="6.47469">
        <ele>374.09</ele>
        <time>2019-07-06T10:14:47Z</time>
      </trkpt>
      <trkpt lat="50.52795" lon="6.4747">
        <ele>374.57</ele>
        <time>2019-07-06T10:15:11Z</time>
      </trkpt>
      <trkpt lat="50.52794" lon="6.47472">
        <ele>374.09</ele>
        <time>2019-07-06T10:15:48Z</time>
      </trkpt>
      <trkpt lat="50.52794" lon="6.47474">
        <ele>374.09</ele>
        <time>2019-07-06T10:17:00Z</time>
      </trkpt>
      <trkpt lat="50.52795" lon="6.47477">
        <ele>374.09</ele>
        <time>2019-07-06T10:18:11Z</time>
      </trkpt>
      <trkpt lat="50.52794" lon="6.4747">
        <ele>373.61</ele>
        <time>2019-07-06T10:19:07Z</time>
      </trkpt>
      <trkpt lat="50.52793" lon="6.4747">
        <ele>372.65</ele>
        <time>2019-07-06T10:19:14Z</time>
      </trkpt>
      <trkpt lat="50.52794" lon="6.47473">
        <ele>372.65</ele>
        <time>2019-07-06T10:19:59Z</time>
      </trkpt>
      <trkpt lat="50.52793" lon="6.47475">
        <ele>372.65</ele>
        <time>2019-07-06T10:20:46Z</time>
      </trkpt>
      <trkpt lat="50.52795" lon="6.47476">
        <ele>372.17</ele>
        <time>2019-07-06T10:21:36Z</time>
      </trkpt>
      <trkpt lat="50.52792" lon="6.47472">
        <ele>373.61</ele>
        <time>2019-07-06T10:22:20Z</time>
      </trkpt>
      <trkpt lat="50.52794" lon="6.47471">
        <ele>373.13</ele>
        <time>2019-07-06T10:23:12Z</time>
      </trkpt>
      <trkpt lat="50.52796" lon="6.47475">
        <ele>373.13</ele>
        <time>2019-07-06T10:24:10Z</time>
      </trkpt>
      <trkpt lat="50.52796" lon="6.47471">
        <ele>373.13</ele>
        <time>2019-07-06T10:25:00Z</time>
      </trkpt>
      <trkpt lat="50.52793" lon="6.47471">
        <ele>373.13</ele>
        <time>2019-07-06T10:25:58Z</time>
      </trkpt>
      <trkpt lat="50.52792" lon="6.47474">
        <ele>373.13</ele>
        <time>2019-07-06T10:26:44Z</time>
      </trkpt>
      <trkpt lat="50.52796" lon="6.47478">
        <ele>373.13</ele>
        <time>2019-07-06T10:27:28Z</time>
      </trkpt>
      <trkpt lat="50.52797" lon="6.4747">
        <ele>373.13</ele>
        <time>2019-07-06T10:28:17Z</time>
      </trkpt>
      <trkpt lat="50.52797" lon="6.47471">
        <ele>372.65</ele>
        <time>2019-07-06T10:28:55Z</time>
      </trkpt>
      <trkpt lat="50.52795" lon="6.47475">
        <ele>372.65</ele>
        <time>2019-07-06T10:29:25Z</time>
      </trkpt>
      <trkpt lat="50.52793" lon="6.47473">
        <ele>372.65</ele>
        <time>2019-07-06T10:30:04Z</time>
      </trkpt>
      <trkpt lat="50.52793" lon="6.47477">
        <ele>372.65</ele>
        <time>2019-07-06T10:30:35Z</time>
      </trkpt>
      <trkpt lat="50.52795" lon="6.47477">
        <ele>372.65</ele>
        <time>2019-07-06T10:31:08Z</time>
      </trkpt>
      <trkpt lat="50.52796" lon="6.47473">
        <ele>372.65</ele>
        <time>2019-07-06T10:31:48Z</time>
      </trkpt>
      <trkpt lat="50.52796" lon="6.47474">
        <ele>372.65</ele>
        <time>2019-07-06T10:32:24Z</time>
      </trkpt>
      <trkpt lat="50.52794" lon="6.47475">
        <ele>372.65</ele>
        <time>2019-07-06T10:33:12Z</time>
      </trkpt>
      <trkpt lat="50.52794" lon="6.47473">
        <ele>372.65</ele>
        <time>2019-07-06T10:34:04Z</time>
      </trkpt>
      <trkpt lat="50.52795" lon="6.47472">
        <ele>372.65</ele>
        <time>2019-07-06T10:34:40Z</time>
      </trkpt>
      <trkpt lat="50.52796" lon="6.47471">
        <ele>372.17</ele>
        <time>2019-07-06T10:35:08Z</time>
      </trkpt>
      <trkpt lat="50.52796" lon="6.47474">
        <ele>372.17</ele>
        <time>2019-07-06T10:35:38Z</time>
      </trkpt>
      <trkpt lat="50.52795" lon="6.47469">
        <ele>372.17</ele>
        <time>2019-07-06T10:36:03Z</time>
      </trkpt>
      <trkpt lat="50.52792" lon="6.47475">
        <ele>372.17</ele>
        <time>2019-07-06T10:36:44Z</time>
      </trkpt>
      <trkpt lat="50.52795" lon="6.47473">
        <ele>372.17</ele>
        <time>2019-07-06T10:37:08Z</time>
      </trkpt>
      <trkpt lat="50.52796" lon="6.47472">
        <ele>372.17</ele>
        <time>2019-07-06T10:37:35Z</time>
      </trkpt>
      <trkpt lat="50.52794" lon="6.47472">
        <ele>372.17</ele>
        <time>2019-07-06T10:38:23Z</time>
      </trkpt>
      <trkpt lat="50.52796" lon="6.47476">
        <ele>372.17</ele>
        <time>2019-07-06T10:38:54Z</time>
      </trkpt>
      <trkpt lat="50.52794" lon="6.47474">
        <ele>371.69</ele>
        <time>2019-07-06T10:39:45Z</time>
      </trkpt>
      <trkpt lat="50.52794" lon="6.47476">
        <ele>372.17</ele>
        <time>2019-07-06T10:40:32Z</time>
      </trkpt>
      <trkpt lat="50.52794" lon="6.47472">
        <ele>372.17</ele>
        <time>2019-07-06T10:41:14Z</time>
      </trkpt>
      <trkpt lat="50.52792" lon="6.47474">
        <ele>372.17</ele>
        <time>2019-07-06T10:41:57Z</time>
      </trkpt>
      <trkpt lat="50.52791" lon="6.47472">
        <ele>372.17</ele>
        <time>2019-07-06T10:42:26Z</time>
      </trkpt>
      <trkpt lat="50.52791" lon="6.47474">
        <ele>372.17</ele>
        <time>2019-07-06T10:42:50Z</time>
      </trkpt>
      <trkpt lat="50.52794" lon="6.47473">
        <ele>372.17</ele>
        <time>2019-07-06T10:43:25Z</time>
      </trkpt>
      <trkpt lat="50.52793" lon="6.4747">
        <ele>372.17</ele>
        <time>2019-07-06T10:44:06Z</time>
      </trkpt>
      <trkpt lat="50.52794" lon="6.47471">
        <ele>372.17</ele>
        <time>2019-07-06T10:44:53Z</time>
      </trkpt>
      <trkpt lat="50.52794" lon="6.47472">
        <ele>372.17</ele>
        <time>2019-07-06T10:45:26Z</time>
      </trkpt>
      <trkpt lat="50.52791" lon="6.47472">
        <ele>372.17</ele>
        <time>2019-07-06T10:46:18Z</time>
      </trkpt>
      <trkpt lat="50.52792" lon="6.47476">
        <ele>372.17</ele>
        <time>2019-07-06T10:46:51Z</time>
      </trkpt>
      <trkpt lat="50.52791" lon="6.47468">
        <ele>372.17</ele>
        <time>2019-07-06T10:47:31Z</time>
      </trkpt>
      <trkpt lat="50.52796" lon="6.47475">
        <ele>372.17</ele>
        <time>2019-07-06T10:48:09Z</time>
      </trkpt>
      <trkpt lat="50.52795" lon="6.47474">
        <ele>372.17</ele>
        <time>2019-07-06T10:48:55Z</time>
      </trkpt>
      <trkpt lat="50.52796" lon="6.47472">
        <ele>372.17</ele>
        <time>2019-07-06T10:49:41Z</time>
      </trkpt>
      <trkpt lat="50.52793" lon="6.47472">
        <ele>372.17</ele>
        <time>2019-07-06T10:50:16Z</time>
      </trkpt>
      <trkpt lat="50.52793" lon="6.47473">
        <ele>372.17</ele>
        <time>2019-07-06T10:50:45Z</time>
      </trkpt>
      <trkpt lat="50.52797" lon="6.47473">
        <ele>370.73</ele>
        <time>2019-07-06T10:51:12Z</time>
      </trkpt>
      <trkpt lat="50.52795" lon="6.47471">
        <ele>370.73</ele>
        <time>2019-07-06T10:51:51Z</time>
      </trkpt>
      <trkpt lat="50.52796" lon="6.47471">
        <ele>371.21</ele>
        <time>2019-07-06T10:52:29Z</time>
      </trkpt>
      <trkpt lat="50.52794" lon="6.47474">
        <ele>371.21</ele>
        <time>2019-07-06T10:53:06Z</time>
      </trkpt>
      <trkpt lat="50.52793" lon="6.4747">
        <ele>371.21</ele>
        <time>2019-07-06T10:53:35Z</time>
      </trkpt>
      <trkpt lat="50.52796" lon="6.47473">
        <ele>371.21</ele>
        <time>2019-07-06T10:54:12Z</time>
      </trkpt>
      <trkpt lat="50.52794" lon="6.47473">
        <ele>371.21</ele>
        <time>2019-07-06T10:54:51Z</time>
      </trkpt>
      <trkpt lat="50.52792" lon="6.47474">
        <ele>371.21</ele>
        <time>2019-07-06T10:55:17Z</time>
      </trkpt>
      <trkpt lat="50.52793" lon="6.47472">
        <ele>371.21</ele>
        <time>2019-07-06T10:55:53Z</time>
      </trkpt>
      <trkpt lat="50.52792" lon="6.47472">
        <ele>370.73</ele>
        <time>2019-07-06T10:56:22Z</time>
      </trkpt>
      <trkpt lat="50.52791" lon="6.47471">
        <ele>370.73</ele>
        <time>2019-07-06T10:56:53Z</time>
      </trkpt>
      <trkpt lat="50.52792" lon="6.47471">
        <ele>370.73</ele>
        <time>2019-07-06T10:57:28Z</time>
      </trkpt>
      <trkpt lat="50.52793" lon="6.47472">
        <ele>370.73</ele>
        <time>2019-07-06T10:58:02Z</time>
      </trkpt>
      <trkpt lat="50.52791" lon="6.47476">
        <ele>370.73</ele>
        <time>2019-07-06T10:58:47Z</time>
      </trkpt>
      <trkpt lat="50.52795" lon="6.47475">
        <ele>370.73</ele>
        <time>2019-07-06T10:59:12Z</time>
      </trkpt>
      <trkpt lat="50.52797" lon="6.47476">
        <ele>370.73</ele>
        <time>2019-07-06T10:59:44Z</time>
      </trkpt>
      <trkpt lat="50.52797" lon="6.47474">
        <ele>370.73</ele>
        <time>2019-07-06T11:00:10Z</time>
      </trkpt>
      <trkpt lat="50.52795" lon="6.47473">
        <ele>370.73</ele>
        <time>2019-07-06T11:00:39Z</time>
      </trkpt>
      <trkpt lat="50.52794" lon="6.47475">
        <ele>370.73</ele>
        <time>2019-07-06T11:01:04Z</time>
      </trkpt>
      <trkpt lat="50.52797" lon="6.47478">
        <ele>370.24</ele>
        <time>2019-07-06T11:01:34Z</time>
      </trkpt>
      <trkpt lat="50.52794" lon="6.47477">
        <ele>370.24</ele>
        <time>2019-07-06T11:02:05Z</time>
      </trkpt>
      <trkpt lat="50.5279" lon="6.47479">
        <ele>370.24</ele>
        <time>2019-07-06T11:02:36Z</time>
      </trkpt>
      <trkpt lat="50.52792" lon="6.4748">
        <ele>370.24</ele>
        <time>2019-07-06T11:02:59Z</time>
      </trkpt>
      <trkpt lat="50.52794" lon="6.47478">
        <ele>370.24</ele>
        <time>2019-07-06T11:03:30Z</time>
      </trkpt>
      <trkpt lat="50.52789" lon="6.47469">
        <ele>370.24</ele>
        <time>2019-07-06T11:04:04Z</time>
      </trkpt>
      <trkpt lat="50.52792" lon="6.47471">
        <ele>369.76</ele>
        <time>2019-07-06T11:04:32Z</time>
      </trkpt>
      <trkpt lat="50.52794" lon="6.47469">
        <ele>369.76</ele>
        <time>2019-07-06T11:05:01Z</time>
      </trkpt>
      <trkpt lat="50.52795" lon="6.47471">
        <ele>369.76</ele>
        <time>2019-07-06T11:05:32Z</time>
      </trkpt>
      <trkpt lat="50.52794" lon="6.47469">
        <ele>370.24</ele>
        <time>2019-07-06T11:06:11Z</time>
      </trkpt>
      <trkpt lat="50.52792" lon="6.47463">
        <ele>370.24</ele>
        <time>2019-07-06T11:06:42Z</time>
      </trkpt>
      <trkpt lat="50.52791" lon="6.47461">
        <ele>370.24</ele>
        <time>2019-07-06T11:07:09Z</time>
      </trkpt>
      <trkpt lat="50.52791" lon="6.47468">
        <ele>371.21</ele>
        <time>2019-07-06T11:07:33Z</time>
      </trkpt>
      <trkpt lat="50.52791" lon="6.47472">
        <ele>371.21</ele>
        <time>2019-07-06T11:07:55Z</time>
      </trkpt>
      <trkpt lat="50.5279" lon="6.47472">
        <ele>371.21</ele>
        <time>2019-07-06T11:08:12Z</time>
      </trkpt>
      <trkpt lat="50.52793" lon="6.47473">
        <ele>371.21</ele>
        <time>2019-07-06T11:08:32Z</time>
      </trkpt>
      <trkpt lat="50.52794" lon="6.47474">
        <ele>371.21</ele>
        <time>2019-07-06T11:08:51Z</time>
      </trkpt>
      <trkpt lat="50.52794" lon="6.47473">
        <ele>371.21</ele>
        <time>2019-07-06T11:09:11Z</time>
      </trkpt>
      <trkpt lat="50.52793" lon="6.47471">
        <ele>371.21</ele>
        <time>2019-07-06T11:09:33Z</time>
      </trkpt>
      <trkpt lat="50.52792" lon="6.47471">
        <ele>371.21</ele>
        <time>2019-07-06T11:09:55Z</time>
      </trkpt>
      <trkpt lat="50.52794" lon="6.47471">
        <ele>371.21</ele>
        <time>2019-07-06T11:10:13Z</time>
      </trkpt>
      <trkpt lat="50.52794" lon="6.47473">
        <ele>371.21</ele>
        <time>2019-07-06T11:10:37Z</time>
      </trkpt>
      <trkpt lat="50.52795" lon="6.47473">
        <ele>371.21</ele>
        <time>2019-07-06T11:10:52Z</time>
      </trkpt>
      <trkpt lat="50.52794" lon="6.47471">
        <ele>371.21</ele>
        <time>2019-07-06T11:11:13Z</time>
      </trkpt>
      <trkpt lat="50.52797" lon="6.4747">
        <ele>371.21</ele>
        <time>2019-07-06T11:11:42Z</time>
      </trkpt>
      <trkpt lat="50.52796" lon="6.47473">
        <ele>371.21</ele>
        <time>2019-07-06T11:12:06Z</time>
      </trkpt>
      <trkpt lat="50.52795" lon="6.47471">
        <ele>370.24</ele>
        <time>2019-07-06T11:12:29Z</time>
      </trkpt>
      <trkpt lat="50.52794" lon="6.4747">
        <ele>370.24</ele>
        <time>2019-07-06T11:12:56Z</time>
      </trkpt>
      <trkpt lat="50.52792" lon="6.47465">
        <ele>370.24</ele>
        <time>2019-07-06T11:13:23Z</time>
      </trkpt>
      <trkpt lat="50.52793" lon="6.47466">
        <ele>370.24</ele>
        <time>2019-07-06T11:13:48Z</time>
      </trkpt>
      <trkpt lat="50.52795" lon="6.47468">
        <ele>370.24</ele>
        <time>2019-07-06T11:14:20Z</time>
      </trkpt>
      <trkpt lat="50.52795" lon="6.4747">
        <ele>370.73</ele>
        <time>2019-07-06T11:14:45Z</time>
      </trkpt>
      <trkpt lat="50.52793" lon="6.47465">
        <ele>370.73</ele>
        <time>2019-07-06T11:15:06Z</time>
      </trkpt>
      <trkpt lat="50.52792" lon="6.47465">
        <ele>370.73</ele>
        <time>2019-07-06T11:15:21Z</time>
      </trkpt>
      <trkpt lat="50.52791" lon="6.47465">
        <ele>370.73</ele>
        <time>2019-07-06T11:15:52Z</time>
      </trkpt>
      <trkpt lat="50.52793" lon="6.47468">
        <ele>370.73</ele>
        <time>2019-07-06T11:16:16Z</time>
      </trkpt>
      <trkpt lat="50.52791" lon="6.47469">
        <ele>370.73</ele>
        <time>2019-07-06T11:16:43Z</time>
      </trkpt>
      <trkpt lat="50.52795" lon="6.4747">
        <ele>370.73</ele>
        <time>2019-07-06T11:17:07Z</time>
      </trkpt>
      <trkpt lat="50.52795" lon="6.47471">
        <ele>370.73</ele>
        <time>2019-07-06T11:17:27Z</time>
      </trkpt>
      <trkpt lat="50.52793" lon="6.47471">
        <ele>371.21</ele>
        <time>2019-07-06T11:17:51Z</time>
      </trkpt>
      <trkpt lat="50.52791" lon="6.47468">
        <ele>371.21</ele>
        <time>2019-07-06T11:18:12Z</time>
      </trkpt>
      <trkpt lat="50.52791" lon="6.4747">
        <ele>371.21</ele>
        <time>2019-07-06T11:18:32Z</time>
      </trkpt>
      <trkpt lat="50.52791" lon="6.47471">
        <ele>371.21</ele>
        <time>2019-07-06T11:18:51Z</time>
      </trkpt>
      <trkpt lat="50.52793" lon="6.47469">
        <ele>371.21</ele>
        <time>2019-07-06T11:19:12Z</time>
      </trkpt>
      <trkpt lat="50.52792" lon="6.47468">
        <ele>371.21</ele>
        <time>2019-07-06T11:19:30Z</time>
      </trkpt>
      <trkpt lat="50.52792" lon="6.47468">
        <ele>371.21</ele>
        <time>2019-07-06T11:19:50Z</time>
      </trkpt>
      <trkpt lat="50.52793" lon="6.47469">
        <ele>371.21</ele>
        <time>2019-07-06T11:20:17Z</time>
      </trkpt>
      <trkpt lat="50.52794" lon="6.47468">
        <ele>371.21</ele>
        <time>2019-07-06T11:20:48Z</time>
      </trkpt>
      <trkpt lat="50.52794" lon="6.47465">
        <ele>371.21</ele>
        <time>2019-07-06T11:21:10Z</time>
      </trkpt>
      <trkpt lat="50.52795" lon="6.47466">
        <ele>371.21</ele>
        <time>2019-07-06T11:21:24Z</time>
      </trkpt>
      <trkpt lat="50.52797" lon="6.4747">
        <ele>371.21</ele>
        <time>2019-07-06T11:21:46Z</time>
      </trkpt>
      <trkpt lat="50.52796" lon="6.47466">
        <ele>371.21</ele>
        <time>2019-07-06T11:21:53Z</time>
      </trkpt>
      <trkpt lat="50.52796" lon="6.47461">
        <ele>371.21</ele>
        <time>2019-07-06T11:21:55Z</time>
      </trkpt>
      <trkpt lat="50.52796" lon="6.47458">
        <ele>371.21</ele>
        <time>2019-07-06T11:21:56Z</time>
      </trkpt>
      <trkpt lat="50.52797" lon="6.47455">
        <ele>371.21</ele>
        <time>2019-07-06T11:21:57Z</time>
      </trkpt>
      <trkpt lat="50.52797" lon="6.47452">
        <ele>371.21</ele>
        <time>2019-07-06T11:21:58Z</time>
      </trkpt>
      <trkpt lat="50.52799" lon="6.47445">
        <ele>372.65</ele>
        <time>2019-07-06T11:22:01Z</time>
      </trkpt>
      <trkpt lat="50.52802" lon="6.47442">
        <ele>372.65</ele>
        <time>2019-07-06T11:22:03Z</time>
      </trkpt>
      <trkpt lat="50.52806" lon="6.47439">
        <ele>372.65</ele>
        <time>2019-07-06T11:22:04Z</time>
      </trkpt>
      <trkpt lat="50.52809" lon="6.47437">
        <ele>372.65</ele>
        <time>2019-07-06T11:22:05Z</time>
      </trkpt>
      <trkpt lat="50.52812" lon="6.47437">
        <ele>372.65</ele>
        <time>2019-07-06T11:22:06Z</time>
      </trkpt>
      <trkpt lat="50.52814" lon="6.47439">
        <ele>372.65</ele>
        <time>2019-07-06T11:22:07Z</time>
      </trkpt>
      <trkpt lat="50.52816" lon="6.47444">
        <ele>372.65</ele>
        <time>2019-07-06T11:22:08Z</time>
      </trkpt>
      <trkpt lat="50.52818" lon="6.4745">
        <ele>372.65</ele>
        <time>2019-07-06T11:22:09Z</time>
      </trkpt>
      <trkpt lat="50.52819" lon="6.47455">
        <ele>372.65</ele>
        <time>2019-07-06T11:22:10Z</time>
      </trkpt>
      <trkpt lat="50.52821" lon="6.47472">
        <ele>371.69</ele>
        <time>2019-07-06T11:22:12Z</time>
      </trkpt>
      <trkpt lat="50.52825" lon="6.47495">
        <ele>371.21</ele>
        <time>2019-07-06T11:22:15Z</time>
      </trkpt>
      <trkpt lat="50.52827" lon="6.47503">
        <ele>371.21</ele>
        <time>2019-07-06T11:22:16Z</time>
      </trkpt>
      <trkpt lat="50.5283" lon="6.47511">
        <ele>371.21</ele>
        <time>2019-07-06T11:22:17Z</time>
      </trkpt>
      <trkpt lat="50.52852" lon="6.47556">
        <ele>370.73</ele>
        <time>2019-07-06T11:22:23Z</time>
      </trkpt>
      <trkpt lat="50.52856" lon="6.47563">
        <ele>369.76</ele>
        <time>2019-07-06T11:22:24Z</time>
      </trkpt>
      <trkpt lat="50.52876" lon="6.47591">
        <ele>369.76</ele>
        <time>2019-07-06T11:22:29Z</time>
      </trkpt>
      <trkpt lat="50.5288" lon="6.47594">
        <ele>369.76</ele>
        <time>2019-07-06T11:22:30Z</time>
      </trkpt>
      <trkpt lat="50.52884" lon="6.47596">
        <ele>369.76</ele>
        <time>2019-07-06T11:22:31Z</time>
      </trkpt>
      <trkpt lat="50.52894" lon="6.47597">
        <ele>369.76</ele>
        <time>2019-07-06T11:22:33Z</time>
      </trkpt>
      <trkpt lat="50.52898" lon="6.476">
        <ele>369.76</ele>
        <time>2019-07-06T11:22:34Z</time>
      </trkpt>
      <trkpt lat="50.52903" lon="6.47604">
        <ele>369.76</ele>
        <time>2019-07-06T11:22:35Z</time>
      </trkpt>
      <trkpt lat="50.52906" lon="6.47609">
        <ele>369.76</ele>
        <time>2019-07-06T11:22:36Z</time>
      </trkpt>
      <trkpt lat="50.5291" lon="6.47615">
        <ele>369.76</ele>
        <time>2019-07-06T11:22:37Z</time>
      </trkpt>
      <trkpt lat="50.52935" lon="6.47671">
        <ele>369.76</ele>
        <time>2019-07-06T11:22:49Z</time>
      </trkpt>
      <trkpt lat="50.5294" lon="6.47679">
        <ele>369.76</ele>
        <time>2019-07-06T11:22:57Z</time>
      </trkpt>
      <trkpt lat="50.52942" lon="6.47684">
        <ele>369.76</ele>
        <time>2019-07-06T11:22:58Z</time>
      </trkpt>
      <trkpt lat="50.52944" lon="6.47688">
        <ele>369.76</ele>
        <time>2019-07-06T11:22:59Z</time>
      </trkpt>
      <trkpt lat="50.52948" lon="6.47691">
        <ele>369.76</ele>
        <time>2019-07-06T11:23:00Z</time>
      </trkpt>
      <trkpt lat="50.52952" lon="6.47693">
        <ele>369.76</ele>
        <time>2019-07-06T11:23:01Z</time>
      </trkpt>
      <trkpt lat="50.52956" lon="6.47691">
        <ele>369.76</ele>
        <time>2019-07-06T11:23:02Z</time>
      </trkpt>
      <trkpt lat="50.5296" lon="6.47687">
        <ele>369.76</ele>
        <time>2019-07-06T11:23:03Z</time>
      </trkpt>
      <trkpt lat="50.52963" lon="6.47682">
        <ele>369.76</ele>
        <time>2019-07-06T11:23:04Z</time>
      </trkpt>
      <trkpt lat="50.52968" lon="6.47676">
        <ele>369.76</ele>
        <time>2019-07-06T11:23:05Z</time>
      </trkpt>
      <trkpt lat="50.52973" lon="6.47673">
        <ele>369.76</ele>
        <time>2019-07-06T11:23:06Z</time>
      </trkpt>
      <trkpt lat="50.52977" lon="6.4767">
        <ele>369.76</ele>
        <time>2019-07-06T11:23:07Z</time>
      </trkpt>
      <trkpt lat="50.53005" lon="6.4766">
        <ele>369.76</ele>
        <time>2019-07-06T11:23:12Z</time>
      </trkpt>
      <trkpt lat="50.53058" lon="6.47666">
        <ele>369.76</ele>
        <time>2019-07-06T11:23:22Z</time>
      </trkpt>
      <trkpt lat="50.53091" lon="6.4767">
        <ele>371.21</ele>
        <time>2019-07-06T11:23:28Z</time>
      </trkpt>
      <trkpt lat="50.53125" lon="6.47674">
        <ele>372.17</ele>
        <time>2019-07-06T11:23:35Z</time>
      </trkpt>
      <trkpt lat="50.53195" lon="6.47707">
        <ele>372.17</ele>
        <time>2019-07-06T11:23:47Z</time>
      </trkpt>
      <trkpt lat="50.53213" lon="6.47722">
        <ele>370.73</ele>
        <time>2019-07-06T11:23:50Z</time>
      </trkpt>
      <trkpt lat="50.53305" lon="6.47816">
        <ele>369.76</ele>
        <time>2019-07-06T11:24:06Z</time>
      </trkpt>
      <trkpt lat="50.53394" lon="6.47912">
        <ele>369.28</ele>
        <time>2019-07-06T11:24:24Z</time>
      </trkpt>
      <trkpt lat="50.5341" lon="6.47928">
        <ele>369.28</ele>
        <time>2019-07-06T11:24:28Z</time>
      </trkpt>
      <trkpt lat="50.53439" lon="6.47954">
        <ele>370.73</ele>
        <time>2019-07-06T11:24:36Z</time>
      </trkpt>
      <trkpt lat="50.53443" lon="6.47958">
        <ele>370.73</ele>
        <time>2019-07-06T11:24:37Z</time>
      </trkpt>
      <trkpt lat="50.53446" lon="6.47964">
        <ele>370.73</ele>
        <time>2019-07-06T11:24:38Z</time>
      </trkpt>
      <trkpt lat="50.5345" lon="6.47969">
        <ele>370.73</ele>
        <time>2019-07-06T11:24:39Z</time>
      </trkpt>
      <trkpt lat="50.53454" lon="6.47975">
        <ele>371.21</ele>
        <time>2019-07-06T11:24:40Z</time>
      </trkpt>
      <trkpt lat="50.53486" lon="6.48017">
        <ele>371.69</ele>
        <time>2019-07-06T11:24:47Z</time>
      </trkpt>
      <trkpt lat="50.53539" lon="6.48128">
        <ele>371.69</ele>
        <time>2019-07-06T11:25:02Z</time>
      </trkpt>
      <trkpt lat="50.53566" lon="6.48248">
        <ele>370.24</ele>
        <time>2019-07-06T11:25:15Z</time>
      </trkpt>
      <trkpt lat="50.53569" lon="6.48379">
        <ele>368.8</ele>
        <time>2019-07-06T11:25:29Z</time>
      </trkpt>
      <trkpt lat="50.53569" lon="6.48397">
        <ele>368.8</ele>
        <time>2019-07-06T11:25:31Z</time>
      </trkpt>
      <trkpt lat="50.53569" lon="6.48406">
        <ele>368.8</ele>
        <time>2019-07-06T11:25:32Z</time>
      </trkpt>
      <trkpt lat="50.53569" lon="6.48415">
        <ele>368.8</ele>
        <time>2019-07-06T11:25:33Z</time>
      </trkpt>
      <trkpt lat="50.53568" lon="6.48424">
        <ele>368.8</ele>
        <time>2019-07-06T11:25:34Z</time>
      </trkpt>
      <trkpt lat="50.53567" lon="6.48433">
        <ele>368.8</ele>
        <time>2019-07-06T11:25:35Z</time>
      </trkpt>
      <trkpt lat="50.53564" lon="6.48492">
        <ele>368.32</ele>
        <time>2019-07-06T11:25:41Z</time>
      </trkpt>
      <trkpt lat="50.53564" lon="6.48502">
        <ele>368.32</ele>
        <time>2019-07-06T11:25:42Z</time>
      </trkpt>
      <trkpt lat="50.53566" lon="6.48618">
        <ele>370.73</ele>
        <time>2019-07-06T11:25:55Z</time>
      </trkpt>
      <trkpt lat="50.53567" lon="6.48625">
        <ele>370.73</ele>
        <time>2019-07-06T11:25:56Z</time>
      </trkpt>
      <trkpt lat="50.53569" lon="6.48632">
        <ele>371.21</ele>
        <time>2019-07-06T11:25:57Z</time>
      </trkpt>
      <trkpt lat="50.53577" lon="6.48659">
        <ele>371.69</ele>
        <time>2019-07-06T11:26:01Z</time>
      </trkpt>
      <trkpt lat="50.53593" lon="6.48689">
        <ele>372.65</ele>
        <time>2019-07-06T11:26:06Z</time>
      </trkpt>
      <trkpt lat="50.53655" lon="6.48743">
        <ele>375.05</ele>
        <time>2019-07-06T11:26:21Z</time>
      </trkpt>
      <trkpt lat="50.53733" lon="6.48761">
        <ele>376.97</ele>
        <time>2019-07-06T11:26:37Z</time>
      </trkpt>
      <trkpt lat="50.5382" lon="6.48751">
        <ele>376.97</ele>
        <time>2019-07-06T11:26:53Z</time>
      </trkpt>
      <trkpt lat="50.53843" lon="6.48745">
        <ele>376.01</ele>
        <time>2019-07-06T11:26:57Z</time>
      </trkpt>
      <trkpt lat="50.53935" lon="6.48706">
        <ele>372.65</ele>
        <time>2019-07-06T11:27:11Z</time>
      </trkpt>
      <trkpt lat="50.54017" lon="6.48671">
        <ele>369.28</ele>
        <time>2019-07-06T11:27:22Z</time>
      </trkpt>
      <trkpt lat="50.5414" lon="6.48619">
        <ele>365.92</ele>
        <time>2019-07-06T11:27:39Z</time>
      </trkpt>
      <trkpt lat="50.54244" lon="6.48578">
        <ele>363.52</ele>
        <time>2019-07-06T11:27:53Z</time>
      </trkpt>
      <trkpt lat="50.54321" lon="6.48547">
        <ele>360.63</ele>
        <time>2019-07-06T11:28:03Z</time>
      </trkpt>
      <trkpt lat="50.5433" lon="6.48546">
        <ele>360.63</ele>
        <time>2019-07-06T11:28:04Z</time>
      </trkpt>
      <trkpt lat="50.54338" lon="6.48546">
        <ele>360.63</ele>
        <time>2019-07-06T11:28:05Z</time>
      </trkpt>
      <trkpt lat="50.54432" lon="6.48535">
        <ele>357.75</ele>
        <time>2019-07-06T11:28:16Z</time>
      </trkpt>
      <trkpt lat="50.54517" lon="6.48514">
        <ele>355.83</ele>
        <time>2019-07-06T11:28:27Z</time>
      </trkpt>
      <trkpt lat="50.54549" lon="6.48496">
        <ele>359.67</ele>
        <time>2019-07-06T11:28:33Z</time>
      </trkpt>
      <trkpt lat="50.54595" lon="6.48482">
        <ele>362.55</ele>
        <time>2019-07-06T11:28:43Z</time>
      </trkpt>
      <trkpt lat="50.54622" lon="6.48486">
        <ele>363.52</ele>
        <time>2019-07-06T11:28:49Z</time>
      </trkpt>
      <trkpt lat="50.54626" lon="6.48487">
        <ele>363.52</ele>
        <time>2019-07-06T11:28:50Z</time>
      </trkpt>
      <trkpt lat="50.54677" lon="6.48515">
        <ele>364.96</ele>
        <time>2019-07-06T11:29:01Z</time>
      </trkpt>
      <trkpt lat="50.54744" lon="6.48569">
        <ele>364.96</ele>
        <time>2019-07-06T11:29:14Z</time>
      </trkpt>
      <trkpt lat="50.54815" lon="6.48626">
        <ele>362.55</ele>
        <time>2019-07-06T11:29:26Z</time>
      </trkpt>
      <trkpt lat="50.54919" lon="6.48721">
        <ele>359.67</ele>
        <time>2019-07-06T11:29:43Z</time>
      </trkpt>
      <trkpt lat="50.54924" lon="6.48726">
        <ele>359.19</ele>
        <time>2019-07-06T11:29:44Z</time>
      </trkpt>
      <trkpt lat="50.54953" lon="6.48753">
        <ele>358.23</ele>
        <time>2019-07-06T11:29:49Z</time>
      </trkpt>
      <trkpt lat="50.54964" lon="6.48767">
        <ele>357.75</ele>
        <time>2019-07-06T11:29:51Z</time>
      </trkpt>
      <trkpt lat="50.55036" lon="6.48894">
        <ele>355.83</ele>
        <time>2019-07-06T11:30:05Z</time>
      </trkpt>
      <trkpt lat="50.55052" lon="6.48921">
        <ele>355.34</ele>
        <time>2019-07-06T11:30:08Z</time>
      </trkpt>
      <trkpt lat="50.55056" lon="6.48931">
        <ele>355.34</ele>
        <time>2019-07-06T11:30:09Z</time>
      </trkpt>
      <trkpt lat="50.55118" lon="6.49045">
        <ele>353.42</ele>
        <time>2019-07-06T11:30:22Z</time>
      </trkpt>
      <trkpt lat="50.55202" lon="6.49133">
        <ele>352.94</ele>
        <time>2019-07-06T11:30:36Z</time>
      </trkpt>
      <trkpt lat="50.55313" lon="6.49202">
        <ele>351.5</ele>
        <time>2019-07-06T11:30:52Z</time>
      </trkpt>
      <trkpt lat="50.55391" lon="6.49284">
        <ele>350.54</ele>
        <time>2019-07-06T11:31:05Z</time>
      </trkpt>
      <trkpt lat="50.55495" lon="6.49409">
        <ele>350.06</ele>
        <time>2019-07-06T11:31:23Z</time>
      </trkpt>
      <trkpt lat="50.55614" lon="6.49506">
        <ele>349.58</ele>
        <time>2019-07-06T11:31:42Z</time>
      </trkpt>
      <trkpt lat="50.55677" lon="6.4955">
        <ele>348.62</ele>
        <time>2019-07-06T11:31:52Z</time>
      </trkpt>
      <trkpt lat="50.55793" lon="6.49626">
        <ele>347.65</ele>
        <time>2019-07-06T11:32:10Z</time>
      </trkpt>
      <trkpt lat="50.55887" lon="6.49654">
        <ele>347.65</ele>
        <time>2019-07-06T11:32:25Z</time>
      </trkpt>
      <trkpt lat="50.55893" lon="6.49656">
        <ele>347.65</ele>
        <time>2019-07-06T11:32:26Z</time>
      </trkpt>
      <trkpt lat="50.55904" lon="6.4966">
        <ele>347.65</ele>
        <time>2019-07-06T11:32:28Z</time>
      </trkpt>
      <trkpt lat="50.55916" lon="6.49666">
        <ele>347.65</ele>
        <time>2019-07-06T11:32:30Z</time>
      </trkpt>
      <trkpt lat="50.56002" lon="6.49687">
        <ele>347.17</ele>
        <time>2019-07-06T11:32:44Z</time>
      </trkpt>
      <trkpt lat="50.56087" lon="6.49709">
        <ele>347.17</ele>
        <time>2019-07-06T11:32:58Z</time>
      </trkpt>
      <trkpt lat="50.56169" lon="6.49728">
        <ele>346.69</ele>
        <time>2019-07-06T11:33:12Z</time>
      </trkpt>
      <trkpt lat="50.56255" lon="6.4975">
        <ele>346.21</ele>
        <time>2019-07-06T11:33:26Z</time>
      </trkpt>
      <trkpt lat="50.56344" lon="6.49784">
        <ele>345.73</ele>
        <time>2019-07-06T11:33:41Z</time>
      </trkpt>
      <trkpt lat="50.56454" lon="6.49839">
        <ele>344.77</ele>
        <time>2019-07-06T11:33:59Z</time>
      </trkpt>
      <trkpt lat="50.56539" lon="6.49895">
        <ele>344.77</ele>
        <time>2019-07-06T11:34:13Z</time>
      </trkpt>
      <trkpt lat="50.56545" lon="6.49898">
        <ele>344.77</ele>
        <time>2019-07-06T11:34:14Z</time>
      </trkpt>
      <trkpt lat="50.56551" lon="6.49901">
        <ele>344.77</ele>
        <time>2019-07-06T11:34:15Z</time>
      </trkpt>
      <trkpt lat="50.56556" lon="6.49905">
        <ele>344.77</ele>
        <time>2019-07-06T11:34:16Z</time>
      </trkpt>
      <trkpt lat="50.56561" lon="6.49911">
        <ele>344.77</ele>
        <time>2019-07-06T11:34:17Z</time>
      </trkpt>
      <trkpt lat="50.56567" lon="6.49916">
        <ele>344.77</ele>
        <time>2019-07-06T11:34:18Z</time>
      </trkpt>
      <trkpt lat="50.56573" lon="6.49921">
        <ele>344.77</ele>
        <time>2019-07-06T11:34:19Z</time>
      </trkpt>
      <trkpt lat="50.56586" lon="6.49929">
        <ele>344.77</ele>
        <time>2019-07-06T11:34:21Z</time>
      </trkpt>
      <trkpt lat="50.56592" lon="6.49934">
        <ele>344.77</ele>
        <time>2019-07-06T11:34:22Z</time>
      </trkpt>
      <trkpt lat="50.56676" lon="6.4998">
        <ele>344.77</ele>
        <time>2019-07-06T11:34:35Z</time>
      </trkpt>
      <trkpt lat="50.56769" lon="6.50001">
        <ele>344.29</ele>
        <time>2019-07-06T11:34:49Z</time>
      </trkpt>
      <trkpt lat="50.56881" lon="6.49987">
        <ele>343.81</ele>
        <time>2019-07-06T11:35:05Z</time>
      </trkpt>
      <trkpt lat="50.56963" lon="6.49939">
        <ele>342.85</ele>
        <time>2019-07-06T11:35:18Z</time>
      </trkpt>
      <trkpt lat="50.5698" lon="6.49911">
        <ele>342.37</ele>
        <time>2019-07-06T11:35:26Z</time>
      </trkpt>
      <trkpt lat="50.56996" lon="6.49905">
        <ele>342.37</ele>
        <time>2019-07-06T11:35:31Z</time>
      </trkpt>
      <trkpt lat="50.57" lon="6.49908">
        <ele>342.37</ele>
        <time>2019-07-06T11:35:32Z</time>
      </trkpt>
      <trkpt lat="50.57004" lon="6.49911">
        <ele>342.37</ele>
        <time>2019-07-06T11:35:33Z</time>
      </trkpt>
      <trkpt lat="50.57009" lon="6.49911">
        <ele>342.37</ele>
        <time>2019-07-06T11:35:34Z</time>
      </trkpt>
      <trkpt lat="50.57013" lon="6.4991">
        <ele>342.37</ele>
        <time>2019-07-06T11:35:35Z</time>
      </trkpt>
      <trkpt lat="50.57019" lon="6.49909">
        <ele>342.37</ele>
        <time>2019-07-06T11:35:36Z</time>
      </trkpt>
      <trkpt lat="50.57023" lon="6.49908">
        <ele>341.89</ele>
        <time>2019-07-06T11:35:37Z</time>
      </trkpt>
      <trkpt lat="50.57072" lon="6.49919">
        <ele>341.41</ele>
        <time>2019-07-06T11:35:46Z</time>
      </trkpt>
      <trkpt lat="50.57078" lon="6.49923">
        <ele>341.41</ele>
        <time>2019-07-06T11:35:47Z</time>
      </trkpt>
      <trkpt lat="50.57084" lon="6.49928">
        <ele>340.92</ele>
        <time>2019-07-06T11:35:48Z</time>
      </trkpt>
      <trkpt lat="50.57093" lon="6.49939">
        <ele>340.92</ele>
        <time>2019-07-06T11:35:50Z</time>
      </trkpt>
      <trkpt lat="50.57109" lon="6.49956">
        <ele>340.44</ele>
        <time>2019-07-06T11:35:53Z</time>
      </trkpt>
      <trkpt lat="50.57115" lon="6.4996">
        <ele>339.96</ele>
        <time>2019-07-06T11:35:54Z</time>
      </trkpt>
      <trkpt lat="50.57121" lon="6.49964">
        <ele>339.96</ele>
        <time>2019-07-06T11:35:55Z</time>
      </trkpt>
      <trkpt lat="50.57126" lon="6.49968">
        <ele>339.96</ele>
        <time>2019-07-06T11:35:56Z</time>
      </trkpt>
      <trkpt lat="50.57132" lon="6.49972">
        <ele>339.96</ele>
        <time>2019-07-06T11:35:57Z</time>
      </trkpt>
      <trkpt lat="50.57137" lon="6.49976">
        <ele>339.96</ele>
        <time>2019-07-06T11:35:58Z</time>
      </trkpt>
      <trkpt lat="50.57142" lon="6.49981">
        <ele>339.96</ele>
        <time>2019-07-06T11:35:59Z</time>
      </trkpt>
      <trkpt lat="50.57171" lon="6.49992">
        <ele>339.96</ele>
        <time>2019-07-06T11:36:09Z</time>
      </trkpt>
      <trkpt lat="50.57188" lon="6.49941">
        <ele>341.41</ele>
        <time>2019-07-06T11:36:18Z</time>
      </trkpt>
      <trkpt lat="50.57194" lon="6.49923">
        <ele>341.89</ele>
        <time>2019-07-06T11:36:22Z</time>
      </trkpt>
      <trkpt lat="50.57196" lon="6.49922">
        <ele>341.89</ele>
        <time>2019-07-06T11:36:23Z</time>
      </trkpt>
      <trkpt lat="50.57198" lon="6.49921">
        <ele>341.41</ele>
        <time>2019-07-06T11:36:24Z</time>
      </trkpt>
      <trkpt lat="50.57216" lon="6.49903">
        <ele>341.41</ele>
        <time>2019-07-06T11:36:35Z</time>
      </trkpt>
      <trkpt lat="50.57242" lon="6.49844">
        <ele>343.81</ele>
        <time>2019-07-06T11:36:45Z</time>
      </trkpt>
      <trkpt lat="50.57258" lon="6.49813">
        <ele>344.77</ele>
        <time>2019-07-06T11:36:50Z</time>
      </trkpt>
      <trkpt lat="50.57261" lon="6.49808">
        <ele>344.77</ele>
        <time>2019-07-06T11:36:51Z</time>
      </trkpt>
      <trkpt lat="50.57265" lon="6.49803">
        <ele>344.77</ele>
        <time>2019-07-06T11:36:52Z</time>
      </trkpt>
      <trkpt lat="50.57299" lon="6.49744">
        <ele>346.21</ele>
        <time>2019-07-06T11:37:02Z</time>
      </trkpt>
      <trkpt lat="50.57303" lon="6.49738">
        <ele>346.21</ele>
        <time>2019-07-06T11:37:03Z</time>
      </trkpt>
      <trkpt lat="50.57343" lon="6.49671">
        <ele>347.17</ele>
        <time>2019-07-06T11:37:14Z</time>
      </trkpt>
      <trkpt lat="50.57358" lon="6.49653">
        <ele>348.13</ele>
        <time>2019-07-06T11:37:18Z</time>
      </trkpt>
      <trkpt lat="50.57369" lon="6.49644">
        <ele>348.13</ele>
        <time>2019-07-06T11:37:21Z</time>
      </trkpt>
      <trkpt lat="50.57373" lon="6.49642">
        <ele>348.13</ele>
        <time>2019-07-06T11:37:22Z</time>
      </trkpt>
      <trkpt lat="50.57378" lon="6.49642">
        <ele>347.65</ele>
        <time>2019-07-06T11:37:23Z</time>
      </trkpt>
      <trkpt lat="50.57407" lon="6.49639">
        <ele>346.69</ele>
        <time>2019-07-06T11:37:28Z</time>
      </trkpt>
      <trkpt lat="50.57432" lon="6.49635">
        <ele>344.77</ele>
        <time>2019-07-06T11:37:32Z</time>
      </trkpt>
      <trkpt lat="50.57445" lon="6.49636">
        <ele>343.81</ele>
        <time>2019-07-06T11:37:34Z</time>
      </trkpt>
      <trkpt lat="50.57451" lon="6.49634">
        <ele>343.81</ele>
        <time>2019-07-06T11:37:35Z</time>
      </trkpt>
      <trkpt lat="50.57455" lon="6.4963">
        <ele>343.33</ele>
        <time>2019-07-06T11:37:36Z</time>
      </trkpt>
      <trkpt lat="50.57458" lon="6.49623">
        <ele>343.33</ele>
        <time>2019-07-06T11:37:37Z</time>
      </trkpt>
      <trkpt lat="50.5746" lon="6.49615">
        <ele>343.33</ele>
        <time>2019-07-06T11:37:38Z</time>
      </trkpt>
      <trkpt lat="50.57463" lon="6.49608">
        <ele>343.33</ele>
        <time>2019-07-06T11:37:39Z</time>
      </trkpt>
      <trkpt lat="50.57506" lon="6.49505">
        <ele>341.41</ele>
        <time>2019-07-06T11:37:51Z</time>
      </trkpt>
      <trkpt lat="50.5755" lon="6.49374">
        <ele>339.48</ele>
        <time>2019-07-06T11:38:04Z</time>
      </trkpt>
      <trkpt lat="50.57594" lon="6.49229">
        <ele>338.52</ele>
        <time>2019-07-06T11:38:18Z</time>
      </trkpt>
      <trkpt lat="50.57605" lon="6.49173">
        <ele>338.04</ele>
        <time>2019-07-06T11:38:23Z</time>
      </trkpt>
      <trkpt lat="50.57642" lon="6.49013">
        <ele>337.08</ele>
        <time>2019-07-06T11:38:38Z</time>
      </trkpt>
      <trkpt lat="50.57652" lon="6.4897">
        <ele>336.12</ele>
        <time>2019-07-06T11:38:42Z</time>
      </trkpt>
      <trkpt lat="50.57653" lon="6.48959">
        <ele>336.12</ele>
        <time>2019-07-06T11:38:43Z</time>
      </trkpt>
      <trkpt lat="50.57669" lon="6.48795">
        <ele>334.68</ele>
        <time>2019-07-06T11:38:57Z</time>
      </trkpt>
      <trkpt lat="50.57731" lon="6.48633">
        <ele>334.2</ele>
        <time>2019-07-06T11:39:14Z</time>
      </trkpt>
      <trkpt lat="50.57737" lon="6.48615">
        <ele>334.2</ele>
        <time>2019-07-06T11:39:16Z</time>
      </trkpt>
      <trkpt lat="50.57739" lon="6.48604">
        <ele>334.2</ele>
        <time>2019-07-06T11:39:17Z</time>
      </trkpt>
      <trkpt lat="50.5774" lon="6.48596">
        <ele>334.2</ele>
        <time>2019-07-06T11:39:18Z</time>
      </trkpt>
      <trkpt lat="50.57742" lon="6.48565">
        <ele>334.2</ele>
        <time>2019-07-06T11:39:21Z</time>
      </trkpt>
      <trkpt lat="50.57738" lon="6.48403">
        <ele>332.75</ele>
        <time>2019-07-06T11:39:37Z</time>
      </trkpt>
      <trkpt lat="50.57752" lon="6.48293">
        <ele>332.75</ele>
        <time>2019-07-06T11:39:48Z</time>
      </trkpt>
      <trkpt lat="50.57754" lon="6.48283">
        <ele>332.75</ele>
        <time>2019-07-06T11:39:49Z</time>
      </trkpt>
      <trkpt lat="50.57771" lon="6.48219">
        <ele>332.75</ele>
        <time>2019-07-06T11:39:56Z</time>
      </trkpt>
      <trkpt lat="50.57774" lon="6.48211">
        <ele>332.75</ele>
        <time>2019-07-06T11:39:57Z</time>
      </trkpt>
      <trkpt lat="50.57778" lon="6.48203">
        <ele>333.71</ele>
        <time>2019-07-06T11:39:58Z</time>
      </trkpt>
      <trkpt lat="50.57782" lon="6.48197">
        <ele>333.71</ele>
        <time>2019-07-06T11:39:59Z</time>
      </trkpt>
      <trkpt lat="50.57787" lon="6.48191">
        <ele>333.71</ele>
        <time>2019-07-06T11:40:00Z</time>
      </trkpt>
      <trkpt lat="50.57814" lon="6.48146">
        <ele>333.71</ele>
        <time>2019-07-06T11:40:06Z</time>
      </trkpt>
      <trkpt lat="50.57817" lon="6.48137">
        <ele>333.71</ele>
        <time>2019-07-06T11:40:07Z</time>
      </trkpt>
      <trkpt lat="50.57818" lon="6.48126">
        <ele>333.71</ele>
        <time>2019-07-06T11:40:08Z</time>
      </trkpt>
      <trkpt lat="50.57819" lon="6.48115">
        <ele>333.71</ele>
        <time>2019-07-06T11:40:09Z</time>
      </trkpt>
      <trkpt lat="50.57819" lon="6.48104">
        <ele>333.71</ele>
        <time>2019-07-06T11:40:10Z</time>
      </trkpt>
      <trkpt lat="50.57818" lon="6.48093">
        <ele>333.71</ele>
        <time>2019-07-06T11:40:11Z</time>
      </trkpt>
      <trkpt lat="50.57815" lon="6.48082">
        <ele>333.71</ele>
        <time>2019-07-06T11:40:12Z</time>
      </trkpt>
      <trkpt lat="50.57812" lon="6.48073">
        <ele>332.27</ele>
        <time>2019-07-06T11:40:13Z</time>
      </trkpt>
      <trkpt lat="50.5781" lon="6.48063">
        <ele>331.79</ele>
        <time>2019-07-06T11:40:14Z</time>
      </trkpt>
      <trkpt lat="50.57809" lon="6.48051">
        <ele>331.79</ele>
        <time>2019-07-06T11:40:15Z</time>
      </trkpt>
      <trkpt lat="50.57808" lon="6.4804">
        <ele>331.31</ele>
        <time>2019-07-06T11:40:16Z</time>
      </trkpt>
      <trkpt lat="50.57807" lon="6.47883">
        <ele>330.35</ele>
        <time>2019-07-06T11:40:30Z</time>
      </trkpt>
      <trkpt lat="50.57809" lon="6.47841">
        <ele>330.35</ele>
        <time>2019-07-06T11:40:34Z</time>
      </trkpt>
      <trkpt lat="50.57811" lon="6.47831">
        <ele>330.35</ele>
        <time>2019-07-06T11:40:35Z</time>
      </trkpt>
      <trkpt lat="50.57814" lon="6.47813">
        <ele>330.35</ele>
        <time>2019-07-06T11:40:37Z</time>
      </trkpt>
      <trkpt lat="50.57814" lon="6.47804">
        <ele>330.35</ele>
        <time>2019-07-06T11:40:38Z</time>
      </trkpt>
      <trkpt lat="50.57812" lon="6.47795">
        <ele>330.35</ele>
        <time>2019-07-06T11:40:39Z</time>
      </trkpt>
      <trkpt lat="50.57798" lon="6.47707">
        <ele>331.79</ele>
        <time>2019-07-06T11:40:49Z</time>
      </trkpt>
      <trkpt lat="50.57796" lon="6.47697">
        <ele>331.79</ele>
        <time>2019-07-06T11:40:50Z</time>
      </trkpt>
      <trkpt lat="50.57795" lon="6.47688">
        <ele>331.79</ele>
        <time>2019-07-06T11:40:51Z</time>
      </trkpt>
      <trkpt lat="50.57776" lon="6.47562">
        <ele>331.79</ele>
        <time>2019-07-06T11:41:04Z</time>
      </trkpt>
      <trkpt lat="50.57754" lon="6.47446">
        <ele>332.27</ele>
        <time>2019-07-06T11:41:16Z</time>
      </trkpt>
      <trkpt lat="50.57752" lon="6.47408">
        <ele>333.23</ele>
        <time>2019-07-06T11:41:20Z</time>
      </trkpt>
      <trkpt lat="50.57752" lon="6.47399">
        <ele>333.23</ele>
        <time>2019-07-06T11:41:21Z</time>
      </trkpt>
      <trkpt lat="50.57752" lon="6.4739">
        <ele>333.23</ele>
        <time>2019-07-06T11:41:22Z</time>
      </trkpt>
      <trkpt lat="50.57756" lon="6.4731">
        <ele>333.71</ele>
        <time>2019-07-06T11:41:31Z</time>
      </trkpt>
      <trkpt lat="50.57761" lon="6.47259">
        <ele>334.68</ele>
        <time>2019-07-06T11:41:37Z</time>
      </trkpt>
      <trkpt lat="50.57761" lon="6.47251">
        <ele>334.68</ele>
        <time>2019-07-06T11:41:38Z</time>
      </trkpt>
      <trkpt lat="50.57761" lon="6.47244">
        <ele>334.68</ele>
        <time>2019-07-06T11:41:39Z</time>
      </trkpt>
      <trkpt lat="50.57763" lon="6.47184">
        <ele>334.68</ele>
        <time>2019-07-06T11:41:46Z</time>
      </trkpt>
      <trkpt lat="50.57763" lon="6.47175">
        <ele>334.68</ele>
        <time>2019-07-06T11:41:47Z</time>
      </trkpt>
      <trkpt lat="50.57763" lon="6.47165">
        <ele>334.68</ele>
        <time>2019-07-06T11:41:48Z</time>
      </trkpt>
      <trkpt lat="50.57764" lon="6.47156">
        <ele>334.68</ele>
        <time>2019-07-06T11:41:49Z</time>
      </trkpt>
      <trkpt lat="50.57764" lon="6.47147">
        <ele>334.68</ele>
        <time>2019-07-06T11:41:50Z</time>
      </trkpt>
      <trkpt lat="50.57766" lon="6.47098">
        <ele>334.68</ele>
        <time>2019-07-06T11:41:55Z</time>
      </trkpt>
      <trkpt lat="50.57764" lon="6.47058">
        <ele>334.68</ele>
        <time>2019-07-06T11:41:59Z</time>
      </trkpt>
      <trkpt lat="50.57764" lon="6.47047">
        <ele>334.68</ele>
        <time>2019-07-06T11:42:00Z</time>
      </trkpt>
      <trkpt lat="50.57757" lon="6.46926">
        <ele>333.23</ele>
        <time>2019-07-06T11:42:12Z</time>
      </trkpt>
      <trkpt lat="50.57754" lon="6.46874">
        <ele>332.27</ele>
        <time>2019-07-06T11:42:17Z</time>
      </trkpt>
      <trkpt lat="50.57748" lon="6.46833">
        <ele>332.27</ele>
        <time>2019-07-06T11:42:21Z</time>
      </trkpt>
      <trkpt lat="50.57746" lon="6.46823">
        <ele>332.27</ele>
        <time>2019-07-06T11:42:22Z</time>
      </trkpt>
      <trkpt lat="50.5774" lon="6.46784">
        <ele>331.79</ele>
        <time>2019-07-06T11:42:26Z</time>
      </trkpt>
      <trkpt lat="50.57705" lon="6.46677">
        <ele>330.35</ele>
        <time>2019-07-06T11:42:37Z</time>
      </trkpt>
      <trkpt lat="50.57701" lon="6.46669">
        <ele>330.35</ele>
        <time>2019-07-06T11:42:38Z</time>
      </trkpt>
      <trkpt lat="50.57695" lon="6.46661">
        <ele>330.35</ele>
        <time>2019-07-06T11:42:39Z</time>
      </trkpt>
      <trkpt lat="50.57653" lon="6.46579">
        <ele>330.35</ele>
        <time>2019-07-06T11:42:48Z</time>
      </trkpt>
      <trkpt lat="50.57651" lon="6.46569">
        <ele>330.35</ele>
        <time>2019-07-06T11:42:49Z</time>
      </trkpt>
      <trkpt lat="50.57649" lon="6.46558">
        <ele>330.35</ele>
        <time>2019-07-06T11:42:50Z</time>
      </trkpt>
      <trkpt lat="50.57647" lon="6.46547">
        <ele>330.35</ele>
        <time>2019-07-06T11:42:51Z</time>
      </trkpt>
      <trkpt lat="50.57647" lon="6.46536">
        <ele>330.35</ele>
        <time>2019-07-06T11:42:52Z</time>
      </trkpt>
      <trkpt lat="50.57646" lon="6.46526">
        <ele>330.35</ele>
        <time>2019-07-06T11:42:53Z</time>
      </trkpt>
      <trkpt lat="50.57646" lon="6.46504">
        <ele>330.35</ele>
        <time>2019-07-06T11:42:55Z</time>
      </trkpt>
      <trkpt lat="50.57647" lon="6.46484">
        <ele>330.35</ele>
        <time>2019-07-06T11:42:57Z</time>
      </trkpt>
      <trkpt lat="50.57646" lon="6.46445">
        <ele>330.35</ele>
        <time>2019-07-06T11:43:01Z</time>
      </trkpt>
      <trkpt lat="50.57646" lon="6.46436">
        <ele>330.35</ele>
        <time>2019-07-06T11:43:02Z</time>
      </trkpt>
      <trkpt lat="50.57645" lon="6.46426">
        <ele>330.35</ele>
        <time>2019-07-06T11:43:03Z</time>
      </trkpt>
      <trkpt lat="50.57635" lon="6.46305">
        <ele>329.87</ele>
        <time>2019-07-06T11:43:16Z</time>
      </trkpt>
      <trkpt lat="50.57629" lon="6.46236">
        <ele>329.87</ele>
        <time>2019-07-06T11:43:23Z</time>
      </trkpt>
      <trkpt lat="50.57629" lon="6.46226">
        <ele>329.87</ele>
        <time>2019-07-06T11:43:24Z</time>
      </trkpt>
      <trkpt lat="50.57629" lon="6.46216">
        <ele>329.87</ele>
        <time>2019-07-06T11:43:25Z</time>
      </trkpt>
      <trkpt lat="50.57621" lon="6.46067">
        <ele>330.83</ele>
        <time>2019-07-06T11:43:40Z</time>
      </trkpt>
      <trkpt lat="50.57619" lon="6.46026">
        <ele>330.83</ele>
        <time>2019-07-06T11:43:44Z</time>
      </trkpt>
      <trkpt lat="50.57618" lon="6.45897">
        <ele>331.31</ele>
        <time>2019-07-06T11:43:57Z</time>
      </trkpt>
      <trkpt lat="50.57621" lon="6.45866">
        <ele>331.31</ele>
        <time>2019-07-06T11:44:00Z</time>
      </trkpt>
      <trkpt lat="50.57641" lon="6.45784">
        <ele>331.31</ele>
        <time>2019-07-06T11:44:08Z</time>
      </trkpt>
      <trkpt lat="50.57644" lon="6.45775">
        <ele>331.31</ele>
        <time>2019-07-06T11:44:09Z</time>
      </trkpt>
      <trkpt lat="50.57649" lon="6.45768">
        <ele>331.31</ele>
        <time>2019-07-06T11:44:10Z</time>
      </trkpt>
      <trkpt lat="50.57653" lon="6.45762">
        <ele>331.31</ele>
        <time>2019-07-06T11:44:11Z</time>
      </trkpt>
      <trkpt lat="50.57658" lon="6.45758">
        <ele>331.31</ele>
        <time>2019-07-06T11:44:12Z</time>
      </trkpt>
      <trkpt lat="50.57663" lon="6.45757">
        <ele>331.31</ele>
        <time>2019-07-06T11:44:13Z</time>
      </trkpt>
      <trkpt lat="50.57669" lon="6.45758">
        <ele>331.79</ele>
        <time>2019-07-06T11:44:14Z</time>
      </trkpt>
      <trkpt lat="50.57675" lon="6.45762">
        <ele>331.79</ele>
        <time>2019-07-06T11:44:15Z</time>
      </trkpt>
      <trkpt lat="50.5768" lon="6.45769">
        <ele>331.79</ele>
        <time>2019-07-06T11:44:16Z</time>
      </trkpt>
      <trkpt lat="50.57683" lon="6.45777">
        <ele>332.27</ele>
        <time>2019-07-06T11:44:17Z</time>
      </trkpt>
      <trkpt lat="50.57685" lon="6.45786">
        <ele>332.27</ele>
        <time>2019-07-06T11:44:18Z</time>
      </trkpt>
      <trkpt lat="50.57686" lon="6.45795">
        <ele>332.27</ele>
        <time>2019-07-06T11:44:19Z</time>
      </trkpt>
      <trkpt lat="50.57688" lon="6.45804">
        <ele>332.75</ele>
        <time>2019-07-06T11:44:20Z</time>
      </trkpt>
      <trkpt lat="50.57694" lon="6.45838">
        <ele>333.23</ele>
        <time>2019-07-06T11:44:24Z</time>
      </trkpt>
      <trkpt lat="50.57719" lon="6.45969">
        <ele>333.23</ele>
        <time>2019-07-06T11:44:38Z</time>
      </trkpt>
      <trkpt lat="50.57721" lon="6.45979">
        <ele>333.23</ele>
        <time>2019-07-06T11:44:39Z</time>
      </trkpt>
      <trkpt lat="50.57722" lon="6.45988">
        <ele>333.23</ele>
        <time>2019-07-06T11:44:40Z</time>
      </trkpt>
      <trkpt lat="50.57746" lon="6.46099">
        <ele>331.31</ele>
        <time>2019-07-06T11:44:52Z</time>
      </trkpt>
      <trkpt lat="50.57754" lon="6.46156">
        <ele>330.83</ele>
        <time>2019-07-06T11:44:58Z</time>
      </trkpt>
      <trkpt lat="50.57757" lon="6.46166">
        <ele>330.83</ele>
        <time>2019-07-06T11:44:59Z</time>
      </trkpt>
      <trkpt lat="50.5776" lon="6.46176">
        <ele>330.83</ele>
        <time>2019-07-06T11:45:00Z</time>
      </trkpt>
      <trkpt lat="50.57763" lon="6.46185">
        <ele>330.83</ele>
        <time>2019-07-06T11:45:01Z</time>
      </trkpt>
      <trkpt lat="50.57766" lon="6.46194">
        <ele>330.83</ele>
        <time>2019-07-06T11:45:02Z</time>
      </trkpt>
      <trkpt lat="50.57769" lon="6.46202">
        <ele>330.83</ele>
        <time>2019-07-06T11:45:03Z</time>
      </trkpt>
      <trkpt lat="50.57777" lon="6.46219">
        <ele>330.83</ele>
        <time>2019-07-06T11:45:05Z</time>
      </trkpt>
      <trkpt lat="50.5778" lon="6.46227">
        <ele>330.83</ele>
        <time>2019-07-06T11:45:06Z</time>
      </trkpt>
      <trkpt lat="50.57781" lon="6.46235">
        <ele>330.83</ele>
        <time>2019-07-06T11:45:07Z</time>
      </trkpt>
      <trkpt lat="50.57791" lon="6.46259">
        <ele>330.83</ele>
        <time>2019-07-06T11:45:10Z</time>
      </trkpt>
      <trkpt lat="50.57797" lon="6.46267">
        <ele>330.35</ele>
        <time>2019-07-06T11:45:11Z</time>
      </trkpt>
      <trkpt lat="50.57849" lon="6.46343">
        <ele>330.35</ele>
        <time>2019-07-06T11:45:21Z</time>
      </trkpt>
      <trkpt lat="50.57911" lon="6.46427">
        <ele>330.35</ele>
        <time>2019-07-06T11:45:33Z</time>
      </trkpt>
      <trkpt lat="50.57926" lon="6.46447">
        <ele>330.35</ele>
        <time>2019-07-06T11:45:36Z</time>
      </trkpt>
      <trkpt lat="50.57931" lon="6.46453">
        <ele>330.35</ele>
        <time>2019-07-06T11:45:37Z</time>
      </trkpt>
      <trkpt lat="50.57946" lon="6.46472">
        <ele>330.35</ele>
        <time>2019-07-06T11:45:40Z</time>
      </trkpt>
      <trkpt lat="50.57952" lon="6.46478">
        <ele>330.35</ele>
        <time>2019-07-06T11:45:41Z</time>
      </trkpt>
      <trkpt lat="50.57987" lon="6.46509">
        <ele>330.35</ele>
        <time>2019-07-06T11:45:47Z</time>
      </trkpt>
      <trkpt lat="50.58073" lon="6.46568">
        <ele>329.87</ele>
        <time>2019-07-06T11:46:00Z</time>
      </trkpt>
      <trkpt lat="50.58151" lon="6.46608">
        <ele>331.31</ele>
        <time>2019-07-06T11:46:12Z</time>
      </trkpt>
      <trkpt lat="50.58158" lon="6.46609">
        <ele>331.31</ele>
        <time>2019-07-06T11:46:13Z</time>
      </trkpt>
      <trkpt lat="50.58164" lon="6.46608">
        <ele>331.31</ele>
        <time>2019-07-06T11:46:14Z</time>
      </trkpt>
      <trkpt lat="50.5817" lon="6.46605">
        <ele>331.31</ele>
        <time>2019-07-06T11:46:15Z</time>
      </trkpt>
      <trkpt lat="50.58177" lon="6.46601">
        <ele>331.31</ele>
        <time>2019-07-06T11:46:16Z</time>
      </trkpt>
      <trkpt lat="50.58183" lon="6.46596">
        <ele>331.31</ele>
        <time>2019-07-06T11:46:17Z</time>
      </trkpt>
      <trkpt lat="50.58219" lon="6.46569">
        <ele>331.31</ele>
        <time>2019-07-06T11:46:23Z</time>
      </trkpt>
      <trkpt lat="50.58223" lon="6.46562">
        <ele>330.83</ele>
        <time>2019-07-06T11:46:24Z</time>
      </trkpt>
      <trkpt lat="50.58228" lon="6.46555">
        <ele>330.83</ele>
        <time>2019-07-06T11:46:25Z</time>
      </trkpt>
      <trkpt lat="50.58235" lon="6.46539">
        <ele>331.31</ele>
        <time>2019-07-06T11:46:27Z</time>
      </trkpt>
      <trkpt lat="50.58248" lon="6.46503">
        <ele>331.31</ele>
        <time>2019-07-06T11:46:31Z</time>
      </trkpt>
      <trkpt lat="50.58253" lon="6.46484">
        <ele>331.79</ele>
        <time>2019-07-06T11:46:33Z</time>
      </trkpt>
      <trkpt lat="50.58262" lon="6.46435">
        <ele>331.79</ele>
        <time>2019-07-06T11:46:38Z</time>
      </trkpt>
      <trkpt lat="50.58278" lon="6.46315">
        <ele>332.27</ele>
        <time>2019-07-06T11:46:50Z</time>
      </trkpt>
      <trkpt lat="50.58281" lon="6.46306">
        <ele>332.27</ele>
        <time>2019-07-06T11:46:51Z</time>
      </trkpt>
      <trkpt lat="50.58284" lon="6.46297">
        <ele>332.27</ele>
        <time>2019-07-06T11:46:52Z</time>
      </trkpt>
      <trkpt lat="50.58288" lon="6.46289">
        <ele>332.27</ele>
        <time>2019-07-06T11:46:53Z</time>
      </trkpt>
      <trkpt lat="50.58292" lon="6.46281">
        <ele>332.27</ele>
        <time>2019-07-06T11:46:54Z</time>
      </trkpt>
      <trkpt lat="50.58297" lon="6.46274">
        <ele>332.27</ele>
        <time>2019-07-06T11:46:55Z</time>
      </trkpt>
      <trkpt lat="50.58357" lon="6.46203">
        <ele>332.27</ele>
        <time>2019-07-06T11:47:07Z</time>
      </trkpt>
      <trkpt lat="50.58373" lon="6.46186">
        <ele>332.27</ele>
        <time>2019-07-06T11:47:10Z</time>
      </trkpt>
      <trkpt lat="50.58411" lon="6.4613">
        <ele>331.79</ele>
        <time>2019-07-06T11:47:18Z</time>
      </trkpt>
      <trkpt lat="50.58415" lon="6.46122">
        <ele>331.79</ele>
        <time>2019-07-06T11:47:19Z</time>
      </trkpt>
      <trkpt lat="50.58419" lon="6.46114">
        <ele>331.79</ele>
        <time>2019-07-06T11:47:20Z</time>
      </trkpt>
      <trkpt lat="50.58425" lon="6.46097">
        <ele>331.79</ele>
        <time>2019-07-06T11:47:22Z</time>
      </trkpt>
      <trkpt lat="50.58428" lon="6.46087">
        <ele>331.79</ele>
        <time>2019-07-06T11:47:23Z</time>
      </trkpt>
      <trkpt lat="50.58434" lon="6.4606">
        <ele>331.79</ele>
        <time>2019-07-06T11:47:26Z</time>
      </trkpt>
      <trkpt lat="50.58434" lon="6.4605">
        <ele>331.79</ele>
        <time>2019-07-06T11:47:27Z</time>
      </trkpt>
      <trkpt lat="50.58431" lon="6.46026">
        <ele>331.79</ele>
        <time>2019-07-06T11:47:29Z</time>
      </trkpt>
      <trkpt lat="50.58425" lon="6.45993">
        <ele>331.79</ele>
        <time>2019-07-06T11:47:32Z</time>
      </trkpt>
      <trkpt lat="50.58417" lon="6.45962">
        <ele>331.79</ele>
        <time>2019-07-06T11:47:35Z</time>
      </trkpt>
      <trkpt lat="50.58413" lon="6.45952">
        <ele>331.79</ele>
        <time>2019-07-06T11:47:36Z</time>
      </trkpt>
      <trkpt lat="50.58367" lon="6.45846">
        <ele>331.79</ele>
        <time>2019-07-06T11:47:48Z</time>
      </trkpt>
      <trkpt lat="50.58301" lon="6.45725">
        <ele>331.79</ele>
        <time>2019-07-06T11:48:03Z</time>
      </trkpt>
      <trkpt lat="50.5829" lon="6.45702">
        <ele>331.79</ele>
        <time>2019-07-06T11:48:06Z</time>
      </trkpt>
      <trkpt lat="50.58286" lon="6.45693">
        <ele>331.79</ele>
        <time>2019-07-06T11:48:07Z</time>
      </trkpt>
      <trkpt lat="50.58284" lon="6.45684">
        <ele>331.79</ele>
        <time>2019-07-06T11:48:08Z</time>
      </trkpt>
      <trkpt lat="50.58283" lon="6.45673">
        <ele>332.27</ele>
        <time>2019-07-06T11:48:09Z</time>
      </trkpt>
      <trkpt lat="50.58283" lon="6.45663">
        <ele>332.27</ele>
        <time>2019-07-06T11:48:10Z</time>
      </trkpt>
      <trkpt lat="50.58284" lon="6.45653">
        <ele>332.27</ele>
        <time>2019-07-06T11:48:11Z</time>
      </trkpt>
      <trkpt lat="50.58287" lon="6.45643">
        <ele>332.27</ele>
        <time>2019-07-06T11:48:12Z</time>
      </trkpt>
      <trkpt lat="50.5829" lon="6.45635">
        <ele>332.75</ele>
        <time>2019-07-06T11:48:13Z</time>
      </trkpt>
      <trkpt lat="50.58295" lon="6.45629">
        <ele>332.75</ele>
        <time>2019-07-06T11:48:14Z</time>
      </trkpt>
      <trkpt lat="50.58301" lon="6.45624">
        <ele>333.23</ele>
        <time>2019-07-06T11:48:15Z</time>
      </trkpt>
      <trkpt lat="50.58306" lon="6.4562">
        <ele>333.23</ele>
        <time>2019-07-06T11:48:16Z</time>
      </trkpt>
      <trkpt lat="50.58312" lon="6.45617">
        <ele>333.23</ele>
        <time>2019-07-06T11:48:17Z</time>
      </trkpt>
      <trkpt lat="50.58318" lon="6.45615">
        <ele>333.71</ele>
        <time>2019-07-06T11:48:18Z</time>
      </trkpt>
      <trkpt lat="50.58324" lon="6.45614">
        <ele>333.71</ele>
        <time>2019-07-06T11:48:19Z</time>
      </trkpt>
      <trkpt lat="50.5833" lon="6.45613">
        <ele>333.71</ele>
        <time>2019-07-06T11:48:20Z</time>
      </trkpt>
      <trkpt lat="50.58336" lon="6.45613">
        <ele>333.71</ele>
        <time>2019-07-06T11:48:21Z</time>
      </trkpt>
      <trkpt lat="50.58411" lon="6.45625">
        <ele>333.71</ele>
        <time>2019-07-06T11:48:33Z</time>
      </trkpt>
      <trkpt lat="50.58443" lon="6.45633">
        <ele>333.71</ele>
        <time>2019-07-06T11:48:38Z</time>
      </trkpt>
      <trkpt lat="50.58504" lon="6.45666">
        <ele>331.79</ele>
        <time>2019-07-06T11:48:48Z</time>
      </trkpt>
      <trkpt lat="50.58569" lon="6.45697">
        <ele>331.31</ele>
        <time>2019-07-06T11:48:58Z</time>
      </trkpt>
      <trkpt lat="50.58603" lon="6.4571">
        <ele>331.31</ele>
        <time>2019-07-06T11:49:04Z</time>
      </trkpt>
      <trkpt lat="50.58642" lon="6.45723">
        <ele>331.31</ele>
        <time>2019-07-06T11:49:11Z</time>
      </trkpt>
      <trkpt lat="50.58648" lon="6.45725">
        <ele>331.31</ele>
        <time>2019-07-06T11:49:12Z</time>
      </trkpt>
      <trkpt lat="50.58654" lon="6.45726">
        <ele>331.31</ele>
        <time>2019-07-06T11:49:13Z</time>
      </trkpt>
      <trkpt lat="50.5866" lon="6.45728">
        <ele>331.31</ele>
        <time>2019-07-06T11:49:14Z</time>
      </trkpt>
      <trkpt lat="50.58666" lon="6.4573">
        <ele>331.31</ele>
        <time>2019-07-06T11:49:15Z</time>
      </trkpt>
      <trkpt lat="50.58726" lon="6.45738">
        <ele>331.31</ele>
        <time>2019-07-06T11:49:25Z</time>
      </trkpt>
      <trkpt lat="50.58738" lon="6.45742">
        <ele>331.31</ele>
        <time>2019-07-06T11:49:27Z</time>
      </trkpt>
      <trkpt lat="50.58774" lon="6.45759">
        <ele>331.31</ele>
        <time>2019-07-06T11:49:33Z</time>
      </trkpt>
      <trkpt lat="50.58788" lon="6.45763">
        <ele>331.31</ele>
        <time>2019-07-06T11:49:35Z</time>
      </trkpt>
      <trkpt lat="50.58795" lon="6.45763">
        <ele>331.31</ele>
        <time>2019-07-06T11:49:36Z</time>
      </trkpt>
      <trkpt lat="50.58878" lon="6.4576">
        <ele>331.31</ele>
        <time>2019-07-06T11:49:49Z</time>
      </trkpt>
      <trkpt lat="50.58918" lon="6.45748">
        <ele>332.75</ele>
        <time>2019-07-06T11:49:56Z</time>
      </trkpt>
      <trkpt lat="50.58929" lon="6.45742">
        <ele>332.75</ele>
        <time>2019-07-06T11:49:58Z</time>
      </trkpt>
      <trkpt lat="50.58934" lon="6.45739">
        <ele>333.23</ele>
        <time>2019-07-06T11:49:59Z</time>
      </trkpt>
      <trkpt lat="50.58939" lon="6.45735">
        <ele>333.23</ele>
        <time>2019-07-06T11:50:00Z</time>
      </trkpt>
      <trkpt lat="50.58955" lon="6.45721">
        <ele>333.71</ele>
        <time>2019-07-06T11:50:03Z</time>
      </trkpt>
      <trkpt lat="50.5896" lon="6.45714">
        <ele>333.71</ele>
        <time>2019-07-06T11:50:04Z</time>
      </trkpt>
      <trkpt lat="50.58967" lon="6.457">
        <ele>333.71</ele>
        <time>2019-07-06T11:50:06Z</time>
      </trkpt>
      <trkpt lat="50.5897" lon="6.45693">
        <ele>333.71</ele>
        <time>2019-07-06T11:50:07Z</time>
      </trkpt>
      <trkpt lat="50.58985" lon="6.45652">
        <ele>334.68</ele>
        <time>2019-07-06T11:50:12Z</time>
      </trkpt>
      <trkpt lat="50.58988" lon="6.45643">
        <ele>334.68</ele>
        <time>2019-07-06T11:50:13Z</time>
      </trkpt>
      <trkpt lat="50.59005" lon="6.45584">
        <ele>334.68</ele>
        <time>2019-07-06T11:50:20Z</time>
      </trkpt>
      <trkpt lat="50.59006" lon="6.45573">
        <ele>334.68</ele>
        <time>2019-07-06T11:50:21Z</time>
      </trkpt>
      <trkpt lat="50.59007" lon="6.45482">
        <ele>334.68</ele>
        <time>2019-07-06T11:50:30Z</time>
      </trkpt>
      <trkpt lat="50.5899" lon="6.45391">
        <ele>334.68</ele>
        <time>2019-07-06T11:50:39Z</time>
      </trkpt>
      <trkpt lat="50.58989" lon="6.45381">
        <ele>334.68</ele>
        <time>2019-07-06T11:50:40Z</time>
      </trkpt>
      <trkpt lat="50.58988" lon="6.4537">
        <ele>334.68</ele>
        <time>2019-07-06T11:50:41Z</time>
      </trkpt>
      <trkpt lat="50.58989" lon="6.4536">
        <ele>334.68</ele>
        <time>2019-07-06T11:50:42Z</time>
      </trkpt>
      <trkpt lat="50.5899" lon="6.4535">
        <ele>334.68</ele>
        <time>2019-07-06T11:50:43Z</time>
      </trkpt>
      <trkpt lat="50.58994" lon="6.4534">
        <ele>334.68</ele>
        <time>2019-07-06T11:50:44Z</time>
      </trkpt>
      <trkpt lat="50.58997" lon="6.45332">
        <ele>334.68</ele>
        <time>2019-07-06T11:50:45Z</time>
      </trkpt>
      <trkpt lat="50.59002" lon="6.45324">
        <ele>334.2</ele>
        <time>2019-07-06T11:50:46Z</time>
      </trkpt>
      <trkpt lat="50.59007" lon="6.45317">
        <ele>334.68</ele>
        <time>2019-07-06T11:50:47Z</time>
      </trkpt>
      <trkpt lat="50.59012" lon="6.4531">
        <ele>334.68</ele>
        <time>2019-07-06T11:50:48Z</time>
      </trkpt>
      <trkpt lat="50.59023" lon="6.45295">
        <ele>334.68</ele>
        <time>2019-07-06T11:50:50Z</time>
      </trkpt>
      <trkpt lat="50.59029" lon="6.45289">
        <ele>334.2</ele>
        <time>2019-07-06T11:50:51Z</time>
      </trkpt>
      <trkpt lat="50.59035" lon="6.45283">
        <ele>334.2</ele>
        <time>2019-07-06T11:50:52Z</time>
      </trkpt>
      <trkpt lat="50.59041" lon="6.45278">
        <ele>334.2</ele>
        <time>2019-07-06T11:50:53Z</time>
      </trkpt>
      <trkpt lat="50.59048" lon="6.45275">
        <ele>334.2</ele>
        <time>2019-07-06T11:50:54Z</time>
      </trkpt>
      <trkpt lat="50.59055" lon="6.45272">
        <ele>334.2</ele>
        <time>2019-07-06T11:50:55Z</time>
      </trkpt>
      <trkpt lat="50.59062" lon="6.45269">
        <ele>333.23</ele>
        <time>2019-07-06T11:50:56Z</time>
      </trkpt>
      <trkpt lat="50.59068" lon="6.45267">
        <ele>333.23</ele>
        <time>2019-07-06T11:50:57Z</time>
      </trkpt>
      <trkpt lat="50.59162" lon="6.45252">
        <ele>331.79</ele>
        <time>2019-07-06T11:51:11Z</time>
      </trkpt>
      <trkpt lat="50.59242" lon="6.4528">
        <ele>330.35</ele>
        <time>2019-07-06T11:51:23Z</time>
      </trkpt>
      <trkpt lat="50.59289" lon="6.4529">
        <ele>330.35</ele>
        <time>2019-07-06T11:51:34Z</time>
      </trkpt>
      <trkpt lat="50.59294" lon="6.45291">
        <ele>330.35</ele>
        <time>2019-07-06T11:51:35Z</time>
      </trkpt>
      <trkpt lat="50.59298" lon="6.45292">
        <ele>330.35</ele>
        <time>2019-07-06T11:51:36Z</time>
      </trkpt>
      <trkpt lat="50.59303" lon="6.45294">
        <ele>330.35</ele>
        <time>2019-07-06T11:51:37Z</time>
      </trkpt>
      <trkpt lat="50.59312" lon="6.45296">
        <ele>330.35</ele>
        <time>2019-07-06T11:51:39Z</time>
      </trkpt>
      <trkpt lat="50.59317" lon="6.45297">
        <ele>330.35</ele>
        <time>2019-07-06T11:51:40Z</time>
      </trkpt>
      <trkpt lat="50.59335" lon="6.45304">
        <ele>330.35</ele>
        <time>2019-07-06T11:51:43Z</time>
      </trkpt>
      <trkpt lat="50.59345" lon="6.45313">
        <ele>330.35</ele>
        <time>2019-07-06T11:51:45Z</time>
      </trkpt>
      <trkpt lat="50.59355" lon="6.45323">
        <ele>330.35</ele>
        <time>2019-07-06T11:51:47Z</time>
      </trkpt>
      <trkpt lat="50.59364" lon="6.45334">
        <ele>330.35</ele>
        <time>2019-07-06T11:51:49Z</time>
      </trkpt>
      <trkpt lat="50.59377" lon="6.45352">
        <ele>330.35</ele>
        <time>2019-07-06T11:51:52Z</time>
      </trkpt>
      <trkpt lat="50.5938" lon="6.45358">
        <ele>330.35</ele>
        <time>2019-07-06T11:51:53Z</time>
      </trkpt>
      <trkpt lat="50.59384" lon="6.45364">
        <ele>331.79</ele>
        <time>2019-07-06T11:51:54Z</time>
      </trkpt>
      <trkpt lat="50.59392" lon="6.45375">
        <ele>331.79</ele>
        <time>2019-07-06T11:51:56Z</time>
      </trkpt>
      <trkpt lat="50.59396" lon="6.4538">
        <ele>332.27</ele>
        <time>2019-07-06T11:51:57Z</time>
      </trkpt>
      <trkpt lat="50.59402" lon="6.45383">
        <ele>332.27</ele>
        <time>2019-07-06T11:51:58Z</time>
      </trkpt>
      <trkpt lat="50.59408" lon="6.45384">
        <ele>332.27</ele>
        <time>2019-07-06T11:51:59Z</time>
      </trkpt>
      <trkpt lat="50.59414" lon="6.45382">
        <ele>332.27</ele>
        <time>2019-07-06T11:52:00Z</time>
      </trkpt>
      <trkpt lat="50.59423" lon="6.4537">
        <ele>332.75</ele>
        <time>2019-07-06T11:52:02Z</time>
      </trkpt>
      <trkpt lat="50.59425" lon="6.45362">
        <ele>332.75</ele>
        <time>2019-07-06T11:52:03Z</time>
      </trkpt>
      <trkpt lat="50.59428" lon="6.45353">
        <ele>332.75</ele>
        <time>2019-07-06T11:52:04Z</time>
      </trkpt>
      <trkpt lat="50.59428" lon="6.45343">
        <ele>333.23</ele>
        <time>2019-07-06T11:52:05Z</time>
      </trkpt>
      <trkpt lat="50.59428" lon="6.45333">
        <ele>333.23</ele>
        <time>2019-07-06T11:52:06Z</time>
      </trkpt>
      <trkpt lat="50.59426" lon="6.45323">
        <ele>333.23</ele>
        <time>2019-07-06T11:52:07Z</time>
      </trkpt>
      <trkpt lat="50.59424" lon="6.45313">
        <ele>333.23</ele>
        <time>2019-07-06T11:52:08Z</time>
      </trkpt>
      <trkpt lat="50.59412" lon="6.45246">
        <ele>333.23</ele>
        <time>2019-07-06T11:52:15Z</time>
      </trkpt>
      <trkpt lat="50.59411" lon="6.45236">
        <ele>333.23</ele>
        <time>2019-07-06T11:52:16Z</time>
      </trkpt>
      <trkpt lat="50.59411" lon="6.45227">
        <ele>332.75</ele>
        <time>2019-07-06T11:52:17Z</time>
      </trkpt>
      <trkpt lat="50.59413" lon="6.45218">
        <ele>332.75</ele>
        <time>2019-07-06T11:52:18Z</time>
      </trkpt>
      <trkpt lat="50.59415" lon="6.45212">
        <ele>332.75</ele>
        <time>2019-07-06T11:52:19Z</time>
      </trkpt>
      <trkpt lat="50.59422" lon="6.452">
        <ele>332.75</ele>
        <time>2019-07-06T11:52:21Z</time>
      </trkpt>
      <trkpt lat="50.59426" lon="6.45196">
        <ele>332.75</ele>
        <time>2019-07-06T11:52:22Z</time>
      </trkpt>
      <trkpt lat="50.59436" lon="6.45189">
        <ele>332.75</ele>
        <time>2019-07-06T11:52:24Z</time>
      </trkpt>
      <trkpt lat="50.59441" lon="6.45186">
        <ele>332.75</ele>
        <time>2019-07-06T11:52:25Z</time>
      </trkpt>
      <trkpt lat="50.59446" lon="6.45183">
        <ele>332.75</ele>
        <time>2019-07-06T11:52:26Z</time>
      </trkpt>
      <trkpt lat="50.59451" lon="6.45181">
        <ele>332.75</ele>
        <time>2019-07-06T11:52:27Z</time>
      </trkpt>
      <trkpt lat="50.59457" lon="6.4518">
        <ele>332.75</ele>
        <time>2019-07-06T11:52:28Z</time>
      </trkpt>
      <trkpt lat="50.59462" lon="6.45182">
        <ele>332.75</ele>
        <time>2019-07-06T11:52:29Z</time>
      </trkpt>
      <trkpt lat="50.59467" lon="6.45187">
        <ele>332.75</ele>
        <time>2019-07-06T11:52:30Z</time>
      </trkpt>
      <trkpt lat="50.59472" lon="6.45194">
        <ele>332.75</ele>
        <time>2019-07-06T11:52:31Z</time>
      </trkpt>
      <trkpt lat="50.59476" lon="6.45202">
        <ele>332.27</ele>
        <time>2019-07-06T11:52:32Z</time>
      </trkpt>
      <trkpt lat="50.59489" lon="6.45226">
        <ele>332.27</ele>
        <time>2019-07-06T11:52:35Z</time>
      </trkpt>
      <trkpt lat="50.59502" lon="6.45247">
        <ele>331.79</ele>
        <time>2019-07-06T11:52:38Z</time>
      </trkpt>
      <trkpt lat="50.59509" lon="6.4526">
        <ele>331.79</ele>
        <time>2019-07-06T11:52:40Z</time>
      </trkpt>
      <trkpt lat="50.59545" lon="6.45309">
        <ele>331.79</ele>
        <time>2019-07-06T11:52:48Z</time>
      </trkpt>
      <trkpt lat="50.59556" lon="6.45319">
        <ele>331.79</ele>
        <time>2019-07-06T11:52:50Z</time>
      </trkpt>
      <trkpt lat="50.59568" lon="6.45325">
        <ele>331.79</ele>
        <time>2019-07-06T11:52:52Z</time>
      </trkpt>
      <trkpt lat="50.59574" lon="6.45325">
        <ele>331.79</ele>
        <time>2019-07-06T11:52:53Z</time>
      </trkpt>
      <trkpt lat="50.59581" lon="6.45324">
        <ele>331.79</ele>
        <time>2019-07-06T11:52:54Z</time>
      </trkpt>
      <trkpt lat="50.59614" lon="6.45308">
        <ele>331.79</ele>
        <time>2019-07-06T11:52:59Z</time>
      </trkpt>
      <trkpt lat="50.5962" lon="6.45302">
        <ele>331.79</ele>
        <time>2019-07-06T11:53:00Z</time>
      </trkpt>
      <trkpt lat="50.59625" lon="6.45295">
        <ele>331.79</ele>
        <time>2019-07-06T11:53:01Z</time>
      </trkpt>
      <trkpt lat="50.59655" lon="6.45253">
        <ele>331.79</ele>
        <time>2019-07-06T11:53:07Z</time>
      </trkpt>
      <trkpt lat="50.59659" lon="6.45246">
        <ele>331.79</ele>
        <time>2019-07-06T11:53:08Z</time>
      </trkpt>
      <trkpt lat="50.59699" lon="6.45151">
        <ele>331.79</ele>
        <time>2019-07-06T11:53:20Z</time>
      </trkpt>
      <trkpt lat="50.59702" lon="6.45143">
        <ele>331.79</ele>
        <time>2019-07-06T11:53:21Z</time>
      </trkpt>
      <trkpt lat="50.59718" lon="6.45097">
        <ele>331.79</ele>
        <time>2019-07-06T11:53:27Z</time>
      </trkpt>
      <trkpt lat="50.59722" lon="6.4509">
        <ele>333.23</ele>
        <time>2019-07-06T11:53:28Z</time>
      </trkpt>
      <trkpt lat="50.59726" lon="6.45084">
        <ele>333.23</ele>
        <time>2019-07-06T11:53:29Z</time>
      </trkpt>
      <trkpt lat="50.59793" lon="6.45003">
        <ele>331.79</ele>
        <time>2019-07-06T11:53:43Z</time>
      </trkpt>
      <trkpt lat="50.59808" lon="6.44983">
        <ele>331.79</ele>
        <time>2019-07-06T11:53:46Z</time>
      </trkpt>
      <trkpt lat="50.59817" lon="6.44971">
        <ele>331.79</ele>
        <time>2019-07-06T11:53:48Z</time>
      </trkpt>
      <trkpt lat="50.59828" lon="6.44962">
        <ele>331.79</ele>
        <time>2019-07-06T11:53:50Z</time>
      </trkpt>
      <trkpt lat="50.59842" lon="6.44943">
        <ele>331.79</ele>
        <time>2019-07-06T11:53:53Z</time>
      </trkpt>
      <trkpt lat="50.59846" lon="6.44935">
        <ele>331.79</ele>
        <time>2019-07-06T11:53:54Z</time>
      </trkpt>
      <trkpt lat="50.59858" lon="6.44913">
        <ele>331.79</ele>
        <time>2019-07-06T11:53:57Z</time>
      </trkpt>
      <trkpt lat="50.59862" lon="6.44904">
        <ele>331.79</ele>
        <time>2019-07-06T11:53:58Z</time>
      </trkpt>
      <trkpt lat="50.59874" lon="6.44882">
        <ele>331.79</ele>
        <time>2019-07-06T11:54:01Z</time>
      </trkpt>
      <trkpt lat="50.59882" lon="6.44867">
        <ele>331.79</ele>
        <time>2019-07-06T11:54:03Z</time>
      </trkpt>
      <trkpt lat="50.59895" lon="6.44843">
        <ele>331.79</ele>
        <time>2019-07-06T11:54:06Z</time>
      </trkpt>
      <trkpt lat="50.59899" lon="6.44835">
        <ele>331.79</ele>
        <time>2019-07-06T11:54:07Z</time>
      </trkpt>
      <trkpt lat="50.59902" lon="6.44826">
        <ele>331.79</ele>
        <time>2019-07-06T11:54:08Z</time>
      </trkpt>
      <trkpt lat="50.59905" lon="6.44816">
        <ele>331.79</ele>
        <time>2019-07-06T11:54:09Z</time>
      </trkpt>
      <trkpt lat="50.59923" lon="6.44745">
        <ele>331.31</ele>
        <time>2019-07-06T11:54:16Z</time>
      </trkpt>
      <trkpt lat="50.59925" lon="6.44736">
        <ele>331.31</ele>
        <time>2019-07-06T11:54:17Z</time>
      </trkpt>
      <trkpt lat="50.59931" lon="6.44697">
        <ele>331.31</ele>
        <time>2019-07-06T11:54:21Z</time>
      </trkpt>
      <trkpt lat="50.59932" lon="6.44686">
        <ele>331.31</ele>
        <time>2019-07-06T11:54:22Z</time>
      </trkpt>
      <trkpt lat="50.59936" lon="6.44568">
        <ele>332.75</ele>
        <time>2019-07-06T11:54:33Z</time>
      </trkpt>
      <trkpt lat="50.59935" lon="6.44558">
        <ele>333.23</ele>
        <time>2019-07-06T11:54:34Z</time>
      </trkpt>
      <trkpt lat="50.59927" lon="6.4451">
        <ele>334.2</ele>
        <time>2019-07-06T11:54:39Z</time>
      </trkpt>
      <trkpt lat="50.59924" lon="6.44501">
        <ele>334.2</ele>
        <time>2019-07-06T11:54:40Z</time>
      </trkpt>
      <trkpt lat="50.59915" lon="6.44475">
        <ele>334.2</ele>
        <time>2019-07-06T11:54:43Z</time>
      </trkpt>
      <trkpt lat="50.59911" lon="6.44466">
        <ele>334.2</ele>
        <time>2019-07-06T11:54:44Z</time>
      </trkpt>
      <trkpt lat="50.59855" lon="6.44361">
        <ele>333.71</ele>
        <time>2019-07-06T11:54:59Z</time>
      </trkpt>
      <trkpt lat="50.5981" lon="6.44278">
        <ele>333.71</ele>
        <time>2019-07-06T11:55:12Z</time>
      </trkpt>
      <trkpt lat="50.59805" lon="6.44273">
        <ele>333.71</ele>
        <time>2019-07-06T11:55:13Z</time>
      </trkpt>
      <trkpt lat="50.59744" lon="6.44209">
        <ele>332.75</ele>
        <time>2019-07-06T11:55:26Z</time>
      </trkpt>
      <trkpt lat="50.59741" lon="6.44202">
        <ele>332.75</ele>
        <time>2019-07-06T11:55:27Z</time>
      </trkpt>
      <trkpt lat="50.59739" lon="6.44195">
        <ele>332.75</ele>
        <time>2019-07-06T11:55:28Z</time>
      </trkpt>
      <trkpt lat="50.59738" lon="6.44187">
        <ele>332.75</ele>
        <time>2019-07-06T11:55:29Z</time>
      </trkpt>
      <trkpt lat="50.59738" lon="6.44178">
        <ele>332.75</ele>
        <time>2019-07-06T11:55:30Z</time>
      </trkpt>
      <trkpt lat="50.5974" lon="6.4417">
        <ele>332.75</ele>
        <time>2019-07-06T11:55:31Z</time>
      </trkpt>
      <trkpt lat="50.59743" lon="6.44162">
        <ele>332.75</ele>
        <time>2019-07-06T11:55:32Z</time>
      </trkpt>
      <trkpt lat="50.59746" lon="6.44154">
        <ele>332.75</ele>
        <time>2019-07-06T11:55:33Z</time>
      </trkpt>
      <trkpt lat="50.59751" lon="6.44146">
        <ele>332.27</ele>
        <time>2019-07-06T11:55:34Z</time>
      </trkpt>
      <trkpt lat="50.59768" lon="6.44122">
        <ele>331.79</ele>
        <time>2019-07-06T11:55:38Z</time>
      </trkpt>
      <trkpt lat="50.59773" lon="6.44117">
        <ele>331.79</ele>
        <time>2019-07-06T11:55:39Z</time>
      </trkpt>
      <trkpt lat="50.59779" lon="6.44114">
        <ele>331.79</ele>
        <time>2019-07-06T11:55:40Z</time>
      </trkpt>
      <trkpt lat="50.59803" lon="6.441">
        <ele>330.83</ele>
        <time>2019-07-06T11:55:44Z</time>
      </trkpt>
      <trkpt lat="50.59808" lon="6.44095">
        <ele>330.83</ele>
        <time>2019-07-06T11:55:45Z</time>
      </trkpt>
      <trkpt lat="50.59812" lon="6.44088">
        <ele>330.83</ele>
        <time>2019-07-06T11:55:46Z</time>
      </trkpt>
      <trkpt lat="50.59857" lon="6.4402">
        <ele>329.87</ele>
        <time>2019-07-06T11:55:56Z</time>
      </trkpt>
      <trkpt lat="50.59861" lon="6.44013">
        <ele>329.87</ele>
        <time>2019-07-06T11:55:57Z</time>
      </trkpt>
      <trkpt lat="50.59869" lon="6.43998">
        <ele>329.87</ele>
        <time>2019-07-06T11:55:59Z</time>
      </trkpt>
      <trkpt lat="50.59882" lon="6.43966">
        <ele>329.87</ele>
        <time>2019-07-06T11:56:03Z</time>
      </trkpt>
      <trkpt lat="50.59887" lon="6.4396">
        <ele>329.87</ele>
        <time>2019-07-06T11:56:04Z</time>
      </trkpt>
      <trkpt lat="50.59892" lon="6.43957">
        <ele>329.87</ele>
        <time>2019-07-06T11:56:05Z</time>
      </trkpt>
      <trkpt lat="50.59898" lon="6.43957">
        <ele>329.39</ele>
        <time>2019-07-06T11:56:06Z</time>
      </trkpt>
      <trkpt lat="50.59904" lon="6.43959">
        <ele>329.39</ele>
        <time>2019-07-06T11:56:07Z</time>
      </trkpt>
      <trkpt lat="50.5991" lon="6.43961">
        <ele>329.39</ele>
        <time>2019-07-06T11:56:08Z</time>
      </trkpt>
      <trkpt lat="50.59917" lon="6.43964">
        <ele>329.39</ele>
        <time>2019-07-06T11:56:09Z</time>
      </trkpt>
      <trkpt lat="50.59941" lon="6.43976">
        <ele>329.39</ele>
        <time>2019-07-06T11:56:13Z</time>
      </trkpt>
      <trkpt lat="50.59946" lon="6.43981">
        <ele>329.39</ele>
        <time>2019-07-06T11:56:14Z</time>
      </trkpt>
      <trkpt lat="50.59951" lon="6.43987">
        <ele>329.39</ele>
        <time>2019-07-06T11:56:15Z</time>
      </trkpt>
      <trkpt lat="50.59955" lon="6.43994">
        <ele>329.39</ele>
        <time>2019-07-06T11:56:16Z</time>
      </trkpt>
      <trkpt lat="50.5996" lon="6.44001">
        <ele>329.39</ele>
        <time>2019-07-06T11:56:17Z</time>
      </trkpt>
      <trkpt lat="50.59964" lon="6.44008">
        <ele>329.39</ele>
        <time>2019-07-06T11:56:18Z</time>
      </trkpt>
      <trkpt lat="50.59969" lon="6.44015">
        <ele>329.39</ele>
        <time>2019-07-06T11:56:19Z</time>
      </trkpt>
      <trkpt lat="50.59973" lon="6.44022">
        <ele>329.39</ele>
        <time>2019-07-06T11:56:20Z</time>
      </trkpt>
      <trkpt lat="50.59978" lon="6.44028">
        <ele>329.39</ele>
        <time>2019-07-06T11:56:21Z</time>
      </trkpt>
      <trkpt lat="50.59984" lon="6.44032">
        <ele>328.43</ele>
        <time>2019-07-06T11:56:22Z</time>
      </trkpt>
      <trkpt lat="50.59991" lon="6.44033">
        <ele>328.43</ele>
        <time>2019-07-06T11:56:23Z</time>
      </trkpt>
      <trkpt lat="50.59997" lon="6.44033">
        <ele>328.43</ele>
        <time>2019-07-06T11:56:24Z</time>
      </trkpt>
      <trkpt lat="50.60003" lon="6.4403">
        <ele>328.43</ele>
        <time>2019-07-06T11:56:25Z</time>
      </trkpt>
      <trkpt lat="50.60008" lon="6.44024">
        <ele>328.43</ele>
        <time>2019-07-06T11:56:26Z</time>
      </trkpt>
      <trkpt lat="50.60012" lon="6.44017">
        <ele>328.43</ele>
        <time>2019-07-06T11:56:27Z</time>
      </trkpt>
      <trkpt lat="50.60014" lon="6.44008">
        <ele>328.43</ele>
        <time>2019-07-06T11:56:28Z</time>
      </trkpt>
      <trkpt lat="50.60016" lon="6.44">
        <ele>328.43</ele>
        <time>2019-07-06T11:56:29Z</time>
      </trkpt>
      <trkpt lat="50.60016" lon="6.43992">
        <ele>328.43</ele>
        <time>2019-07-06T11:56:30Z</time>
      </trkpt>
      <trkpt lat="50.60016" lon="6.43984">
        <ele>328.43</ele>
        <time>2019-07-06T11:56:31Z</time>
      </trkpt>
      <trkpt lat="50.60014" lon="6.43976">
        <ele>328.43</ele>
        <time>2019-07-06T11:56:32Z</time>
      </trkpt>
      <trkpt lat="50.60009" lon="6.43958">
        <ele>328.43</ele>
        <time>2019-07-06T11:56:34Z</time>
      </trkpt>
      <trkpt lat="50.59997" lon="6.43923">
        <ele>329.87</ele>
        <time>2019-07-06T11:56:38Z</time>
      </trkpt>
      <trkpt lat="50.5995" lon="6.43845">
        <ele>330.35</ele>
        <time>2019-07-06T11:56:49Z</time>
      </trkpt>
      <trkpt lat="50.59945" lon="6.43838">
        <ele>330.35</ele>
        <time>2019-07-06T11:56:50Z</time>
      </trkpt>
      <trkpt lat="50.59942" lon="6.4383">
        <ele>330.35</ele>
        <time>2019-07-06T11:56:51Z</time>
      </trkpt>
      <trkpt lat="50.5994" lon="6.43821">
        <ele>330.35</ele>
        <time>2019-07-06T11:56:52Z</time>
      </trkpt>
      <trkpt lat="50.5994" lon="6.43811">
        <ele>330.35</ele>
        <time>2019-07-06T11:56:53Z</time>
      </trkpt>
      <trkpt lat="50.59939" lon="6.43802">
        <ele>330.35</ele>
        <time>2019-07-06T11:56:54Z</time>
      </trkpt>
      <trkpt lat="50.59937" lon="6.43772">
        <ele>329.87</ele>
        <time>2019-07-06T11:56:57Z</time>
      </trkpt>
      <trkpt lat="50.59935" lon="6.43763">
        <ele>329.87</ele>
        <time>2019-07-06T11:56:58Z</time>
      </trkpt>
      <trkpt lat="50.59931" lon="6.43745">
        <ele>329.87</ele>
        <time>2019-07-06T11:57:00Z</time>
      </trkpt>
      <trkpt lat="50.5992" lon="6.43708">
        <ele>330.35</ele>
        <time>2019-07-06T11:57:04Z</time>
      </trkpt>
      <trkpt lat="50.59875" lon="6.43601">
        <ele>330.35</ele>
        <time>2019-07-06T11:57:18Z</time>
      </trkpt>
      <trkpt lat="50.59827" lon="6.43509">
        <ele>331.79</ele>
        <time>2019-07-06T11:57:32Z</time>
      </trkpt>
      <trkpt lat="50.59819" lon="6.43496">
        <ele>331.79</ele>
        <time>2019-07-06T11:57:34Z</time>
      </trkpt>
      <trkpt lat="50.59758" lon="6.43421">
        <ele>331.79</ele>
        <time>2019-07-06T11:57:47Z</time>
      </trkpt>
      <trkpt lat="50.59737" lon="6.43388">
        <ele>331.79</ele>
        <time>2019-07-06T11:57:52Z</time>
      </trkpt>
      <trkpt lat="50.59734" lon="6.4338">
        <ele>332.27</ele>
        <time>2019-07-06T11:57:53Z</time>
      </trkpt>
      <trkpt lat="50.59733" lon="6.43371">
        <ele>332.27</ele>
        <time>2019-07-06T11:57:54Z</time>
      </trkpt>
      <trkpt lat="50.59732" lon="6.43362">
        <ele>332.27</ele>
        <time>2019-07-06T11:57:55Z</time>
      </trkpt>
      <trkpt lat="50.59734" lon="6.43353">
        <ele>332.27</ele>
        <time>2019-07-06T11:57:56Z</time>
      </trkpt>
      <trkpt lat="50.59736" lon="6.43345">
        <ele>332.27</ele>
        <time>2019-07-06T11:57:57Z</time>
      </trkpt>
      <trkpt lat="50.5974" lon="6.43336">
        <ele>332.27</ele>
        <time>2019-07-06T11:57:58Z</time>
      </trkpt>
      <trkpt lat="50.59744" lon="6.43329">
        <ele>332.27</ele>
        <time>2019-07-06T11:57:59Z</time>
      </trkpt>
      <trkpt lat="50.59748" lon="6.43323">
        <ele>332.27</ele>
        <time>2019-07-06T11:58:00Z</time>
      </trkpt>
      <trkpt lat="50.59754" lon="6.43319">
        <ele>332.75</ele>
        <time>2019-07-06T11:58:01Z</time>
      </trkpt>
      <trkpt lat="50.5976" lon="6.43316">
        <ele>332.75</ele>
        <time>2019-07-06T11:58:02Z</time>
      </trkpt>
      <trkpt lat="50.59765" lon="6.43313">
        <ele>332.75</ele>
        <time>2019-07-06T11:58:03Z</time>
      </trkpt>
      <trkpt lat="50.59782" lon="6.43306">
        <ele>332.75</ele>
        <time>2019-07-06T11:58:06Z</time>
      </trkpt>
      <trkpt lat="50.59866" lon="6.43305">
        <ele>332.75</ele>
        <time>2019-07-06T11:58:20Z</time>
      </trkpt>
      <trkpt lat="50.59954" lon="6.43284">
        <ele>332.75</ele>
        <time>2019-07-06T11:58:34Z</time>
      </trkpt>
      <trkpt lat="50.60018" lon="6.4324">
        <ele>332.75</ele>
        <time>2019-07-06T11:58:45Z</time>
      </trkpt>
      <trkpt lat="50.60023" lon="6.43234">
        <ele>332.75</ele>
        <time>2019-07-06T11:58:46Z</time>
      </trkpt>
      <trkpt lat="50.60028" lon="6.43229">
        <ele>332.75</ele>
        <time>2019-07-06T11:58:47Z</time>
      </trkpt>
      <trkpt lat="50.60035" lon="6.43228">
        <ele>332.75</ele>
        <time>2019-07-06T11:58:48Z</time>
      </trkpt>
      <trkpt lat="50.60056" lon="6.43225">
        <ele>331.31</ele>
        <time>2019-07-06T11:58:51Z</time>
      </trkpt>
      <trkpt lat="50.60064" lon="6.43222">
        <ele>331.31</ele>
        <time>2019-07-06T11:58:52Z</time>
      </trkpt>
      <trkpt lat="50.60089" lon="6.43206">
        <ele>330.83</ele>
        <time>2019-07-06T11:58:56Z</time>
      </trkpt>
      <trkpt lat="50.60096" lon="6.43202">
        <ele>330.83</ele>
        <time>2019-07-06T11:58:57Z</time>
      </trkpt>
      <trkpt lat="50.60146" lon="6.4317">
        <ele>331.31</ele>
        <time>2019-07-06T11:59:05Z</time>
      </trkpt>
      <trkpt lat="50.60195" lon="6.43142">
        <ele>331.31</ele>
        <time>2019-07-06T11:59:13Z</time>
      </trkpt>
      <trkpt lat="50.60201" lon="6.43142">
        <ele>331.31</ele>
        <time>2019-07-06T11:59:14Z</time>
      </trkpt>
      <trkpt lat="50.60213" lon="6.43146">
        <ele>331.31</ele>
        <time>2019-07-06T11:59:16Z</time>
      </trkpt>
      <trkpt lat="50.60238" lon="6.4316">
        <ele>331.31</ele>
        <time>2019-07-06T11:59:20Z</time>
      </trkpt>
      <trkpt lat="50.60244" lon="6.4316">
        <ele>331.31</ele>
        <time>2019-07-06T11:59:21Z</time>
      </trkpt>
      <trkpt lat="50.6025" lon="6.43158">
        <ele>331.31</ele>
        <time>2019-07-06T11:59:22Z</time>
      </trkpt>
      <trkpt lat="50.60256" lon="6.43154">
        <ele>331.31</ele>
        <time>2019-07-06T11:59:23Z</time>
      </trkpt>
      <trkpt lat="50.60261" lon="6.43149">
        <ele>331.31</ele>
        <time>2019-07-06T11:59:24Z</time>
      </trkpt>
      <trkpt lat="50.6027" lon="6.43135">
        <ele>331.31</ele>
        <time>2019-07-06T11:59:26Z</time>
      </trkpt>
      <trkpt lat="50.60283" lon="6.43114">
        <ele>331.31</ele>
        <time>2019-07-06T11:59:29Z</time>
      </trkpt>
      <trkpt lat="50.60288" lon="6.4311">
        <ele>331.31</ele>
        <time>2019-07-06T11:59:30Z</time>
      </trkpt>
      <trkpt lat="50.60294" lon="6.43108">
        <ele>331.31</ele>
        <time>2019-07-06T11:59:31Z</time>
      </trkpt>
      <trkpt lat="50.60339" lon="6.43109">
        <ele>331.31</ele>
        <time>2019-07-06T11:59:38Z</time>
      </trkpt>
      <trkpt lat="50.60345" lon="6.43112">
        <ele>330.83</ele>
        <time>2019-07-06T11:59:39Z</time>
      </trkpt>
      <trkpt lat="50.60351" lon="6.43117">
        <ele>330.35</ele>
        <time>2019-07-06T11:59:40Z</time>
      </trkpt>
      <trkpt lat="50.60356" lon="6.43123">
        <ele>330.35</ele>
        <time>2019-07-06T11:59:41Z</time>
      </trkpt>
      <trkpt lat="50.60364" lon="6.43136">
        <ele>330.35</ele>
        <time>2019-07-06T11:59:43Z</time>
      </trkpt>
      <trkpt lat="50.6037" lon="6.43141">
        <ele>330.35</ele>
        <time>2019-07-06T11:59:44Z</time>
      </trkpt>
      <trkpt lat="50.60375" lon="6.43144">
        <ele>330.35</ele>
        <time>2019-07-06T11:59:45Z</time>
      </trkpt>
      <trkpt lat="50.60382" lon="6.43145">
        <ele>330.35</ele>
        <time>2019-07-06T11:59:46Z</time>
      </trkpt>
      <trkpt lat="50.60388" lon="6.43144">
        <ele>330.35</ele>
        <time>2019-07-06T11:59:47Z</time>
      </trkpt>
      <trkpt lat="50.60409" lon="6.43135">
        <ele>330.35</ele>
        <time>2019-07-06T11:59:50Z</time>
      </trkpt>
      <trkpt lat="50.60416" lon="6.43132">
        <ele>330.35</ele>
        <time>2019-07-06T11:59:51Z</time>
      </trkpt>
      <trkpt lat="50.60422" lon="6.43127">
        <ele>330.35</ele>
        <time>2019-07-06T11:59:52Z</time>
      </trkpt>
      <trkpt lat="50.60463" lon="6.43081">
        <ele>329.87</ele>
        <time>2019-07-06T12:00:00Z</time>
      </trkpt>
      <trkpt lat="50.60469" lon="6.43078">
        <ele>329.87</ele>
        <time>2019-07-06T12:00:01Z</time>
      </trkpt>
      <trkpt lat="50.60517" lon="6.43057">
        <ele>328.91</ele>
        <time>2019-07-06T12:00:09Z</time>
      </trkpt>
      <trkpt lat="50.60529" lon="6.4305">
        <ele>328.91</ele>
        <time>2019-07-06T12:00:11Z</time>
      </trkpt>
      <trkpt lat="50.6057" lon="6.43016">
        <ele>328.91</ele>
        <time>2019-07-06T12:00:18Z</time>
      </trkpt>
      <trkpt lat="50.60666" lon="6.42941">
        <ele>328.43</ele>
        <time>2019-07-06T12:00:34Z</time>
      </trkpt>
      <trkpt lat="50.60677" lon="6.42931">
        <ele>328.43</ele>
        <time>2019-07-06T12:00:36Z</time>
      </trkpt>
      <trkpt lat="50.60688" lon="6.42918">
        <ele>328.43</ele>
        <time>2019-07-06T12:00:38Z</time>
      </trkpt>
      <trkpt lat="50.60726" lon="6.42868">
        <ele>327.95</ele>
        <time>2019-07-06T12:00:45Z</time>
      </trkpt>
      <trkpt lat="50.60731" lon="6.42864">
        <ele>327.95</ele>
        <time>2019-07-06T12:00:46Z</time>
      </trkpt>
      <trkpt lat="50.60737" lon="6.42859">
        <ele>327.95</ele>
        <time>2019-07-06T12:00:47Z</time>
      </trkpt>
      <trkpt lat="50.60743" lon="6.42856">
        <ele>327.95</ele>
        <time>2019-07-06T12:00:48Z</time>
      </trkpt>
      <trkpt lat="50.6075" lon="6.42853">
        <ele>327.95</ele>
        <time>2019-07-06T12:00:49Z</time>
      </trkpt>
      <trkpt lat="50.60756" lon="6.4285">
        <ele>327.95</ele>
        <time>2019-07-06T12:00:50Z</time>
      </trkpt>
      <trkpt lat="50.60763" lon="6.42849">
        <ele>327.95</ele>
        <time>2019-07-06T12:00:51Z</time>
      </trkpt>
      <trkpt lat="50.6077" lon="6.42849">
        <ele>327.95</ele>
        <time>2019-07-06T12:00:52Z</time>
      </trkpt>
      <trkpt lat="50.60798" lon="6.42852">
        <ele>329.39</ele>
        <time>2019-07-06T12:00:56Z</time>
      </trkpt>
      <trkpt lat="50.60804" lon="6.42855">
        <ele>329.39</ele>
        <time>2019-07-06T12:00:57Z</time>
      </trkpt>
      <trkpt lat="50.60817" lon="6.42862">
        <ele>328.91</ele>
        <time>2019-07-06T12:00:59Z</time>
      </trkpt>
      <trkpt lat="50.60823" lon="6.42866">
        <ele>328.91</ele>
        <time>2019-07-06T12:01:00Z</time>
      </trkpt>
      <trkpt lat="50.60829" lon="6.42869">
        <ele>328.91</ele>
        <time>2019-07-06T12:01:01Z</time>
      </trkpt>
      <trkpt lat="50.60834" lon="6.42872">
        <ele>328.91</ele>
        <time>2019-07-06T12:01:02Z</time>
      </trkpt>
      <trkpt lat="50.6084" lon="6.42876">
        <ele>328.91</ele>
        <time>2019-07-06T12:01:03Z</time>
      </trkpt>
      <trkpt lat="50.60846" lon="6.42879">
        <ele>328.91</ele>
        <time>2019-07-06T12:01:04Z</time>
      </trkpt>
      <trkpt lat="50.60908" lon="6.42912">
        <ele>328.91</ele>
        <time>2019-07-06T12:01:14Z</time>
      </trkpt>
      <trkpt lat="50.60918" lon="6.42918">
        <ele>328.91</ele>
        <time>2019-07-06T12:01:16Z</time>
      </trkpt>
      <trkpt lat="50.60924" lon="6.4292">
        <ele>328.91</ele>
        <time>2019-07-06T12:01:17Z</time>
      </trkpt>
      <trkpt lat="50.60951" lon="6.42927">
        <ele>328.91</ele>
        <time>2019-07-06T12:01:22Z</time>
      </trkpt>
      <trkpt lat="50.60956" lon="6.42927">
        <ele>328.91</ele>
        <time>2019-07-06T12:01:23Z</time>
      </trkpt>
      <trkpt lat="50.60961" lon="6.42925">
        <ele>328.91</ele>
        <time>2019-07-06T12:01:24Z</time>
      </trkpt>
      <trkpt lat="50.60965" lon="6.42921">
        <ele>328.91</ele>
        <time>2019-07-06T12:01:25Z</time>
      </trkpt>
      <trkpt lat="50.60969" lon="6.42913">
        <ele>328.91</ele>
        <time>2019-07-06T12:01:26Z</time>
      </trkpt>
      <trkpt lat="50.6097" lon="6.42907">
        <ele>328.91</ele>
        <time>2019-07-06T12:01:27Z</time>
      </trkpt>
      <trkpt lat="50.60972" lon="6.429">
        <ele>328.91</ele>
        <time>2019-07-06T12:01:28Z</time>
      </trkpt>
      <trkpt lat="50.60972" lon="6.42894">
        <ele>328.91</ele>
        <time>2019-07-06T12:01:29Z</time>
      </trkpt>
      <trkpt lat="50.60974" lon="6.42884">
        <ele>328.91</ele>
        <time>2019-07-06T12:01:30Z</time>
      </trkpt>
      <trkpt lat="50.60971" lon="6.42866">
        <ele>328.91</ele>
        <time>2019-07-06T12:01:32Z</time>
      </trkpt>
      <trkpt lat="50.60969" lon="6.42858">
        <ele>329.39</ele>
        <time>2019-07-06T12:01:33Z</time>
      </trkpt>
      <trkpt lat="50.60965" lon="6.42851">
        <ele>329.39</ele>
        <time>2019-07-06T12:01:34Z</time>
      </trkpt>
      <trkpt lat="50.6096" lon="6.42845">
        <ele>329.39</ele>
        <time>2019-07-06T12:01:35Z</time>
      </trkpt>
      <trkpt lat="50.60956" lon="6.4284">
        <ele>329.39</ele>
        <time>2019-07-06T12:01:36Z</time>
      </trkpt>
      <trkpt lat="50.60938" lon="6.42821">
        <ele>329.39</ele>
        <time>2019-07-06T12:01:40Z</time>
      </trkpt>
      <trkpt lat="50.60891" lon="6.42763">
        <ele>329.39</ele>
        <time>2019-07-06T12:01:50Z</time>
      </trkpt>
      <trkpt lat="50.60818" lon="6.42685">
        <ele>329.39</ele>
        <time>2019-07-06T12:02:04Z</time>
      </trkpt>
      <trkpt lat="50.6077" lon="6.42657">
        <ele>329.87</ele>
        <time>2019-07-06T12:02:12Z</time>
      </trkpt>
      <trkpt lat="50.60764" lon="6.42652">
        <ele>329.87</ele>
        <time>2019-07-06T12:02:13Z</time>
      </trkpt>
      <trkpt lat="50.60759" lon="6.42646">
        <ele>329.87</ele>
        <time>2019-07-06T12:02:14Z</time>
      </trkpt>
      <trkpt lat="50.60728" lon="6.42608">
        <ele>329.87</ele>
        <time>2019-07-06T12:02:20Z</time>
      </trkpt>
      <trkpt lat="50.60702" lon="6.42565">
        <ele>329.87</ele>
        <time>2019-07-06T12:02:26Z</time>
      </trkpt>
      <trkpt lat="50.60699" lon="6.42556">
        <ele>329.87</ele>
        <time>2019-07-06T12:02:27Z</time>
      </trkpt>
      <trkpt lat="50.60696" lon="6.42546">
        <ele>329.87</ele>
        <time>2019-07-06T12:02:28Z</time>
      </trkpt>
      <trkpt lat="50.60671" lon="6.42453">
        <ele>330.35</ele>
        <time>2019-07-06T12:02:38Z</time>
      </trkpt>
      <trkpt lat="50.60667" lon="6.42445">
        <ele>330.35</ele>
        <time>2019-07-06T12:02:39Z</time>
      </trkpt>
      <trkpt lat="50.60599" lon="6.42358">
        <ele>330.35</ele>
        <time>2019-07-06T12:02:52Z</time>
      </trkpt>
      <trkpt lat="50.6053" lon="6.4228">
        <ele>330.35</ele>
        <time>2019-07-06T12:03:04Z</time>
      </trkpt>
      <trkpt lat="50.60526" lon="6.42273">
        <ele>330.35</ele>
        <time>2019-07-06T12:03:05Z</time>
      </trkpt>
      <trkpt lat="50.60524" lon="6.42264">
        <ele>330.35</ele>
        <time>2019-07-06T12:03:06Z</time>
      </trkpt>
      <trkpt lat="50.60515" lon="6.42215">
        <ele>330.35</ele>
        <time>2019-07-06T12:03:11Z</time>
      </trkpt>
      <trkpt lat="50.60512" lon="6.42206">
        <ele>330.35</ele>
        <time>2019-07-06T12:03:12Z</time>
      </trkpt>
      <trkpt lat="50.60509" lon="6.42197">
        <ele>330.35</ele>
        <time>2019-07-06T12:03:13Z</time>
      </trkpt>
      <trkpt lat="50.60471" lon="6.4211">
        <ele>330.35</ele>
        <time>2019-07-06T12:03:23Z</time>
      </trkpt>
      <trkpt lat="50.60466" lon="6.42103">
        <ele>330.35</ele>
        <time>2019-07-06T12:03:24Z</time>
      </trkpt>
      <trkpt lat="50.60429" lon="6.42062">
        <ele>330.35</ele>
        <time>2019-07-06T12:03:31Z</time>
      </trkpt>
      <trkpt lat="50.60427" lon="6.42055">
        <ele>330.35</ele>
        <time>2019-07-06T12:03:32Z</time>
      </trkpt>
      <trkpt lat="50.60427" lon="6.42046">
        <ele>330.35</ele>
        <time>2019-07-06T12:03:33Z</time>
      </trkpt>
      <trkpt lat="50.6043" lon="6.42039">
        <ele>330.35</ele>
        <time>2019-07-06T12:03:34Z</time>
      </trkpt>
      <trkpt lat="50.60436" lon="6.42034">
        <ele>328.91</ele>
        <time>2019-07-06T12:03:35Z</time>
      </trkpt>
      <trkpt lat="50.60439" lon="6.42033">
        <ele>328.91</ele>
        <time>2019-07-06T12:03:36Z</time>
      </trkpt>
      <trkpt lat="50.60444" lon="6.42031">
        <ele>327.95</ele>
        <time>2019-07-06T12:03:37Z</time>
      </trkpt>
      <trkpt lat="50.60505" lon="6.42021">
        <ele>326.99</ele>
        <time>2019-07-06T12:03:48Z</time>
      </trkpt>
      <trkpt lat="50.60559" lon="6.42027">
        <ele>324.58</ele>
        <time>2019-07-06T12:04:00Z</time>
      </trkpt>
      <trkpt lat="50.60599" lon="6.42034">
        <ele>323.14</ele>
        <time>2019-07-06T12:04:07Z</time>
      </trkpt>
      <trkpt lat="50.60645" lon="6.42057">
        <ele>319.78</ele>
        <time>2019-07-06T12:04:14Z</time>
      </trkpt>
      <trkpt lat="50.60652" lon="6.4206">
        <ele>319.3</ele>
        <time>2019-07-06T12:04:15Z</time>
      </trkpt>
      <trkpt lat="50.60667" lon="6.42068">
        <ele>318.81</ele>
        <time>2019-07-06T12:04:17Z</time>
      </trkpt>
      <trkpt lat="50.6069" lon="6.42076">
        <ele>316.89</ele>
        <time>2019-07-06T12:04:20Z</time>
      </trkpt>
      <trkpt lat="50.60736" lon="6.42085">
        <ele>314.49</ele>
        <time>2019-07-06T12:04:26Z</time>
      </trkpt>
      <trkpt lat="50.60796" lon="6.42086">
        <ele>311.12</ele>
        <time>2019-07-06T12:04:33Z</time>
      </trkpt>
      <trkpt lat="50.60829" lon="6.42083">
        <ele>309.2</ele>
        <time>2019-07-06T12:04:37Z</time>
      </trkpt>
      <trkpt lat="50.60891" lon="6.42055">
        <ele>305.84</ele>
        <time>2019-07-06T12:04:46Z</time>
      </trkpt>
      <trkpt lat="50.60906" lon="6.42041">
        <ele>304.88</ele>
        <time>2019-07-06T12:04:48Z</time>
      </trkpt>
      <trkpt lat="50.60911" lon="6.42034">
        <ele>304.88</ele>
        <time>2019-07-06T12:04:49Z</time>
      </trkpt>
      <trkpt lat="50.60923" lon="6.4202">
        <ele>303.43</ele>
        <time>2019-07-06T12:04:51Z</time>
      </trkpt>
      <trkpt lat="50.60956" lon="6.41989">
        <ele>301.99</ele>
        <time>2019-07-06T12:04:57Z</time>
      </trkpt>
      <trkpt lat="50.60962" lon="6.41983">
        <ele>301.99</ele>
        <time>2019-07-06T12:04:58Z</time>
      </trkpt>
      <trkpt lat="50.60966" lon="6.41976">
        <ele>301.51</ele>
        <time>2019-07-06T12:04:59Z</time>
      </trkpt>
      <trkpt lat="50.6097" lon="6.41967">
        <ele>300.55</ele>
        <time>2019-07-06T12:05:00Z</time>
      </trkpt>
      <trkpt lat="50.60973" lon="6.41958">
        <ele>300.55</ele>
        <time>2019-07-06T12:05:01Z</time>
      </trkpt>
      <trkpt lat="50.60988" lon="6.41912">
        <ele>299.11</ele>
        <time>2019-07-06T12:05:06Z</time>
      </trkpt>
      <trkpt lat="50.60991" lon="6.41895">
        <ele>298.15</ele>
        <time>2019-07-06T12:05:08Z</time>
      </trkpt>
      <trkpt lat="50.60992" lon="6.41887">
        <ele>298.15</ele>
        <time>2019-07-06T12:05:09Z</time>
      </trkpt>
      <trkpt lat="50.60993" lon="6.41879">
        <ele>297.67</ele>
        <time>2019-07-06T12:05:10Z</time>
      </trkpt>
      <trkpt lat="50.60992" lon="6.41861">
        <ele>297.18</ele>
        <time>2019-07-06T12:05:12Z</time>
      </trkpt>
      <trkpt lat="50.60982" lon="6.41746">
        <ele>293.82</ele>
        <time>2019-07-06T12:05:22Z</time>
      </trkpt>
      <trkpt lat="50.60978" lon="6.41724">
        <ele>292.86</ele>
        <time>2019-07-06T12:05:24Z</time>
      </trkpt>
      <trkpt lat="50.60975" lon="6.41714">
        <ele>292.86</ele>
        <time>2019-07-06T12:05:25Z</time>
      </trkpt>
      <trkpt lat="50.6097" lon="6.41705">
        <ele>292.38</ele>
        <time>2019-07-06T12:05:26Z</time>
      </trkpt>
      <trkpt lat="50.60964" lon="6.41697">
        <ele>292.38</ele>
        <time>2019-07-06T12:05:27Z</time>
      </trkpt>
      <trkpt lat="50.60958" lon="6.41688">
        <ele>291.42</ele>
        <time>2019-07-06T12:05:28Z</time>
      </trkpt>
      <trkpt lat="50.60926" lon="6.41645">
        <ele>290.46</ele>
        <time>2019-07-06T12:05:33Z</time>
      </trkpt>
      <trkpt lat="50.60919" lon="6.41637">
        <ele>290.46</ele>
        <time>2019-07-06T12:05:34Z</time>
      </trkpt>
      <trkpt lat="50.60831" lon="6.41582">
        <ele>290.46</ele>
        <time>2019-07-06T12:05:47Z</time>
      </trkpt>
      <trkpt lat="50.6079" lon="6.41567">
        <ele>290.46</ele>
        <time>2019-07-06T12:05:53Z</time>
      </trkpt>
      <trkpt lat="50.60704" lon="6.41511">
        <ele>289.97</ele>
        <time>2019-07-06T12:06:07Z</time>
      </trkpt>
      <trkpt lat="50.60699" lon="6.41505">
        <ele>289.97</ele>
        <time>2019-07-06T12:06:08Z</time>
      </trkpt>
      <trkpt lat="50.60661" lon="6.4146">
        <ele>289.97</ele>
        <time>2019-07-06T12:06:15Z</time>
      </trkpt>
      <trkpt lat="50.60648" lon="6.41451">
        <ele>289.97</ele>
        <time>2019-07-06T12:06:17Z</time>
      </trkpt>
      <trkpt lat="50.60642" lon="6.41447">
        <ele>289.97</ele>
        <time>2019-07-06T12:06:18Z</time>
      </trkpt>
      <trkpt lat="50.60562" lon="6.41401">
        <ele>289.97</ele>
        <time>2019-07-06T12:06:31Z</time>
      </trkpt>
      <trkpt lat="50.60477" lon="6.41368">
        <ele>289.97</ele>
        <time>2019-07-06T12:06:44Z</time>
      </trkpt>
      <trkpt lat="50.60381" lon="6.41358">
        <ele>289.97</ele>
        <time>2019-07-06T12:06:57Z</time>
      </trkpt>
      <trkpt lat="50.60337" lon="6.41355">
        <ele>289.97</ele>
        <time>2019-07-06T12:07:03Z</time>
      </trkpt>
      <trkpt lat="50.60225" lon="6.4133">
        <ele>289.97</ele>
        <time>2019-07-06T12:07:19Z</time>
      </trkpt>
      <trkpt lat="50.60212" lon="6.41328">
        <ele>289.97</ele>
        <time>2019-07-06T12:07:21Z</time>
      </trkpt>
      <trkpt lat="50.60207" lon="6.41326">
        <ele>289.97</ele>
        <time>2019-07-06T12:07:22Z</time>
      </trkpt>
      <trkpt lat="50.60203" lon="6.41321">
        <ele>289.97</ele>
        <time>2019-07-06T12:07:23Z</time>
      </trkpt>
      <trkpt lat="50.60201" lon="6.41314">
        <ele>289.97</ele>
        <time>2019-07-06T12:07:24Z</time>
      </trkpt>
      <trkpt lat="50.60202" lon="6.41306">
        <ele>289.97</ele>
        <time>2019-07-06T12:07:25Z</time>
      </trkpt>
      <trkpt lat="50.60204" lon="6.413">
        <ele>289.97</ele>
        <time>2019-07-06T12:07:26Z</time>
      </trkpt>
      <trkpt lat="50.60213" lon="6.41288">
        <ele>289.97</ele>
        <time>2019-07-06T12:07:28Z</time>
      </trkpt>
      <trkpt lat="50.60217" lon="6.41281">
        <ele>289.97</ele>
        <time>2019-07-06T12:07:29Z</time>
      </trkpt>
      <trkpt lat="50.60272" lon="6.41206">
        <ele>289.97</ele>
        <time>2019-07-06T12:07:39Z</time>
      </trkpt>
      <trkpt lat="50.60352" lon="6.4113">
        <ele>289.97</ele>
        <time>2019-07-06T12:07:53Z</time>
      </trkpt>
      <trkpt lat="50.60358" lon="6.41125">
        <ele>289.97</ele>
        <time>2019-07-06T12:07:54Z</time>
      </trkpt>
      <trkpt lat="50.60365" lon="6.41122">
        <ele>289.97</ele>
        <time>2019-07-06T12:07:55Z</time>
      </trkpt>
      <trkpt lat="50.60425" lon="6.41089">
        <ele>289.01</ele>
        <time>2019-07-06T12:08:05Z</time>
      </trkpt>
      <trkpt lat="50.60462" lon="6.41063">
        <ele>289.01</ele>
        <time>2019-07-06T12:08:12Z</time>
      </trkpt>
      <trkpt lat="50.60479" lon="6.41055">
        <ele>289.01</ele>
        <time>2019-07-06T12:08:15Z</time>
      </trkpt>
      <trkpt lat="50.60484" lon="6.4105">
        <ele>289.01</ele>
        <time>2019-07-06T12:08:16Z</time>
      </trkpt>
      <trkpt lat="50.60514" lon="6.41005">
        <ele>289.01</ele>
        <time>2019-07-06T12:08:26Z</time>
      </trkpt>
      <trkpt lat="50.60513" lon="6.41003">
        <ele>289.01</ele>
        <time>2019-07-06T12:08:27Z</time>
      </trkpt>
      <trkpt lat="50.60511" lon="6.41002">
        <ele>289.01</ele>
        <time>2019-07-06T12:08:28Z</time>
      </trkpt>
      <trkpt lat="50.60508" lon="6.41001">
        <ele>289.01</ele>
        <time>2019-07-06T12:08:41Z</time>
      </trkpt>
      <trkpt lat="50.60508" lon="6.41002">
        <ele>288.53</ele>
        <time>2019-07-06T12:08:45Z</time>
      </trkpt>
      <trkpt lat="50.60509" lon="6.41003">
        <ele>288.53</ele>
        <time>2019-07-06T12:08:46Z</time>
      </trkpt>
      <trkpt lat="50.6051" lon="6.41002">
        <ele>288.53</ele>
        <time>2019-07-06T12:08:47Z</time>
      </trkpt>
      <trkpt lat="50.60509" lon="6.41">
        <ele>288.53</ele>
        <time>2019-07-06T12:09:02Z</time>
      </trkpt>
      <trkpt lat="50.60509" lon="6.40998">
        <ele>288.53</ele>
        <time>2019-07-06T12:09:14Z</time>
      </trkpt>
      <trkpt lat="50.60513" lon="6.40991">
        <ele>288.53</ele>
        <time>2019-07-06T12:09:18Z</time>
      </trkpt>
      <trkpt lat="50.60514" lon="6.40987">
        <ele>288.53</ele>
        <time>2019-07-06T12:09:19Z</time>
      </trkpt>
      <trkpt lat="50.60525" lon="6.40973">
        <ele>289.49</ele>
        <time>2019-07-06T12:09:23Z</time>
      </trkpt>
      <trkpt lat="50.60566" lon="6.40929">
        <ele>288.53</ele>
        <time>2019-07-06T12:09:32Z</time>
      </trkpt>
      <trkpt lat="50.60577" lon="6.40921">
        <ele>288.05</ele>
        <time>2019-07-06T12:09:34Z</time>
      </trkpt>
      <trkpt lat="50.60627" lon="6.40841">
        <ele>288.05</ele>
        <time>2019-07-06T12:09:45Z</time>
      </trkpt>
      <trkpt lat="50.60639" lon="6.4082">
        <ele>288.05</ele>
        <time>2019-07-06T12:09:48Z</time>
      </trkpt>
      <trkpt lat="50.60648" lon="6.40807">
        <ele>288.05</ele>
        <time>2019-07-06T12:09:50Z</time>
      </trkpt>
      <trkpt lat="50.60653" lon="6.40801">
        <ele>288.05</ele>
        <time>2019-07-06T12:09:51Z</time>
      </trkpt>
      <trkpt lat="50.60667" lon="6.40777">
        <ele>287.57</ele>
        <time>2019-07-06T12:09:55Z</time>
      </trkpt>
      <trkpt lat="50.60685" lon="6.40751">
        <ele>287.57</ele>
        <time>2019-07-06T12:09:59Z</time>
      </trkpt>
      <trkpt lat="50.60706" lon="6.40718">
        <ele>287.57</ele>
        <time>2019-07-06T12:10:04Z</time>
      </trkpt>
      <trkpt lat="50.60711" lon="6.40712">
        <ele>287.57</ele>
        <time>2019-07-06T12:10:05Z</time>
      </trkpt>
      <trkpt lat="50.60735" lon="6.40688">
        <ele>287.57</ele>
        <time>2019-07-06T12:10:09Z</time>
      </trkpt>
      <trkpt lat="50.60768" lon="6.4064">
        <ele>287.57</ele>
        <time>2019-07-06T12:10:16Z</time>
      </trkpt>
      <trkpt lat="50.60774" lon="6.40625">
        <ele>289.01</ele>
        <time>2019-07-06T12:10:18Z</time>
      </trkpt>
      <trkpt lat="50.60774" lon="6.40618">
        <ele>289.01</ele>
        <time>2019-07-06T12:10:19Z</time>
      </trkpt>
      <trkpt lat="50.60771" lon="6.40611">
        <ele>289.49</ele>
        <time>2019-07-06T12:10:20Z</time>
      </trkpt>
      <trkpt lat="50.60767" lon="6.40606">
        <ele>289.97</ele>
        <time>2019-07-06T12:10:21Z</time>
      </trkpt>
      <trkpt lat="50.60762" lon="6.40602">
        <ele>289.97</ele>
        <time>2019-07-06T12:10:22Z</time>
      </trkpt>
      <trkpt lat="50.60756" lon="6.40599">
        <ele>289.97</ele>
        <time>2019-07-06T12:10:23Z</time>
      </trkpt>
      <trkpt lat="50.60716" lon="6.40592">
        <ele>289.97</ele>
        <time>2019-07-06T12:10:29Z</time>
      </trkpt>
      <trkpt lat="50.6071" lon="6.40589">
        <ele>289.97</ele>
        <time>2019-07-06T12:10:30Z</time>
      </trkpt>
      <trkpt lat="50.60704" lon="6.40583">
        <ele>289.97</ele>
        <time>2019-07-06T12:10:31Z</time>
      </trkpt>
      <trkpt lat="50.607" lon="6.40575">
        <ele>289.97</ele>
        <time>2019-07-06T12:10:32Z</time>
      </trkpt>
      <trkpt lat="50.60697" lon="6.40565">
        <ele>289.97</ele>
        <time>2019-07-06T12:10:33Z</time>
      </trkpt>
      <trkpt lat="50.60695" lon="6.40555">
        <ele>289.97</ele>
        <time>2019-07-06T12:10:34Z</time>
      </trkpt>
      <trkpt lat="50.60694" lon="6.40544">
        <ele>289.97</ele>
        <time>2019-07-06T12:10:35Z</time>
      </trkpt>
      <trkpt lat="50.6069" lon="6.40446">
        <ele>289.97</ele>
        <time>2019-07-06T12:10:44Z</time>
      </trkpt>
      <trkpt lat="50.60691" lon="6.40436">
        <ele>289.97</ele>
        <time>2019-07-06T12:10:45Z</time>
      </trkpt>
      <trkpt lat="50.60699" lon="6.4032">
        <ele>290.46</ele>
        <time>2019-07-06T12:10:56Z</time>
      </trkpt>
      <trkpt lat="50.607" lon="6.40289">
        <ele>290.46</ele>
        <time>2019-07-06T12:10:59Z</time>
      </trkpt>
      <trkpt lat="50.60705" lon="6.40249">
        <ele>291.42</ele>
        <time>2019-07-06T12:11:03Z</time>
      </trkpt>
      <trkpt lat="50.60706" lon="6.40239">
        <ele>291.42</ele>
        <time>2019-07-06T12:11:04Z</time>
      </trkpt>
      <trkpt lat="50.60708" lon="6.40229">
        <ele>291.42</ele>
        <time>2019-07-06T12:11:05Z</time>
      </trkpt>
      <trkpt lat="50.6071" lon="6.4022">
        <ele>291.42</ele>
        <time>2019-07-06T12:11:06Z</time>
      </trkpt>
      <trkpt lat="50.60713" lon="6.4021">
        <ele>291.42</ele>
        <time>2019-07-06T12:11:07Z</time>
      </trkpt>
      <trkpt lat="50.60737" lon="6.40125">
        <ele>291.42</ele>
        <time>2019-07-06T12:11:16Z</time>
      </trkpt>
      <trkpt lat="50.6074" lon="6.40117">
        <ele>291.42</ele>
        <time>2019-07-06T12:11:17Z</time>
      </trkpt>
      <trkpt lat="50.6076" lon="6.40058">
        <ele>291.42</ele>
        <time>2019-07-06T12:11:24Z</time>
      </trkpt>
      <trkpt lat="50.60776" lon="6.39996">
        <ele>291.9</ele>
        <time>2019-07-06T12:11:31Z</time>
      </trkpt>
      <trkpt lat="50.60779" lon="6.39986">
        <ele>291.9</ele>
        <time>2019-07-06T12:11:32Z</time>
      </trkpt>
      <trkpt lat="50.60781" lon="6.39975">
        <ele>291.9</ele>
        <time>2019-07-06T12:11:33Z</time>
      </trkpt>
      <trkpt lat="50.60782" lon="6.39965">
        <ele>291.9</ele>
        <time>2019-07-06T12:11:34Z</time>
      </trkpt>
      <trkpt lat="50.60785" lon="6.39955">
        <ele>291.9</ele>
        <time>2019-07-06T12:11:35Z</time>
      </trkpt>
      <trkpt lat="50.60787" lon="6.39945">
        <ele>291.9</ele>
        <time>2019-07-06T12:11:36Z</time>
      </trkpt>
      <trkpt lat="50.6079" lon="6.39935">
        <ele>291.9</ele>
        <time>2019-07-06T12:11:37Z</time>
      </trkpt>
      <trkpt lat="50.60811" lon="6.39882">
        <ele>290.94</ele>
        <time>2019-07-06T12:11:43Z</time>
      </trkpt>
      <trkpt lat="50.60847" lon="6.39761">
        <ele>290.46</ele>
        <time>2019-07-06T12:11:56Z</time>
      </trkpt>
      <trkpt lat="50.6085" lon="6.39741">
        <ele>290.94</ele>
        <time>2019-07-06T12:11:58Z</time>
      </trkpt>
      <trkpt lat="50.60853" lon="6.39731">
        <ele>290.94</ele>
        <time>2019-07-06T12:11:59Z</time>
      </trkpt>
      <trkpt lat="50.60863" lon="6.39692">
        <ele>290.46</ele>
        <time>2019-07-06T12:12:03Z</time>
      </trkpt>
      <trkpt lat="50.60865" lon="6.39683">
        <ele>290.94</ele>
        <time>2019-07-06T12:12:04Z</time>
      </trkpt>
      <trkpt lat="50.60868" lon="6.39651">
        <ele>290.94</ele>
        <time>2019-07-06T12:12:07Z</time>
      </trkpt>
      <trkpt lat="50.60869" lon="6.39543">
        <ele>291.9</ele>
        <time>2019-07-06T12:12:17Z</time>
      </trkpt>
      <trkpt lat="50.60867" lon="6.39524">
        <ele>291.9</ele>
        <time>2019-07-06T12:12:19Z</time>
      </trkpt>
      <trkpt lat="50.60865" lon="6.39514">
        <ele>291.9</ele>
        <time>2019-07-06T12:12:20Z</time>
      </trkpt>
      <trkpt lat="50.60863" lon="6.39504">
        <ele>292.38</ele>
        <time>2019-07-06T12:12:21Z</time>
      </trkpt>
      <trkpt lat="50.60822" lon="6.39365">
        <ele>291.42</ele>
        <time>2019-07-06T12:12:34Z</time>
      </trkpt>
      <trkpt lat="50.60818" lon="6.39355">
        <ele>291.42</ele>
        <time>2019-07-06T12:12:35Z</time>
      </trkpt>
      <trkpt lat="50.60773" lon="6.39263">
        <ele>293.82</ele>
        <time>2019-07-06T12:12:46Z</time>
      </trkpt>
      <trkpt lat="50.60739" lon="6.39148">
        <ele>293.82</ele>
        <time>2019-07-06T12:12:59Z</time>
      </trkpt>
      <trkpt lat="50.60737" lon="6.3913">
        <ele>292.86</ele>
        <time>2019-07-06T12:13:01Z</time>
      </trkpt>
      <trkpt lat="50.60735" lon="6.39059">
        <ele>291.42</ele>
        <time>2019-07-06T12:13:09Z</time>
      </trkpt>
      <trkpt lat="50.60736" lon="6.3905">
        <ele>291.42</ele>
        <time>2019-07-06T12:13:10Z</time>
      </trkpt>
      <trkpt lat="50.60749" lon="6.38977">
        <ele>288.05</ele>
        <time>2019-07-06T12:13:18Z</time>
      </trkpt>
      <trkpt lat="50.6075" lon="6.38968">
        <ele>288.05</ele>
        <time>2019-07-06T12:13:19Z</time>
      </trkpt>
      <trkpt lat="50.60749" lon="6.38959">
        <ele>288.05</ele>
        <time>2019-07-06T12:13:20Z</time>
      </trkpt>
      <trkpt lat="50.60748" lon="6.38951">
        <ele>288.05</ele>
        <time>2019-07-06T12:13:21Z</time>
      </trkpt>
      <trkpt lat="50.60739" lon="6.38873">
        <ele>287.57</ele>
        <time>2019-07-06T12:13:31Z</time>
      </trkpt>
      <trkpt lat="50.60738" lon="6.38867">
        <ele>287.57</ele>
        <time>2019-07-06T12:13:32Z</time>
      </trkpt>
      <trkpt lat="50.60738" lon="6.38861">
        <ele>287.57</ele>
        <time>2019-07-06T12:13:33Z</time>
      </trkpt>
      <trkpt lat="50.60739" lon="6.38851">
        <ele>287.57</ele>
        <time>2019-07-06T12:13:40Z</time>
      </trkpt>
      <trkpt lat="50.60739" lon="6.38854">
        <ele>287.57</ele>
        <time>2019-07-06T12:14:04Z</time>
      </trkpt>
      <trkpt lat="50.60738" lon="6.38851">
        <ele>287.09</ele>
        <time>2019-07-06T12:14:39Z</time>
      </trkpt>
      <trkpt lat="50.60738" lon="6.38852">
        <ele>287.09</ele>
        <time>2019-07-06T12:15:11Z</time>
      </trkpt>
      <trkpt lat="50.60738" lon="6.38852">
        <ele>287.09</ele>
        <time>2019-07-06T12:15:45Z</time>
      </trkpt>
      <trkpt lat="50.60737" lon="6.38851">
        <ele>287.09</ele>
        <time>2019-07-06T12:16:10Z</time>
      </trkpt>
      <trkpt lat="50.60736" lon="6.38851">
        <ele>287.09</ele>
        <time>2019-07-06T12:16:25Z</time>
      </trkpt>
      <trkpt lat="50.60736" lon="6.3885">
        <ele>287.09</ele>
        <time>2019-07-06T12:16:54Z</time>
      </trkpt>
      <trkpt lat="50.60736" lon="6.3885">
        <ele>287.09</ele>
        <time>2019-07-06T12:17:18Z</time>
      </trkpt>
      <trkpt lat="50.60737" lon="6.38849">
        <ele>287.09</ele>
        <time>2019-07-06T12:17:41Z</time>
      </trkpt>
      <trkpt lat="50.60735" lon="6.3885">
        <ele>287.09</ele>
        <time>2019-07-06T12:17:50Z</time>
      </trkpt>
      <trkpt lat="50.60734" lon="6.38849">
        <ele>287.09</ele>
        <time>2019-07-06T12:17:51Z</time>
      </trkpt>
      <trkpt lat="50.60732" lon="6.38847">
        <ele>287.09</ele>
        <time>2019-07-06T12:17:52Z</time>
      </trkpt>
      <trkpt lat="50.60732" lon="6.38845">
        <ele>287.09</ele>
        <time>2019-07-06T12:17:53Z</time>
      </trkpt>
      <trkpt lat="50.60731" lon="6.38842">
        <ele>287.09</ele>
        <time>2019-07-06T12:17:54Z</time>
      </trkpt>
      <trkpt lat="50.6073" lon="6.3884">
        <ele>287.09</ele>
        <time>2019-07-06T12:17:55Z</time>
      </trkpt>
      <trkpt lat="50.60729" lon="6.38837">
        <ele>287.09</ele>
        <time>2019-07-06T12:17:56Z</time>
      </trkpt>
      <trkpt lat="50.60729" lon="6.38835">
        <ele>287.09</ele>
        <time>2019-07-06T12:17:57Z</time>
      </trkpt>
      <trkpt lat="50.60729" lon="6.38833">
        <ele>287.09</ele>
        <time>2019-07-06T12:17:58Z</time>
      </trkpt>
      <trkpt lat="50.60728" lon="6.3883">
        <ele>288.05</ele>
        <time>2019-07-06T12:17:59Z</time>
      </trkpt>
      <trkpt lat="50.60727" lon="6.38827">
        <ele>288.05</ele>
        <time>2019-07-06T12:18:00Z</time>
      </trkpt>
      <trkpt lat="50.60726" lon="6.38824">
        <ele>288.05</ele>
        <time>2019-07-06T12:18:01Z</time>
      </trkpt>
      <trkpt lat="50.60725" lon="6.3882">
        <ele>288.05</ele>
        <time>2019-07-06T12:18:02Z</time>
      </trkpt>
      <trkpt lat="50.60702" lon="6.38763">
        <ele>288.53</ele>
        <time>2019-07-06T12:18:15Z</time>
      </trkpt>
      <trkpt lat="50.60668" lon="6.3872">
        <ele>289.01</ele>
        <time>2019-07-06T12:18:27Z</time>
      </trkpt>
      <trkpt lat="50.60662" lon="6.38711">
        <ele>289.01</ele>
        <time>2019-07-06T12:18:29Z</time>
      </trkpt>
      <trkpt lat="50.60617" lon="6.38651">
        <ele>289.49</ele>
        <time>2019-07-06T12:18:42Z</time>
      </trkpt>
      <trkpt lat="50.60604" lon="6.38637">
        <ele>289.49</ele>
        <time>2019-07-06T12:18:46Z</time>
      </trkpt>
      <trkpt lat="50.60601" lon="6.38632">
        <ele>289.49</ele>
        <time>2019-07-06T12:18:47Z</time>
      </trkpt>
      <trkpt lat="50.60578" lon="6.38603">
        <ele>289.49</ele>
        <time>2019-07-06T12:18:53Z</time>
      </trkpt>
      <trkpt lat="50.60574" lon="6.386">
        <ele>289.49</ele>
        <time>2019-07-06T12:18:54Z</time>
      </trkpt>
      <trkpt lat="50.6057" lon="6.38595">
        <ele>289.49</ele>
        <time>2019-07-06T12:18:55Z</time>
      </trkpt>
      <trkpt lat="50.60533" lon="6.38556">
        <ele>288.05</ele>
        <time>2019-07-06T12:19:03Z</time>
      </trkpt>
      <trkpt lat="50.60464" lon="6.38484">
        <ele>289.01</ele>
        <time>2019-07-06T12:19:18Z</time>
      </trkpt>
      <trkpt lat="50.60419" lon="6.38422">
        <ele>292.86</ele>
        <time>2019-07-06T12:19:31Z</time>
      </trkpt>
      <trkpt lat="50.60375" lon="6.38343">
        <ele>295.74</ele>
        <time>2019-07-06T12:19:47Z</time>
      </trkpt>
      <trkpt lat="50.60347" lon="6.38265">
        <ele>299.11</ele>
        <time>2019-07-06T12:20:01Z</time>
      </trkpt>
      <trkpt lat="50.6033" lon="6.38196">
        <ele>300.55</ele>
        <time>2019-07-06T12:20:13Z</time>
      </trkpt>
      <trkpt lat="50.60313" lon="6.38087">
        <ele>302.95</ele>
        <time>2019-07-06T12:20:30Z</time>
      </trkpt>
      <trkpt lat="50.60312" lon="6.38074">
        <ele>302.95</ele>
        <time>2019-07-06T12:20:32Z</time>
      </trkpt>
      <trkpt lat="50.6031" lon="6.37986">
        <ele>305.36</ele>
        <time>2019-07-06T12:20:44Z</time>
      </trkpt>
      <trkpt lat="50.60331" lon="6.37856">
        <ele>307.76</ele>
        <time>2019-07-06T12:21:01Z</time>
      </trkpt>
      <trkpt lat="50.60345" lon="6.37823">
        <ele>308.24</ele>
        <time>2019-07-06T12:21:06Z</time>
      </trkpt>
      <trkpt lat="50.60349" lon="6.37817">
        <ele>308.72</ele>
        <time>2019-07-06T12:21:07Z</time>
      </trkpt>
      <trkpt lat="50.6036" lon="6.37802">
        <ele>308.24</ele>
        <time>2019-07-06T12:21:10Z</time>
      </trkpt>
      <trkpt lat="50.60364" lon="6.37797">
        <ele>308.24</ele>
        <time>2019-07-06T12:21:11Z</time>
      </trkpt>
      <trkpt lat="50.60375" lon="6.37783">
        <ele>309.68</ele>
        <time>2019-07-06T12:21:14Z</time>
      </trkpt>
      <trkpt lat="50.60388" lon="6.37772">
        <ele>309.68</ele>
        <time>2019-07-06T12:21:17Z</time>
      </trkpt>
      <trkpt lat="50.60392" lon="6.37769">
        <ele>309.68</ele>
        <time>2019-07-06T12:21:18Z</time>
      </trkpt>
      <trkpt lat="50.60395" lon="6.37766">
        <ele>310.16</ele>
        <time>2019-07-06T12:21:19Z</time>
      </trkpt>
      <trkpt lat="50.60399" lon="6.37763">
        <ele>310.16</ele>
        <time>2019-07-06T12:21:20Z</time>
      </trkpt>
      <trkpt lat="50.60403" lon="6.37761">
        <ele>310.16</ele>
        <time>2019-07-06T12:21:21Z</time>
      </trkpt>
      <trkpt lat="50.60407" lon="6.37759">
        <ele>310.64</ele>
        <time>2019-07-06T12:21:22Z</time>
      </trkpt>
      <trkpt lat="50.60412" lon="6.37756">
        <ele>310.64</ele>
        <time>2019-07-06T12:21:23Z</time>
      </trkpt>
      <trkpt lat="50.60437" lon="6.37719">
        <ele>311.6</ele>
        <time>2019-07-06T12:21:32Z</time>
      </trkpt>
      <trkpt lat="50.60434" lon="6.37714">
        <ele>311.6</ele>
        <time>2019-07-06T12:21:33Z</time>
      </trkpt>
      <trkpt lat="50.60428" lon="6.37702">
        <ele>311.6</ele>
        <time>2019-07-06T12:21:35Z</time>
      </trkpt>
      <trkpt lat="50.60408" lon="6.37648">
        <ele>313.05</ele>
        <time>2019-07-06T12:21:43Z</time>
      </trkpt>
      <trkpt lat="50.60372" lon="6.37573">
        <ele>315.93</ele>
        <time>2019-07-06T12:21:56Z</time>
      </trkpt>
      <trkpt lat="50.60334" lon="6.37498">
        <ele>319.3</ele>
        <time>2019-07-06T12:22:11Z</time>
      </trkpt>
      <trkpt lat="50.60309" lon="6.37448">
        <ele>321.22</ele>
        <time>2019-07-06T12:22:20Z</time>
      </trkpt>
      <trkpt lat="50.60289" lon="6.37409">
        <ele>322.66</ele>
        <time>2019-07-06T12:22:28Z</time>
      </trkpt>
      <trkpt lat="50.6027" lon="6.37373">
        <ele>324.58</ele>
        <time>2019-07-06T12:22:35Z</time>
      </trkpt>
      <trkpt lat="50.60257" lon="6.37354">
        <ele>325.06</ele>
        <time>2019-07-06T12:22:39Z</time>
      </trkpt>
      <trkpt lat="50.60254" lon="6.3735">
        <ele>325.54</ele>
        <time>2019-07-06T12:22:40Z</time>
      </trkpt>
      <trkpt lat="50.6025" lon="6.37348">
        <ele>325.54</ele>
        <time>2019-07-06T12:22:41Z</time>
      </trkpt>
      <trkpt lat="50.60229" lon="6.37344">
        <ele>326.02</ele>
        <time>2019-07-06T12:22:46Z</time>
      </trkpt>
      <trkpt lat="50.60225" lon="6.37345">
        <ele>326.5</ele>
        <time>2019-07-06T12:22:47Z</time>
      </trkpt>
      <trkpt lat="50.6022" lon="6.37348">
        <ele>326.5</ele>
        <time>2019-07-06T12:22:48Z</time>
      </trkpt>
      <trkpt lat="50.60217" lon="6.37351">
        <ele>326.99</ele>
        <time>2019-07-06T12:22:49Z</time>
      </trkpt>
      <trkpt lat="50.60213" lon="6.37356">
        <ele>326.99</ele>
        <time>2019-07-06T12:22:50Z</time>
      </trkpt>
      <trkpt lat="50.60209" lon="6.37362">
        <ele>326.99</ele>
        <time>2019-07-06T12:22:51Z</time>
      </trkpt>
      <trkpt lat="50.60207" lon="6.37366">
        <ele>326.99</ele>
        <time>2019-07-06T12:22:52Z</time>
      </trkpt>
      <trkpt lat="50.60204" lon="6.37372">
        <ele>327.47</ele>
        <time>2019-07-06T12:22:53Z</time>
      </trkpt>
      <trkpt lat="50.60202" lon="6.37379">
        <ele>327.47</ele>
        <time>2019-07-06T12:22:54Z</time>
      </trkpt>
      <trkpt lat="50.602" lon="6.37385">
        <ele>327.47</ele>
        <time>2019-07-06T12:22:55Z</time>
      </trkpt>
      <trkpt lat="50.602" lon="6.37392">
        <ele>327.95</ele>
        <time>2019-07-06T12:22:56Z</time>
      </trkpt>
      <trkpt lat="50.602" lon="6.37408">
        <ele>328.43</ele>
        <time>2019-07-06T12:22:58Z</time>
      </trkpt>
      <trkpt lat="50.60201" lon="6.37413">
        <ele>328.43</ele>
        <time>2019-07-06T12:22:59Z</time>
      </trkpt>
      <trkpt lat="50.60202" lon="6.37419">
        <ele>328.43</ele>
        <time>2019-07-06T12:23:00Z</time>
      </trkpt>
      <trkpt lat="50.60222" lon="6.37502">
        <ele>331.79</ele>
        <time>2019-07-06T12:23:13Z</time>
      </trkpt>
      <trkpt lat="50.60228" lon="6.37526">
        <ele>332.27</ele>
        <time>2019-07-06T12:23:17Z</time>
      </trkpt>
      <trkpt lat="50.60233" lon="6.37551">
        <ele>332.75</ele>
        <time>2019-07-06T12:23:21Z</time>
      </trkpt>
      <trkpt lat="50.60244" lon="6.37638">
        <ele>335.64</ele>
        <time>2019-07-06T12:23:35Z</time>
      </trkpt>
      <trkpt lat="50.60248" lon="6.37736">
        <ele>339</ele>
        <time>2019-07-06T12:23:50Z</time>
      </trkpt>
      <trkpt lat="50.60245" lon="6.37843">
        <ele>341.89</ele>
        <time>2019-07-06T12:24:07Z</time>
      </trkpt>
      <trkpt lat="50.60243" lon="6.37851">
        <ele>342.37</ele>
        <time>2019-07-06T12:24:08Z</time>
      </trkpt>
      <trkpt lat="50.60226" lon="6.37935">
        <ele>344.77</ele>
        <time>2019-07-06T12:24:21Z</time>
      </trkpt>
      <trkpt lat="50.60207" lon="6.3798">
        <ele>346.69</ele>
        <time>2019-07-06T12:24:29Z</time>
      </trkpt>
      <trkpt lat="50.60184" lon="6.38011">
        <ele>348.13</ele>
        <time>2019-07-06T12:24:36Z</time>
      </trkpt>
      <trkpt lat="50.60176" lon="6.38018">
        <ele>348.62</ele>
        <time>2019-07-06T12:24:38Z</time>
      </trkpt>
      <trkpt lat="50.60125" lon="6.38037">
        <ele>351.02</ele>
        <time>2019-07-06T12:24:50Z</time>
      </trkpt>
      <trkpt lat="50.60099" lon="6.38034">
        <ele>351.5</ele>
        <time>2019-07-06T12:24:56Z</time>
      </trkpt>
      <trkpt lat="50.60091" lon="6.38031">
        <ele>351.98</ele>
        <time>2019-07-06T12:24:58Z</time>
      </trkpt>
      <trkpt lat="50.60086" lon="6.38028">
        <ele>351.98</ele>
        <time>2019-07-06T12:24:59Z</time>
      </trkpt>
      <trkpt lat="50.60082" lon="6.38025">
        <ele>352.94</ele>
        <time>2019-07-06T12:25:00Z</time>
      </trkpt>
      <trkpt lat="50.60065" lon="6.38011">
        <ele>352.94</ele>
        <time>2019-07-06T12:25:04Z</time>
      </trkpt>
      <trkpt lat="50.60007" lon="6.37939">
        <ele>353.9</ele>
        <time>2019-07-06T12:25:19Z</time>
      </trkpt>
      <trkpt lat="50.59974" lon="6.37901">
        <ele>354.38</ele>
        <time>2019-07-06T12:25:26Z</time>
      </trkpt>
      <trkpt lat="50.59896" lon="6.37857">
        <ele>354.86</ele>
        <time>2019-07-06T12:25:39Z</time>
      </trkpt>
      <trkpt lat="50.59878" lon="6.37851">
        <ele>354.86</ele>
        <time>2019-07-06T12:25:42Z</time>
      </trkpt>
      <trkpt lat="50.59783" lon="6.37824">
        <ele>352.46</ele>
        <time>2019-07-06T12:25:55Z</time>
      </trkpt>
      <trkpt lat="50.597" lon="6.37794">
        <ele>349.1</ele>
        <time>2019-07-06T12:26:05Z</time>
      </trkpt>
      <trkpt lat="50.59675" lon="6.37777">
        <ele>347.65</ele>
        <time>2019-07-06T12:26:08Z</time>
      </trkpt>
      <trkpt lat="50.59615" lon="6.377">
        <ele>344.29</ele>
        <time>2019-07-06T12:26:16Z</time>
      </trkpt>
      <trkpt lat="50.59551" lon="6.37593">
        <ele>341.41</ele>
        <time>2019-07-06T12:26:25Z</time>
      </trkpt>
      <trkpt lat="50.59528" lon="6.3757">
        <ele>340.92</ele>
        <time>2019-07-06T12:26:28Z</time>
      </trkpt>
      <trkpt lat="50.59486" lon="6.37544">
        <ele>340.92</ele>
        <time>2019-07-06T12:26:33Z</time>
      </trkpt>
      <trkpt lat="50.59389" lon="6.37535">
        <ele>340.92</ele>
        <time>2019-07-06T12:26:46Z</time>
      </trkpt>
      <trkpt lat="50.59375" lon="6.37536">
        <ele>342.37</ele>
        <time>2019-07-06T12:26:48Z</time>
      </trkpt>
      <trkpt lat="50.59328" lon="6.37529">
        <ele>343.81</ele>
        <time>2019-07-06T12:26:55Z</time>
      </trkpt>
      <trkpt lat="50.59309" lon="6.37519">
        <ele>344.29</ele>
        <time>2019-07-06T12:26:58Z</time>
      </trkpt>
      <trkpt lat="50.59303" lon="6.37513">
        <ele>344.77</ele>
        <time>2019-07-06T12:26:59Z</time>
      </trkpt>
      <trkpt lat="50.59293" lon="6.37502">
        <ele>344.77</ele>
        <time>2019-07-06T12:27:01Z</time>
      </trkpt>
      <trkpt lat="50.59283" lon="6.37489">
        <ele>344.77</ele>
        <time>2019-07-06T12:27:03Z</time>
      </trkpt>
      <trkpt lat="50.59279" lon="6.37482">
        <ele>344.77</ele>
        <time>2019-07-06T12:27:04Z</time>
      </trkpt>
      <trkpt lat="50.59276" lon="6.37474">
        <ele>344.77</ele>
        <time>2019-07-06T12:27:05Z</time>
      </trkpt>
      <trkpt lat="50.59263" lon="6.3743">
        <ele>345.25</ele>
        <time>2019-07-06T12:27:10Z</time>
      </trkpt>
      <trkpt lat="50.5926" lon="6.37403">
        <ele>346.21</ele>
        <time>2019-07-06T12:27:13Z</time>
      </trkpt>
      <trkpt lat="50.59253" lon="6.37349">
        <ele>347.17</ele>
        <time>2019-07-06T12:27:19Z</time>
      </trkpt>
      <trkpt lat="50.59251" lon="6.3734">
        <ele>346.69</ele>
        <time>2019-07-06T12:27:20Z</time>
      </trkpt>
      <trkpt lat="50.59248" lon="6.37332">
        <ele>347.17</ele>
        <time>2019-07-06T12:27:21Z</time>
      </trkpt>
      <trkpt lat="50.59245" lon="6.37324">
        <ele>347.17</ele>
        <time>2019-07-06T12:27:22Z</time>
      </trkpt>
      <trkpt lat="50.59241" lon="6.37317">
        <ele>347.17</ele>
        <time>2019-07-06T12:27:23Z</time>
      </trkpt>
      <trkpt lat="50.59236" lon="6.37311">
        <ele>347.17</ele>
        <time>2019-07-06T12:27:24Z</time>
      </trkpt>
      <trkpt lat="50.59231" lon="6.37306">
        <ele>347.17</ele>
        <time>2019-07-06T12:27:25Z</time>
      </trkpt>
      <trkpt lat="50.59225" lon="6.37303">
        <ele>347.17</ele>
        <time>2019-07-06T12:27:26Z</time>
      </trkpt>
      <trkpt lat="50.59219" lon="6.37301">
        <ele>347.17</ele>
        <time>2019-07-06T12:27:27Z</time>
      </trkpt>
      <trkpt lat="50.59213" lon="6.373">
        <ele>348.13</ele>
        <time>2019-07-06T12:27:28Z</time>
      </trkpt>
      <trkpt lat="50.59207" lon="6.37301">
        <ele>348.13</ele>
        <time>2019-07-06T12:27:29Z</time>
      </trkpt>
      <trkpt lat="50.59204" lon="6.37302">
        <ele>347.65</ele>
        <time>2019-07-06T12:27:30Z</time>
      </trkpt>
      <trkpt lat="50.59196" lon="6.37309">
        <ele>348.13</ele>
        <time>2019-07-06T12:27:31Z</time>
      </trkpt>
      <trkpt lat="50.59191" lon="6.37315">
        <ele>348.13</ele>
        <time>2019-07-06T12:27:32Z</time>
      </trkpt>
      <trkpt lat="50.59186" lon="6.37321">
        <ele>348.13</ele>
        <time>2019-07-06T12:27:33Z</time>
      </trkpt>
      <trkpt lat="50.59182" lon="6.37329">
        <ele>348.13</ele>
        <time>2019-07-06T12:27:34Z</time>
      </trkpt>
      <trkpt lat="50.59179" lon="6.37337">
        <ele>348.13</ele>
        <time>2019-07-06T12:27:35Z</time>
      </trkpt>
      <trkpt lat="50.59176" lon="6.37346">
        <ele>348.13</ele>
        <time>2019-07-06T12:27:36Z</time>
      </trkpt>
      <trkpt lat="50.59143" lon="6.37455">
        <ele>348.62</ele>
        <time>2019-07-06T12:27:48Z</time>
      </trkpt>
      <trkpt lat="50.59121" lon="6.37505">
        <ele>348.62</ele>
        <time>2019-07-06T12:27:54Z</time>
      </trkpt>
      <trkpt lat="50.5908" lon="6.37602">
        <ele>347.17</ele>
        <time>2019-07-06T12:28:05Z</time>
      </trkpt>
      <trkpt lat="50.59079" lon="6.37614">
        <ele>347.17</ele>
        <time>2019-07-06T12:28:06Z</time>
      </trkpt>
      <trkpt lat="50.59078" lon="6.37625">
        <ele>347.17</ele>
        <time>2019-07-06T12:28:07Z</time>
      </trkpt>
      <trkpt lat="50.59078" lon="6.37637">
        <ele>347.17</ele>
        <time>2019-07-06T12:28:08Z</time>
      </trkpt>
      <trkpt lat="50.59078" lon="6.37646">
        <ele>347.17</ele>
        <time>2019-07-06T12:28:09Z</time>
      </trkpt>
      <trkpt lat="50.59087" lon="6.37726">
        <ele>347.17</ele>
        <time>2019-07-06T12:28:16Z</time>
      </trkpt>
      <trkpt lat="50.59087" lon="6.37737">
        <ele>347.17</ele>
        <time>2019-07-06T12:28:17Z</time>
      </trkpt>
      <trkpt lat="50.59086" lon="6.37749">
        <ele>347.17</ele>
        <time>2019-07-06T12:28:18Z</time>
      </trkpt>
      <trkpt lat="50.59084" lon="6.37759">
        <ele>347.17</ele>
        <time>2019-07-06T12:28:19Z</time>
      </trkpt>
      <trkpt lat="50.5908" lon="6.3777">
        <ele>346.21</ele>
        <time>2019-07-06T12:28:20Z</time>
      </trkpt>
      <trkpt lat="50.59075" lon="6.37779">
        <ele>345.73</ele>
        <time>2019-07-06T12:28:21Z</time>
      </trkpt>
      <trkpt lat="50.5907" lon="6.37786">
        <ele>345.73</ele>
        <time>2019-07-06T12:28:22Z</time>
      </trkpt>
      <trkpt lat="50.59064" lon="6.37794">
        <ele>345.73</ele>
        <time>2019-07-06T12:28:23Z</time>
      </trkpt>
      <trkpt lat="50.59038" lon="6.37817">
        <ele>344.77</ele>
        <time>2019-07-06T12:28:27Z</time>
      </trkpt>
      <trkpt lat="50.59008" lon="6.37829">
        <ele>343.33</ele>
        <time>2019-07-06T12:28:31Z</time>
      </trkpt>
      <trkpt lat="50.58999" lon="6.37829">
        <ele>342.85</ele>
        <time>2019-07-06T12:28:32Z</time>
      </trkpt>
      <trkpt lat="50.58992" lon="6.37828">
        <ele>342.37</ele>
        <time>2019-07-06T12:28:33Z</time>
      </trkpt>
      <trkpt lat="50.58984" lon="6.37826">
        <ele>342.37</ele>
        <time>2019-07-06T12:28:34Z</time>
      </trkpt>
      <trkpt lat="50.58977" lon="6.37821">
        <ele>341.89</ele>
        <time>2019-07-06T12:28:35Z</time>
      </trkpt>
      <trkpt lat="50.58971" lon="6.37815">
        <ele>341.89</ele>
        <time>2019-07-06T12:28:36Z</time>
      </trkpt>
      <trkpt lat="50.58966" lon="6.37809">
        <ele>341.89</ele>
        <time>2019-07-06T12:28:37Z</time>
      </trkpt>
      <trkpt lat="50.58961" lon="6.378">
        <ele>341.89</ele>
        <time>2019-07-06T12:28:38Z</time>
      </trkpt>
      <trkpt lat="50.58957" lon="6.37791">
        <ele>341.89</ele>
        <time>2019-07-06T12:28:39Z</time>
      </trkpt>
      <trkpt lat="50.58947" lon="6.37767">
        <ele>343.33</ele>
        <time>2019-07-06T12:28:42Z</time>
      </trkpt>
      <trkpt lat="50.58917" lon="6.377">
        <ele>347.17</ele>
        <time>2019-07-06T12:28:52Z</time>
      </trkpt>
      <trkpt lat="50.58899" lon="6.3766">
        <ele>348.13</ele>
        <time>2019-07-06T12:28:59Z</time>
      </trkpt>
      <trkpt lat="50.58896" lon="6.37655">
        <ele>349.1</ele>
        <time>2019-07-06T12:29:00Z</time>
      </trkpt>
      <trkpt lat="50.58893" lon="6.37649">
        <ele>349.1</ele>
        <time>2019-07-06T12:29:01Z</time>
      </trkpt>
      <trkpt lat="50.5889" lon="6.37644">
        <ele>349.1</ele>
        <time>2019-07-06T12:29:02Z</time>
      </trkpt>
      <trkpt lat="50.58887" lon="6.37639">
        <ele>350.06</ele>
        <time>2019-07-06T12:29:03Z</time>
      </trkpt>
      <trkpt lat="50.58838" lon="6.37596">
        <ele>352.94</ele>
        <time>2019-07-06T12:29:16Z</time>
      </trkpt>
      <trkpt lat="50.58792" lon="6.37568">
        <ele>356.31</ele>
        <time>2019-07-06T12:29:29Z</time>
      </trkpt>
      <trkpt lat="50.58758" lon="6.37553">
        <ele>358.23</ele>
        <time>2019-07-06T12:29:38Z</time>
      </trkpt>
      <trkpt lat="50.58754" lon="6.37552">
        <ele>358.71</ele>
        <time>2019-07-06T12:29:39Z</time>
      </trkpt>
      <trkpt lat="50.5875" lon="6.37551">
        <ele>358.71</ele>
        <time>2019-07-06T12:29:40Z</time>
      </trkpt>
      <trkpt lat="50.58727" lon="6.37542">
        <ele>359.67</ele>
        <time>2019-07-06T12:29:46Z</time>
      </trkpt>
      <trkpt lat="50.58723" lon="6.37539">
        <ele>360.15</ele>
        <time>2019-07-06T12:29:47Z</time>
      </trkpt>
      <trkpt lat="50.5868" lon="6.37495">
        <ele>363.52</ele>
        <time>2019-07-06T12:30:00Z</time>
      </trkpt>
      <trkpt lat="50.58639" lon="6.37439">
        <ele>366.88</ele>
        <time>2019-07-06T12:30:14Z</time>
      </trkpt>
      <trkpt lat="50.58601" lon="6.37389">
        <ele>370.24</ele>
        <time>2019-07-06T12:30:27Z</time>
      </trkpt>
      <trkpt lat="50.58556" lon="6.37334">
        <ele>373.61</ele>
        <time>2019-07-06T12:30:43Z</time>
      </trkpt>
      <trkpt lat="50.5852" lon="6.37297">
        <ele>376.49</ele>
        <time>2019-07-06T12:30:55Z</time>
      </trkpt>
      <trkpt lat="50.5847" lon="6.37255">
        <ele>379.38</ele>
        <time>2019-07-06T12:31:10Z</time>
      </trkpt>
      <trkpt lat="50.58457" lon="6.37251">
        <ele>379.38</ele>
        <time>2019-07-06T12:31:13Z</time>
      </trkpt>
      <trkpt lat="50.58453" lon="6.37251">
        <ele>379.38</ele>
        <time>2019-07-06T12:31:14Z</time>
      </trkpt>
      <trkpt lat="50.58449" lon="6.3725">
        <ele>379.38</ele>
        <time>2019-07-06T12:31:15Z</time>
      </trkpt>
      <trkpt lat="50.58444" lon="6.37249">
        <ele>379.86</ele>
        <time>2019-07-06T12:31:16Z</time>
      </trkpt>
      <trkpt lat="50.5844" lon="6.37248">
        <ele>379.86</ele>
        <time>2019-07-06T12:31:17Z</time>
      </trkpt>
      <trkpt lat="50.58428" lon="6.37242">
        <ele>380.34</ele>
        <time>2019-07-06T12:31:20Z</time>
      </trkpt>
      <trkpt lat="50.58424" lon="6.37239">
        <ele>380.34</ele>
        <time>2019-07-06T12:31:21Z</time>
      </trkpt>
      <trkpt lat="50.58421" lon="6.37234">
        <ele>381.3</ele>
        <time>2019-07-06T12:31:22Z</time>
      </trkpt>
      <trkpt lat="50.58419" lon="6.37229">
        <ele>380.82</ele>
        <time>2019-07-06T12:31:23Z</time>
      </trkpt>
      <trkpt lat="50.58417" lon="6.37223">
        <ele>380.82</ele>
        <time>2019-07-06T12:31:24Z</time>
      </trkpt>
      <trkpt lat="50.58414" lon="6.37218">
        <ele>381.3</ele>
        <time>2019-07-06T12:31:25Z</time>
      </trkpt>
      <trkpt lat="50.5841" lon="6.37215">
        <ele>381.3</ele>
        <time>2019-07-06T12:31:26Z</time>
      </trkpt>
      <trkpt lat="50.58402" lon="6.37211">
        <ele>381.78</ele>
        <time>2019-07-06T12:31:28Z</time>
      </trkpt>
      <trkpt lat="50.58378" lon="6.37202">
        <ele>381.78</ele>
        <time>2019-07-06T12:31:33Z</time>
      </trkpt>
      <trkpt lat="50.5836" lon="6.37198">
        <ele>380.34</ele>
        <time>2019-07-06T12:31:36Z</time>
      </trkpt>
      <trkpt lat="50.58292" lon="6.37182">
        <ele>377.45</ele>
        <time>2019-07-06T12:31:46Z</time>
      </trkpt>
      <trkpt lat="50.58265" lon="6.37166">
        <ele>376.01</ele>
        <time>2019-07-06T12:31:50Z</time>
      </trkpt>
      <trkpt lat="50.58188" lon="6.37124">
        <ele>373.61</ele>
        <time>2019-07-06T12:32:00Z</time>
      </trkpt>
      <trkpt lat="50.58168" lon="6.37115">
        <ele>372.65</ele>
        <time>2019-07-06T12:32:03Z</time>
      </trkpt>
      <trkpt lat="50.58163" lon="6.37108">
        <ele>372.65</ele>
        <time>2019-07-06T12:32:04Z</time>
      </trkpt>
      <trkpt lat="50.5816" lon="6.371">
        <ele>371.69</ele>
        <time>2019-07-06T12:32:05Z</time>
      </trkpt>
      <trkpt lat="50.58161" lon="6.3709">
        <ele>371.69</ele>
        <time>2019-07-06T12:32:06Z</time>
      </trkpt>
      <trkpt lat="50.58165" lon="6.37083">
        <ele>371.21</ele>
        <time>2019-07-06T12:32:07Z</time>
      </trkpt>
      <trkpt lat="50.58171" lon="6.37082">
        <ele>371.21</ele>
        <time>2019-07-06T12:32:08Z</time>
      </trkpt>
      <trkpt lat="50.58177" lon="6.37086">
        <ele>371.21</ele>
        <time>2019-07-06T12:32:09Z</time>
      </trkpt>
      <trkpt lat="50.58183" lon="6.37092">
        <ele>370.73</ele>
        <time>2019-07-06T12:32:10Z</time>
      </trkpt>
      <trkpt lat="50.58221" lon="6.3712">
        <ele>369.28</ele>
        <time>2019-07-06T12:32:16Z</time>
      </trkpt>
      <trkpt lat="50.58295" lon="6.3715">
        <ele>367.36</ele>
        <time>2019-07-06T12:32:26Z</time>
      </trkpt>
      <trkpt lat="50.58303" lon="6.3715">
        <ele>366.88</ele>
        <time>2019-07-06T12:32:27Z</time>
      </trkpt>
      <trkpt lat="50.58312" lon="6.37149">
        <ele>366.88</ele>
        <time>2019-07-06T12:32:28Z</time>
      </trkpt>
      <trkpt lat="50.58357" lon="6.37137">
        <ele>364.96</ele>
        <time>2019-07-06T12:32:33Z</time>
      </trkpt>
      <trkpt lat="50.58386" lon="6.37126">
        <ele>363.04</ele>
        <time>2019-07-06T12:32:36Z</time>
      </trkpt>
      <trkpt lat="50.58395" lon="6.3712">
        <ele>362.55</ele>
        <time>2019-07-06T12:32:37Z</time>
      </trkpt>
      <trkpt lat="50.58404" lon="6.37113">
        <ele>362.07</ele>
        <time>2019-07-06T12:32:38Z</time>
      </trkpt>
      <trkpt lat="50.58412" lon="6.37105">
        <ele>361.59</ele>
        <time>2019-07-06T12:32:39Z</time>
      </trkpt>
      <trkpt lat="50.5842" lon="6.37094">
        <ele>360.63</ele>
        <time>2019-07-06T12:32:40Z</time>
      </trkpt>
      <trkpt lat="50.58427" lon="6.37083">
        <ele>360.15</ele>
        <time>2019-07-06T12:32:41Z</time>
      </trkpt>
      <trkpt lat="50.58434" lon="6.37071">
        <ele>359.67</ele>
        <time>2019-07-06T12:32:42Z</time>
      </trkpt>
      <trkpt lat="50.58447" lon="6.37045">
        <ele>358.23</ele>
        <time>2019-07-06T12:32:44Z</time>
      </trkpt>
      <trkpt lat="50.58469" lon="6.36985">
        <ele>356.31</ele>
        <time>2019-07-06T12:32:48Z</time>
      </trkpt>
      <trkpt lat="50.58491" lon="6.36922">
        <ele>352.46</ele>
        <time>2019-07-06T12:32:52Z</time>
      </trkpt>
      <trkpt lat="50.58511" lon="6.36855">
        <ele>349.1</ele>
        <time>2019-07-06T12:32:56Z</time>
      </trkpt>
      <trkpt lat="50.58515" lon="6.36836">
        <ele>348.13</ele>
        <time>2019-07-06T12:32:57Z</time>
      </trkpt>
      <trkpt lat="50.58519" lon="6.36798">
        <ele>347.17</ele>
        <time>2019-07-06T12:32:59Z</time>
      </trkpt>
      <trkpt lat="50.58526" lon="6.36741">
        <ele>344.77</ele>
        <time>2019-07-06T12:33:02Z</time>
      </trkpt>
      <trkpt lat="50.58529" lon="6.36683">
        <ele>341.41</ele>
        <time>2019-07-06T12:33:05Z</time>
      </trkpt>
      <trkpt lat="50.58532" lon="6.36568">
        <ele>338.04</ele>
        <time>2019-07-06T12:33:11Z</time>
      </trkpt>
      <trkpt lat="50.58533" lon="6.36532">
        <ele>337.56</ele>
        <time>2019-07-06T12:33:13Z</time>
      </trkpt>
      <trkpt lat="50.58534" lon="6.3637">
        <ele>334.68</ele>
        <time>2019-07-06T12:33:23Z</time>
      </trkpt>
      <trkpt lat="50.58531" lon="6.36357">
        <ele>334.68</ele>
        <time>2019-07-06T12:33:24Z</time>
      </trkpt>
      <trkpt lat="50.58526" lon="6.36346">
        <ele>334.68</ele>
        <time>2019-07-06T12:33:25Z</time>
      </trkpt>
      <trkpt lat="50.58519" lon="6.36338">
        <ele>333.71</ele>
        <time>2019-07-06T12:33:26Z</time>
      </trkpt>
      <trkpt lat="50.58511" lon="6.36331">
        <ele>333.23</ele>
        <time>2019-07-06T12:33:27Z</time>
      </trkpt>
      <trkpt lat="50.58487" lon="6.36305">
        <ele>330.83</ele>
        <time>2019-07-06T12:33:30Z</time>
      </trkpt>
      <trkpt lat="50.5848" lon="6.36293">
        <ele>329.87</ele>
        <time>2019-07-06T12:33:31Z</time>
      </trkpt>
      <trkpt lat="50.58474" lon="6.3628">
        <ele>329.39</ele>
        <time>2019-07-06T12:33:32Z</time>
      </trkpt>
      <trkpt lat="50.58468" lon="6.36266">
        <ele>328.43</ele>
        <time>2019-07-06T12:33:33Z</time>
      </trkpt>
      <trkpt lat="50.58462" lon="6.36251">
        <ele>327.95</ele>
        <time>2019-07-06T12:33:34Z</time>
      </trkpt>
      <trkpt lat="50.58457" lon="6.36234">
        <ele>326.99</ele>
        <time>2019-07-06T12:33:35Z</time>
      </trkpt>
      <trkpt lat="50.58453" lon="6.36217">
        <ele>326.02</ele>
        <time>2019-07-06T12:33:36Z</time>
      </trkpt>
      <trkpt lat="50.5845" lon="6.362">
        <ele>326.02</ele>
        <time>2019-07-06T12:33:37Z</time>
      </trkpt>
      <trkpt lat="50.58439" lon="6.36134">
        <ele>325.06</ele>
        <time>2019-07-06T12:33:41Z</time>
      </trkpt>
      <trkpt lat="50.58434" lon="6.3612">
        <ele>325.06</ele>
        <time>2019-07-06T12:33:42Z</time>
      </trkpt>
      <trkpt lat="50.58429" lon="6.36106">
        <ele>325.06</ele>
        <time>2019-07-06T12:33:43Z</time>
      </trkpt>
      <trkpt lat="50.58423" lon="6.36093">
        <ele>325.06</ele>
        <time>2019-07-06T12:33:44Z</time>
      </trkpt>
      <trkpt lat="50.58417" lon="6.36081">
        <ele>324.1</ele>
        <time>2019-07-06T12:33:45Z</time>
      </trkpt>
      <trkpt lat="50.58413" lon="6.36068">
        <ele>324.1</ele>
        <time>2019-07-06T12:33:46Z</time>
      </trkpt>
      <trkpt lat="50.58409" lon="6.36054">
        <ele>324.1</ele>
        <time>2019-07-06T12:33:47Z</time>
      </trkpt>
      <trkpt lat="50.58399" lon="6.36016">
        <ele>322.18</ele>
        <time>2019-07-06T12:33:50Z</time>
      </trkpt>
      <trkpt lat="50.58394" lon="6.36006">
        <ele>321.22</ele>
        <time>2019-07-06T12:33:51Z</time>
      </trkpt>
      <trkpt lat="50.58388" lon="6.36">
        <ele>321.7</ele>
        <time>2019-07-06T12:33:52Z</time>
      </trkpt>
      <trkpt lat="50.5838" lon="6.36">
        <ele>320.74</ele>
        <time>2019-07-06T12:33:53Z</time>
      </trkpt>
      <trkpt lat="50.58373" lon="6.36007">
        <ele>319.78</ele>
        <time>2019-07-06T12:33:54Z</time>
      </trkpt>
      <trkpt lat="50.58369" lon="6.36018">
        <ele>318.81</ele>
        <time>2019-07-06T12:33:55Z</time>
      </trkpt>
      <trkpt lat="50.58366" lon="6.36031">
        <ele>318.81</ele>
        <time>2019-07-06T12:33:56Z</time>
      </trkpt>
      <trkpt lat="50.58363" lon="6.36044">
        <ele>318.33</ele>
        <time>2019-07-06T12:33:57Z</time>
      </trkpt>
      <trkpt lat="50.58348" lon="6.36133">
        <ele>314.49</ele>
        <time>2019-07-06T12:34:03Z</time>
      </trkpt>
      <trkpt lat="50.58347" lon="6.36148">
        <ele>314.01</ele>
        <time>2019-07-06T12:34:04Z</time>
      </trkpt>
      <trkpt lat="50.58349" lon="6.36161">
        <ele>313.05</ele>
        <time>2019-07-06T12:34:05Z</time>
      </trkpt>
      <trkpt lat="50.58352" lon="6.36173">
        <ele>312.57</ele>
        <time>2019-07-06T12:34:06Z</time>
      </trkpt>
      <trkpt lat="50.58355" lon="6.36184">
        <ele>312.09</ele>
        <time>2019-07-06T12:34:07Z</time>
      </trkpt>
      <trkpt lat="50.58356" lon="6.36194">
        <ele>312.09</ele>
        <time>2019-07-06T12:34:08Z</time>
      </trkpt>
      <trkpt lat="50.58352" lon="6.36201">
        <ele>311.12</ele>
        <time>2019-07-06T12:34:09Z</time>
      </trkpt>
      <trkpt lat="50.58346" lon="6.36204">
        <ele>310.16</ele>
        <time>2019-07-06T12:34:10Z</time>
      </trkpt>
      <trkpt lat="50.5834" lon="6.362">
        <ele>309.68</ele>
        <time>2019-07-06T12:34:11Z</time>
      </trkpt>
      <trkpt lat="50.58335" lon="6.3619">
        <ele>309.68</ele>
        <time>2019-07-06T12:34:12Z</time>
      </trkpt>
      <trkpt lat="50.58332" lon="6.3618">
        <ele>309.2</ele>
        <time>2019-07-06T12:34:13Z</time>
      </trkpt>
      <trkpt lat="50.58329" lon="6.36169">
        <ele>309.2</ele>
        <time>2019-07-06T12:34:14Z</time>
      </trkpt>
      <trkpt lat="50.58312" lon="6.36059">
        <ele>306.32</ele>
        <time>2019-07-06T12:34:22Z</time>
      </trkpt>
      <trkpt lat="50.58312" lon="6.36012">
        <ele>304.88</ele>
        <time>2019-07-06T12:34:25Z</time>
      </trkpt>
      <trkpt lat="50.58314" lon="6.35982">
        <ele>303.43</ele>
        <time>2019-07-06T12:34:27Z</time>
      </trkpt>
      <trkpt lat="50.58317" lon="6.35967">
        <ele>302.95</ele>
        <time>2019-07-06T12:34:28Z</time>
      </trkpt>
      <trkpt lat="50.58323" lon="6.35954">
        <ele>302.47</ele>
        <time>2019-07-06T12:34:29Z</time>
      </trkpt>
      <trkpt lat="50.58364" lon="6.35889">
        <ele>300.07</ele>
        <time>2019-07-06T12:34:35Z</time>
      </trkpt>
      <trkpt lat="50.58373" lon="6.35881">
        <ele>300.07</ele>
        <time>2019-07-06T12:34:36Z</time>
      </trkpt>
      <trkpt lat="50.58384" lon="6.35878">
        <ele>299.11</ele>
        <time>2019-07-06T12:34:37Z</time>
      </trkpt>
      <trkpt lat="50.58393" lon="6.35879">
        <ele>299.11</ele>
        <time>2019-07-06T12:34:38Z</time>
      </trkpt>
      <trkpt lat="50.58402" lon="6.35881">
        <ele>299.11</ele>
        <time>2019-07-06T12:34:39Z</time>
      </trkpt>
      <trkpt lat="50.58411" lon="6.35886">
        <ele>299.11</ele>
        <time>2019-07-06T12:34:40Z</time>
      </trkpt>
      <trkpt lat="50.58419" lon="6.35895">
        <ele>298.63</ele>
        <time>2019-07-06T12:34:41Z</time>
      </trkpt>
      <trkpt lat="50.58426" lon="6.35906">
        <ele>298.63</ele>
        <time>2019-07-06T12:34:42Z</time>
      </trkpt>
      <trkpt lat="50.58432" lon="6.35917">
        <ele>298.63</ele>
        <time>2019-07-06T12:34:43Z</time>
      </trkpt>
      <trkpt lat="50.58438" lon="6.35929">
        <ele>298.15</ele>
        <time>2019-07-06T12:34:44Z</time>
      </trkpt>
      <trkpt lat="50.58444" lon="6.35941">
        <ele>298.15</ele>
        <time>2019-07-06T12:34:45Z</time>
      </trkpt>
      <trkpt lat="50.5846" lon="6.35972">
        <ele>297.67</ele>
        <time>2019-07-06T12:34:48Z</time>
      </trkpt>
      <trkpt lat="50.58467" lon="6.3598">
        <ele>297.67</ele>
        <time>2019-07-06T12:34:49Z</time>
      </trkpt>
      <trkpt lat="50.58474" lon="6.35987">
        <ele>297.67</ele>
        <time>2019-07-06T12:34:50Z</time>
      </trkpt>
      <trkpt lat="50.58482" lon="6.35992">
        <ele>297.18</ele>
        <time>2019-07-06T12:34:51Z</time>
      </trkpt>
      <trkpt lat="50.5849" lon="6.35997">
        <ele>297.18</ele>
        <time>2019-07-06T12:34:52Z</time>
      </trkpt>
      <trkpt lat="50.58499" lon="6.36">
        <ele>297.18</ele>
        <time>2019-07-06T12:34:53Z</time>
      </trkpt>
      <trkpt lat="50.58507" lon="6.36002">
        <ele>297.18</ele>
        <time>2019-07-06T12:34:54Z</time>
      </trkpt>
      <trkpt lat="50.58516" lon="6.36006">
        <ele>297.18</ele>
        <time>2019-07-06T12:34:55Z</time>
      </trkpt>
      <trkpt lat="50.58523" lon="6.36013">
        <ele>296.7</ele>
        <time>2019-07-06T12:34:56Z</time>
      </trkpt>
      <trkpt lat="50.58528" lon="6.3602">
        <ele>296.22</ele>
        <time>2019-07-06T12:34:57Z</time>
      </trkpt>
      <trkpt lat="50.58535" lon="6.3603">
        <ele>296.22</ele>
        <time>2019-07-06T12:34:58Z</time>
      </trkpt>
      <trkpt lat="50.5854" lon="6.3604">
        <ele>295.74</ele>
        <time>2019-07-06T12:34:59Z</time>
      </trkpt>
      <trkpt lat="50.58545" lon="6.36051">
        <ele>295.74</ele>
        <time>2019-07-06T12:35:00Z</time>
      </trkpt>
      <trkpt lat="50.58557" lon="6.3607">
        <ele>295.74</ele>
        <time>2019-07-06T12:35:02Z</time>
      </trkpt>
      <trkpt lat="50.58563" lon="6.36079">
        <ele>295.74</ele>
        <time>2019-07-06T12:35:03Z</time>
      </trkpt>
      <trkpt lat="50.5857" lon="6.36087">
        <ele>295.74</ele>
        <time>2019-07-06T12:35:04Z</time>
      </trkpt>
      <trkpt lat="50.58577" lon="6.36094">
        <ele>295.74</ele>
        <time>2019-07-06T12:35:05Z</time>
      </trkpt>
      <trkpt lat="50.58584" lon="6.361">
        <ele>295.74</ele>
        <time>2019-07-06T12:35:06Z</time>
      </trkpt>
      <trkpt lat="50.58631" lon="6.36143">
        <ele>295.26</ele>
        <time>2019-07-06T12:35:13Z</time>
      </trkpt>
      <trkpt lat="50.58638" lon="6.36146">
        <ele>295.26</ele>
        <time>2019-07-06T12:35:14Z</time>
      </trkpt>
      <trkpt lat="50.58645" lon="6.36147">
        <ele>295.26</ele>
        <time>2019-07-06T12:35:15Z</time>
      </trkpt>
      <trkpt lat="50.58652" lon="6.36148">
        <ele>295.26</ele>
        <time>2019-07-06T12:35:16Z</time>
      </trkpt>
      <trkpt lat="50.5866" lon="6.36148">
        <ele>295.26</ele>
        <time>2019-07-06T12:35:17Z</time>
      </trkpt>
      <trkpt lat="50.58668" lon="6.36147">
        <ele>295.26</ele>
        <time>2019-07-06T12:35:18Z</time>
      </trkpt>
      <trkpt lat="50.58675" lon="6.36146">
        <ele>295.26</ele>
        <time>2019-07-06T12:35:19Z</time>
      </trkpt>
      <trkpt lat="50.58682" lon="6.36143">
        <ele>295.26</ele>
        <time>2019-07-06T12:35:20Z</time>
      </trkpt>
      <trkpt lat="50.58689" lon="6.36139">
        <ele>295.26</ele>
        <time>2019-07-06T12:35:21Z</time>
      </trkpt>
      <trkpt lat="50.58696" lon="6.36135">
        <ele>295.26</ele>
        <time>2019-07-06T12:35:22Z</time>
      </trkpt>
      <trkpt lat="50.58702" lon="6.3613">
        <ele>295.26</ele>
        <time>2019-07-06T12:35:23Z</time>
      </trkpt>
      <trkpt lat="50.58713" lon="6.36119">
        <ele>296.7</ele>
        <time>2019-07-06T12:35:25Z</time>
      </trkpt>
      <trkpt lat="50.58734" lon="6.36096">
        <ele>297.67</ele>
        <time>2019-07-06T12:35:29Z</time>
      </trkpt>
      <trkpt lat="50.58737" lon="6.36089">
        <ele>297.67</ele>
        <time>2019-07-06T12:35:30Z</time>
      </trkpt>
      <trkpt lat="50.58738" lon="6.3608">
        <ele>297.67</ele>
        <time>2019-07-06T12:35:31Z</time>
      </trkpt>
      <trkpt lat="50.58737" lon="6.36072">
        <ele>298.15</ele>
        <time>2019-07-06T12:35:32Z</time>
      </trkpt>
      <trkpt lat="50.58734" lon="6.36065">
        <ele>298.63</ele>
        <time>2019-07-06T12:35:33Z</time>
      </trkpt>
      <trkpt lat="50.58729" lon="6.36061">
        <ele>299.11</ele>
        <time>2019-07-06T12:35:34Z</time>
      </trkpt>
      <trkpt lat="50.58724" lon="6.3606">
        <ele>299.11</ele>
        <time>2019-07-06T12:35:35Z</time>
      </trkpt>
      <trkpt lat="50.58719" lon="6.3606">
        <ele>299.11</ele>
        <time>2019-07-06T12:35:36Z</time>
      </trkpt>
      <trkpt lat="50.58714" lon="6.36061">
        <ele>300.07</ele>
        <time>2019-07-06T12:35:37Z</time>
      </trkpt>
      <trkpt lat="50.5871" lon="6.36064">
        <ele>300.07</ele>
        <time>2019-07-06T12:35:38Z</time>
      </trkpt>
      <trkpt lat="50.58705" lon="6.36067">
        <ele>300.07</ele>
        <time>2019-07-06T12:35:39Z</time>
      </trkpt>
      <trkpt lat="50.58701" lon="6.3607">
        <ele>300.55</ele>
        <time>2019-07-06T12:35:40Z</time>
      </trkpt>
      <trkpt lat="50.58681" lon="6.36085">
        <ele>301.99</ele>
        <time>2019-07-06T12:35:45Z</time>
      </trkpt>
      <trkpt lat="50.58677" lon="6.36086">
        <ele>302.47</ele>
        <time>2019-07-06T12:35:46Z</time>
      </trkpt>
      <trkpt lat="50.58673" lon="6.36086">
        <ele>302.47</ele>
        <time>2019-07-06T12:35:47Z</time>
      </trkpt>
      <trkpt lat="50.58669" lon="6.36086">
        <ele>302.95</ele>
        <time>2019-07-06T12:35:48Z</time>
      </trkpt>
      <trkpt lat="50.58664" lon="6.36084">
        <ele>302.95</ele>
        <time>2019-07-06T12:35:49Z</time>
      </trkpt>
      <trkpt lat="50.5866" lon="6.36082">
        <ele>303.43</ele>
        <time>2019-07-06T12:35:50Z</time>
      </trkpt>
      <trkpt lat="50.58656" lon="6.3608">
        <ele>303.43</ele>
        <time>2019-07-06T12:35:51Z</time>
      </trkpt>
      <trkpt lat="50.58652" lon="6.36077">
        <ele>304.39</ele>
        <time>2019-07-06T12:35:52Z</time>
      </trkpt>
      <trkpt lat="50.58645" lon="6.36071">
        <ele>304.88</ele>
        <time>2019-07-06T12:35:54Z</time>
      </trkpt>
      <trkpt lat="50.58642" lon="6.36067">
        <ele>304.88</ele>
        <time>2019-07-06T12:35:55Z</time>
      </trkpt>
      <trkpt lat="50.58613" lon="6.36002">
        <ele>308.24</ele>
        <time>2019-07-06T12:36:08Z</time>
      </trkpt>
      <trkpt lat="50.58593" lon="6.35937">
        <ele>311.6</ele>
        <time>2019-07-06T12:36:21Z</time>
      </trkpt>
      <trkpt lat="50.58569" lon="6.35862">
        <ele>314.97</ele>
        <time>2019-07-06T12:36:37Z</time>
      </trkpt>
      <trkpt lat="50.58546" lon="6.35797">
        <ele>318.33</ele>
        <time>2019-07-06T12:36:51Z</time>
      </trkpt>
      <trkpt lat="50.5852" lon="6.35742">
        <ele>321.7</ele>
        <time>2019-07-06T12:37:04Z</time>
      </trkpt>
      <trkpt lat="50.58478" lon="6.3569">
        <ele>325.06</ele>
        <time>2019-07-06T12:37:20Z</time>
      </trkpt>
      <trkpt lat="50.58447" lon="6.35671">
        <ele>327.95</ele>
        <time>2019-07-06T12:37:31Z</time>
      </trkpt>
      <trkpt lat="50.58401" lon="6.35668">
        <ele>330.35</ele>
        <time>2019-07-06T12:37:45Z</time>
      </trkpt>
      <trkpt lat="50.58366" lon="6.35698">
        <ele>333.71</ele>
        <time>2019-07-06T12:37:57Z</time>
      </trkpt>
      <trkpt lat="50.58348" lon="6.35706">
        <ele>335.16</ele>
        <time>2019-07-06T12:38:03Z</time>
      </trkpt>
      <trkpt lat="50.58345" lon="6.35704">
        <ele>335.64</ele>
        <time>2019-07-06T12:38:04Z</time>
      </trkpt>
      <trkpt lat="50.58342" lon="6.35701">
        <ele>335.64</ele>
        <time>2019-07-06T12:38:05Z</time>
      </trkpt>
      <trkpt lat="50.58337" lon="6.35689">
        <ele>336.6</ele>
        <time>2019-07-06T12:38:08Z</time>
      </trkpt>
      <trkpt lat="50.58338" lon="6.35684">
        <ele>337.08</ele>
        <time>2019-07-06T12:38:09Z</time>
      </trkpt>
      <trkpt lat="50.5834" lon="6.3568">
        <ele>337.08</ele>
        <time>2019-07-06T12:38:10Z</time>
      </trkpt>
      <trkpt lat="50.58343" lon="6.35679">
        <ele>338.04</ele>
        <time>2019-07-06T12:38:11Z</time>
      </trkpt>
      <trkpt lat="50.58347" lon="6.35678">
        <ele>338.04</ele>
        <time>2019-07-06T12:38:12Z</time>
      </trkpt>
      <trkpt lat="50.5835" lon="6.35678">
        <ele>338.52</ele>
        <time>2019-07-06T12:38:13Z</time>
      </trkpt>
      <trkpt lat="50.58384" lon="6.35655">
        <ele>340.92</ele>
        <time>2019-07-06T12:38:25Z</time>
      </trkpt>
      <trkpt lat="50.58426" lon="6.35626">
        <ele>343.81</ele>
        <time>2019-07-06T12:38:39Z</time>
      </trkpt>
      <trkpt lat="50.58476" lon="6.35612">
        <ele>346.21</ele>
        <time>2019-07-06T12:38:53Z</time>
      </trkpt>
      <trkpt lat="50.58528" lon="6.35602">
        <ele>349.1</ele>
        <time>2019-07-06T12:39:08Z</time>
      </trkpt>
      <trkpt lat="50.58571" lon="6.35619">
        <ele>352.46</ele>
        <time>2019-07-06T12:39:21Z</time>
      </trkpt>
      <trkpt lat="50.5859" lon="6.35591">
        <ele>353.9</ele>
        <time>2019-07-06T12:39:30Z</time>
      </trkpt>
      <trkpt lat="50.58588" lon="6.35586">
        <ele>353.9</ele>
        <time>2019-07-06T12:39:31Z</time>
      </trkpt>
      <trkpt lat="50.58586" lon="6.35582">
        <ele>354.38</ele>
        <time>2019-07-06T12:39:32Z</time>
      </trkpt>
      <trkpt lat="50.58582" lon="6.3558">
        <ele>354.38</ele>
        <time>2019-07-06T12:39:33Z</time>
      </trkpt>
      <trkpt lat="50.58579" lon="6.35577">
        <ele>355.34</ele>
        <time>2019-07-06T12:39:34Z</time>
      </trkpt>
      <trkpt lat="50.58575" lon="6.35576">
        <ele>354.86</ele>
        <time>2019-07-06T12:39:35Z</time>
      </trkpt>
      <trkpt lat="50.58521" lon="6.35565">
        <ele>358.23</ele>
        <time>2019-07-06T12:39:50Z</time>
      </trkpt>
      <trkpt lat="50.58468" lon="6.35557">
        <ele>359.19</ele>
        <time>2019-07-06T12:40:04Z</time>
      </trkpt>
      <trkpt lat="50.5846" lon="6.35556">
        <ele>359.67</ele>
        <time>2019-07-06T12:40:06Z</time>
      </trkpt>
      <trkpt lat="50.58448" lon="6.35554">
        <ele>359.67</ele>
        <time>2019-07-06T12:40:09Z</time>
      </trkpt>
      <trkpt lat="50.58444" lon="6.35551">
        <ele>360.63</ele>
        <time>2019-07-06T12:40:10Z</time>
      </trkpt>
      <trkpt lat="50.58404" lon="6.35515">
        <ele>362.07</ele>
        <time>2019-07-06T12:40:21Z</time>
      </trkpt>
      <trkpt lat="50.584" lon="6.35514">
        <ele>362.07</ele>
        <time>2019-07-06T12:40:22Z</time>
      </trkpt>
      <trkpt lat="50.58396" lon="6.35513">
        <ele>362.55</ele>
        <time>2019-07-06T12:40:23Z</time>
      </trkpt>
      <trkpt lat="50.58377" lon="6.35504">
        <ele>364</ele>
        <time>2019-07-06T12:40:28Z</time>
      </trkpt>
      <trkpt lat="50.58313" lon="6.35462">
        <ele>365.44</ele>
        <time>2019-07-06T12:40:44Z</time>
      </trkpt>
      <trkpt lat="50.58304" lon="6.35455">
        <ele>365.44</ele>
        <time>2019-07-06T12:40:46Z</time>
      </trkpt>
      <trkpt lat="50.5824" lon="6.35382">
        <ele>367.84</ele>
        <time>2019-07-06T12:41:02Z</time>
      </trkpt>
      <trkpt lat="50.58236" lon="6.35377">
        <ele>367.84</ele>
        <time>2019-07-06T12:41:03Z</time>
      </trkpt>
      <trkpt lat="50.58181" lon="6.35298">
        <ele>369.76</ele>
        <time>2019-07-06T12:41:18Z</time>
      </trkpt>
      <trkpt lat="50.58164" lon="6.35275">
        <ele>369.76</ele>
        <time>2019-07-06T12:41:24Z</time>
      </trkpt>
      <trkpt lat="50.58162" lon="6.35271">
        <ele>369.76</ele>
        <time>2019-07-06T12:41:25Z</time>
      </trkpt>
      <trkpt lat="50.5816" lon="6.35267">
        <ele>369.76</ele>
        <time>2019-07-06T12:41:26Z</time>
      </trkpt>
      <trkpt lat="50.58159" lon="6.35264">
        <ele>369.76</ele>
        <time>2019-07-06T12:41:27Z</time>
      </trkpt>
      <trkpt lat="50.58157" lon="6.35262">
        <ele>369.76</ele>
        <time>2019-07-06T12:41:28Z</time>
      </trkpt>
      <trkpt lat="50.58156" lon="6.3526">
        <ele>369.76</ele>
        <time>2019-07-06T12:41:29Z</time>
      </trkpt>
      <trkpt lat="50.58154" lon="6.35258">
        <ele>368.8</ele>
        <time>2019-07-06T12:41:30Z</time>
      </trkpt>
      <trkpt lat="50.58153" lon="6.35255">
        <ele>368.8</ele>
        <time>2019-07-06T12:41:31Z</time>
      </trkpt>
      <trkpt lat="50.58151" lon="6.35247">
        <ele>368.32</ele>
        <time>2019-07-06T12:41:34Z</time>
      </trkpt>
      <trkpt lat="50.58149" lon="6.35245">
        <ele>368.32</ele>
        <time>2019-07-06T12:41:46Z</time>
      </trkpt>
      <trkpt lat="50.58149" lon="6.35245">
        <ele>367.84</ele>
        <time>2019-07-06T12:41:56Z</time>
      </trkpt>
      <trkpt lat="50.58148" lon="6.35243">
        <ele>367.84</ele>
        <time>2019-07-06T12:41:57Z</time>
      </trkpt>
      <trkpt lat="50.58146" lon="6.3524">
        <ele>367.84</ele>
        <time>2019-07-06T12:41:58Z</time>
      </trkpt>
      <trkpt lat="50.58145" lon="6.35236">
        <ele>367.84</ele>
        <time>2019-07-06T12:41:59Z</time>
      </trkpt>
      <trkpt lat="50.58142" lon="6.35232">
        <ele>367.84</ele>
        <time>2019-07-06T12:42:00Z</time>
      </trkpt>
      <trkpt lat="50.58138" lon="6.35222">
        <ele>367.84</ele>
        <time>2019-07-06T12:42:02Z</time>
      </trkpt>
      <trkpt lat="50.58136" lon="6.35214">
        <ele>367.36</ele>
        <time>2019-07-06T12:42:03Z</time>
      </trkpt>
      <trkpt lat="50.58135" lon="6.35206">
        <ele>366.4</ele>
        <time>2019-07-06T12:42:04Z</time>
      </trkpt>
      <trkpt lat="50.58134" lon="6.35197">
        <ele>366.4</ele>
        <time>2019-07-06T12:42:05Z</time>
      </trkpt>
      <trkpt lat="50.58132" lon="6.35189">
        <ele>365.92</ele>
        <time>2019-07-06T12:42:06Z</time>
      </trkpt>
      <trkpt lat="50.58131" lon="6.3518">
        <ele>365.92</ele>
        <time>2019-07-06T12:42:07Z</time>
      </trkpt>
      <trkpt lat="50.58131" lon="6.35171">
        <ele>365.92</ele>
        <time>2019-07-06T12:42:08Z</time>
      </trkpt>
      <trkpt lat="50.58131" lon="6.35162">
        <ele>365.92</ele>
        <time>2019-07-06T12:42:09Z</time>
      </trkpt>
      <trkpt lat="50.5813" lon="6.35153">
        <ele>365.44</ele>
        <time>2019-07-06T12:42:10Z</time>
      </trkpt>
      <trkpt lat="50.58127" lon="6.35095">
        <ele>364.48</ele>
        <time>2019-07-06T12:42:16Z</time>
      </trkpt>
      <trkpt lat="50.58119" lon="6.3505">
        <ele>362.07</ele>
        <time>2019-07-06T12:42:20Z</time>
      </trkpt>
      <trkpt lat="50.58105" lon="6.34983">
        <ele>358.23</ele>
        <time>2019-07-06T12:42:25Z</time>
      </trkpt>
      <trkpt lat="50.58098" lon="6.34934">
        <ele>355.83</ele>
        <time>2019-07-06T12:42:28Z</time>
      </trkpt>
      <trkpt lat="50.58097" lon="6.34919">
        <ele>355.83</ele>
        <time>2019-07-06T12:42:29Z</time>
      </trkpt>
      <trkpt lat="50.58093" lon="6.34824">
        <ele>351.98</ele>
        <time>2019-07-06T12:42:34Z</time>
      </trkpt>
      <trkpt lat="50.5809" lon="6.34706">
        <ele>348.13</ele>
        <time>2019-07-06T12:42:40Z</time>
      </trkpt>
      <trkpt lat="50.58082" lon="6.34646">
        <ele>344.29</ele>
        <time>2019-07-06T12:42:43Z</time>
      </trkpt>
      <trkpt lat="50.58074" lon="6.34628">
        <ele>343.33</ele>
        <time>2019-07-06T12:42:44Z</time>
      </trkpt>
      <trkpt lat="50.58064" lon="6.34614">
        <ele>342.37</ele>
        <time>2019-07-06T12:42:45Z</time>
      </trkpt>
      <trkpt lat="50.58019" lon="6.34562">
        <ele>338.04</ele>
        <time>2019-07-06T12:42:49Z</time>
      </trkpt>
      <trkpt lat="50.57986" lon="6.34523">
        <ele>334.68</ele>
        <time>2019-07-06T12:42:52Z</time>
      </trkpt>
      <trkpt lat="50.57952" lon="6.34483">
        <ele>331.79</ele>
        <time>2019-07-06T12:42:55Z</time>
      </trkpt>
      <trkpt lat="50.57927" lon="6.34456">
        <ele>328.43</ele>
        <time>2019-07-06T12:42:57Z</time>
      </trkpt>
      <trkpt lat="50.57914" lon="6.34445">
        <ele>327.95</ele>
        <time>2019-07-06T12:42:58Z</time>
      </trkpt>
      <trkpt lat="50.579" lon="6.34436">
        <ele>327.47</ele>
        <time>2019-07-06T12:42:59Z</time>
      </trkpt>
      <trkpt lat="50.57886" lon="6.3443">
        <ele>326.5</ele>
        <time>2019-07-06T12:43:00Z</time>
      </trkpt>
      <trkpt lat="50.57872" lon="6.34427">
        <ele>326.02</ele>
        <time>2019-07-06T12:43:01Z</time>
      </trkpt>
      <trkpt lat="50.57858" lon="6.34426">
        <ele>326.02</ele>
        <time>2019-07-06T12:43:02Z</time>
      </trkpt>
      <trkpt lat="50.57845" lon="6.34428">
        <ele>325.54</ele>
        <time>2019-07-06T12:43:03Z</time>
      </trkpt>
      <trkpt lat="50.57832" lon="6.34433">
        <ele>324.58</ele>
        <time>2019-07-06T12:43:04Z</time>
      </trkpt>
      <trkpt lat="50.5782" lon="6.34439">
        <ele>324.1</ele>
        <time>2019-07-06T12:43:05Z</time>
      </trkpt>
      <trkpt lat="50.57797" lon="6.34449">
        <ele>322.66</ele>
        <time>2019-07-06T12:43:07Z</time>
      </trkpt>
      <trkpt lat="50.57759" lon="6.34457">
        <ele>321.22</ele>
        <time>2019-07-06T12:43:10Z</time>
      </trkpt>
      <trkpt lat="50.57747" lon="6.34462">
        <ele>320.26</ele>
        <time>2019-07-06T12:43:11Z</time>
      </trkpt>
      <trkpt lat="50.57701" lon="6.34486">
        <ele>316.89</ele>
        <time>2019-07-06T12:43:15Z</time>
      </trkpt>
      <trkpt lat="50.57689" lon="6.34488">
        <ele>315.93</ele>
        <time>2019-07-06T12:43:16Z</time>
      </trkpt>
      <trkpt lat="50.57619" lon="6.34489">
        <ele>312.57</ele>
        <time>2019-07-06T12:43:22Z</time>
      </trkpt>
      <trkpt lat="50.57532" lon="6.34525">
        <ele>311.12</ele>
        <time>2019-07-06T12:43:32Z</time>
      </trkpt>
      <trkpt lat="50.57442" lon="6.34548">
        <ele>310.64</ele>
        <time>2019-07-06T12:43:45Z</time>
      </trkpt>
      <trkpt lat="50.57383" lon="6.34553">
        <ele>312.57</ele>
        <time>2019-07-06T12:43:55Z</time>
      </trkpt>
      <trkpt lat="50.57295" lon="6.34554">
        <ele>313.05</ele>
        <time>2019-07-06T12:44:11Z</time>
      </trkpt>
      <trkpt lat="50.57218" lon="6.34516">
        <ele>314.97</ele>
        <time>2019-07-06T12:44:25Z</time>
      </trkpt>
      <trkpt lat="50.57201" lon="6.34508">
        <ele>314.97</ele>
        <time>2019-07-06T12:44:28Z</time>
      </trkpt>
      <trkpt lat="50.57113" lon="6.34463">
        <ele>315.93</ele>
        <time>2019-07-06T12:44:44Z</time>
      </trkpt>
      <trkpt lat="50.57041" lon="6.34415">
        <ele>315.93</ele>
        <time>2019-07-06T12:44:57Z</time>
      </trkpt>
      <trkpt lat="50.56984" lon="6.34336">
        <ele>315.93</ele>
        <time>2019-07-06T12:45:09Z</time>
      </trkpt>
      <trkpt lat="50.56955" lon="6.34242">
        <ele>315.93</ele>
        <time>2019-07-06T12:45:20Z</time>
      </trkpt>
      <trkpt lat="50.56952" lon="6.34224">
        <ele>315.93</ele>
        <time>2019-07-06T12:45:22Z</time>
      </trkpt>
      <trkpt lat="50.56951" lon="6.34216">
        <ele>315.93</ele>
        <time>2019-07-06T12:45:23Z</time>
      </trkpt>
      <trkpt lat="50.5695" lon="6.34208">
        <ele>315.93</ele>
        <time>2019-07-06T12:45:24Z</time>
      </trkpt>
      <trkpt lat="50.56949" lon="6.34201">
        <ele>315.93</ele>
        <time>2019-07-06T12:45:25Z</time>
      </trkpt>
      <trkpt lat="50.56948" lon="6.34195">
        <ele>316.41</ele>
        <time>2019-07-06T12:45:26Z</time>
      </trkpt>
      <trkpt lat="50.56945" lon="6.34174">
        <ele>316.41</ele>
        <time>2019-07-06T12:45:29Z</time>
      </trkpt>
      <trkpt lat="50.56944" lon="6.34167">
        <ele>316.41</ele>
        <time>2019-07-06T12:45:30Z</time>
      </trkpt>
      <trkpt lat="50.56944" lon="6.34159">
        <ele>316.41</ele>
        <time>2019-07-06T12:45:31Z</time>
      </trkpt>
      <trkpt lat="50.56943" lon="6.34151">
        <ele>316.41</ele>
        <time>2019-07-06T12:45:32Z</time>
      </trkpt>
      <trkpt lat="50.56942" lon="6.34143">
        <ele>316.41</ele>
        <time>2019-07-06T12:45:33Z</time>
      </trkpt>
      <trkpt lat="50.56941" lon="6.34135">
        <ele>316.41</ele>
        <time>2019-07-06T12:45:34Z</time>
      </trkpt>
      <trkpt lat="50.5694" lon="6.34125">
        <ele>316.41</ele>
        <time>2019-07-06T12:45:35Z</time>
      </trkpt>
      <trkpt lat="50.56929" lon="6.34007">
        <ele>316.41</ele>
        <time>2019-07-06T12:45:46Z</time>
      </trkpt>
      <trkpt lat="50.56928" lon="6.33975">
        <ele>316.89</ele>
        <time>2019-07-06T12:45:49Z</time>
      </trkpt>
      <trkpt lat="50.56946" lon="6.3382">
        <ele>317.37</ele>
        <time>2019-07-06T12:46:04Z</time>
      </trkpt>
      <trkpt lat="50.56967" lon="6.33714">
        <ele>318.33</ele>
        <time>2019-07-06T12:46:15Z</time>
      </trkpt>
      <trkpt lat="50.56968" lon="6.33703">
        <ele>318.33</ele>
        <time>2019-07-06T12:46:16Z</time>
      </trkpt>
      <trkpt lat="50.5697" lon="6.33683">
        <ele>319.3</ele>
        <time>2019-07-06T12:46:18Z</time>
      </trkpt>
      <trkpt lat="50.56958" lon="6.33541">
        <ele>319.78</ele>
        <time>2019-07-06T12:46:33Z</time>
      </trkpt>
      <trkpt lat="50.56945" lon="6.33427">
        <ele>319.78</ele>
        <time>2019-07-06T12:46:45Z</time>
      </trkpt>
      <trkpt lat="50.56942" lon="6.33418">
        <ele>319.78</ele>
        <time>2019-07-06T12:46:46Z</time>
      </trkpt>
      <trkpt lat="50.56939" lon="6.33409">
        <ele>319.78</ele>
        <time>2019-07-06T12:46:47Z</time>
      </trkpt>
      <trkpt lat="50.56934" lon="6.334">
        <ele>319.78</ele>
        <time>2019-07-06T12:46:48Z</time>
      </trkpt>
      <trkpt lat="50.56929" lon="6.33394">
        <ele>319.78</ele>
        <time>2019-07-06T12:46:49Z</time>
      </trkpt>
      <trkpt lat="50.56923" lon="6.33388">
        <ele>319.78</ele>
        <time>2019-07-06T12:46:50Z</time>
      </trkpt>
      <trkpt lat="50.56918" lon="6.33384">
        <ele>319.78</ele>
        <time>2019-07-06T12:46:51Z</time>
      </trkpt>
      <trkpt lat="50.56912" lon="6.33381">
        <ele>319.78</ele>
        <time>2019-07-06T12:46:52Z</time>
      </trkpt>
      <trkpt lat="50.56907" lon="6.33379">
        <ele>320.26</ele>
        <time>2019-07-06T12:46:53Z</time>
      </trkpt>
      <trkpt lat="50.56901" lon="6.33378">
        <ele>320.26</ele>
        <time>2019-07-06T12:46:54Z</time>
      </trkpt>
      <trkpt lat="50.56895" lon="6.33377">
        <ele>320.26</ele>
        <time>2019-07-06T12:46:55Z</time>
      </trkpt>
      <trkpt lat="50.56836" lon="6.33376">
        <ele>323.62</ele>
        <time>2019-07-06T12:47:06Z</time>
      </trkpt>
      <trkpt lat="50.56823" lon="6.33376">
        <ele>324.1</ele>
        <time>2019-07-06T12:47:09Z</time>
      </trkpt>
      <trkpt lat="50.56818" lon="6.33376">
        <ele>324.1</ele>
        <time>2019-07-06T12:47:10Z</time>
      </trkpt>
      <trkpt lat="50.56801" lon="6.33375">
        <ele>325.06</ele>
        <time>2019-07-06T12:47:14Z</time>
      </trkpt>
      <trkpt lat="50.56749" lon="6.33376">
        <ele>327.95</ele>
        <time>2019-07-06T12:47:26Z</time>
      </trkpt>
      <trkpt lat="50.56692" lon="6.33378">
        <ele>331.31</ele>
        <time>2019-07-06T12:47:40Z</time>
      </trkpt>
      <trkpt lat="50.56676" lon="6.33375">
        <ele>331.31</ele>
        <time>2019-07-06T12:47:44Z</time>
      </trkpt>
      <trkpt lat="50.56659" lon="6.33367">
        <ele>331.79</ele>
        <time>2019-07-06T12:47:48Z</time>
      </trkpt>
      <trkpt lat="50.56655" lon="6.33364">
        <ele>331.79</ele>
        <time>2019-07-06T12:47:49Z</time>
      </trkpt>
      <trkpt lat="50.56652" lon="6.33361">
        <ele>331.79</ele>
        <time>2019-07-06T12:47:50Z</time>
      </trkpt>
      <trkpt lat="50.56648" lon="6.33357">
        <ele>331.79</ele>
        <time>2019-07-06T12:47:51Z</time>
      </trkpt>
      <trkpt lat="50.56645" lon="6.33352">
        <ele>331.79</ele>
        <time>2019-07-06T12:47:52Z</time>
      </trkpt>
      <trkpt lat="50.56642" lon="6.33347">
        <ele>332.27</ele>
        <time>2019-07-06T12:47:53Z</time>
      </trkpt>
      <trkpt lat="50.56639" lon="6.33341">
        <ele>332.27</ele>
        <time>2019-07-06T12:47:54Z</time>
      </trkpt>
      <trkpt lat="50.56636" lon="6.33335">
        <ele>332.27</ele>
        <time>2019-07-06T12:47:55Z</time>
      </trkpt>
      <trkpt lat="50.56634" lon="6.33329">
        <ele>332.27</ele>
        <time>2019-07-06T12:47:56Z</time>
      </trkpt>
      <trkpt lat="50.56632" lon="6.33322">
        <ele>332.75</ele>
        <time>2019-07-06T12:47:57Z</time>
      </trkpt>
      <trkpt lat="50.56608" lon="6.33232">
        <ele>332.75</ele>
        <time>2019-07-06T12:48:10Z</time>
      </trkpt>
      <trkpt lat="50.56558" lon="6.33139">
        <ele>329.87</ele>
        <time>2019-07-06T12:48:22Z</time>
      </trkpt>
      <trkpt lat="50.56553" lon="6.33129">
        <ele>329.87</ele>
        <time>2019-07-06T12:48:23Z</time>
      </trkpt>
      <trkpt lat="50.5655" lon="6.33118">
        <ele>329.39</ele>
        <time>2019-07-06T12:48:24Z</time>
      </trkpt>
      <trkpt lat="50.56549" lon="6.33106">
        <ele>328.91</ele>
        <time>2019-07-06T12:48:25Z</time>
      </trkpt>
      <trkpt lat="50.56548" lon="6.33093">
        <ele>328.91</ele>
        <time>2019-07-06T12:48:26Z</time>
      </trkpt>
      <trkpt lat="50.56547" lon="6.33082">
        <ele>328.91</ele>
        <time>2019-07-06T12:48:27Z</time>
      </trkpt>
      <trkpt lat="50.56538" lon="6.33035">
        <ele>330.35</ele>
        <time>2019-07-06T12:48:32Z</time>
      </trkpt>
      <trkpt lat="50.56535" lon="6.33027">
        <ele>330.35</ele>
        <time>2019-07-06T12:48:33Z</time>
      </trkpt>
      <trkpt lat="50.56482" lon="6.32901">
        <ele>330.35</ele>
        <time>2019-07-06T12:48:49Z</time>
      </trkpt>
      <trkpt lat="50.56478" lon="6.32883">
        <ele>330.35</ele>
        <time>2019-07-06T12:48:51Z</time>
      </trkpt>
      <trkpt lat="50.56477" lon="6.32875">
        <ele>330.35</ele>
        <time>2019-07-06T12:48:52Z</time>
      </trkpt>
      <trkpt lat="50.5645" lon="6.32749">
        <ele>332.27</ele>
        <time>2019-07-06T12:49:08Z</time>
      </trkpt>
      <trkpt lat="50.56446" lon="6.32741">
        <ele>332.27</ele>
        <time>2019-07-06T12:49:09Z</time>
      </trkpt>
      <trkpt lat="50.56442" lon="6.32734">
        <ele>332.27</ele>
        <time>2019-07-06T12:49:10Z</time>
      </trkpt>
      <trkpt lat="50.56415" lon="6.32701">
        <ele>330.83</ele>
        <time>2019-07-06T12:49:15Z</time>
      </trkpt>
      <trkpt lat="50.5641" lon="6.32692">
        <ele>330.83</ele>
        <time>2019-07-06T12:49:16Z</time>
      </trkpt>
      <trkpt lat="50.56405" lon="6.32683">
        <ele>330.35</ele>
        <time>2019-07-06T12:49:17Z</time>
      </trkpt>
      <trkpt lat="50.5636" lon="6.32552">
        <ele>331.31</ele>
        <time>2019-07-06T12:49:31Z</time>
      </trkpt>
      <trkpt lat="50.56357" lon="6.32545">
        <ele>331.31</ele>
        <time>2019-07-06T12:49:32Z</time>
      </trkpt>
      <trkpt lat="50.56329" lon="6.32481">
        <ele>334.68</ele>
        <time>2019-07-06T12:49:42Z</time>
      </trkpt>
      <trkpt lat="50.56308" lon="6.32437">
        <ele>338.04</ele>
        <time>2019-07-06T12:49:52Z</time>
      </trkpt>
      <trkpt lat="50.56289" lon="6.32399">
        <ele>341.41</ele>
        <time>2019-07-06T12:50:02Z</time>
      </trkpt>
      <trkpt lat="50.5627" lon="6.32364">
        <ele>345.25</ele>
        <time>2019-07-06T12:50:12Z</time>
      </trkpt>
      <trkpt lat="50.56253" lon="6.32328">
        <ele>348.62</ele>
        <time>2019-07-06T12:50:23Z</time>
      </trkpt>
      <trkpt lat="50.56235" lon="6.32294">
        <ele>351.98</ele>
        <time>2019-07-06T12:50:34Z</time>
      </trkpt>
      <trkpt lat="50.56211" lon="6.32269">
        <ele>355.34</ele>
        <time>2019-07-06T12:50:44Z</time>
      </trkpt>
      <trkpt lat="50.56184" lon="6.32238">
        <ele>355.83</ele>
        <time>2019-07-06T12:50:55Z</time>
      </trkpt>
      <trkpt lat="50.56176" lon="6.32222">
        <ele>355.83</ele>
        <time>2019-07-06T12:50:58Z</time>
      </trkpt>
      <trkpt lat="50.5616" lon="6.32194">
        <ele>355.83</ele>
        <time>2019-07-06T12:51:04Z</time>
      </trkpt>
      <trkpt lat="50.56133" lon="6.32152">
        <ele>354.38</ele>
        <time>2019-07-06T12:51:12Z</time>
      </trkpt>
      <trkpt lat="50.56102" lon="6.32108">
        <ele>353.9</ele>
        <time>2019-07-06T12:51:19Z</time>
      </trkpt>
      <trkpt lat="50.56068" lon="6.32039">
        <ele>351.5</ele>
        <time>2019-07-06T12:51:26Z</time>
      </trkpt>
      <trkpt lat="50.56065" lon="6.32024">
        <ele>350.06</ele>
        <time>2019-07-06T12:51:27Z</time>
      </trkpt>
      <trkpt lat="50.56065" lon="6.32008">
        <ele>349.1</ele>
        <time>2019-07-06T12:51:28Z</time>
      </trkpt>
      <trkpt lat="50.56069" lon="6.31993">
        <ele>348.62</ele>
        <time>2019-07-06T12:51:29Z</time>
      </trkpt>
      <trkpt lat="50.56077" lon="6.31983">
        <ele>347.65</ele>
        <time>2019-07-06T12:51:30Z</time>
      </trkpt>
      <trkpt lat="50.56086" lon="6.31977">
        <ele>347.17</ele>
        <time>2019-07-06T12:51:31Z</time>
      </trkpt>
      <trkpt lat="50.56097" lon="6.31974">
        <ele>347.17</ele>
        <time>2019-07-06T12:51:32Z</time>
      </trkpt>
      <trkpt lat="50.56108" lon="6.31972">
        <ele>345.25</ele>
        <time>2019-07-06T12:51:33Z</time>
      </trkpt>
      <trkpt lat="50.56131" lon="6.31968">
        <ele>341.89</ele>
        <time>2019-07-06T12:51:35Z</time>
      </trkpt>
      <trkpt lat="50.56181" lon="6.31962">
        <ele>338.04</ele>
        <time>2019-07-06T12:51:39Z</time>
      </trkpt>
      <trkpt lat="50.56206" lon="6.31956">
        <ele>336.12</ele>
        <time>2019-07-06T12:51:41Z</time>
      </trkpt>
      <trkpt lat="50.56217" lon="6.3195">
        <ele>335.16</ele>
        <time>2019-07-06T12:51:42Z</time>
      </trkpt>
      <trkpt lat="50.56227" lon="6.31941">
        <ele>335.16</ele>
        <time>2019-07-06T12:51:43Z</time>
      </trkpt>
      <trkpt lat="50.56234" lon="6.31926">
        <ele>335.16</ele>
        <time>2019-07-06T12:51:44Z</time>
      </trkpt>
      <trkpt lat="50.56243" lon="6.31918">
        <ele>335.16</ele>
        <time>2019-07-06T12:51:45Z</time>
      </trkpt>
      <trkpt lat="50.56253" lon="6.31909">
        <ele>335.16</ele>
        <time>2019-07-06T12:51:46Z</time>
      </trkpt>
      <trkpt lat="50.56262" lon="6.31908">
        <ele>335.16</ele>
        <time>2019-07-06T12:51:47Z</time>
      </trkpt>
      <trkpt lat="50.56271" lon="6.31911">
        <ele>335.16</ele>
        <time>2019-07-06T12:51:48Z</time>
      </trkpt>
      <trkpt lat="50.56279" lon="6.31915">
        <ele>335.16</ele>
        <time>2019-07-06T12:51:49Z</time>
      </trkpt>
      <trkpt lat="50.56288" lon="6.31919">
        <ele>335.16</ele>
        <time>2019-07-06T12:51:50Z</time>
      </trkpt>
      <trkpt lat="50.56296" lon="6.31923">
        <ele>335.16</ele>
        <time>2019-07-06T12:51:51Z</time>
      </trkpt>
      <trkpt lat="50.56339" lon="6.31943">
        <ele>337.08</ele>
        <time>2019-07-06T12:51:57Z</time>
      </trkpt>
      <trkpt lat="50.56364" lon="6.31952">
        <ele>337.08</ele>
        <time>2019-07-06T12:52:01Z</time>
      </trkpt>
      <trkpt lat="50.56371" lon="6.31952">
        <ele>337.08</ele>
        <time>2019-07-06T12:52:02Z</time>
      </trkpt>
      <trkpt lat="50.56377" lon="6.3195">
        <ele>337.08</ele>
        <time>2019-07-06T12:52:03Z</time>
      </trkpt>
      <trkpt lat="50.56383" lon="6.31948">
        <ele>337.08</ele>
        <time>2019-07-06T12:52:04Z</time>
      </trkpt>
      <trkpt lat="50.56388" lon="6.31944">
        <ele>337.08</ele>
        <time>2019-07-06T12:52:05Z</time>
      </trkpt>
      <trkpt lat="50.56394" lon="6.3194">
        <ele>337.08</ele>
        <time>2019-07-06T12:52:06Z</time>
      </trkpt>
      <trkpt lat="50.56399" lon="6.31934">
        <ele>337.08</ele>
        <time>2019-07-06T12:52:07Z</time>
      </trkpt>
      <trkpt lat="50.56403" lon="6.31927">
        <ele>337.56</ele>
        <time>2019-07-06T12:52:08Z</time>
      </trkpt>
      <trkpt lat="50.56407" lon="6.31919">
        <ele>337.56</ele>
        <time>2019-07-06T12:52:09Z</time>
      </trkpt>
      <trkpt lat="50.5641" lon="6.31911">
        <ele>337.56</ele>
        <time>2019-07-06T12:52:10Z</time>
      </trkpt>
      <trkpt lat="50.56413" lon="6.31903">
        <ele>337.56</ele>
        <time>2019-07-06T12:52:11Z</time>
      </trkpt>
      <trkpt lat="50.56435" lon="6.31813">
        <ele>340.44</ele>
        <time>2019-07-06T12:52:22Z</time>
      </trkpt>
      <trkpt lat="50.56449" lon="6.31751">
        <ele>343.33</ele>
        <time>2019-07-06T12:52:31Z</time>
      </trkpt>
      <trkpt lat="50.56456" lon="6.31682">
        <ele>346.69</ele>
        <time>2019-07-06T12:52:41Z</time>
      </trkpt>
      <trkpt lat="50.56474" lon="6.31555">
        <ele>347.65</ele>
        <time>2019-07-06T12:52:57Z</time>
      </trkpt>
      <trkpt lat="50.56478" lon="6.31499">
        <ele>347.65</ele>
        <time>2019-07-06T12:53:03Z</time>
      </trkpt>
      <trkpt lat="50.56478" lon="6.31461">
        <ele>347.65</ele>
        <time>2019-07-06T12:53:07Z</time>
      </trkpt>
      <trkpt lat="50.56477" lon="6.31451">
        <ele>347.65</ele>
        <time>2019-07-06T12:53:08Z</time>
      </trkpt>
      <trkpt lat="50.56476" lon="6.31442">
        <ele>347.65</ele>
        <time>2019-07-06T12:53:09Z</time>
      </trkpt>
      <trkpt lat="50.56475" lon="6.31434">
        <ele>347.65</ele>
        <time>2019-07-06T12:53:10Z</time>
      </trkpt>
      <trkpt lat="50.56474" lon="6.31425">
        <ele>347.65</ele>
        <time>2019-07-06T12:53:11Z</time>
      </trkpt>
      <trkpt lat="50.56473" lon="6.31416">
        <ele>347.65</ele>
        <time>2019-07-06T12:53:12Z</time>
      </trkpt>
      <trkpt lat="50.5647" lon="6.31399">
        <ele>347.65</ele>
        <time>2019-07-06T12:53:14Z</time>
      </trkpt>
      <trkpt lat="50.56467" lon="6.3139">
        <ele>347.65</ele>
        <time>2019-07-06T12:53:15Z</time>
      </trkpt>
      <trkpt lat="50.56464" lon="6.31381">
        <ele>347.65</ele>
        <time>2019-07-06T12:53:16Z</time>
      </trkpt>
      <trkpt lat="50.56461" lon="6.31373">
        <ele>346.69</ele>
        <time>2019-07-06T12:53:17Z</time>
      </trkpt>
      <trkpt lat="50.56456" lon="6.31365">
        <ele>346.21</ele>
        <time>2019-07-06T12:53:18Z</time>
      </trkpt>
      <trkpt lat="50.5645" lon="6.31358">
        <ele>346.21</ele>
        <time>2019-07-06T12:53:19Z</time>
      </trkpt>
      <trkpt lat="50.56444" lon="6.31351">
        <ele>345.25</ele>
        <time>2019-07-06T12:53:20Z</time>
      </trkpt>
      <trkpt lat="50.56438" lon="6.31345">
        <ele>345.25</ele>
        <time>2019-07-06T12:53:21Z</time>
      </trkpt>
      <trkpt lat="50.56417" lon="6.31327">
        <ele>344.77</ele>
        <time>2019-07-06T12:53:24Z</time>
      </trkpt>
      <trkpt lat="50.56333" lon="6.313">
        <ele>343.81</ele>
        <time>2019-07-06T12:53:34Z</time>
      </trkpt>
      <trkpt lat="50.56265" lon="6.31288">
        <ele>342.37</ele>
        <time>2019-07-06T12:53:43Z</time>
      </trkpt>
      <trkpt lat="50.56258" lon="6.31286">
        <ele>341.89</ele>
        <time>2019-07-06T12:53:44Z</time>
      </trkpt>
      <trkpt lat="50.56184" lon="6.31265">
        <ele>341.89</ele>
        <time>2019-07-06T12:53:55Z</time>
      </trkpt>
      <trkpt lat="50.56122" lon="6.31222">
        <ele>343.33</ele>
        <time>2019-07-06T12:54:05Z</time>
      </trkpt>
      <trkpt lat="50.5606" lon="6.31147">
        <ele>344.29</ele>
        <time>2019-07-06T12:54:18Z</time>
      </trkpt>
      <trkpt lat="50.56039" lon="6.31105">
        <ele>344.77</ele>
        <time>2019-07-06T12:54:24Z</time>
      </trkpt>
      <trkpt lat="50.56037" lon="6.31096">
        <ele>344.77</ele>
        <time>2019-07-06T12:54:25Z</time>
      </trkpt>
      <trkpt lat="50.56036" lon="6.31087">
        <ele>344.77</ele>
        <time>2019-07-06T12:54:26Z</time>
      </trkpt>
      <trkpt lat="50.56036" lon="6.31078">
        <ele>344.77</ele>
        <time>2019-07-06T12:54:27Z</time>
      </trkpt>
      <trkpt lat="50.56036" lon="6.31068">
        <ele>344.77</ele>
        <time>2019-07-06T12:54:28Z</time>
      </trkpt>
      <trkpt lat="50.56037" lon="6.31059">
        <ele>344.77</ele>
        <time>2019-07-06T12:54:29Z</time>
      </trkpt>
      <trkpt lat="50.56038" lon="6.31049">
        <ele>344.77</ele>
        <time>2019-07-06T12:54:30Z</time>
      </trkpt>
      <trkpt lat="50.5604" lon="6.3104">
        <ele>344.77</ele>
        <time>2019-07-06T12:54:31Z</time>
      </trkpt>
      <trkpt lat="50.56042" lon="6.31032">
        <ele>344.77</ele>
        <time>2019-07-06T12:54:32Z</time>
      </trkpt>
      <trkpt lat="50.56046" lon="6.31022">
        <ele>344.77</ele>
        <time>2019-07-06T12:54:33Z</time>
      </trkpt>
      <trkpt lat="50.56049" lon="6.31016">
        <ele>344.77</ele>
        <time>2019-07-06T12:54:34Z</time>
      </trkpt>
      <trkpt lat="50.56054" lon="6.31009">
        <ele>344.77</ele>
        <time>2019-07-06T12:54:35Z</time>
      </trkpt>
      <trkpt lat="50.56059" lon="6.31003">
        <ele>344.77</ele>
        <time>2019-07-06T12:54:36Z</time>
      </trkpt>
      <trkpt lat="50.56064" lon="6.30998">
        <ele>344.77</ele>
        <time>2019-07-06T12:54:37Z</time>
      </trkpt>
      <trkpt lat="50.5607" lon="6.30993">
        <ele>344.77</ele>
        <time>2019-07-06T12:54:38Z</time>
      </trkpt>
      <trkpt lat="50.56075" lon="6.30988">
        <ele>344.77</ele>
        <time>2019-07-06T12:54:39Z</time>
      </trkpt>
      <trkpt lat="50.56097" lon="6.3097">
        <ele>344.77</ele>
        <time>2019-07-06T12:54:43Z</time>
      </trkpt>
      <trkpt lat="50.56156" lon="6.30932">
        <ele>345.25</ele>
        <time>2019-07-06T12:54:53Z</time>
      </trkpt>
      <trkpt lat="50.56195" lon="6.30921">
        <ele>345.25</ele>
        <time>2019-07-06T12:54:59Z</time>
      </trkpt>
      <trkpt lat="50.56201" lon="6.30919">
        <ele>345.25</ele>
        <time>2019-07-06T12:55:00Z</time>
      </trkpt>
      <trkpt lat="50.56278" lon="6.30883">
        <ele>345.73</ele>
        <time>2019-07-06T12:55:13Z</time>
      </trkpt>
      <trkpt lat="50.56322" lon="6.30846">
        <ele>345.73</ele>
        <time>2019-07-06T12:55:21Z</time>
      </trkpt>
      <trkpt lat="50.56327" lon="6.3084">
        <ele>345.73</ele>
        <time>2019-07-06T12:55:22Z</time>
      </trkpt>
      <trkpt lat="50.56335" lon="6.30826">
        <ele>345.73</ele>
        <time>2019-07-06T12:55:24Z</time>
      </trkpt>
      <trkpt lat="50.56338" lon="6.30819">
        <ele>345.73</ele>
        <time>2019-07-06T12:55:25Z</time>
      </trkpt>
      <trkpt lat="50.56346" lon="6.30792">
        <ele>345.73</ele>
        <time>2019-07-06T12:55:29Z</time>
      </trkpt>
      <trkpt lat="50.56347" lon="6.30786">
        <ele>345.73</ele>
        <time>2019-07-06T12:55:30Z</time>
      </trkpt>
      <trkpt lat="50.56343" lon="6.30723">
        <ele>346.21</ele>
        <time>2019-07-06T12:55:41Z</time>
      </trkpt>
      <trkpt lat="50.56332" lon="6.30636">
        <ele>346.69</ele>
        <time>2019-07-06T12:55:56Z</time>
      </trkpt>
      <trkpt lat="50.56327" lon="6.30581">
        <ele>347.17</ele>
        <time>2019-07-06T12:56:04Z</time>
      </trkpt>
      <trkpt lat="50.5632" lon="6.30478">
        <ele>349.58</ele>
        <time>2019-07-06T12:56:18Z</time>
      </trkpt>
      <trkpt lat="50.56319" lon="6.30464">
        <ele>350.06</ele>
        <time>2019-07-06T12:56:20Z</time>
      </trkpt>
      <trkpt lat="50.56317" lon="6.3043">
        <ele>351.02</ele>
        <time>2019-07-06T12:56:25Z</time>
      </trkpt>
      <trkpt lat="50.56312" lon="6.30355">
        <ele>353.9</ele>
        <time>2019-07-06T12:56:36Z</time>
      </trkpt>
      <trkpt lat="50.5631" lon="6.30292">
        <ele>356.79</ele>
        <time>2019-07-06T12:56:47Z</time>
      </trkpt>
      <trkpt lat="50.56304" lon="6.30222">
        <ele>357.75</ele>
        <time>2019-07-06T12:56:59Z</time>
      </trkpt>
      <trkpt lat="50.56294" lon="6.30134">
        <ele>358.23</ele>
        <time>2019-07-06T12:57:11Z</time>
      </trkpt>
      <trkpt lat="50.56292" lon="6.30107">
        <ele>358.23</ele>
        <time>2019-07-06T12:57:14Z</time>
      </trkpt>
      <trkpt lat="50.56291" lon="6.30098">
        <ele>358.23</ele>
        <time>2019-07-06T12:57:15Z</time>
      </trkpt>
      <trkpt lat="50.5629" lon="6.30089">
        <ele>358.23</ele>
        <time>2019-07-06T12:57:16Z</time>
      </trkpt>
      <trkpt lat="50.56287" lon="6.30058">
        <ele>356.79</ele>
        <time>2019-07-06T12:57:19Z</time>
      </trkpt>
      <trkpt lat="50.56287" lon="6.30039">
        <ele>355.83</ele>
        <time>2019-07-06T12:57:21Z</time>
      </trkpt>
      <trkpt lat="50.56309" lon="6.29903">
        <ele>355.83</ele>
        <time>2019-07-06T12:57:34Z</time>
      </trkpt>
      <trkpt lat="50.56353" lon="6.29785">
        <ele>353.42</ele>
        <time>2019-07-06T12:57:46Z</time>
      </trkpt>
      <trkpt lat="50.56355" lon="6.29776">
        <ele>353.42</ele>
        <time>2019-07-06T12:57:47Z</time>
      </trkpt>
      <trkpt lat="50.56355" lon="6.29766">
        <ele>353.42</ele>
        <time>2019-07-06T12:57:48Z</time>
      </trkpt>
      <trkpt lat="50.56352" lon="6.29757">
        <ele>353.42</ele>
        <time>2019-07-06T12:57:49Z</time>
      </trkpt>
      <trkpt lat="50.56349" lon="6.2975">
        <ele>353.42</ele>
        <time>2019-07-06T12:57:50Z</time>
      </trkpt>
      <trkpt lat="50.56347" lon="6.29743">
        <ele>353.42</ele>
        <time>2019-07-06T12:57:51Z</time>
      </trkpt>
      <trkpt lat="50.56338" lon="6.29716">
        <ele>354.38</ele>
        <time>2019-07-06T12:57:55Z</time>
      </trkpt>
      <trkpt lat="50.56336" lon="6.2971">
        <ele>354.86</ele>
        <time>2019-07-06T12:57:56Z</time>
      </trkpt>
      <trkpt lat="50.56328" lon="6.29685">
        <ele>355.83</ele>
        <time>2019-07-06T12:58:00Z</time>
      </trkpt>
      <trkpt lat="50.56327" lon="6.29679">
        <ele>356.31</ele>
        <time>2019-07-06T12:58:01Z</time>
      </trkpt>
      <trkpt lat="50.56326" lon="6.29673">
        <ele>356.31</ele>
        <time>2019-07-06T12:58:02Z</time>
      </trkpt>
      <trkpt lat="50.5632" lon="6.29629">
        <ele>359.67</ele>
        <time>2019-07-06T12:58:11Z</time>
      </trkpt>
      <trkpt lat="50.56319" lon="6.29621">
        <ele>360.63</ele>
        <time>2019-07-06T12:58:13Z</time>
      </trkpt>
      <trkpt lat="50.56317" lon="6.29609">
        <ele>361.59</ele>
        <time>2019-07-06T12:58:16Z</time>
      </trkpt>
      <trkpt lat="50.56312" lon="6.29574">
        <ele>365.44</ele>
        <time>2019-07-06T12:58:25Z</time>
      </trkpt>
      <trkpt lat="50.56307" lon="6.29537">
        <ele>368.8</ele>
        <time>2019-07-06T12:58:35Z</time>
      </trkpt>
      <trkpt lat="50.56314" lon="6.29508">
        <ele>372.17</ele>
        <time>2019-07-06T12:58:44Z</time>
      </trkpt>
      <trkpt lat="50.56333" lon="6.29495">
        <ele>375.53</ele>
        <time>2019-07-06T12:58:53Z</time>
      </trkpt>
      <trkpt lat="50.56347" lon="6.29473">
        <ele>378.42</ele>
        <time>2019-07-06T12:59:03Z</time>
      </trkpt>
      <trkpt lat="50.56356" lon="6.29436">
        <ele>381.78</ele>
        <time>2019-07-06T12:59:15Z</time>
      </trkpt>
      <trkpt lat="50.56359" lon="6.2939">
        <ele>385.15</ele>
        <time>2019-07-06T12:59:27Z</time>
      </trkpt>
      <trkpt lat="50.56361" lon="6.29354">
        <ele>388.03</ele>
        <time>2019-07-06T12:59:37Z</time>
      </trkpt>
      <trkpt lat="50.56361" lon="6.29313">
        <ele>391.39</ele>
        <time>2019-07-06T12:59:49Z</time>
      </trkpt>
      <trkpt lat="50.56361" lon="6.29284">
        <ele>394.76</ele>
        <time>2019-07-06T12:59:58Z</time>
      </trkpt>
      <trkpt lat="50.56363" lon="6.29253">
        <ele>397.64</ele>
        <time>2019-07-06T13:00:07Z</time>
      </trkpt>
      <trkpt lat="50.56362" lon="6.29217">
        <ele>400.53</ele>
        <time>2019-07-06T13:00:18Z</time>
      </trkpt>
      <trkpt lat="50.56361" lon="6.29189">
        <ele>403.89</ele>
        <time>2019-07-06T13:00:27Z</time>
      </trkpt>
      <trkpt lat="50.56361" lon="6.2915">
        <ele>407.26</ele>
        <time>2019-07-06T13:00:40Z</time>
      </trkpt>
      <trkpt lat="50.56371" lon="6.29118">
        <ele>410.14</ele>
        <time>2019-07-06T13:00:53Z</time>
      </trkpt>
      <trkpt lat="50.56382" lon="6.29087">
        <ele>413.02</ele>
        <time>2019-07-06T13:01:05Z</time>
      </trkpt>
      <trkpt lat="50.56397" lon="6.29054">
        <ele>415.91</ele>
        <time>2019-07-06T13:01:18Z</time>
      </trkpt>
      <trkpt lat="50.56409" lon="6.29023">
        <ele>419.27</ele>
        <time>2019-07-06T13:01:29Z</time>
      </trkpt>
      <trkpt lat="50.56426" lon="6.28993">
        <ele>422.64</ele>
        <time>2019-07-06T13:01:42Z</time>
      </trkpt>
      <trkpt lat="50.56438" lon="6.28961">
        <ele>426</ele>
        <time>2019-07-06T13:01:54Z</time>
      </trkpt>
      <trkpt lat="50.56449" lon="6.2893">
        <ele>428.89</ele>
        <time>2019-07-06T13:02:05Z</time>
      </trkpt>
      <trkpt lat="50.56453" lon="6.2892">
        <ele>429.85</ele>
        <time>2019-07-06T13:02:09Z</time>
      </trkpt>
      <trkpt lat="50.56463" lon="6.28894">
        <ele>433.21</ele>
        <time>2019-07-06T13:02:19Z</time>
      </trkpt>
      <trkpt lat="50.56475" lon="6.28863">
        <ele>436.1</ele>
        <time>2019-07-06T13:02:31Z</time>
      </trkpt>
      <trkpt lat="50.56477" lon="6.28851">
        <ele>437.54</ele>
        <time>2019-07-06T13:02:35Z</time>
      </trkpt>
      <trkpt lat="50.56479" lon="6.28846">
        <ele>438.02</ele>
        <time>2019-07-06T13:02:37Z</time>
      </trkpt>
      <trkpt lat="50.5648" lon="6.28843">
        <ele>438.98</ele>
        <time>2019-07-06T13:02:38Z</time>
      </trkpt>
      <trkpt lat="50.56486" lon="6.28816">
        <ele>441.86</ele>
        <time>2019-07-06T13:02:47Z</time>
      </trkpt>
      <trkpt lat="50.5649" lon="6.28782">
        <ele>444.75</ele>
        <time>2019-07-06T13:02:56Z</time>
      </trkpt>
      <trkpt lat="50.56496" lon="6.28754">
        <ele>447.63</ele>
        <time>2019-07-06T13:03:07Z</time>
      </trkpt>
      <trkpt lat="50.565" lon="6.2872">
        <ele>451</ele>
        <time>2019-07-06T13:03:18Z</time>
      </trkpt>
      <trkpt lat="50.56503" lon="6.28713">
        <ele>451.48</ele>
        <time>2019-07-06T13:03:21Z</time>
      </trkpt>
      <trkpt lat="50.56505" lon="6.28674">
        <ele>453.88</ele>
        <time>2019-07-06T13:03:32Z</time>
      </trkpt>
      <trkpt lat="50.56508" lon="6.28635">
        <ele>456.76</ele>
        <time>2019-07-06T13:03:44Z</time>
      </trkpt>
      <trkpt lat="50.56506" lon="6.286">
        <ele>460.13</ele>
        <time>2019-07-06T13:03:54Z</time>
      </trkpt>
      <trkpt lat="50.56505" lon="6.28557">
        <ele>463.49</ele>
        <time>2019-07-06T13:04:07Z</time>
      </trkpt>
      <trkpt lat="50.56506" lon="6.28514">
        <ele>466.38</ele>
        <time>2019-07-06T13:04:21Z</time>
      </trkpt>
      <trkpt lat="50.56507" lon="6.28499">
        <ele>467.82</ele>
        <time>2019-07-06T13:04:26Z</time>
      </trkpt>
      <trkpt lat="50.56505" lon="6.28453">
        <ele>470.7</ele>
        <time>2019-07-06T13:04:40Z</time>
      </trkpt>
      <trkpt lat="50.56502" lon="6.28413">
        <ele>473.11</ele>
        <time>2019-07-06T13:04:53Z</time>
      </trkpt>
      <trkpt lat="50.56498" lon="6.2837">
        <ele>475.51</ele>
        <time>2019-07-06T13:05:07Z</time>
      </trkpt>
      <trkpt lat="50.56494" lon="6.2833">
        <ele>478.39</ele>
        <time>2019-07-06T13:05:19Z</time>
      </trkpt>
      <trkpt lat="50.56485" lon="6.28298">
        <ele>480.32</ele>
        <time>2019-07-06T13:05:30Z</time>
      </trkpt>
      <trkpt lat="50.56474" lon="6.28267">
        <ele>483.2</ele>
        <time>2019-07-06T13:05:41Z</time>
      </trkpt>
      <trkpt lat="50.56459" lon="6.2823">
        <ele>485.6</ele>
        <time>2019-07-06T13:05:54Z</time>
      </trkpt>
      <trkpt lat="50.56446" lon="6.28205">
        <ele>488.49</ele>
        <time>2019-07-06T13:06:04Z</time>
      </trkpt>
      <trkpt lat="50.56445" lon="6.28203">
        <ele>488.49</ele>
        <time>2019-07-06T13:06:05Z</time>
      </trkpt>
      <trkpt lat="50.56445" lon="6.282">
        <ele>488.97</ele>
        <time>2019-07-06T13:06:06Z</time>
      </trkpt>
      <trkpt lat="50.56441" lon="6.28198">
        <ele>489.45</ele>
        <time>2019-07-06T13:06:18Z</time>
      </trkpt>
      <trkpt lat="50.56438" lon="6.28194">
        <ele>489.45</ele>
        <time>2019-07-06T13:06:34Z</time>
      </trkpt>
      <trkpt lat="50.56437" lon="6.28191">
        <ele>489.45</ele>
        <time>2019-07-06T13:06:49Z</time>
      </trkpt>
      <trkpt lat="50.56437" lon="6.28188">
        <ele>490.41</ele>
        <time>2019-07-06T13:07:07Z</time>
      </trkpt>
      <trkpt lat="50.56438" lon="6.28186">
        <ele>490.41</ele>
        <time>2019-07-06T13:07:15Z</time>
      </trkpt>
      <trkpt lat="50.56439" lon="6.28184">
        <ele>490.41</ele>
        <time>2019-07-06T13:07:16Z</time>
      </trkpt>
      <trkpt lat="50.56439" lon="6.28181">
        <ele>490.41</ele>
        <time>2019-07-06T13:07:17Z</time>
      </trkpt>
      <trkpt lat="50.56439" lon="6.28178">
        <ele>490.41</ele>
        <time>2019-07-06T13:07:18Z</time>
      </trkpt>
      <trkpt lat="50.56438" lon="6.28175">
        <ele>490.41</ele>
        <time>2019-07-06T13:07:19Z</time>
      </trkpt>
      <trkpt lat="50.56437" lon="6.28172">
        <ele>490.89</ele>
        <time>2019-07-06T13:07:20Z</time>
      </trkpt>
      <trkpt lat="50.56431" lon="6.28138">
        <ele>494.26</ele>
        <time>2019-07-06T13:07:30Z</time>
      </trkpt>
      <trkpt lat="50.56419" lon="6.28098">
        <ele>497.62</ele>
        <time>2019-07-06T13:07:43Z</time>
      </trkpt>
      <trkpt lat="50.56417" lon="6.28089">
        <ele>498.1</ele>
        <time>2019-07-06T13:07:46Z</time>
      </trkpt>
      <trkpt lat="50.56404" lon="6.28053">
        <ele>500.98</ele>
        <time>2019-07-06T13:08:00Z</time>
      </trkpt>
      <trkpt lat="50.56402" lon="6.28034">
        <ele>501.46</ele>
        <time>2019-07-06T13:08:06Z</time>
      </trkpt>
      <trkpt lat="50.56402" lon="6.28031">
        <ele>501.95</ele>
        <time>2019-07-06T13:08:07Z</time>
      </trkpt>
      <trkpt lat="50.56402" lon="6.28019">
        <ele>502.43</ele>
        <time>2019-07-06T13:08:11Z</time>
      </trkpt>
      <trkpt lat="50.56407" lon="6.27978">
        <ele>504.35</ele>
        <time>2019-07-06T13:08:23Z</time>
      </trkpt>
      <trkpt lat="50.56406" lon="6.2793">
        <ele>505.79</ele>
        <time>2019-07-06T13:08:35Z</time>
      </trkpt>
      <trkpt lat="50.56403" lon="6.27867">
        <ele>508.67</ele>
        <time>2019-07-06T13:08:50Z</time>
      </trkpt>
      <trkpt lat="50.56393" lon="6.27824">
        <ele>511.56</ele>
        <time>2019-07-06T13:09:03Z</time>
      </trkpt>
      <trkpt lat="50.56389" lon="6.27784">
        <ele>514.44</ele>
        <time>2019-07-06T13:09:14Z</time>
      </trkpt>
      <trkpt lat="50.56384" lon="6.27747">
        <ele>517.81</ele>
        <time>2019-07-06T13:09:26Z</time>
      </trkpt>
      <trkpt lat="50.5638" lon="6.27706">
        <ele>519.73</ele>
        <time>2019-07-06T13:09:37Z</time>
      </trkpt>
      <trkpt lat="50.56378" lon="6.27684">
        <ele>520.69</ele>
        <time>2019-07-06T13:09:43Z</time>
      </trkpt>
      <trkpt lat="50.56378" lon="6.27681">
        <ele>520.69</ele>
        <time>2019-07-06T13:09:44Z</time>
      </trkpt>
      <trkpt lat="50.56378" lon="6.27677">
        <ele>521.65</ele>
        <time>2019-07-06T13:09:45Z</time>
      </trkpt>
      <trkpt lat="50.56376" lon="6.27623">
        <ele>524.54</ele>
        <time>2019-07-06T13:10:01Z</time>
      </trkpt>
      <trkpt lat="50.56381" lon="6.27575">
        <ele>527.9</ele>
        <time>2019-07-06T13:10:15Z</time>
      </trkpt>
      <trkpt lat="50.56384" lon="6.27564">
        <ele>528.38</ele>
        <time>2019-07-06T13:10:19Z</time>
      </trkpt>
      <trkpt lat="50.56387" lon="6.27545">
        <ele>529.34</ele>
        <time>2019-07-06T13:10:26Z</time>
      </trkpt>
      <trkpt lat="50.56389" lon="6.27542">
        <ele>529.82</ele>
        <time>2019-07-06T13:10:27Z</time>
      </trkpt>
      <trkpt lat="50.5639" lon="6.2754">
        <ele>529.82</ele>
        <time>2019-07-06T13:10:28Z</time>
      </trkpt>
      <trkpt lat="50.56391" lon="6.27537">
        <ele>530.3</ele>
        <time>2019-07-06T13:10:29Z</time>
      </trkpt>
      <trkpt lat="50.56392" lon="6.27534">
        <ele>530.3</ele>
        <time>2019-07-06T13:10:30Z</time>
      </trkpt>
      <trkpt lat="50.56405" lon="6.27492">
        <ele>531.75</ele>
        <time>2019-07-06T13:10:44Z</time>
      </trkpt>
      <trkpt lat="50.56412" lon="6.27458">
        <ele>532.71</ele>
        <time>2019-07-06T13:10:56Z</time>
      </trkpt>
      <trkpt lat="50.56419" lon="6.27414">
        <ele>533.67</ele>
        <time>2019-07-06T13:11:09Z</time>
      </trkpt>
      <trkpt lat="50.56423" lon="6.27388">
        <ele>533.67</ele>
        <time>2019-07-06T13:11:15Z</time>
      </trkpt>
      <trkpt lat="50.56425" lon="6.27384">
        <ele>534.63</ele>
        <time>2019-07-06T13:11:16Z</time>
      </trkpt>
      <trkpt lat="50.56426" lon="6.2738">
        <ele>534.63</ele>
        <time>2019-07-06T13:11:17Z</time>
      </trkpt>
      <trkpt lat="50.56434" lon="6.27329">
        <ele>534.63</ele>
        <time>2019-07-06T13:11:28Z</time>
      </trkpt>
      <trkpt lat="50.56447" lon="6.27264">
        <ele>536.07</ele>
        <time>2019-07-06T13:11:41Z</time>
      </trkpt>
      <trkpt lat="50.56448" lon="6.2726">
        <ele>536.07</ele>
        <time>2019-07-06T13:11:42Z</time>
      </trkpt>
      <trkpt lat="50.56449" lon="6.27256">
        <ele>536.07</ele>
        <time>2019-07-06T13:11:43Z</time>
      </trkpt>
      <trkpt lat="50.56477" lon="6.27212">
        <ele>538.48</ele>
        <time>2019-07-06T13:11:56Z</time>
      </trkpt>
      <trkpt lat="50.56509" lon="6.27173">
        <ele>539.44</ele>
        <time>2019-07-06T13:12:09Z</time>
      </trkpt>
      <trkpt lat="50.56536" lon="6.27151">
        <ele>539.44</ele>
        <time>2019-07-06T13:12:20Z</time>
      </trkpt>
      <trkpt lat="50.56556" lon="6.27133">
        <ele>539.44</ele>
        <time>2019-07-06T13:12:26Z</time>
      </trkpt>
      <trkpt lat="50.56594" lon="6.27098">
        <ele>538.48</ele>
        <time>2019-07-06T13:12:38Z</time>
      </trkpt>
      <trkpt lat="50.56609" lon="6.27082">
        <ele>538.48</ele>
        <time>2019-07-06T13:12:42Z</time>
      </trkpt>
      <trkpt lat="50.56631" lon="6.27059">
        <ele>537.51</ele>
        <time>2019-07-06T13:12:48Z</time>
      </trkpt>
      <trkpt lat="50.56638" lon="6.27049">
        <ele>537.51</ele>
        <time>2019-07-06T13:12:50Z</time>
      </trkpt>
      <trkpt lat="50.56645" lon="6.27039">
        <ele>536.55</ele>
        <time>2019-07-06T13:12:52Z</time>
      </trkpt>
      <trkpt lat="50.5665" lon="6.27033">
        <ele>536.55</ele>
        <time>2019-07-06T13:12:53Z</time>
      </trkpt>
      <trkpt lat="50.56653" lon="6.27028">
        <ele>536.55</ele>
        <time>2019-07-06T13:12:54Z</time>
      </trkpt>
      <trkpt lat="50.56656" lon="6.27022">
        <ele>536.55</ele>
        <time>2019-07-06T13:12:55Z</time>
      </trkpt>
      <trkpt lat="50.56659" lon="6.27015">
        <ele>536.55</ele>
        <time>2019-07-06T13:12:56Z</time>
      </trkpt>
      <trkpt lat="50.56662" lon="6.27008">
        <ele>536.55</ele>
        <time>2019-07-06T13:12:57Z</time>
      </trkpt>
      <trkpt lat="50.56704" lon="6.26908">
        <ele>533.19</ele>
        <time>2019-07-06T13:13:09Z</time>
      </trkpt>
      <trkpt lat="50.56717" lon="6.26882">
        <ele>533.19</ele>
        <time>2019-07-06T13:13:12Z</time>
      </trkpt>
      <trkpt lat="50.56723" lon="6.26876">
        <ele>532.71</ele>
        <time>2019-07-06T13:13:13Z</time>
      </trkpt>
      <trkpt lat="50.56728" lon="6.26869">
        <ele>532.71</ele>
        <time>2019-07-06T13:13:14Z</time>
      </trkpt>
      <trkpt lat="50.56746" lon="6.26841">
        <ele>532.71</ele>
        <time>2019-07-06T13:13:18Z</time>
      </trkpt>
      <trkpt lat="50.56799" lon="6.26741">
        <ele>531.75</ele>
        <time>2019-07-06T13:13:33Z</time>
      </trkpt>
      <trkpt lat="50.56824" lon="6.26685">
        <ele>531.27</ele>
        <time>2019-07-06T13:13:42Z</time>
      </trkpt>
      <trkpt lat="50.56871" lon="6.26599">
        <ele>531.27</ele>
        <time>2019-07-06T13:14:01Z</time>
      </trkpt>
      <trkpt lat="50.56913" lon="6.26531">
        <ele>532.71</ele>
        <time>2019-07-06T13:14:15Z</time>
      </trkpt>
      <trkpt lat="50.56948" lon="6.26483">
        <ele>532.71</ele>
        <time>2019-07-06T13:14:29Z</time>
      </trkpt>
      <trkpt lat="50.56951" lon="6.26476">
        <ele>532.71</ele>
        <time>2019-07-06T13:14:31Z</time>
      </trkpt>
      <trkpt lat="50.56951" lon="6.26471">
        <ele>532.71</ele>
        <time>2019-07-06T13:14:32Z</time>
      </trkpt>
      <trkpt lat="50.56952" lon="6.26468">
        <ele>532.71</ele>
        <time>2019-07-06T13:14:33Z</time>
      </trkpt>
      <trkpt lat="50.56954" lon="6.26464">
        <ele>532.71</ele>
        <time>2019-07-06T13:14:34Z</time>
      </trkpt>
      <trkpt lat="50.56956" lon="6.26461">
        <ele>532.71</ele>
        <time>2019-07-06T13:14:35Z</time>
      </trkpt>
      <trkpt lat="50.56957" lon="6.26458">
        <ele>532.71</ele>
        <time>2019-07-06T13:14:36Z</time>
      </trkpt>
      <trkpt lat="50.56959" lon="6.26455">
        <ele>532.71</ele>
        <time>2019-07-06T13:14:37Z</time>
      </trkpt>
      <trkpt lat="50.56975" lon="6.26437">
        <ele>532.71</ele>
        <time>2019-07-06T13:14:47Z</time>
      </trkpt>
      <trkpt lat="50.56974" lon="6.26434">
        <ele>532.71</ele>
        <time>2019-07-06T13:14:48Z</time>
      </trkpt>
      <trkpt lat="50.56973" lon="6.26434">
        <ele>533.19</ele>
        <time>2019-07-06T13:14:49Z</time>
      </trkpt>
      <trkpt lat="50.56971" lon="6.26434">
        <ele>533.19</ele>
        <time>2019-07-06T13:14:50Z</time>
      </trkpt>
      <trkpt lat="50.5697" lon="6.26437">
        <ele>533.19</ele>
        <time>2019-07-06T13:14:52Z</time>
      </trkpt>
      <trkpt lat="50.56971" lon="6.26438">
        <ele>533.19</ele>
        <time>2019-07-06T13:14:53Z</time>
      </trkpt>
      <trkpt lat="50.56973" lon="6.26438">
        <ele>533.19</ele>
        <time>2019-07-06T13:14:54Z</time>
      </trkpt>
      <trkpt lat="50.56974" lon="6.26436">
        <ele>533.19</ele>
        <time>2019-07-06T13:14:55Z</time>
      </trkpt>
      <trkpt lat="50.56973" lon="6.26433">
        <ele>533.19</ele>
        <time>2019-07-06T13:15:00Z</time>
      </trkpt>
      <trkpt lat="50.5697" lon="6.26431">
        <ele>533.19</ele>
        <time>2019-07-06T13:15:10Z</time>
      </trkpt>
      <trkpt lat="50.56969" lon="6.2643">
        <ele>533.19</ele>
        <time>2019-07-06T13:15:39Z</time>
      </trkpt>
      <trkpt lat="50.56971" lon="6.26438">
        <ele>533.19</ele>
        <time>2019-07-06T13:15:54Z</time>
      </trkpt>
      <trkpt lat="50.5697" lon="6.2644">
        <ele>533.19</ele>
        <time>2019-07-06T13:15:55Z</time>
      </trkpt>
      <trkpt lat="50.56969" lon="6.26442">
        <ele>533.19</ele>
        <time>2019-07-06T13:15:56Z</time>
      </trkpt>
      <trkpt lat="50.56967" lon="6.26443">
        <ele>533.19</ele>
        <time>2019-07-06T13:15:57Z</time>
      </trkpt>
      <trkpt lat="50.56965" lon="6.26445">
        <ele>533.19</ele>
        <time>2019-07-06T13:15:58Z</time>
      </trkpt>
      <trkpt lat="50.56963" lon="6.26446">
        <ele>533.19</ele>
        <time>2019-07-06T13:15:59Z</time>
      </trkpt>
      <trkpt lat="50.5696" lon="6.26449">
        <ele>533.19</ele>
        <time>2019-07-06T13:16:00Z</time>
      </trkpt>
      <trkpt lat="50.56958" lon="6.26453">
        <ele>533.19</ele>
        <time>2019-07-06T13:16:01Z</time>
      </trkpt>
      <trkpt lat="50.56956" lon="6.26457">
        <ele>533.19</ele>
        <time>2019-07-06T13:16:02Z</time>
      </trkpt>
      <trkpt lat="50.56917" lon="6.26525">
        <ele>533.19</ele>
        <time>2019-07-06T13:16:17Z</time>
      </trkpt>
      <trkpt lat="50.56859" lon="6.26612">
        <ele>532.23</ele>
        <time>2019-07-06T13:16:34Z</time>
      </trkpt>
      <trkpt lat="50.5683" lon="6.26669">
        <ele>531.75</ele>
        <time>2019-07-06T13:16:43Z</time>
      </trkpt>
      <trkpt lat="50.56782" lon="6.26769">
        <ele>531.75</ele>
        <time>2019-07-06T13:16:58Z</time>
      </trkpt>
      <trkpt lat="50.56756" lon="6.26817">
        <ele>531.75</ele>
        <time>2019-07-06T13:17:06Z</time>
      </trkpt>
      <trkpt lat="50.56737" lon="6.2685">
        <ele>531.75</ele>
        <time>2019-07-06T13:17:12Z</time>
      </trkpt>
      <trkpt lat="50.56734" lon="6.26857">
        <ele>531.75</ele>
        <time>2019-07-06T13:17:13Z</time>
      </trkpt>
      <trkpt lat="50.5673" lon="6.26862">
        <ele>533.19</ele>
        <time>2019-07-06T13:17:14Z</time>
      </trkpt>
      <trkpt lat="50.56726" lon="6.26867">
        <ele>533.19</ele>
        <time>2019-07-06T13:17:15Z</time>
      </trkpt>
      <trkpt lat="50.56723" lon="6.26872">
        <ele>533.19</ele>
        <time>2019-07-06T13:17:16Z</time>
      </trkpt>
      <trkpt lat="50.56715" lon="6.26883">
        <ele>533.19</ele>
        <time>2019-07-06T13:17:18Z</time>
      </trkpt>
      <trkpt lat="50.56664" lon="6.2699">
        <ele>536.55</ele>
        <time>2019-07-06T13:17:35Z</time>
      </trkpt>
      <trkpt lat="50.56661" lon="6.26995">
        <ele>536.55</ele>
        <time>2019-07-06T13:17:36Z</time>
      </trkpt>
      <trkpt lat="50.56654" lon="6.27013">
        <ele>537.03</ele>
        <time>2019-07-06T13:17:39Z</time>
      </trkpt>
      <trkpt lat="50.56597" lon="6.27089">
        <ele>538.96</ele>
        <time>2019-07-06T13:17:56Z</time>
      </trkpt>
      <trkpt lat="50.56538" lon="6.27146">
        <ele>540.4</ele>
        <time>2019-07-06T13:18:11Z</time>
      </trkpt>
      <trkpt lat="50.56489" lon="6.27188">
        <ele>540.88</ele>
        <time>2019-07-06T13:18:26Z</time>
      </trkpt>
      <trkpt lat="50.56457" lon="6.27231">
        <ele>539.92</ele>
        <time>2019-07-06T13:18:37Z</time>
      </trkpt>
      <trkpt lat="50.56448" lon="6.27252">
        <ele>538.96</ele>
        <time>2019-07-06T13:18:40Z</time>
      </trkpt>
      <trkpt lat="50.5644" lon="6.27278">
        <ele>537.99</ele>
        <time>2019-07-06T13:18:43Z</time>
      </trkpt>
      <trkpt lat="50.56412" lon="6.27427">
        <ele>535.59</ele>
        <time>2019-07-06T13:18:59Z</time>
      </trkpt>
      <trkpt lat="50.56409" lon="6.27442">
        <ele>535.11</ele>
        <time>2019-07-06T13:19:01Z</time>
      </trkpt>
      <trkpt lat="50.56408" lon="6.27449">
        <ele>535.11</ele>
        <time>2019-07-06T13:19:02Z</time>
      </trkpt>
      <trkpt lat="50.56392" lon="6.27514">
        <ele>533.19</ele>
        <time>2019-07-06T13:19:12Z</time>
      </trkpt>
      <trkpt lat="50.56376" lon="6.27576">
        <ele>529.82</ele>
        <time>2019-07-06T13:19:20Z</time>
      </trkpt>
      <trkpt lat="50.56373" lon="6.27606">
        <ele>527.9</ele>
        <time>2019-07-06T13:19:31Z</time>
      </trkpt>
      <trkpt lat="50.56374" lon="6.27608">
        <ele>527.9</ele>
        <time>2019-07-06T13:19:48Z</time>
      </trkpt>
      <trkpt lat="50.56375" lon="6.27606">
        <ele>527.9</ele>
        <time>2019-07-06T13:19:49Z</time>
      </trkpt>
      <trkpt lat="50.56375" lon="6.27604">
        <ele>527.9</ele>
        <time>2019-07-06T13:19:50Z</time>
      </trkpt>
      <trkpt lat="50.56376" lon="6.27601">
        <ele>527.9</ele>
        <time>2019-07-06T13:19:51Z</time>
      </trkpt>
      <trkpt lat="50.56376" lon="6.27598">
        <ele>527.9</ele>
        <time>2019-07-06T13:19:52Z</time>
      </trkpt>
      <trkpt lat="50.56376" lon="6.27595">
        <ele>527.9</ele>
        <time>2019-07-06T13:19:53Z</time>
      </trkpt>
      <trkpt lat="50.56377" lon="6.27592">
        <ele>527.9</ele>
        <time>2019-07-06T13:19:54Z</time>
      </trkpt>
      <trkpt lat="50.56378" lon="6.27588">
        <ele>529.34</ele>
        <time>2019-07-06T13:19:55Z</time>
      </trkpt>
      <trkpt lat="50.56379" lon="6.27584">
        <ele>529.34</ele>
        <time>2019-07-06T13:19:56Z</time>
      </trkpt>
      <trkpt lat="50.56387" lon="6.27551">
        <ele>531.27</ele>
        <time>2019-07-06T13:20:06Z</time>
      </trkpt>
      <trkpt lat="50.56403" lon="6.27499">
        <ele>533.67</ele>
        <time>2019-07-06T13:20:19Z</time>
      </trkpt>
      <trkpt lat="50.56412" lon="6.27455">
        <ele>535.11</ele>
        <time>2019-07-06T13:20:31Z</time>
      </trkpt>
      <trkpt lat="50.56424" lon="6.27391">
        <ele>536.07</ele>
        <time>2019-07-06T13:20:45Z</time>
      </trkpt>
      <trkpt lat="50.56437" lon="6.27318">
        <ele>537.51</ele>
        <time>2019-07-06T13:20:58Z</time>
      </trkpt>
      <trkpt lat="50.56465" lon="6.27225">
        <ele>539.44</ele>
        <time>2019-07-06T13:21:15Z</time>
      </trkpt>
      <trkpt lat="50.56523" lon="6.27164">
        <ele>541.84</ele>
        <time>2019-07-06T13:21:33Z</time>
      </trkpt>
      <trkpt lat="50.56527" lon="6.27161">
        <ele>541.84</ele>
        <time>2019-07-06T13:21:34Z</time>
      </trkpt>
      <trkpt lat="50.56531" lon="6.27158">
        <ele>541.84</ele>
        <time>2019-07-06T13:21:35Z</time>
      </trkpt>
      <trkpt lat="50.56573" lon="6.27116">
        <ele>540.4</ele>
        <time>2019-07-06T13:21:45Z</time>
      </trkpt>
      <trkpt lat="50.56651" lon="6.2703">
        <ele>538.48</ele>
        <time>2019-07-06T13:22:00Z</time>
      </trkpt>
      <trkpt lat="50.5666" lon="6.27013">
        <ele>538.48</ele>
        <time>2019-07-06T13:22:02Z</time>
      </trkpt>
      <trkpt lat="50.56721" lon="6.26878">
        <ele>535.59</ele>
        <time>2019-07-06T13:22:15Z</time>
      </trkpt>
      <trkpt lat="50.56781" lon="6.2678">
        <ele>534.63</ele>
        <time>2019-07-06T13:22:27Z</time>
      </trkpt>
      <trkpt lat="50.56806" lon="6.26727">
        <ele>533.67</ele>
        <time>2019-07-06T13:22:36Z</time>
      </trkpt>
      <trkpt lat="50.56809" lon="6.26721">
        <ele>533.67</ele>
        <time>2019-07-06T13:22:37Z</time>
      </trkpt>
      <trkpt lat="50.56836" lon="6.26663">
        <ele>533.19</ele>
        <time>2019-07-06T13:22:46Z</time>
      </trkpt>
      <trkpt lat="50.56839" lon="6.26657">
        <ele>533.19</ele>
        <time>2019-07-06T13:22:47Z</time>
      </trkpt>
      <trkpt lat="50.56865" lon="6.26608">
        <ele>533.19</ele>
        <time>2019-07-06T13:22:55Z</time>
      </trkpt>
      <trkpt lat="50.56869" lon="6.26601">
        <ele>533.19</ele>
        <time>2019-07-06T13:22:56Z</time>
      </trkpt>
      <trkpt lat="50.5689" lon="6.2657">
        <ele>533.19</ele>
        <time>2019-07-06T13:23:02Z</time>
      </trkpt>
      <trkpt lat="50.56901" lon="6.26549">
        <ele>533.19</ele>
        <time>2019-07-06T13:23:06Z</time>
      </trkpt>
      <trkpt lat="50.56923" lon="6.2652">
        <ele>533.19</ele>
        <time>2019-07-06T13:23:13Z</time>
      </trkpt>
      <trkpt lat="50.56926" lon="6.26516">
        <ele>533.19</ele>
        <time>2019-07-06T13:23:14Z</time>
      </trkpt>
      <trkpt lat="50.56929" lon="6.26511">
        <ele>533.19</ele>
        <time>2019-07-06T13:23:15Z</time>
      </trkpt>
      <trkpt lat="50.56936" lon="6.265">
        <ele>535.11</ele>
        <time>2019-07-06T13:23:17Z</time>
      </trkpt>
      <trkpt lat="50.56938" lon="6.26496">
        <ele>535.11</ele>
        <time>2019-07-06T13:23:18Z</time>
      </trkpt>
      <trkpt lat="50.56968" lon="6.2644">
        <ele>535.11</ele>
        <time>2019-07-06T13:23:31Z</time>
      </trkpt>
      <trkpt lat="50.56971" lon="6.26439">
        <ele>535.11</ele>
        <time>2019-07-06T13:23:32Z</time>
      </trkpt>
      <trkpt lat="50.56974" lon="6.26439">
        <ele>535.11</ele>
        <time>2019-07-06T13:23:33Z</time>
      </trkpt>
      <trkpt lat="50.57011" lon="6.26449">
        <ele>536.55</ele>
        <time>2019-07-06T13:23:46Z</time>
      </trkpt>
      <trkpt lat="50.57013" lon="6.26446">
        <ele>536.55</ele>
        <time>2019-07-06T13:23:47Z</time>
      </trkpt>
      <trkpt lat="50.57013" lon="6.26443">
        <ele>536.55</ele>
        <time>2019-07-06T13:23:48Z</time>
      </trkpt>
      <trkpt lat="50.57012" lon="6.2644">
        <ele>536.55</ele>
        <time>2019-07-06T13:23:49Z</time>
      </trkpt>
      <trkpt lat="50.57011" lon="6.26436">
        <ele>536.55</ele>
        <time>2019-07-06T13:23:50Z</time>
      </trkpt>
      <trkpt lat="50.57012" lon="6.26432">
        <ele>536.55</ele>
        <time>2019-07-06T13:23:51Z</time>
      </trkpt>
      <trkpt lat="50.57013" lon="6.26428">
        <ele>536.55</ele>
        <time>2019-07-06T13:23:52Z</time>
      </trkpt>
      <trkpt lat="50.57014" lon="6.26423">
        <ele>536.55</ele>
        <time>2019-07-06T13:23:53Z</time>
      </trkpt>
      <trkpt lat="50.57015" lon="6.26419">
        <ele>536.55</ele>
        <time>2019-07-06T13:23:54Z</time>
      </trkpt>
      <trkpt lat="50.57015" lon="6.26415">
        <ele>536.55</ele>
        <time>2019-07-06T13:23:55Z</time>
      </trkpt>
      <trkpt lat="50.57016" lon="6.26412">
        <ele>536.55</ele>
        <time>2019-07-06T13:23:56Z</time>
      </trkpt>
      <trkpt lat="50.57015" lon="6.26407">
        <ele>536.55</ele>
        <time>2019-07-06T13:24:07Z</time>
      </trkpt>
      <trkpt lat="50.57014" lon="6.26404">
        <ele>536.55</ele>
        <time>2019-07-06T13:24:25Z</time>
      </trkpt>
      <trkpt lat="50.57014" lon="6.26404">
        <ele>535.59</ele>
        <time>2019-07-06T13:24:33Z</time>
      </trkpt>
      <trkpt lat="50.57015" lon="6.26405">
        <ele>536.55</ele>
        <time>2019-07-06T13:24:58Z</time>
      </trkpt>
      <trkpt lat="50.57015" lon="6.26406">
        <ele>535.59</ele>
        <time>2019-07-06T13:25:23Z</time>
      </trkpt>
      <trkpt lat="50.57016" lon="6.26405">
        <ele>537.51</ele>
        <time>2019-07-06T13:25:49Z</time>
      </trkpt>
      <trkpt lat="50.57016" lon="6.26404">
        <ele>536.07</ele>
        <time>2019-07-06T13:26:09Z</time>
      </trkpt>
      <trkpt lat="50.57016" lon="6.26402">
        <ele>536.55</ele>
        <time>2019-07-06T13:26:24Z</time>
      </trkpt>
      <trkpt lat="50.57016" lon="6.26399">
        <ele>536.55</ele>
        <time>2019-07-06T13:26:25Z</time>
      </trkpt>
      <trkpt lat="50.57017" lon="6.26396">
        <ele>536.55</ele>
        <time>2019-07-06T13:26:26Z</time>
      </trkpt>
      <trkpt lat="50.57017" lon="6.26394">
        <ele>536.55</ele>
        <time>2019-07-06T13:26:27Z</time>
      </trkpt>
      <trkpt lat="50.57017" lon="6.26391">
        <ele>536.55</ele>
        <time>2019-07-06T13:26:28Z</time>
      </trkpt>
      <trkpt lat="50.57017" lon="6.2639">
        <ele>536.55</ele>
        <time>2019-07-06T13:26:39Z</time>
      </trkpt>
      <trkpt lat="50.57015" lon="6.26375">
        <ele>536.55</ele>
        <time>2019-07-06T13:26:44Z</time>
      </trkpt>
      <trkpt lat="50.57012" lon="6.26371">
        <ele>536.55</ele>
        <time>2019-07-06T13:26:45Z</time>
      </trkpt>
      <trkpt lat="50.56955" lon="6.26318">
        <ele>533.19</ele>
        <time>2019-07-06T13:26:56Z</time>
      </trkpt>
      <trkpt lat="50.56907" lon="6.26272">
        <ele>529.82</ele>
        <time>2019-07-06T13:27:03Z</time>
      </trkpt>
      <trkpt lat="50.56879" lon="6.26246">
        <ele>528.38</ele>
        <time>2019-07-06T13:27:07Z</time>
      </trkpt>
      <trkpt lat="50.5683" lon="6.26184">
        <ele>526.46</ele>
        <time>2019-07-06T13:27:16Z</time>
      </trkpt>
      <trkpt lat="50.56819" lon="6.26164">
        <ele>525.5</ele>
        <time>2019-07-06T13:27:23Z</time>
      </trkpt>
      <trkpt lat="50.56816" lon="6.26163">
        <ele>525.5</ele>
        <time>2019-07-06T13:27:24Z</time>
      </trkpt>
      <trkpt lat="50.56814" lon="6.26165">
        <ele>525.5</ele>
        <time>2019-07-06T13:27:25Z</time>
      </trkpt>
      <trkpt lat="50.56807" lon="6.26169">
        <ele>525.5</ele>
        <time>2019-07-06T13:27:27Z</time>
      </trkpt>
      <trkpt lat="50.56802" lon="6.2617">
        <ele>525.5</ele>
        <time>2019-07-06T13:27:28Z</time>
      </trkpt>
      <trkpt lat="50.56796" lon="6.26168">
        <ele>525.02</ele>
        <time>2019-07-06T13:27:29Z</time>
      </trkpt>
      <trkpt lat="50.5679" lon="6.26165">
        <ele>525.02</ele>
        <time>2019-07-06T13:27:30Z</time>
      </trkpt>
      <trkpt lat="50.56784" lon="6.2616">
        <ele>524.06</ele>
        <time>2019-07-06T13:27:31Z</time>
      </trkpt>
      <trkpt lat="50.56701" lon="6.26083">
        <ele>521.65</ele>
        <time>2019-07-06T13:27:43Z</time>
      </trkpt>
      <trkpt lat="50.5664" lon="6.26023">
        <ele>518.29</ele>
        <time>2019-07-06T13:27:51Z</time>
      </trkpt>
      <trkpt lat="50.56601" lon="6.25988">
        <ele>516.37</ele>
        <time>2019-07-06T13:27:56Z</time>
      </trkpt>
      <trkpt lat="50.56528" lon="6.25918">
        <ele>513</ele>
        <time>2019-07-06T13:28:06Z</time>
      </trkpt>
      <trkpt lat="50.5643" lon="6.25806">
        <ele>510.6</ele>
        <time>2019-07-06T13:28:20Z</time>
      </trkpt>
      <trkpt lat="50.5641" lon="6.25784">
        <ele>509.64</ele>
        <time>2019-07-06T13:28:23Z</time>
      </trkpt>
      <trkpt lat="50.56402" lon="6.25778">
        <ele>509.16</ele>
        <time>2019-07-06T13:28:24Z</time>
      </trkpt>
      <trkpt lat="50.56394" lon="6.25774">
        <ele>509.16</ele>
        <time>2019-07-06T13:28:25Z</time>
      </trkpt>
      <trkpt lat="50.56386" lon="6.25771">
        <ele>508.19</ele>
        <time>2019-07-06T13:28:26Z</time>
      </trkpt>
      <trkpt lat="50.56379" lon="6.25768">
        <ele>508.19</ele>
        <time>2019-07-06T13:28:27Z</time>
      </trkpt>
      <trkpt lat="50.56348" lon="6.25753">
        <ele>508.19</ele>
        <time>2019-07-06T13:28:31Z</time>
      </trkpt>
      <trkpt lat="50.56342" lon="6.25747">
        <ele>507.71</ele>
        <time>2019-07-06T13:28:32Z</time>
      </trkpt>
      <trkpt lat="50.56335" lon="6.25739">
        <ele>507.71</ele>
        <time>2019-07-06T13:28:33Z</time>
      </trkpt>
      <trkpt lat="50.5633" lon="6.2573">
        <ele>507.71</ele>
        <time>2019-07-06T13:28:34Z</time>
      </trkpt>
      <trkpt lat="50.56325" lon="6.25721">
        <ele>507.23</ele>
        <time>2019-07-06T13:28:35Z</time>
      </trkpt>
      <trkpt lat="50.56321" lon="6.2571">
        <ele>507.23</ele>
        <time>2019-07-06T13:28:36Z</time>
      </trkpt>
      <trkpt lat="50.56318" lon="6.25699">
        <ele>507.23</ele>
        <time>2019-07-06T13:28:37Z</time>
      </trkpt>
      <trkpt lat="50.56315" lon="6.25688">
        <ele>507.23</ele>
        <time>2019-07-06T13:28:38Z</time>
      </trkpt>
      <trkpt lat="50.56278" lon="6.25595">
        <ele>503.87</ele>
        <time>2019-07-06T13:28:47Z</time>
      </trkpt>
      <trkpt lat="50.5625" lon="6.25537">
        <ele>500.5</ele>
        <time>2019-07-06T13:28:54Z</time>
      </trkpt>
      <trkpt lat="50.56246" lon="6.25527">
        <ele>500.5</ele>
        <time>2019-07-06T13:28:55Z</time>
      </trkpt>
      <trkpt lat="50.56224" lon="6.25472">
        <ele>497.14</ele>
        <time>2019-07-06T13:29:00Z</time>
      </trkpt>
      <trkpt lat="50.56219" lon="6.2546">
        <ele>497.14</ele>
        <time>2019-07-06T13:29:01Z</time>
      </trkpt>
      <trkpt lat="50.5621" lon="6.25434">
        <ele>495.7</ele>
        <time>2019-07-06T13:29:03Z</time>
      </trkpt>
      <trkpt lat="50.56187" lon="6.25366">
        <ele>492.81</ele>
        <time>2019-07-06T13:29:08Z</time>
      </trkpt>
      <trkpt lat="50.56161" lon="6.25302">
        <ele>488.97</ele>
        <time>2019-07-06T13:29:13Z</time>
      </trkpt>
      <trkpt lat="50.56127" lon="6.25239">
        <ele>485.6</ele>
        <time>2019-07-06T13:29:18Z</time>
      </trkpt>
      <trkpt lat="50.56099" lon="6.25189">
        <ele>482.72</ele>
        <time>2019-07-06T13:29:22Z</time>
      </trkpt>
      <trkpt lat="50.56093" lon="6.25179">
        <ele>482.24</ele>
        <time>2019-07-06T13:29:23Z</time>
      </trkpt>
      <trkpt lat="50.56069" lon="6.25151">
        <ele>480.8</ele>
        <time>2019-07-06T13:29:26Z</time>
      </trkpt>
      <trkpt lat="50.56061" lon="6.25145">
        <ele>479.84</ele>
        <time>2019-07-06T13:29:27Z</time>
      </trkpt>
      <trkpt lat="50.56052" lon="6.25139">
        <ele>479.84</ele>
        <time>2019-07-06T13:29:28Z</time>
      </trkpt>
      <trkpt lat="50.56043" lon="6.25135">
        <ele>478.87</ele>
        <time>2019-07-06T13:29:29Z</time>
      </trkpt>
      <trkpt lat="50.56034" lon="6.25133">
        <ele>478.39</ele>
        <time>2019-07-06T13:29:30Z</time>
      </trkpt>
      <trkpt lat="50.56026" lon="6.25131">
        <ele>478.39</ele>
        <time>2019-07-06T13:29:31Z</time>
      </trkpt>
      <trkpt lat="50.55988" lon="6.25115">
        <ele>475.03</ele>
        <time>2019-07-06T13:29:35Z</time>
      </trkpt>
      <trkpt lat="50.55978" lon="6.25109">
        <ele>474.55</ele>
        <time>2019-07-06T13:29:36Z</time>
      </trkpt>
      <trkpt lat="50.55969" lon="6.25101">
        <ele>473.59</ele>
        <time>2019-07-06T13:29:37Z</time>
      </trkpt>
      <trkpt lat="50.55961" lon="6.25093">
        <ele>472.63</ele>
        <time>2019-07-06T13:29:38Z</time>
      </trkpt>
      <trkpt lat="50.5593" lon="6.25055">
        <ele>468.3</ele>
        <time>2019-07-06T13:29:42Z</time>
      </trkpt>
      <trkpt lat="50.55915" lon="6.25032">
        <ele>466.86</ele>
        <time>2019-07-06T13:29:44Z</time>
      </trkpt>
      <trkpt lat="50.55908" lon="6.25019">
        <ele>465.9</ele>
        <time>2019-07-06T13:29:45Z</time>
      </trkpt>
      <trkpt lat="50.55903" lon="6.25006">
        <ele>465.9</ele>
        <time>2019-07-06T13:29:46Z</time>
      </trkpt>
      <trkpt lat="50.55891" lon="6.24979">
        <ele>463.97</ele>
        <time>2019-07-06T13:29:48Z</time>
      </trkpt>
      <trkpt lat="50.55883" lon="6.24968">
        <ele>463.01</ele>
        <time>2019-07-06T13:29:49Z</time>
      </trkpt>
      <trkpt lat="50.55866" lon="6.24949">
        <ele>461.57</ele>
        <time>2019-07-06T13:29:51Z</time>
      </trkpt>
      <trkpt lat="50.55857" lon="6.24943">
        <ele>460.61</ele>
        <time>2019-07-06T13:29:52Z</time>
      </trkpt>
      <trkpt lat="50.55847" lon="6.24939">
        <ele>459.65</ele>
        <time>2019-07-06T13:29:53Z</time>
      </trkpt>
      <trkpt lat="50.55836" lon="6.24939">
        <ele>459.65</ele>
        <time>2019-07-06T13:29:54Z</time>
      </trkpt>
      <trkpt lat="50.55824" lon="6.24941">
        <ele>459.17</ele>
        <time>2019-07-06T13:29:55Z</time>
      </trkpt>
      <trkpt lat="50.55815" lon="6.24945">
        <ele>457.72</ele>
        <time>2019-07-06T13:29:56Z</time>
      </trkpt>
      <trkpt lat="50.55786" lon="6.24956">
        <ele>455.32</ele>
        <time>2019-07-06T13:29:59Z</time>
      </trkpt>
      <trkpt lat="50.55777" lon="6.24954">
        <ele>454.36</ele>
        <time>2019-07-06T13:30:00Z</time>
      </trkpt>
      <trkpt lat="50.55768" lon="6.24945">
        <ele>453.88</ele>
        <time>2019-07-06T13:30:01Z</time>
      </trkpt>
      <trkpt lat="50.55763" lon="6.24938">
        <ele>453.88</ele>
        <time>2019-07-06T13:30:02Z</time>
      </trkpt>
      <trkpt lat="50.55757" lon="6.24928">
        <ele>452.92</ele>
        <time>2019-07-06T13:30:03Z</time>
      </trkpt>
      <trkpt lat="50.55734" lon="6.24897">
        <ele>450.03</ele>
        <time>2019-07-06T13:30:06Z</time>
      </trkpt>
      <trkpt lat="50.55699" lon="6.24862">
        <ele>444.75</ele>
        <time>2019-07-06T13:30:10Z</time>
      </trkpt>
      <trkpt lat="50.55673" lon="6.24833">
        <ele>440.42</ele>
        <time>2019-07-06T13:30:13Z</time>
      </trkpt>
      <trkpt lat="50.55652" lon="6.24807">
        <ele>436.58</ele>
        <time>2019-07-06T13:30:16Z</time>
      </trkpt>
      <trkpt lat="50.55637" lon="6.24793">
        <ele>434.65</ele>
        <time>2019-07-06T13:30:18Z</time>
      </trkpt>
      <trkpt lat="50.5563" lon="6.24788">
        <ele>433.21</ele>
        <time>2019-07-06T13:30:19Z</time>
      </trkpt>
      <trkpt lat="50.55622" lon="6.24784">
        <ele>431.77</ele>
        <time>2019-07-06T13:30:20Z</time>
      </trkpt>
      <trkpt lat="50.55599" lon="6.24777">
        <ele>428.4</ele>
        <time>2019-07-06T13:30:23Z</time>
      </trkpt>
      <trkpt lat="50.55582" lon="6.24776">
        <ele>426.48</ele>
        <time>2019-07-06T13:30:25Z</time>
      </trkpt>
      <trkpt lat="50.55555" lon="6.2478">
        <ele>422.64</ele>
        <time>2019-07-06T13:30:28Z</time>
      </trkpt>
      <trkpt lat="50.5554" lon="6.24782">
        <ele>421.19</ele>
        <time>2019-07-06T13:30:30Z</time>
      </trkpt>
      <trkpt lat="50.55534" lon="6.24781">
        <ele>420.23</ele>
        <time>2019-07-06T13:30:31Z</time>
      </trkpt>
      <trkpt lat="50.55527" lon="6.24777">
        <ele>419.27</ele>
        <time>2019-07-06T13:30:32Z</time>
      </trkpt>
      <trkpt lat="50.55521" lon="6.2477">
        <ele>418.79</ele>
        <time>2019-07-06T13:30:33Z</time>
      </trkpt>
      <trkpt lat="50.55516" lon="6.24763">
        <ele>417.83</ele>
        <time>2019-07-06T13:30:34Z</time>
      </trkpt>
      <trkpt lat="50.5551" lon="6.24755">
        <ele>417.35</ele>
        <time>2019-07-06T13:30:35Z</time>
      </trkpt>
      <trkpt lat="50.55505" lon="6.24746">
        <ele>417.35</ele>
        <time>2019-07-06T13:30:36Z</time>
      </trkpt>
      <trkpt lat="50.555" lon="6.24736">
        <ele>416.39</ele>
        <time>2019-07-06T13:30:37Z</time>
      </trkpt>
      <trkpt lat="50.55493" lon="6.2472">
        <ele>415.91</ele>
        <time>2019-07-06T13:30:39Z</time>
      </trkpt>
      <trkpt lat="50.55487" lon="6.24704">
        <ele>414.95</ele>
        <time>2019-07-06T13:30:41Z</time>
      </trkpt>
      <trkpt lat="50.55479" lon="6.24671">
        <ele>414.95</ele>
        <time>2019-07-06T13:30:45Z</time>
      </trkpt>
      <trkpt lat="50.55479" lon="6.24663">
        <ele>414.47</ele>
        <time>2019-07-06T13:30:46Z</time>
      </trkpt>
      <trkpt lat="50.55479" lon="6.24656">
        <ele>413.98</ele>
        <time>2019-07-06T13:30:47Z</time>
      </trkpt>
      <trkpt lat="50.55479" lon="6.24648">
        <ele>413.02</ele>
        <time>2019-07-06T13:30:48Z</time>
      </trkpt>
      <trkpt lat="50.55481" lon="6.24639">
        <ele>413.02</ele>
        <time>2019-07-06T13:30:49Z</time>
      </trkpt>
      <trkpt lat="50.55492" lon="6.24582">
        <ele>409.66</ele>
        <time>2019-07-06T13:30:55Z</time>
      </trkpt>
      <trkpt lat="50.55499" lon="6.24544">
        <ele>407.74</ele>
        <time>2019-07-06T13:30:59Z</time>
      </trkpt>
      <trkpt lat="50.55502" lon="6.24525">
        <ele>406.29</ele>
        <time>2019-07-06T13:31:01Z</time>
      </trkpt>
      <trkpt lat="50.55504" lon="6.24516">
        <ele>405.81</ele>
        <time>2019-07-06T13:31:02Z</time>
      </trkpt>
      <trkpt lat="50.55513" lon="6.24471">
        <ele>403.89</ele>
        <time>2019-07-06T13:31:07Z</time>
      </trkpt>
      <trkpt lat="50.55515" lon="6.24462">
        <ele>403.41</ele>
        <time>2019-07-06T13:31:08Z</time>
      </trkpt>
      <trkpt lat="50.55538" lon="6.24387">
        <ele>402.93</ele>
        <time>2019-07-06T13:31:20Z</time>
      </trkpt>
      <trkpt lat="50.55547" lon="6.2435">
        <ele>402.45</ele>
        <time>2019-07-06T13:31:30Z</time>
      </trkpt>
      <trkpt lat="50.55557" lon="6.24312">
        <ele>402.45</ele>
        <time>2019-07-06T13:31:42Z</time>
      </trkpt>
      <trkpt lat="50.55558" lon="6.2431">
        <ele>403.41</ele>
        <time>2019-07-06T13:31:43Z</time>
      </trkpt>
      <trkpt lat="50.55558" lon="6.24307">
        <ele>403.41</ele>
        <time>2019-07-06T13:31:44Z</time>
      </trkpt>
      <trkpt lat="50.55557" lon="6.24247">
        <ele>404.37</ele>
        <time>2019-07-06T13:31:56Z</time>
      </trkpt>
      <trkpt lat="50.5555" lon="6.24202">
        <ele>405.33</ele>
        <time>2019-07-06T13:32:07Z</time>
      </trkpt>
      <trkpt lat="50.55548" lon="6.24199">
        <ele>405.33</ele>
        <time>2019-07-06T13:32:08Z</time>
      </trkpt>
      <trkpt lat="50.55547" lon="6.24199">
        <ele>404.85</ele>
        <time>2019-07-06T13:32:09Z</time>
      </trkpt>
      <trkpt lat="50.55545" lon="6.24198">
        <ele>404.85</ele>
        <time>2019-07-06T13:32:10Z</time>
      </trkpt>
      <trkpt lat="50.55544" lon="6.24198">
        <ele>404.85</ele>
        <time>2019-07-06T13:32:11Z</time>
      </trkpt>
      <trkpt lat="50.55538" lon="6.24198">
        <ele>404.85</ele>
        <time>2019-07-06T13:32:24Z</time>
      </trkpt>
      <trkpt lat="50.55536" lon="6.24199">
        <ele>404.85</ele>
        <time>2019-07-06T13:32:40Z</time>
      </trkpt>
      <trkpt lat="50.55534" lon="6.24198">
        <ele>404.85</ele>
        <time>2019-07-06T13:33:10Z</time>
      </trkpt>
      <trkpt lat="50.55533" lon="6.24197">
        <ele>404.85</ele>
        <time>2019-07-06T13:33:22Z</time>
      </trkpt>
      <trkpt lat="50.55531" lon="6.24198">
        <ele>404.85</ele>
        <time>2019-07-06T13:33:38Z</time>
      </trkpt>
      <trkpt lat="50.55532" lon="6.24197">
        <ele>404.85</ele>
        <time>2019-07-06T13:33:51Z</time>
      </trkpt>
      <trkpt lat="50.55531" lon="6.24199">
        <ele>404.85</ele>
        <time>2019-07-06T13:34:10Z</time>
      </trkpt>
      <trkpt lat="50.5553" lon="6.242">
        <ele>404.85</ele>
        <time>2019-07-06T13:34:16Z</time>
      </trkpt>
      <trkpt lat="50.55528" lon="6.24201">
        <ele>404.85</ele>
        <time>2019-07-06T13:34:17Z</time>
      </trkpt>
      <trkpt lat="50.55526" lon="6.24202">
        <ele>404.85</ele>
        <time>2019-07-06T13:34:18Z</time>
      </trkpt>
      <trkpt lat="50.55524" lon="6.24203">
        <ele>404.85</ele>
        <time>2019-07-06T13:34:19Z</time>
      </trkpt>
      <trkpt lat="50.55521" lon="6.24204">
        <ele>404.85</ele>
        <time>2019-07-06T13:34:20Z</time>
      </trkpt>
      <trkpt lat="50.55513" lon="6.24201">
        <ele>403.89</ele>
        <time>2019-07-06T13:34:23Z</time>
      </trkpt>
      <trkpt lat="50.55511" lon="6.24196">
        <ele>403.89</ele>
        <time>2019-07-06T13:34:24Z</time>
      </trkpt>
      <trkpt lat="50.55485" lon="6.24164">
        <ele>403.89</ele>
        <time>2019-07-06T13:34:34Z</time>
      </trkpt>
      <trkpt lat="50.55479" lon="6.24157">
        <ele>405.33</ele>
        <time>2019-07-06T13:34:37Z</time>
      </trkpt>
      <trkpt lat="50.55462" lon="6.24151">
        <ele>405.33</ele>
        <time>2019-07-06T13:34:49Z</time>
      </trkpt>
      <trkpt lat="50.55462" lon="6.24149">
        <ele>405.33</ele>
        <time>2019-07-06T13:35:07Z</time>
      </trkpt>
      <trkpt lat="50.55459" lon="6.2415">
        <ele>405.33</ele>
        <time>2019-07-06T13:35:22Z</time>
      </trkpt>
      <trkpt lat="50.55457" lon="6.24149">
        <ele>405.33</ele>
        <time>2019-07-06T13:35:38Z</time>
      </trkpt>
      <trkpt lat="50.55456" lon="6.24148">
        <ele>405.33</ele>
        <time>2019-07-06T13:35:41Z</time>
      </trkpt>
      <trkpt lat="50.55457" lon="6.24144">
        <ele>405.33</ele>
        <time>2019-07-06T13:35:43Z</time>
      </trkpt>
      <trkpt lat="50.55459" lon="6.24142">
        <ele>405.81</ele>
        <time>2019-07-06T13:35:45Z</time>
      </trkpt>
      <trkpt lat="50.55463" lon="6.2414">
        <ele>406.29</ele>
        <time>2019-07-06T13:35:57Z</time>
      </trkpt>
      <trkpt lat="50.55464" lon="6.2414">
        <ele>406.29</ele>
        <time>2019-07-06T13:36:11Z</time>
      </trkpt>
      <trkpt lat="50.55464" lon="6.24137">
        <ele>406.29</ele>
        <time>2019-07-06T13:36:45Z</time>
      </trkpt>
      <trkpt lat="50.55463" lon="6.24133">
        <ele>405.81</ele>
        <time>2019-07-06T13:37:26Z</time>
      </trkpt>
      <trkpt lat="50.55463" lon="6.24133">
        <ele>405.81</ele>
        <time>2019-07-06T13:38:00Z</time>
      </trkpt>
      <trkpt lat="50.55467" lon="6.24136">
        <ele>404.85</ele>
        <time>2019-07-06T13:38:43Z</time>
      </trkpt>
      <trkpt lat="50.55468" lon="6.24135">
        <ele>406.29</ele>
        <time>2019-07-06T13:38:55Z</time>
      </trkpt>
      <trkpt lat="50.55464" lon="6.24141">
        <ele>406.29</ele>
        <time>2019-07-06T13:39:31Z</time>
      </trkpt>
      <trkpt lat="50.55463" lon="6.24136">
        <ele>405.33</ele>
        <time>2019-07-06T13:40:03Z</time>
      </trkpt>
      <trkpt lat="50.55459" lon="6.24136">
        <ele>404.37</ele>
        <time>2019-07-06T13:40:41Z</time>
      </trkpt>
      <trkpt lat="50.55462" lon="6.24142">
        <ele>405.33</ele>
        <time>2019-07-06T13:40:59Z</time>
      </trkpt>
      <trkpt lat="50.55461" lon="6.24144">
        <ele>405.81</ele>
        <time>2019-07-06T13:41:35Z</time>
      </trkpt>
      <trkpt lat="50.5546" lon="6.24135">
        <ele>405.81</ele>
        <time>2019-07-06T13:42:08Z</time>
      </trkpt>
      <trkpt lat="50.55463" lon="6.24139">
        <ele>404.85</ele>
        <time>2019-07-06T13:42:45Z</time>
      </trkpt>
      <trkpt lat="50.55464" lon="6.24138">
        <ele>404.37</ele>
        <time>2019-07-06T13:43:12Z</time>
      </trkpt>
      <trkpt lat="50.55461" lon="6.24133">
        <ele>404.85</ele>
        <time>2019-07-06T13:43:52Z</time>
      </trkpt>
      <trkpt lat="50.55464" lon="6.24137">
        <ele>404.85</ele>
        <time>2019-07-06T13:44:28Z</time>
      </trkpt>
      <trkpt lat="50.55463" lon="6.24141">
        <ele>406.29</ele>
        <time>2019-07-06T13:45:07Z</time>
      </trkpt>
      <trkpt lat="50.55466" lon="6.2414">
        <ele>406.29</ele>
        <time>2019-07-06T13:45:50Z</time>
      </trkpt>
      <trkpt lat="50.55466" lon="6.24134">
        <ele>406.29</ele>
        <time>2019-07-06T13:46:25Z</time>
      </trkpt>
      <trkpt lat="50.55464" lon="6.24132">
        <ele>406.29</ele>
        <time>2019-07-06T13:46:55Z</time>
      </trkpt>
      <trkpt lat="50.55461" lon="6.2413">
        <ele>406.29</ele>
        <time>2019-07-06T13:47:26Z</time>
      </trkpt>
      <trkpt lat="50.55462" lon="6.24132">
        <ele>406.77</ele>
        <time>2019-07-06T13:48:02Z</time>
      </trkpt>
      <trkpt lat="50.55461" lon="6.24138">
        <ele>406.77</ele>
        <time>2019-07-06T13:48:32Z</time>
      </trkpt>
      <trkpt lat="50.55463" lon="6.24139">
        <ele>406.77</ele>
        <time>2019-07-06T13:49:17Z</time>
      </trkpt>
      <trkpt lat="50.55463" lon="6.24133">
        <ele>406.77</ele>
        <time>2019-07-06T13:49:55Z</time>
      </trkpt>
      <trkpt lat="50.55462" lon="6.24131">
        <ele>406.77</ele>
        <time>2019-07-06T13:50:30Z</time>
      </trkpt>
      <trkpt lat="50.55463" lon="6.24136">
        <ele>407.26</ele>
        <time>2019-07-06T13:51:07Z</time>
      </trkpt>
      <trkpt lat="50.55464" lon="6.24133">
        <ele>407.74</ele>
        <time>2019-07-06T13:51:46Z</time>
      </trkpt>
      <trkpt lat="50.55462" lon="6.24133">
        <ele>407.74</ele>
        <time>2019-07-06T13:52:18Z</time>
      </trkpt>
      <trkpt lat="50.55462" lon="6.2413">
        <ele>407.74</ele>
        <time>2019-07-06T13:53:08Z</time>
      </trkpt>
      <trkpt lat="50.55462" lon="6.24137">
        <ele>407.74</ele>
        <time>2019-07-06T13:53:40Z</time>
      </trkpt>
      <trkpt lat="50.5546" lon="6.24135">
        <ele>407.74</ele>
        <time>2019-07-06T13:54:06Z</time>
      </trkpt>
      <trkpt lat="50.55461" lon="6.24136">
        <ele>407.74</ele>
        <time>2019-07-06T13:54:29Z</time>
      </trkpt>
      <trkpt lat="50.55463" lon="6.24135">
        <ele>407.74</ele>
        <time>2019-07-06T13:54:50Z</time>
      </trkpt>
      <trkpt lat="50.55464" lon="6.24133">
        <ele>407.74</ele>
        <time>2019-07-06T13:55:20Z</time>
      </trkpt>
      <trkpt lat="50.55465" lon="6.24136">
        <ele>407.74</ele>
        <time>2019-07-06T13:56:04Z</time>
      </trkpt>
      <trkpt lat="50.55466" lon="6.24136">
        <ele>406.29</ele>
        <time>2019-07-06T13:56:45Z</time>
      </trkpt>
      <trkpt lat="50.55466" lon="6.24141">
        <ele>406.29</ele>
        <time>2019-07-06T13:57:30Z</time>
      </trkpt>
      <trkpt lat="50.55465" lon="6.24135">
        <ele>405.81</ele>
        <time>2019-07-06T13:58:11Z</time>
      </trkpt>
      <trkpt lat="50.55465" lon="6.24135">
        <ele>405.81</ele>
        <time>2019-07-06T13:58:51Z</time>
      </trkpt>
      <trkpt lat="50.55466" lon="6.24129">
        <ele>405.81</ele>
        <time>2019-07-06T13:59:18Z</time>
      </trkpt>
      <trkpt lat="50.5546" lon="6.24137">
        <ele>406.77</ele>
        <time>2019-07-06T14:00:01Z</time>
      </trkpt>
      <trkpt lat="50.55463" lon="6.24133">
        <ele>406.77</ele>
        <time>2019-07-06T14:00:39Z</time>
      </trkpt>
      <trkpt lat="50.55466" lon="6.24133">
        <ele>406.29</ele>
        <time>2019-07-06T14:01:11Z</time>
      </trkpt>
      <trkpt lat="50.55461" lon="6.24129">
        <ele>406.77</ele>
        <time>2019-07-06T14:01:44Z</time>
      </trkpt>
      <trkpt lat="50.55464" lon="6.24134">
        <ele>407.26</ele>
        <time>2019-07-06T14:02:12Z</time>
      </trkpt>
      <trkpt lat="50.55462" lon="6.24132">
        <ele>407.26</ele>
        <time>2019-07-06T14:02:48Z</time>
      </trkpt>
      <trkpt lat="50.55465" lon="6.24133">
        <ele>407.26</ele>
        <time>2019-07-06T14:03:19Z</time>
      </trkpt>
      <trkpt lat="50.55467" lon="6.24138">
        <ele>407.26</ele>
        <time>2019-07-06T14:03:57Z</time>
      </trkpt>
      <trkpt lat="50.55467" lon="6.24144">
        <ele>406.77</ele>
        <time>2019-07-06T14:04:32Z</time>
      </trkpt>
      <trkpt lat="50.55465" lon="6.24146">
        <ele>406.77</ele>
        <time>2019-07-06T14:05:13Z</time>
      </trkpt>
      <trkpt lat="50.55461" lon="6.24144">
        <ele>407.26</ele>
        <time>2019-07-06T14:05:59Z</time>
      </trkpt>
      <trkpt lat="50.55462" lon="6.24141">
        <ele>407.26</ele>
        <time>2019-07-06T14:06:34Z</time>
      </trkpt>
      <trkpt lat="50.55462" lon="6.24141">
        <ele>407.26</ele>
        <time>2019-07-06T14:07:03Z</time>
      </trkpt>
      <trkpt lat="50.55462" lon="6.24145">
        <ele>407.26</ele>
        <time>2019-07-06T14:07:41Z</time>
      </trkpt>
      <trkpt lat="50.55463" lon="6.24142">
        <ele>407.26</ele>
        <time>2019-07-06T14:08:21Z</time>
      </trkpt>
      <trkpt lat="50.55464" lon="6.24132">
        <ele>407.74</ele>
        <time>2019-07-06T14:09:01Z</time>
      </trkpt>
      <trkpt lat="50.55465" lon="6.24137">
        <ele>407.74</ele>
        <time>2019-07-06T14:09:30Z</time>
      </trkpt>
      <trkpt lat="50.55464" lon="6.2414">
        <ele>407.74</ele>
        <time>2019-07-06T14:09:58Z</time>
      </trkpt>
      <trkpt lat="50.55461" lon="6.24142">
        <ele>407.74</ele>
        <time>2019-07-06T14:10:27Z</time>
      </trkpt>
      <trkpt lat="50.55463" lon="6.24142">
        <ele>407.74</ele>
        <time>2019-07-06T14:10:54Z</time>
      </trkpt>
      <trkpt lat="50.55463" lon="6.24141">
        <ele>407.74</ele>
        <time>2019-07-06T14:11:20Z</time>
      </trkpt>
      <trkpt lat="50.55463" lon="6.24141">
        <ele>407.74</ele>
        <time>2019-07-06T14:11:56Z</time>
      </trkpt>
      <trkpt lat="50.55462" lon="6.24142">
        <ele>407.74</ele>
        <time>2019-07-06T14:12:22Z</time>
      </trkpt>
      <trkpt lat="50.5546" lon="6.24147">
        <ele>407.74</ele>
        <time>2019-07-06T14:12:36Z</time>
      </trkpt>
      <trkpt lat="50.55458" lon="6.24147">
        <ele>407.74</ele>
        <time>2019-07-06T14:12:47Z</time>
      </trkpt>
      <trkpt lat="50.55458" lon="6.24144">
        <ele>407.74</ele>
        <time>2019-07-06T14:13:06Z</time>
      </trkpt>
      <trkpt lat="50.55459" lon="6.24144">
        <ele>407.74</ele>
        <time>2019-07-06T14:13:24Z</time>
      </trkpt>
      <trkpt lat="50.55458" lon="6.24145">
        <ele>407.74</ele>
        <time>2019-07-06T14:13:45Z</time>
      </trkpt>
      <trkpt lat="50.55458" lon="6.24147">
        <ele>407.74</ele>
        <time>2019-07-06T14:14:02Z</time>
      </trkpt>
      <trkpt lat="50.55456" lon="6.24148">
        <ele>407.74</ele>
        <time>2019-07-06T14:14:20Z</time>
      </trkpt>
      <trkpt lat="50.55455" lon="6.2415">
        <ele>407.74</ele>
        <time>2019-07-06T14:14:44Z</time>
      </trkpt>
      <trkpt lat="50.55454" lon="6.24149">
        <ele>407.74</ele>
        <time>2019-07-06T14:15:05Z</time>
      </trkpt>
      <trkpt lat="50.55456" lon="6.24152">
        <ele>407.74</ele>
        <time>2019-07-06T14:15:30Z</time>
      </trkpt>
      <trkpt lat="50.55457" lon="6.24151">
        <ele>407.74</ele>
        <time>2019-07-06T14:15:45Z</time>
      </trkpt>
      <trkpt lat="50.55456" lon="6.24149">
        <ele>407.74</ele>
        <time>2019-07-06T14:16:07Z</time>
      </trkpt>
      <trkpt lat="50.55455" lon="6.2415">
        <ele>407.74</ele>
        <time>2019-07-06T14:16:27Z</time>
      </trkpt>
      <trkpt lat="50.55455" lon="6.24149">
        <ele>406.29</ele>
        <time>2019-07-06T14:16:31Z</time>
      </trkpt>
      <trkpt lat="50.55455" lon="6.24148">
        <ele>406.29</ele>
        <time>2019-07-06T14:16:50Z</time>
      </trkpt>
      <trkpt lat="50.55454" lon="6.24148">
        <ele>406.29</ele>
        <time>2019-07-06T14:17:18Z</time>
      </trkpt>
      <trkpt lat="50.55452" lon="6.2415">
        <ele>406.29</ele>
        <time>2019-07-06T14:17:22Z</time>
      </trkpt>
      <trkpt lat="50.5545" lon="6.2415">
        <ele>406.29</ele>
        <time>2019-07-06T14:17:23Z</time>
      </trkpt>
      <trkpt lat="50.55448" lon="6.2415">
        <ele>406.29</ele>
        <time>2019-07-06T14:17:24Z</time>
      </trkpt>
      <trkpt lat="50.55447" lon="6.24149">
        <ele>406.77</ele>
        <time>2019-07-06T14:17:25Z</time>
      </trkpt>
      <trkpt lat="50.55445" lon="6.24148">
        <ele>406.29</ele>
        <time>2019-07-06T14:17:26Z</time>
      </trkpt>
      <trkpt lat="50.55444" lon="6.24146">
        <ele>406.29</ele>
        <time>2019-07-06T14:17:27Z</time>
      </trkpt>
      <trkpt lat="50.55442" lon="6.24144">
        <ele>407.74</ele>
        <time>2019-07-06T14:17:28Z</time>
      </trkpt>
      <trkpt lat="50.55421" lon="6.2412">
        <ele>408.22</ele>
        <time>2019-07-06T14:17:40Z</time>
      </trkpt>
      <trkpt lat="50.55414" lon="6.24116">
        <ele>408.22</ele>
        <time>2019-07-06T14:17:43Z</time>
      </trkpt>
      <trkpt lat="50.5538" lon="6.24135">
        <ele>408.22</ele>
        <time>2019-07-06T14:17:55Z</time>
      </trkpt>
      <trkpt lat="50.55349" lon="6.2416">
        <ele>408.22</ele>
        <time>2019-07-06T14:18:06Z</time>
      </trkpt>
      <trkpt lat="50.55347" lon="6.24163">
        <ele>408.22</ele>
        <time>2019-07-06T14:18:07Z</time>
      </trkpt>
      <trkpt lat="50.55332" lon="6.24168">
        <ele>408.22</ele>
        <time>2019-07-06T14:18:14Z</time>
      </trkpt>
      <trkpt lat="50.55308" lon="6.24178">
        <ele>408.7</ele>
        <time>2019-07-06T14:18:24Z</time>
      </trkpt>
      <trkpt lat="50.55296" lon="6.24183">
        <ele>408.7</ele>
        <time>2019-07-06T14:18:29Z</time>
      </trkpt>
      <trkpt lat="50.55295" lon="6.24182">
        <ele>408.7</ele>
        <time>2019-07-06T14:18:30Z</time>
      </trkpt>
      <trkpt lat="50.55293" lon="6.24181">
        <ele>408.7</ele>
        <time>2019-07-06T14:18:31Z</time>
      </trkpt>
      <trkpt lat="50.5529" lon="6.24183">
        <ele>408.7</ele>
        <time>2019-07-06T14:18:32Z</time>
      </trkpt>
      <trkpt lat="50.55264" lon="6.24184">
        <ele>408.7</ele>
        <time>2019-07-06T14:18:43Z</time>
      </trkpt>
      <trkpt lat="50.55254" lon="6.24178">
        <ele>408.7</ele>
        <time>2019-07-06T14:18:49Z</time>
      </trkpt>
      <trkpt lat="50.55253" lon="6.24177">
        <ele>408.7</ele>
        <time>2019-07-06T14:18:50Z</time>
      </trkpt>
      <trkpt lat="50.55252" lon="6.24175">
        <ele>408.7</ele>
        <time>2019-07-06T14:18:51Z</time>
      </trkpt>
      <trkpt lat="50.5525" lon="6.24173">
        <ele>408.7</ele>
        <time>2019-07-06T14:18:52Z</time>
      </trkpt>
      <trkpt lat="50.55247" lon="6.24169">
        <ele>408.7</ele>
        <time>2019-07-06T14:18:53Z</time>
      </trkpt>
      <trkpt lat="50.55224" lon="6.24137">
        <ele>409.66</ele>
        <time>2019-07-06T14:19:02Z</time>
      </trkpt>
      <trkpt lat="50.55218" lon="6.24089">
        <ele>410.14</ele>
        <time>2019-07-06T14:19:10Z</time>
      </trkpt>
      <trkpt lat="50.55217" lon="6.24082">
        <ele>410.14</ele>
        <time>2019-07-06T14:19:11Z</time>
      </trkpt>
      <trkpt lat="50.55217" lon="6.24075">
        <ele>410.14</ele>
        <time>2019-07-06T14:19:12Z</time>
      </trkpt>
      <trkpt lat="50.55216" lon="6.24069">
        <ele>410.14</ele>
        <time>2019-07-06T14:19:13Z</time>
      </trkpt>
      <trkpt lat="50.55216" lon="6.24048">
        <ele>410.14</ele>
        <time>2019-07-06T14:19:16Z</time>
      </trkpt>
      <trkpt lat="50.55217" lon="6.24033">
        <ele>410.62</ele>
        <time>2019-07-06T14:19:18Z</time>
      </trkpt>
      <trkpt lat="50.55217" lon="6.24027">
        <ele>410.62</ele>
        <time>2019-07-06T14:19:19Z</time>
      </trkpt>
      <trkpt lat="50.55218" lon="6.24003">
        <ele>411.1</ele>
        <time>2019-07-06T14:19:22Z</time>
      </trkpt>
      <trkpt lat="50.55218" lon="6.23995">
        <ele>411.1</ele>
        <time>2019-07-06T14:19:23Z</time>
      </trkpt>
      <trkpt lat="50.55219" lon="6.23987">
        <ele>411.1</ele>
        <time>2019-07-06T14:19:24Z</time>
      </trkpt>
      <trkpt lat="50.55221" lon="6.23974">
        <ele>411.1</ele>
        <time>2019-07-06T14:19:26Z</time>
      </trkpt>
      <trkpt lat="50.55222" lon="6.23967">
        <ele>411.58</ele>
        <time>2019-07-06T14:19:27Z</time>
      </trkpt>
      <trkpt lat="50.55224" lon="6.23954">
        <ele>411.58</ele>
        <time>2019-07-06T14:19:29Z</time>
      </trkpt>
      <trkpt lat="50.55226" lon="6.23946">
        <ele>412.54</ele>
        <time>2019-07-06T14:19:30Z</time>
      </trkpt>
      <trkpt lat="50.55245" lon="6.23916">
        <ele>412.54</ele>
        <time>2019-07-06T14:19:37Z</time>
      </trkpt>
      <trkpt lat="50.55249" lon="6.23913">
        <ele>412.54</ele>
        <time>2019-07-06T14:19:38Z</time>
      </trkpt>
      <trkpt lat="50.55294" lon="6.23881">
        <ele>413.5</ele>
        <time>2019-07-06T14:19:50Z</time>
      </trkpt>
      <trkpt lat="50.55305" lon="6.23878">
        <ele>412.06</ele>
        <time>2019-07-06T14:19:53Z</time>
      </trkpt>
      <trkpt lat="50.55319" lon="6.23866">
        <ele>412.06</ele>
        <time>2019-07-06T14:19:57Z</time>
      </trkpt>
      <trkpt lat="50.55329" lon="6.23852">
        <ele>412.06</ele>
        <time>2019-07-06T14:20:00Z</time>
      </trkpt>
      <trkpt lat="50.55339" lon="6.23827">
        <ele>411.58</ele>
        <time>2019-07-06T14:20:04Z</time>
      </trkpt>
      <trkpt lat="50.55341" lon="6.2382">
        <ele>411.58</ele>
        <time>2019-07-06T14:20:05Z</time>
      </trkpt>
      <trkpt lat="50.55342" lon="6.23813">
        <ele>411.58</ele>
        <time>2019-07-06T14:20:06Z</time>
      </trkpt>
      <trkpt lat="50.55359" lon="6.23719">
        <ele>414.47</ele>
        <time>2019-07-06T14:20:19Z</time>
      </trkpt>
      <trkpt lat="50.55362" lon="6.23705">
        <ele>414.95</ele>
        <time>2019-07-06T14:20:21Z</time>
      </trkpt>
      <trkpt lat="50.5537" lon="6.23618">
        <ele>414.95</ele>
        <time>2019-07-06T14:20:33Z</time>
      </trkpt>
      <trkpt lat="50.55368" lon="6.23602">
        <ele>415.43</ele>
        <time>2019-07-06T14:20:35Z</time>
      </trkpt>
      <trkpt lat="50.5536" lon="6.23579">
        <ele>415.43</ele>
        <time>2019-07-06T14:20:38Z</time>
      </trkpt>
      <trkpt lat="50.55346" lon="6.23547">
        <ele>415.91</ele>
        <time>2019-07-06T14:20:43Z</time>
      </trkpt>
      <trkpt lat="50.55342" lon="6.23542">
        <ele>415.91</ele>
        <time>2019-07-06T14:20:44Z</time>
      </trkpt>
      <trkpt lat="50.55324" lon="6.23516">
        <ele>416.39</ele>
        <time>2019-07-06T14:20:49Z</time>
      </trkpt>
      <trkpt lat="50.55314" lon="6.23503">
        <ele>416.39</ele>
        <time>2019-07-06T14:20:52Z</time>
      </trkpt>
      <trkpt lat="50.5531" lon="6.23498">
        <ele>416.39</ele>
        <time>2019-07-06T14:20:53Z</time>
      </trkpt>
      <trkpt lat="50.55307" lon="6.23494">
        <ele>417.35</ele>
        <time>2019-07-06T14:20:54Z</time>
      </trkpt>
      <trkpt lat="50.55233" lon="6.23437">
        <ele>418.79</ele>
        <time>2019-07-06T14:21:11Z</time>
      </trkpt>
      <trkpt lat="50.55224" lon="6.23432">
        <ele>419.27</ele>
        <time>2019-07-06T14:21:13Z</time>
      </trkpt>
      <trkpt lat="50.5522" lon="6.23429">
        <ele>419.27</ele>
        <time>2019-07-06T14:21:14Z</time>
      </trkpt>
      <trkpt lat="50.55192" lon="6.23415">
        <ele>419.75</ele>
        <time>2019-07-06T14:21:20Z</time>
      </trkpt>
      <trkpt lat="50.55188" lon="6.23412">
        <ele>419.75</ele>
        <time>2019-07-06T14:21:21Z</time>
      </trkpt>
      <trkpt lat="50.55182" lon="6.23409">
        <ele>419.75</ele>
        <time>2019-07-06T14:21:22Z</time>
      </trkpt>
      <trkpt lat="50.55179" lon="6.23407">
        <ele>419.75</ele>
        <time>2019-07-06T14:21:23Z</time>
      </trkpt>
      <trkpt lat="50.55174" lon="6.23405">
        <ele>420.23</ele>
        <time>2019-07-06T14:21:24Z</time>
      </trkpt>
      <trkpt lat="50.55114" lon="6.23364">
        <ele>421.19</ele>
        <time>2019-07-06T14:21:39Z</time>
      </trkpt>
      <trkpt lat="50.55112" lon="6.23356">
        <ele>422.16</ele>
        <time>2019-07-06T14:21:40Z</time>
      </trkpt>
      <trkpt lat="50.55112" lon="6.2335">
        <ele>422.16</ele>
        <time>2019-07-06T14:21:41Z</time>
      </trkpt>
      <trkpt lat="50.55113" lon="6.23345">
        <ele>422.16</ele>
        <time>2019-07-06T14:21:42Z</time>
      </trkpt>
      <trkpt lat="50.55116" lon="6.23342">
        <ele>422.16</ele>
        <time>2019-07-06T14:21:43Z</time>
      </trkpt>
      <trkpt lat="50.5512" lon="6.2334">
        <ele>422.16</ele>
        <time>2019-07-06T14:21:44Z</time>
      </trkpt>
      <trkpt lat="50.55123" lon="6.23341">
        <ele>422.64</ele>
        <time>2019-07-06T14:21:45Z</time>
      </trkpt>
      <trkpt lat="50.55127" lon="6.23343">
        <ele>423.12</ele>
        <time>2019-07-06T14:21:46Z</time>
      </trkpt>
      <trkpt lat="50.55131" lon="6.23346">
        <ele>423.12</ele>
        <time>2019-07-06T14:21:47Z</time>
      </trkpt>
      <trkpt lat="50.55136" lon="6.23349">
        <ele>423.12</ele>
        <time>2019-07-06T14:21:48Z</time>
      </trkpt>
      <trkpt lat="50.55174" lon="6.23381">
        <ele>426</ele>
        <time>2019-07-06T14:21:59Z</time>
      </trkpt>
      <trkpt lat="50.55181" lon="6.23387">
        <ele>426</ele>
        <time>2019-07-06T14:22:02Z</time>
      </trkpt>
      <trkpt lat="50.55211" lon="6.23399">
        <ele>427.92</ele>
        <time>2019-07-06T14:22:12Z</time>
      </trkpt>
      <trkpt lat="50.55259" lon="6.23382">
        <ele>431.29</ele>
        <time>2019-07-06T14:22:26Z</time>
      </trkpt>
      <trkpt lat="50.55292" lon="6.23347">
        <ele>432.73</ele>
        <time>2019-07-06T14:22:38Z</time>
      </trkpt>
      <trkpt lat="50.5532" lon="6.23302">
        <ele>435.13</ele>
        <time>2019-07-06T14:22:50Z</time>
      </trkpt>
      <trkpt lat="50.55347" lon="6.2325">
        <ele>437.54</ele>
        <time>2019-07-06T14:23:02Z</time>
      </trkpt>
      <trkpt lat="50.55373" lon="6.23188">
        <ele>440.42</ele>
        <time>2019-07-06T14:23:15Z</time>
      </trkpt>
      <trkpt lat="50.55405" lon="6.23121">
        <ele>442.82</ele>
        <time>2019-07-06T14:23:30Z</time>
      </trkpt>
      <trkpt lat="50.55437" lon="6.23134">
        <ele>445.23</ele>
        <time>2019-07-06T14:23:40Z</time>
      </trkpt>
      <trkpt lat="50.5544" lon="6.23185">
        <ele>447.15</ele>
        <time>2019-07-06T14:23:50Z</time>
      </trkpt>
      <trkpt lat="50.55418" lon="6.23268">
        <ele>449.55</ele>
        <time>2019-07-06T14:24:06Z</time>
      </trkpt>
      <trkpt lat="50.55396" lon="6.2334">
        <ele>452.92</ele>
        <time>2019-07-06T14:24:20Z</time>
      </trkpt>
      <trkpt lat="50.55388" lon="6.23424">
        <ele>455.8</ele>
        <time>2019-07-06T14:24:35Z</time>
      </trkpt>
      <trkpt lat="50.55408" lon="6.23506">
        <ele>458.69</ele>
        <time>2019-07-06T14:24:50Z</time>
      </trkpt>
      <trkpt lat="50.55426" lon="6.236">
        <ele>462.05</ele>
        <time>2019-07-06T14:25:07Z</time>
      </trkpt>
      <trkpt lat="50.55423" lon="6.23697">
        <ele>464.45</ele>
        <time>2019-07-06T14:25:23Z</time>
      </trkpt>
      <trkpt lat="50.5542" lon="6.23755">
        <ele>465.42</ele>
        <time>2019-07-06T14:25:32Z</time>
      </trkpt>
      <trkpt lat="50.55421" lon="6.23776">
        <ele>466.38</ele>
        <time>2019-07-06T14:25:35Z</time>
      </trkpt>
      <trkpt lat="50.55424" lon="6.23794">
        <ele>466.86</ele>
        <time>2019-07-06T14:25:38Z</time>
      </trkpt>
      <trkpt lat="50.55426" lon="6.23801">
        <ele>466.86</ele>
        <time>2019-07-06T14:25:39Z</time>
      </trkpt>
      <trkpt lat="50.55428" lon="6.23806">
        <ele>466.86</ele>
        <time>2019-07-06T14:25:40Z</time>
      </trkpt>
      <trkpt lat="50.55431" lon="6.2381">
        <ele>466.86</ele>
        <time>2019-07-06T14:25:41Z</time>
      </trkpt>
      <trkpt lat="50.55435" lon="6.23814">
        <ele>467.34</ele>
        <time>2019-07-06T14:25:42Z</time>
      </trkpt>
      <trkpt lat="50.55439" lon="6.23818">
        <ele>467.34</ele>
        <time>2019-07-06T14:25:43Z</time>
      </trkpt>
      <trkpt lat="50.55443" lon="6.2382">
        <ele>467.34</ele>
        <time>2019-07-06T14:25:44Z</time>
      </trkpt>
      <trkpt lat="50.55447" lon="6.23821">
        <ele>467.34</ele>
        <time>2019-07-06T14:25:45Z</time>
      </trkpt>
      <trkpt lat="50.55452" lon="6.23822">
        <ele>467.82</ele>
        <time>2019-07-06T14:25:46Z</time>
      </trkpt>
      <trkpt lat="50.55456" lon="6.23822">
        <ele>467.82</ele>
        <time>2019-07-06T14:25:47Z</time>
      </trkpt>
      <trkpt lat="50.55461" lon="6.23822">
        <ele>467.82</ele>
        <time>2019-07-06T14:25:48Z</time>
      </trkpt>
      <trkpt lat="50.5547" lon="6.23822">
        <ele>467.82</ele>
        <time>2019-07-06T14:25:50Z</time>
      </trkpt>
      <trkpt lat="50.55551" lon="6.23815">
        <ele>469.74</ele>
        <time>2019-07-06T14:26:07Z</time>
      </trkpt>
      <trkpt lat="50.55593" lon="6.23817">
        <ele>470.7</ele>
        <time>2019-07-06T14:26:16Z</time>
      </trkpt>
      <trkpt lat="50.55597" lon="6.23817">
        <ele>470.7</ele>
        <time>2019-07-06T14:26:17Z</time>
      </trkpt>
      <trkpt lat="50.55637" lon="6.23818">
        <ele>471.18</ele>
        <time>2019-07-06T14:26:26Z</time>
      </trkpt>
      <trkpt lat="50.55714" lon="6.23827">
        <ele>473.59</ele>
        <time>2019-07-06T14:26:43Z</time>
      </trkpt>
      <trkpt lat="50.55759" lon="6.23838">
        <ele>474.55</ele>
        <time>2019-07-06T14:26:53Z</time>
      </trkpt>
      <trkpt lat="50.55764" lon="6.2384">
        <ele>474.55</ele>
        <time>2019-07-06T14:26:54Z</time>
      </trkpt>
      <trkpt lat="50.55778" lon="6.23843">
        <ele>475.03</ele>
        <time>2019-07-06T14:26:57Z</time>
      </trkpt>
      <trkpt lat="50.55782" lon="6.23842">
        <ele>475.03</ele>
        <time>2019-07-06T14:26:58Z</time>
      </trkpt>
      <trkpt lat="50.55787" lon="6.2384">
        <ele>475.03</ele>
        <time>2019-07-06T14:26:59Z</time>
      </trkpt>
      <trkpt lat="50.55796" lon="6.23835">
        <ele>475.03</ele>
        <time>2019-07-06T14:27:01Z</time>
      </trkpt>
      <trkpt lat="50.55801" lon="6.23832">
        <ele>475.03</ele>
        <time>2019-07-06T14:27:02Z</time>
      </trkpt>
      <trkpt lat="50.55805" lon="6.23827">
        <ele>475.03</ele>
        <time>2019-07-06T14:27:03Z</time>
      </trkpt>
      <trkpt lat="50.55856" lon="6.23762">
        <ele>475.03</ele>
        <time>2019-07-06T14:27:15Z</time>
      </trkpt>
      <trkpt lat="50.55861" lon="6.23757">
        <ele>475.03</ele>
        <time>2019-07-06T14:27:16Z</time>
      </trkpt>
      <trkpt lat="50.55865" lon="6.23752">
        <ele>475.03</ele>
        <time>2019-07-06T14:27:17Z</time>
      </trkpt>
      <trkpt lat="50.55869" lon="6.23747">
        <ele>475.03</ele>
        <time>2019-07-06T14:27:18Z</time>
      </trkpt>
      <trkpt lat="50.55873" lon="6.23742">
        <ele>475.03</ele>
        <time>2019-07-06T14:27:19Z</time>
      </trkpt>
      <trkpt lat="50.55877" lon="6.23737">
        <ele>475.03</ele>
        <time>2019-07-06T14:27:20Z</time>
      </trkpt>
      <trkpt lat="50.55915" lon="6.23677">
        <ele>475.03</ele>
        <time>2019-07-06T14:27:33Z</time>
      </trkpt>
      <trkpt lat="50.55932" lon="6.23648">
        <ele>478.39</ele>
        <time>2019-07-06T14:27:41Z</time>
      </trkpt>
      <trkpt lat="50.55953" lon="6.2362">
        <ele>481.28</ele>
        <time>2019-07-06T14:27:51Z</time>
      </trkpt>
      <trkpt lat="50.55954" lon="6.23617">
        <ele>481.76</ele>
        <time>2019-07-06T14:27:52Z</time>
      </trkpt>
      <trkpt lat="50.55956" lon="6.23615">
        <ele>481.76</ele>
        <time>2019-07-06T14:27:53Z</time>
      </trkpt>
      <trkpt lat="50.55958" lon="6.23612">
        <ele>482.24</ele>
        <time>2019-07-06T14:27:54Z</time>
      </trkpt>
      <trkpt lat="50.55961" lon="6.2361">
        <ele>482.24</ele>
        <time>2019-07-06T14:27:55Z</time>
      </trkpt>
      <trkpt lat="50.55985" lon="6.23581">
        <ele>485.6</ele>
        <time>2019-07-06T14:28:07Z</time>
      </trkpt>
      <trkpt lat="50.56011" lon="6.23554">
        <ele>488.49</ele>
        <time>2019-07-06T14:28:19Z</time>
      </trkpt>
      <trkpt lat="50.56028" lon="6.23535">
        <ele>491.85</ele>
        <time>2019-07-06T14:28:29Z</time>
      </trkpt>
      <trkpt lat="50.56052" lon="6.23514">
        <ele>494.74</ele>
        <time>2019-07-06T14:28:39Z</time>
      </trkpt>
      <trkpt lat="50.561" lon="6.23501">
        <ele>497.14</ele>
        <time>2019-07-06T14:28:55Z</time>
      </trkpt>
      <trkpt lat="50.56132" lon="6.23497">
        <ele>500.02</ele>
        <time>2019-07-06T14:29:07Z</time>
      </trkpt>
      <trkpt lat="50.5615" lon="6.23479">
        <ele>503.39</ele>
        <time>2019-07-06T14:29:15Z</time>
      </trkpt>
      <trkpt lat="50.56163" lon="6.23457">
        <ele>507.23</ele>
        <time>2019-07-06T14:29:23Z</time>
      </trkpt>
      <trkpt lat="50.56176" lon="6.23439">
        <ele>510.12</ele>
        <time>2019-07-06T14:29:31Z</time>
      </trkpt>
      <trkpt lat="50.56198" lon="6.23431">
        <ele>513.48</ele>
        <time>2019-07-06T14:29:40Z</time>
      </trkpt>
      <trkpt lat="50.56226" lon="6.23428">
        <ele>514.92</ele>
        <time>2019-07-06T14:29:51Z</time>
      </trkpt>
      <trkpt lat="50.56229" lon="6.2343">
        <ele>514.44</ele>
        <time>2019-07-06T14:29:52Z</time>
      </trkpt>
      <trkpt lat="50.56247" lon="6.23439">
        <ele>513.48</ele>
        <time>2019-07-06T14:29:56Z</time>
      </trkpt>
      <trkpt lat="50.56321" lon="6.23478">
        <ele>513</ele>
        <time>2019-07-06T14:30:12Z</time>
      </trkpt>
      <trkpt lat="50.56338" lon="6.23485">
        <ele>513</ele>
        <time>2019-07-06T14:30:16Z</time>
      </trkpt>
      <trkpt lat="50.56367" lon="6.2351">
        <ele>513</ele>
        <time>2019-07-06T14:30:23Z</time>
      </trkpt>
      <trkpt lat="50.56369" lon="6.23514">
        <ele>513</ele>
        <time>2019-07-06T14:30:24Z</time>
      </trkpt>
      <trkpt lat="50.56372" lon="6.23519">
        <ele>513</ele>
        <time>2019-07-06T14:30:25Z</time>
      </trkpt>
      <trkpt lat="50.56376" lon="6.23525">
        <ele>513</ele>
        <time>2019-07-06T14:30:26Z</time>
      </trkpt>
      <trkpt lat="50.56379" lon="6.23531">
        <ele>513</ele>
        <time>2019-07-06T14:30:27Z</time>
      </trkpt>
      <trkpt lat="50.56384" lon="6.23545">
        <ele>513</ele>
        <time>2019-07-06T14:30:29Z</time>
      </trkpt>
      <trkpt lat="50.56387" lon="6.23552">
        <ele>513</ele>
        <time>2019-07-06T14:30:30Z</time>
      </trkpt>
      <trkpt lat="50.56388" lon="6.2356">
        <ele>513</ele>
        <time>2019-07-06T14:30:31Z</time>
      </trkpt>
      <trkpt lat="50.5639" lon="6.23567">
        <ele>513</ele>
        <time>2019-07-06T14:30:32Z</time>
      </trkpt>
      <trkpt lat="50.56392" lon="6.23574">
        <ele>513</ele>
        <time>2019-07-06T14:30:33Z</time>
      </trkpt>
      <trkpt lat="50.56393" lon="6.23581">
        <ele>513</ele>
        <time>2019-07-06T14:30:34Z</time>
      </trkpt>
      <trkpt lat="50.56395" lon="6.23587">
        <ele>513</ele>
        <time>2019-07-06T14:30:35Z</time>
      </trkpt>
      <trkpt lat="50.56397" lon="6.23593">
        <ele>513</ele>
        <time>2019-07-06T14:30:36Z</time>
      </trkpt>
      <trkpt lat="50.56399" lon="6.23597">
        <ele>513</ele>
        <time>2019-07-06T14:30:37Z</time>
      </trkpt>
      <trkpt lat="50.56401" lon="6.236">
        <ele>512.52</ele>
        <time>2019-07-06T14:30:38Z</time>
      </trkpt>
      <trkpt lat="50.56402" lon="6.23603">
        <ele>512.52</ele>
        <time>2019-07-06T14:30:39Z</time>
      </trkpt>
      <trkpt lat="50.56402" lon="6.23605">
        <ele>512.52</ele>
        <time>2019-07-06T14:30:40Z</time>
      </trkpt>
      <trkpt lat="50.56404" lon="6.23607">
        <ele>512.52</ele>
        <time>2019-07-06T14:30:49Z</time>
      </trkpt>
      <trkpt lat="50.56403" lon="6.23607">
        <ele>512.04</ele>
        <time>2019-07-06T14:31:12Z</time>
      </trkpt>
      <trkpt lat="50.56405" lon="6.23608">
        <ele>512.04</ele>
        <time>2019-07-06T14:31:38Z</time>
      </trkpt>
      <trkpt lat="50.56405" lon="6.23607">
        <ele>512.52</ele>
        <time>2019-07-06T14:32:12Z</time>
      </trkpt>
      <trkpt lat="50.56405" lon="6.23607">
        <ele>512.52</ele>
        <time>2019-07-06T14:32:36Z</time>
      </trkpt>
      <trkpt lat="50.56405" lon="6.23607">
        <ele>512.04</ele>
        <time>2019-07-06T14:32:59Z</time>
      </trkpt>
      <trkpt lat="50.56405" lon="6.23607">
        <ele>512.04</ele>
        <time>2019-07-06T14:33:17Z</time>
      </trkpt>
      <trkpt lat="50.56406" lon="6.23607">
        <ele>512.04</ele>
        <time>2019-07-06T14:33:25Z</time>
      </trkpt>
      <trkpt lat="50.56408" lon="6.23608">
        <ele>512.04</ele>
        <time>2019-07-06T14:33:26Z</time>
      </trkpt>
      <trkpt lat="50.5641" lon="6.23608">
        <ele>512.04</ele>
        <time>2019-07-06T14:33:27Z</time>
      </trkpt>
      <trkpt lat="50.56413" lon="6.23606">
        <ele>512.04</ele>
        <time>2019-07-06T14:33:28Z</time>
      </trkpt>
      <trkpt lat="50.56415" lon="6.23604">
        <ele>512.04</ele>
        <time>2019-07-06T14:33:29Z</time>
      </trkpt>
      <trkpt lat="50.56417" lon="6.23599">
        <ele>512.04</ele>
        <time>2019-07-06T14:33:30Z</time>
      </trkpt>
      <trkpt lat="50.56418" lon="6.23595">
        <ele>512.04</ele>
        <time>2019-07-06T14:33:31Z</time>
      </trkpt>
      <trkpt lat="50.5642" lon="6.2359">
        <ele>512.04</ele>
        <time>2019-07-06T14:33:32Z</time>
      </trkpt>
      <trkpt lat="50.56433" lon="6.23557">
        <ele>514.92</ele>
        <time>2019-07-06T14:33:37Z</time>
      </trkpt>
      <trkpt lat="50.56436" lon="6.23551">
        <ele>515.4</ele>
        <time>2019-07-06T14:33:38Z</time>
      </trkpt>
      <trkpt lat="50.56473" lon="6.2349">
        <ele>518.77</ele>
        <time>2019-07-06T14:33:50Z</time>
      </trkpt>
      <trkpt lat="50.56496" lon="6.23439">
        <ele>519.25</ele>
        <time>2019-07-06T14:34:01Z</time>
      </trkpt>
      <trkpt lat="50.56494" lon="6.23435">
        <ele>519.25</ele>
        <time>2019-07-06T14:34:02Z</time>
      </trkpt>
      <trkpt lat="50.56492" lon="6.23432">
        <ele>519.25</ele>
        <time>2019-07-06T14:34:03Z</time>
      </trkpt>
      <trkpt lat="50.5649" lon="6.23427">
        <ele>519.25</ele>
        <time>2019-07-06T14:34:04Z</time>
      </trkpt>
      <trkpt lat="50.56488" lon="6.23422">
        <ele>519.25</ele>
        <time>2019-07-06T14:34:05Z</time>
      </trkpt>
      <trkpt lat="50.56468" lon="6.23373">
        <ele>519.25</ele>
        <time>2019-07-06T14:34:14Z</time>
      </trkpt>
      <trkpt lat="50.56466" lon="6.23368">
        <ele>519.25</ele>
        <time>2019-07-06T14:34:15Z</time>
      </trkpt>
      <trkpt lat="50.56426" lon="6.23267">
        <ele>520.69</ele>
        <time>2019-07-06T14:34:31Z</time>
      </trkpt>
      <trkpt lat="50.56397" lon="6.23191">
        <ele>519.25</ele>
        <time>2019-07-06T14:34:43Z</time>
      </trkpt>
      <trkpt lat="50.5635" lon="6.23071">
        <ele>519.25</ele>
        <time>2019-07-06T14:35:00Z</time>
      </trkpt>
      <trkpt lat="50.56301" lon="6.22955">
        <ele>519.25</ele>
        <time>2019-07-06T14:35:16Z</time>
      </trkpt>
      <trkpt lat="50.56226" lon="6.22822">
        <ele>519.25</ele>
        <time>2019-07-06T14:35:34Z</time>
      </trkpt>
      <trkpt lat="50.56222" lon="6.22815">
        <ele>519.25</ele>
        <time>2019-07-06T14:35:35Z</time>
      </trkpt>
      <trkpt lat="50.56152" lon="6.2272">
        <ele>520.21</ele>
        <time>2019-07-06T14:35:50Z</time>
      </trkpt>
      <trkpt lat="50.56086" lon="6.22675">
        <ele>520.69</ele>
        <time>2019-07-06T14:36:02Z</time>
      </trkpt>
      <trkpt lat="50.55989" lon="6.22661">
        <ele>522.13</ele>
        <time>2019-07-06T14:36:18Z</time>
      </trkpt>
      <trkpt lat="50.55885" lon="6.22662">
        <ele>522.61</ele>
        <time>2019-07-06T14:36:35Z</time>
      </trkpt>
      <trkpt lat="50.55791" lon="6.22664">
        <ele>523.58</ele>
        <time>2019-07-06T14:36:50Z</time>
      </trkpt>
      <trkpt lat="50.55689" lon="6.22654">
        <ele>524.54</ele>
        <time>2019-07-06T14:37:07Z</time>
      </trkpt>
      <trkpt lat="50.55678" lon="6.22649">
        <ele>524.54</ele>
        <time>2019-07-06T14:37:09Z</time>
      </trkpt>
      <trkpt lat="50.55673" lon="6.22647">
        <ele>524.54</ele>
        <time>2019-07-06T14:37:10Z</time>
      </trkpt>
      <trkpt lat="50.5564" lon="6.22631">
        <ele>525.02</ele>
        <time>2019-07-06T14:37:16Z</time>
      </trkpt>
      <trkpt lat="50.55559" lon="6.22547">
        <ele>526.46</ele>
        <time>2019-07-06T14:37:32Z</time>
      </trkpt>
      <trkpt lat="50.55507" lon="6.2244">
        <ele>526.94</ele>
        <time>2019-07-06T14:37:46Z</time>
      </trkpt>
      <trkpt lat="50.55501" lon="6.22422">
        <ele>526.94</ele>
        <time>2019-07-06T14:37:48Z</time>
      </trkpt>
      <trkpt lat="50.5548" lon="6.22327">
        <ele>526.94</ele>
        <time>2019-07-06T14:37:58Z</time>
      </trkpt>
      <trkpt lat="50.55475" lon="6.22298">
        <ele>526.94</ele>
        <time>2019-07-06T14:38:01Z</time>
      </trkpt>
      <trkpt lat="50.55473" lon="6.22288">
        <ele>526.94</ele>
        <time>2019-07-06T14:38:02Z</time>
      </trkpt>
      <trkpt lat="50.55472" lon="6.22278">
        <ele>526.94</ele>
        <time>2019-07-06T14:38:03Z</time>
      </trkpt>
      <trkpt lat="50.55472" lon="6.22268">
        <ele>526.94</ele>
        <time>2019-07-06T14:38:04Z</time>
      </trkpt>
      <trkpt lat="50.55472" lon="6.22259">
        <ele>526.94</ele>
        <time>2019-07-06T14:38:05Z</time>
      </trkpt>
      <trkpt lat="50.55473" lon="6.22249">
        <ele>526.94</ele>
        <time>2019-07-06T14:38:06Z</time>
      </trkpt>
      <trkpt lat="50.55473" lon="6.2224">
        <ele>526.94</ele>
        <time>2019-07-06T14:38:07Z</time>
      </trkpt>
      <trkpt lat="50.55491" lon="6.22096">
        <ele>527.42</ele>
        <time>2019-07-06T14:38:22Z</time>
      </trkpt>
      <trkpt lat="50.55527" lon="6.21992">
        <ele>527.42</ele>
        <time>2019-07-06T14:38:34Z</time>
      </trkpt>
      <trkpt lat="50.55554" lon="6.2194">
        <ele>527.42</ele>
        <time>2019-07-06T14:38:41Z</time>
      </trkpt>
      <trkpt lat="50.55559" lon="6.21932">
        <ele>527.42</ele>
        <time>2019-07-06T14:38:42Z</time>
      </trkpt>
      <trkpt lat="50.5562" lon="6.21789">
        <ele>527.42</ele>
        <time>2019-07-06T14:38:58Z</time>
      </trkpt>
      <trkpt lat="50.55625" lon="6.21769">
        <ele>525.98</ele>
        <time>2019-07-06T14:39:00Z</time>
      </trkpt>
      <trkpt lat="50.55645" lon="6.21622">
        <ele>525.98</ele>
        <time>2019-07-06T14:39:14Z</time>
      </trkpt>
      <trkpt lat="50.55631" lon="6.21468">
        <ele>526.46</ele>
        <time>2019-07-06T14:39:29Z</time>
      </trkpt>
      <trkpt lat="50.55616" lon="6.21412">
        <ele>526.46</ele>
        <time>2019-07-06T14:39:35Z</time>
      </trkpt>
      <trkpt lat="50.55572" lon="6.21311">
        <ele>526.46</ele>
        <time>2019-07-06T14:39:47Z</time>
      </trkpt>
      <trkpt lat="50.55535" lon="6.21228">
        <ele>526.46</ele>
        <time>2019-07-06T14:39:59Z</time>
      </trkpt>
      <trkpt lat="50.55496" lon="6.21147">
        <ele>526.94</ele>
        <time>2019-07-06T14:40:10Z</time>
      </trkpt>
      <trkpt lat="50.55432" lon="6.2105">
        <ele>525.5</ele>
        <time>2019-07-06T14:40:22Z</time>
      </trkpt>
      <trkpt lat="50.55394" lon="6.21013">
        <ele>525.02</ele>
        <time>2019-07-06T14:40:28Z</time>
      </trkpt>
      <trkpt lat="50.55301" lon="6.20975">
        <ele>524.06</ele>
        <time>2019-07-06T14:40:41Z</time>
      </trkpt>
      <trkpt lat="50.55204" lon="6.2097">
        <ele>523.09</ele>
        <time>2019-07-06T14:40:54Z</time>
      </trkpt>
      <trkpt lat="50.5517" lon="6.20966">
        <ele>522.13</ele>
        <time>2019-07-06T14:40:59Z</time>
      </trkpt>
      <trkpt lat="50.55088" lon="6.20922">
        <ele>520.21</ele>
        <time>2019-07-06T14:41:10Z</time>
      </trkpt>
      <trkpt lat="50.54999" lon="6.20836">
        <ele>519.73</ele>
        <time>2019-07-06T14:41:24Z</time>
      </trkpt>
      <trkpt lat="50.54903" lon="6.20774">
        <ele>517.81</ele>
        <time>2019-07-06T14:41:37Z</time>
      </trkpt>
      <trkpt lat="50.54872" lon="6.20766">
        <ele>516.37</ele>
        <time>2019-07-06T14:41:41Z</time>
      </trkpt>
      <trkpt lat="50.5486" lon="6.20765">
        <ele>516.37</ele>
        <time>2019-07-06T14:41:42Z</time>
      </trkpt>
      <trkpt lat="50.54754" lon="6.20763">
        <ele>515.88</ele>
        <time>2019-07-06T14:41:56Z</time>
      </trkpt>
      <trkpt lat="50.54655" lon="6.2072">
        <ele>514.92</ele>
        <time>2019-07-06T14:42:09Z</time>
      </trkpt>
      <trkpt lat="50.54572" lon="6.20631">
        <ele>513.96</ele>
        <time>2019-07-06T14:42:22Z</time>
      </trkpt>
      <trkpt lat="50.54516" lon="6.20515">
        <ele>513</ele>
        <time>2019-07-06T14:42:34Z</time>
      </trkpt>
      <trkpt lat="50.5448" lon="6.20391">
        <ele>511.08</ele>
        <time>2019-07-06T14:42:45Z</time>
      </trkpt>
      <trkpt lat="50.54443" lon="6.2027">
        <ele>510.6</ele>
        <time>2019-07-06T14:42:56Z</time>
      </trkpt>
      <trkpt lat="50.54387" lon="6.20168">
        <ele>509.64</ele>
        <time>2019-07-06T14:43:07Z</time>
      </trkpt>
      <trkpt lat="50.543" lon="6.20084">
        <ele>509.16</ele>
        <time>2019-07-06T14:43:20Z</time>
      </trkpt>
      <trkpt lat="50.54196" lon="6.2002">
        <ele>508.19</ele>
        <time>2019-07-06T14:43:34Z</time>
      </trkpt>
      <trkpt lat="50.54117" lon="6.1994">
        <ele>507.71</ele>
        <time>2019-07-06T14:43:46Z</time>
      </trkpt>
      <trkpt lat="50.54021" lon="6.19843">
        <ele>505.79</ele>
        <time>2019-07-06T14:44:01Z</time>
      </trkpt>
      <trkpt lat="50.53936" lon="6.19808">
        <ele>505.79</ele>
        <time>2019-07-06T14:44:14Z</time>
      </trkpt>
      <trkpt lat="50.53834" lon="6.19803">
        <ele>505.79</ele>
        <time>2019-07-06T14:44:28Z</time>
      </trkpt>
      <trkpt lat="50.53781" lon="6.19808">
        <ele>506.27</ele>
        <time>2019-07-06T14:44:36Z</time>
      </trkpt>
      <trkpt lat="50.53775" lon="6.19809">
        <ele>506.27</ele>
        <time>2019-07-06T14:44:37Z</time>
      </trkpt>
      <trkpt lat="50.5368" lon="6.19827">
        <ele>506.27</ele>
        <time>2019-07-06T14:44:51Z</time>
      </trkpt>
      <trkpt lat="50.53612" lon="6.19833">
        <ele>506.27</ele>
        <time>2019-07-06T14:45:01Z</time>
      </trkpt>
      <trkpt lat="50.53527" lon="6.19816">
        <ele>507.23</ele>
        <time>2019-07-06T14:45:13Z</time>
      </trkpt>
      <trkpt lat="50.53452" lon="6.19781">
        <ele>507.23</ele>
        <time>2019-07-06T14:45:24Z</time>
      </trkpt>
      <trkpt lat="50.53432" lon="6.19769">
        <ele>505.79</ele>
        <time>2019-07-06T14:45:27Z</time>
      </trkpt>
      <trkpt lat="50.53363" lon="6.19724">
        <ele>505.79</ele>
        <time>2019-07-06T14:45:37Z</time>
      </trkpt>
      <trkpt lat="50.5326" lon="6.19671">
        <ele>505.79</ele>
        <time>2019-07-06T14:45:51Z</time>
      </trkpt>
      <trkpt lat="50.53205" lon="6.19657">
        <ele>507.23</ele>
        <time>2019-07-06T14:45:58Z</time>
      </trkpt>
      <trkpt lat="50.53104" lon="6.19656">
        <ele>505.79</ele>
        <time>2019-07-06T14:46:11Z</time>
      </trkpt>
      <trkpt lat="50.53074" lon="6.19663">
        <ele>505.79</ele>
        <time>2019-07-06T14:46:15Z</time>
      </trkpt>
      <trkpt lat="50.53067" lon="6.19666">
        <ele>505.79</ele>
        <time>2019-07-06T14:46:16Z</time>
      </trkpt>
      <trkpt lat="50.52955" lon="6.19721">
        <ele>505.79</ele>
        <time>2019-07-06T14:46:31Z</time>
      </trkpt>
      <trkpt lat="50.52848" lon="6.19791">
        <ele>505.79</ele>
        <time>2019-07-06T14:46:46Z</time>
      </trkpt>
      <trkpt lat="50.52758" lon="6.19888">
        <ele>505.31</ele>
        <time>2019-07-06T14:47:00Z</time>
      </trkpt>
      <trkpt lat="50.52694" lon="6.20029">
        <ele>505.31</ele>
        <time>2019-07-06T14:47:14Z</time>
      </trkpt>
      <trkpt lat="50.52651" lon="6.20216">
        <ele>505.31</ele>
        <time>2019-07-06T14:47:30Z</time>
      </trkpt>
      <trkpt lat="50.52605" lon="6.20354">
        <ele>505.31</ele>
        <time>2019-07-06T14:47:43Z</time>
      </trkpt>
      <trkpt lat="50.52528" lon="6.20468">
        <ele>505.31</ele>
        <time>2019-07-06T14:47:57Z</time>
      </trkpt>
      <trkpt lat="50.52434" lon="6.20581">
        <ele>505.31</ele>
        <time>2019-07-06T14:48:12Z</time>
      </trkpt>
      <trkpt lat="50.52328" lon="6.20671">
        <ele>505.31</ele>
        <time>2019-07-06T14:48:28Z</time>
      </trkpt>
      <trkpt lat="50.52221" lon="6.20694">
        <ele>505.31</ele>
        <time>2019-07-06T14:48:43Z</time>
      </trkpt>
      <trkpt lat="50.52142" lon="6.20671">
        <ele>504.83</ele>
        <time>2019-07-06T14:48:56Z</time>
      </trkpt>
      <trkpt lat="50.52129" lon="6.20664">
        <ele>504.83</ele>
        <time>2019-07-06T14:48:59Z</time>
      </trkpt>
      <trkpt lat="50.52126" lon="6.20661">
        <ele>504.83</ele>
        <time>2019-07-06T14:49:00Z</time>
      </trkpt>
      <trkpt lat="50.52123" lon="6.20657">
        <ele>506.75</ele>
        <time>2019-07-06T14:49:01Z</time>
      </trkpt>
      <trkpt lat="50.52119" lon="6.20654">
        <ele>506.75</ele>
        <time>2019-07-06T14:49:02Z</time>
      </trkpt>
      <trkpt lat="50.52114" lon="6.2065">
        <ele>506.75</ele>
        <time>2019-07-06T14:49:03Z</time>
      </trkpt>
      <trkpt lat="50.52093" lon="6.20633">
        <ele>505.31</ele>
        <time>2019-07-06T14:49:07Z</time>
      </trkpt>
      <trkpt lat="50.52087" lon="6.20629">
        <ele>505.31</ele>
        <time>2019-07-06T14:49:08Z</time>
      </trkpt>
      <trkpt lat="50.51996" lon="6.20566">
        <ele>504.83</ele>
        <time>2019-07-06T14:49:23Z</time>
      </trkpt>
      <trkpt lat="50.51892" lon="6.20489">
        <ele>505.31</ele>
        <time>2019-07-06T14:49:40Z</time>
      </trkpt>
      <trkpt lat="50.51783" lon="6.20408">
        <ele>505.31</ele>
        <time>2019-07-06T14:49:58Z</time>
      </trkpt>
      <trkpt lat="50.51678" lon="6.20326">
        <ele>505.31</ele>
        <time>2019-07-06T14:50:15Z</time>
      </trkpt>
      <trkpt lat="50.51581" lon="6.20219">
        <ele>506.75</ele>
        <time>2019-07-06T14:50:32Z</time>
      </trkpt>
      <trkpt lat="50.51504" lon="6.20118">
        <ele>507.71</ele>
        <time>2019-07-06T14:50:47Z</time>
      </trkpt>
      <trkpt lat="50.51434" lon="6.19998">
        <ele>509.16</ele>
        <time>2019-07-06T14:51:03Z</time>
      </trkpt>
      <trkpt lat="50.51359" lon="6.19873">
        <ele>510.12</ele>
        <time>2019-07-06T14:51:20Z</time>
      </trkpt>
      <trkpt lat="50.51281" lon="6.19787">
        <ele>510.6</ele>
        <time>2019-07-06T14:51:35Z</time>
      </trkpt>
      <trkpt lat="50.51248" lon="6.19764">
        <ele>510.6</ele>
        <time>2019-07-06T14:51:42Z</time>
      </trkpt>
      <trkpt lat="50.51244" lon="6.19765">
        <ele>510.6</ele>
        <time>2019-07-06T14:51:43Z</time>
      </trkpt>
      <trkpt lat="50.51241" lon="6.19767">
        <ele>511.08</ele>
        <time>2019-07-06T14:51:44Z</time>
      </trkpt>
      <trkpt lat="50.51237" lon="6.19766">
        <ele>511.08</ele>
        <time>2019-07-06T14:51:45Z</time>
      </trkpt>
      <trkpt lat="50.51232" lon="6.19764">
        <ele>511.08</ele>
        <time>2019-07-06T14:51:46Z</time>
      </trkpt>
      <trkpt lat="50.51228" lon="6.19761">
        <ele>511.08</ele>
        <time>2019-07-06T14:51:47Z</time>
      </trkpt>
      <trkpt lat="50.51161" lon="6.19707">
        <ele>512.04</ele>
        <time>2019-07-06T14:51:59Z</time>
      </trkpt>
      <trkpt lat="50.51084" lon="6.19626">
        <ele>513</ele>
        <time>2019-07-06T14:52:13Z</time>
      </trkpt>
      <trkpt lat="50.50992" lon="6.19535">
        <ele>513.96</ele>
        <time>2019-07-06T14:52:29Z</time>
      </trkpt>
      <trkpt lat="50.50885" lon="6.19477">
        <ele>514.92</ele>
        <time>2019-07-06T14:52:46Z</time>
      </trkpt>
      <trkpt lat="50.50787" lon="6.19418">
        <ele>515.88</ele>
        <time>2019-07-06T14:53:02Z</time>
      </trkpt>
      <trkpt lat="50.50708" lon="6.19342">
        <ele>516.85</ele>
        <time>2019-07-06T14:53:16Z</time>
      </trkpt>
      <trkpt lat="50.5062" lon="6.1925">
        <ele>517.33</ele>
        <time>2019-07-06T14:53:32Z</time>
      </trkpt>
      <trkpt lat="50.50551" lon="6.19162">
        <ele>517.81</ele>
        <time>2019-07-06T14:53:46Z</time>
      </trkpt>
      <trkpt lat="50.50509" lon="6.1909">
        <ele>517.81</ele>
        <time>2019-07-06T14:53:56Z</time>
      </trkpt>
      <trkpt lat="50.5046" lon="6.18989">
        <ele>519.25</ele>
        <time>2019-07-06T14:54:08Z</time>
      </trkpt>
      <trkpt lat="50.50425" lon="6.18886">
        <ele>520.69</ele>
        <time>2019-07-06T14:54:19Z</time>
      </trkpt>
      <trkpt lat="50.50415" lon="6.18849">
        <ele>520.69</ele>
        <time>2019-07-06T14:54:23Z</time>
      </trkpt>
      <trkpt lat="50.50378" lon="6.18692">
        <ele>521.17</ele>
        <time>2019-07-06T14:54:40Z</time>
      </trkpt>
      <trkpt lat="50.50345" lon="6.18547">
        <ele>521.65</ele>
        <time>2019-07-06T14:54:54Z</time>
      </trkpt>
      <trkpt lat="50.50293" lon="6.18392">
        <ele>523.09</ele>
        <time>2019-07-06T14:55:10Z</time>
      </trkpt>
      <trkpt lat="50.50231" lon="6.1827">
        <ele>524.06</ele>
        <time>2019-07-06T14:55:24Z</time>
      </trkpt>
      <trkpt lat="50.50193" lon="6.18189">
        <ele>524.06</ele>
        <time>2019-07-06T14:55:35Z</time>
      </trkpt>
      <trkpt lat="50.50159" lon="6.18079">
        <ele>525.02</ele>
        <time>2019-07-06T14:55:48Z</time>
      </trkpt>
      <trkpt lat="50.50128" lon="6.17942">
        <ele>525.5</ele>
        <time>2019-07-06T14:56:03Z</time>
      </trkpt>
      <trkpt lat="50.50089" lon="6.17812">
        <ele>525.5</ele>
        <time>2019-07-06T14:56:17Z</time>
      </trkpt>
      <trkpt lat="50.50029" lon="6.17697">
        <ele>526.46</ele>
        <time>2019-07-06T14:56:32Z</time>
      </trkpt>
      <trkpt lat="50.49952" lon="6.17608">
        <ele>528.38</ele>
        <time>2019-07-06T14:56:47Z</time>
      </trkpt>
      <trkpt lat="50.49849" lon="6.17515">
        <ele>528.38</ele>
        <time>2019-07-06T14:57:05Z</time>
      </trkpt>
      <trkpt lat="50.49744" lon="6.17446">
        <ele>528.86</ele>
        <time>2019-07-06T14:57:22Z</time>
      </trkpt>
      <trkpt lat="50.49663" lon="6.17355">
        <ele>529.34</ele>
        <time>2019-07-06T14:57:37Z</time>
      </trkpt>
      <trkpt lat="50.49603" lon="6.17247">
        <ele>529.82</ele>
        <time>2019-07-06T14:57:51Z</time>
      </trkpt>
      <trkpt lat="50.49524" lon="6.17119">
        <ele>529.82</ele>
        <time>2019-07-06T14:58:08Z</time>
      </trkpt>
      <trkpt lat="50.49436" lon="6.17048">
        <ele>529.82</ele>
        <time>2019-07-06T14:58:23Z</time>
      </trkpt>
      <trkpt lat="50.49359" lon="6.17024">
        <ele>530.3</ele>
        <time>2019-07-06T14:58:36Z</time>
      </trkpt>
      <trkpt lat="50.49271" lon="6.17031">
        <ele>530.79</ele>
        <time>2019-07-06T14:58:49Z</time>
      </trkpt>
      <trkpt lat="50.49196" lon="6.17044">
        <ele>531.27</ele>
        <time>2019-07-06T14:59:02Z</time>
      </trkpt>
      <trkpt lat="50.49193" lon="6.17042">
        <ele>531.27</ele>
        <time>2019-07-06T14:59:03Z</time>
      </trkpt>
      <trkpt lat="50.4919" lon="6.1704">
        <ele>531.27</ele>
        <time>2019-07-06T14:59:04Z</time>
      </trkpt>
      <trkpt lat="50.49186" lon="6.17037">
        <ele>531.27</ele>
        <time>2019-07-06T14:59:05Z</time>
      </trkpt>
      <trkpt lat="50.49181" lon="6.17035">
        <ele>531.27</ele>
        <time>2019-07-06T14:59:06Z</time>
      </trkpt>
      <trkpt lat="50.49176" lon="6.17035">
        <ele>531.27</ele>
        <time>2019-07-06T14:59:07Z</time>
      </trkpt>
      <trkpt lat="50.49169" lon="6.17035">
        <ele>531.27</ele>
        <time>2019-07-06T14:59:08Z</time>
      </trkpt>
      <trkpt lat="50.49143" lon="6.17035">
        <ele>531.75</ele>
        <time>2019-07-06T14:59:13Z</time>
      </trkpt>
      <trkpt lat="50.49139" lon="6.17032">
        <ele>531.75</ele>
        <time>2019-07-06T14:59:14Z</time>
      </trkpt>
      <trkpt lat="50.49136" lon="6.17027">
        <ele>532.23</ele>
        <time>2019-07-06T14:59:15Z</time>
      </trkpt>
      <trkpt lat="50.49135" lon="6.17021">
        <ele>532.23</ele>
        <time>2019-07-06T14:59:16Z</time>
      </trkpt>
      <trkpt lat="50.49135" lon="6.17014">
        <ele>532.71</ele>
        <time>2019-07-06T14:59:17Z</time>
      </trkpt>
      <trkpt lat="50.49134" lon="6.17007">
        <ele>532.71</ele>
        <time>2019-07-06T14:59:18Z</time>
      </trkpt>
      <trkpt lat="50.49134" lon="6.16999">
        <ele>533.19</ele>
        <time>2019-07-06T14:59:19Z</time>
      </trkpt>
      <trkpt lat="50.49127" lon="6.16924">
        <ele>536.55</ele>
        <time>2019-07-06T14:59:29Z</time>
      </trkpt>
      <trkpt lat="50.49125" lon="6.16917">
        <ele>536.55</ele>
        <time>2019-07-06T14:59:30Z</time>
      </trkpt>
      <trkpt lat="50.49124" lon="6.1691">
        <ele>537.03</ele>
        <time>2019-07-06T14:59:31Z</time>
      </trkpt>
      <trkpt lat="50.49083" lon="6.16781">
        <ele>538.48</ele>
        <time>2019-07-06T14:59:48Z</time>
      </trkpt>
      <trkpt lat="50.49044" lon="6.16653">
        <ele>539.92</ele>
        <time>2019-07-06T15:00:04Z</time>
      </trkpt>
      <trkpt lat="50.49022" lon="6.16584">
        <ele>542.32</ele>
        <time>2019-07-06T15:00:13Z</time>
      </trkpt>
      <trkpt lat="50.49016" lon="6.16563">
        <ele>543.76</ele>
        <time>2019-07-06T15:00:16Z</time>
      </trkpt>
      <trkpt lat="50.48996" lon="6.16499">
        <ele>545.69</ele>
        <time>2019-07-06T15:00:25Z</time>
      </trkpt>
      <trkpt lat="50.48963" lon="6.16381">
        <ele>546.17</ele>
        <time>2019-07-06T15:00:40Z</time>
      </trkpt>
      <trkpt lat="50.48915" lon="6.16222">
        <ele>544.72</ele>
        <time>2019-07-06T15:00:57Z</time>
      </trkpt>
      <trkpt lat="50.48886" lon="6.16118">
        <ele>544.24</ele>
        <time>2019-07-06T15:01:08Z</time>
      </trkpt>
      <trkpt lat="50.48854" lon="6.16014">
        <ele>544.24</ele>
        <time>2019-07-06T15:01:19Z</time>
      </trkpt>
      <trkpt lat="50.48809" lon="6.15857">
        <ele>543.28</ele>
        <time>2019-07-06T15:01:35Z</time>
      </trkpt>
      <trkpt lat="50.48783" lon="6.15763">
        <ele>543.28</ele>
        <time>2019-07-06T15:01:47Z</time>
      </trkpt>
      <trkpt lat="50.48781" lon="6.15757">
        <ele>544.72</ele>
        <time>2019-07-06T15:01:48Z</time>
      </trkpt>
      <trkpt lat="50.48778" lon="6.15753">
        <ele>544.72</ele>
        <time>2019-07-06T15:01:49Z</time>
      </trkpt>
      <trkpt lat="50.48773" lon="6.15751">
        <ele>544.72</ele>
        <time>2019-07-06T15:01:50Z</time>
      </trkpt>
      <trkpt lat="50.48767" lon="6.15753">
        <ele>545.2</ele>
        <time>2019-07-06T15:01:51Z</time>
      </trkpt>
      <trkpt lat="50.48762" lon="6.15756">
        <ele>545.2</ele>
        <time>2019-07-06T15:01:52Z</time>
      </trkpt>
      <trkpt lat="50.48755" lon="6.15762">
        <ele>545.2</ele>
        <time>2019-07-06T15:01:53Z</time>
      </trkpt>
      <trkpt lat="50.4875" lon="6.15766">
        <ele>545.2</ele>
        <time>2019-07-06T15:01:54Z</time>
      </trkpt>
      <trkpt lat="50.48743" lon="6.15771">
        <ele>545.2</ele>
        <time>2019-07-06T15:01:55Z</time>
      </trkpt>
      <trkpt lat="50.48737" lon="6.15775">
        <ele>545.2</ele>
        <time>2019-07-06T15:01:56Z</time>
      </trkpt>
      <trkpt lat="50.48652" lon="6.15835">
        <ele>542.32</ele>
        <time>2019-07-06T15:02:10Z</time>
      </trkpt>
      <trkpt lat="50.4859" lon="6.15878">
        <ele>538.96</ele>
        <time>2019-07-06T15:02:18Z</time>
      </trkpt>
      <trkpt lat="50.48529" lon="6.1592">
        <ele>537.03</ele>
        <time>2019-07-06T15:02:28Z</time>
      </trkpt>
      <trkpt lat="50.48525" lon="6.15927">
        <ele>536.55</ele>
        <time>2019-07-06T15:02:29Z</time>
      </trkpt>
      <trkpt lat="50.48522" lon="6.15935">
        <ele>536.55</ele>
        <time>2019-07-06T15:02:30Z</time>
      </trkpt>
      <trkpt lat="50.48523" lon="6.15944">
        <ele>536.07</ele>
        <time>2019-07-06T15:02:31Z</time>
      </trkpt>
      <trkpt lat="50.48526" lon="6.1595">
        <ele>536.55</ele>
        <time>2019-07-06T15:02:32Z</time>
      </trkpt>
      <trkpt lat="50.48529" lon="6.15957">
        <ele>536.55</ele>
        <time>2019-07-06T15:02:33Z</time>
      </trkpt>
      <trkpt lat="50.48533" lon="6.15963">
        <ele>536.55</ele>
        <time>2019-07-06T15:02:34Z</time>
      </trkpt>
      <trkpt lat="50.48545" lon="6.15982">
        <ele>537.51</ele>
        <time>2019-07-06T15:02:37Z</time>
      </trkpt>
      <trkpt lat="50.48563" lon="6.16017">
        <ele>538.48</ele>
        <time>2019-07-06T15:02:44Z</time>
      </trkpt>
      <trkpt lat="50.48562" lon="6.16021">
        <ele>538.48</ele>
        <time>2019-07-06T15:02:45Z</time>
      </trkpt>
      <trkpt lat="50.4856" lon="6.16023">
        <ele>538.48</ele>
        <time>2019-07-06T15:02:46Z</time>
      </trkpt>
      <trkpt lat="50.48558" lon="6.16024">
        <ele>538.48</ele>
        <time>2019-07-06T15:02:47Z</time>
      </trkpt>
      <trkpt lat="50.48555" lon="6.16021">
        <ele>538.48</ele>
        <time>2019-07-06T15:02:48Z</time>
      </trkpt>
      <trkpt lat="50.48553" lon="6.16017">
        <ele>538.48</ele>
        <time>2019-07-06T15:02:49Z</time>
      </trkpt>
      <trkpt lat="50.48551" lon="6.16012">
        <ele>538.48</ele>
        <time>2019-07-06T15:02:50Z</time>
      </trkpt>
      <trkpt lat="50.4854" lon="6.1599">
        <ele>538.96</ele>
        <time>2019-07-06T15:02:54Z</time>
      </trkpt>
      <trkpt lat="50.48493" lon="6.1592">
        <ele>539.92</ele>
        <time>2019-07-06T15:03:06Z</time>
      </trkpt>
      <trkpt lat="50.4842" lon="6.15838">
        <ele>541.36</ele>
        <time>2019-07-06T15:03:22Z</time>
      </trkpt>
      <trkpt lat="50.4835" lon="6.15762">
        <ele>542.8</ele>
        <time>2019-07-06T15:03:37Z</time>
      </trkpt>
      <trkpt lat="50.48277" lon="6.15678">
        <ele>544.24</ele>
        <time>2019-07-06T15:03:53Z</time>
      </trkpt>
      <trkpt lat="50.48203" lon="6.15574">
        <ele>545.69</ele>
        <time>2019-07-06T15:04:11Z</time>
      </trkpt>
      <trkpt lat="50.48132" lon="6.15472">
        <ele>547.61</ele>
        <time>2019-07-06T15:04:28Z</time>
      </trkpt>
      <trkpt lat="50.48068" lon="6.15367">
        <ele>549.53</ele>
        <time>2019-07-06T15:04:44Z</time>
      </trkpt>
      <trkpt lat="50.48014" lon="6.15261">
        <ele>550.01</ele>
        <time>2019-07-06T15:04:59Z</time>
      </trkpt>
      <trkpt lat="50.47951" lon="6.15132">
        <ele>551.93</ele>
        <time>2019-07-06T15:05:17Z</time>
      </trkpt>
      <trkpt lat="50.47887" lon="6.15004">
        <ele>553.86</ele>
        <time>2019-07-06T15:05:35Z</time>
      </trkpt>
      <trkpt lat="50.47831" lon="6.14881">
        <ele>555.3</ele>
        <time>2019-07-06T15:05:52Z</time>
      </trkpt>
      <trkpt lat="50.47778" lon="6.14778">
        <ele>556.26</ele>
        <time>2019-07-06T15:06:07Z</time>
      </trkpt>
      <trkpt lat="50.47726" lon="6.14709">
        <ele>557.7</ele>
        <time>2019-07-06T15:06:19Z</time>
      </trkpt>
      <trkpt lat="50.47676" lon="6.14647">
        <ele>558.66</ele>
        <time>2019-07-06T15:06:34Z</time>
      </trkpt>
      <trkpt lat="50.47671" lon="6.14631">
        <ele>558.66</ele>
        <time>2019-07-06T15:06:38Z</time>
      </trkpt>
      <trkpt lat="50.47668" lon="6.14626">
        <ele>558.66</ele>
        <time>2019-07-06T15:06:39Z</time>
      </trkpt>
      <trkpt lat="50.47662" lon="6.14622">
        <ele>558.66</ele>
        <time>2019-07-06T15:06:40Z</time>
      </trkpt>
      <trkpt lat="50.47593" lon="6.14567">
        <ele>559.14</ele>
        <time>2019-07-06T15:06:53Z</time>
      </trkpt>
      <trkpt lat="50.47519" lon="6.14515">
        <ele>559.14</ele>
        <time>2019-07-06T15:07:06Z</time>
      </trkpt>
      <trkpt lat="50.47444" lon="6.14461">
        <ele>560.11</ele>
        <time>2019-07-06T15:07:20Z</time>
      </trkpt>
      <trkpt lat="50.47438" lon="6.14459">
        <ele>560.11</ele>
        <time>2019-07-06T15:07:21Z</time>
      </trkpt>
      <trkpt lat="50.47431" lon="6.14457">
        <ele>560.11</ele>
        <time>2019-07-06T15:07:22Z</time>
      </trkpt>
      <trkpt lat="50.47425" lon="6.14454">
        <ele>560.11</ele>
        <time>2019-07-06T15:07:23Z</time>
      </trkpt>
      <trkpt lat="50.4742" lon="6.1445">
        <ele>560.11</ele>
        <time>2019-07-06T15:07:24Z</time>
      </trkpt>
      <trkpt lat="50.47355" lon="6.14407">
        <ele>560.11</ele>
        <time>2019-07-06T15:07:37Z</time>
      </trkpt>
      <trkpt lat="50.47337" lon="6.14404">
        <ele>560.11</ele>
        <time>2019-07-06T15:07:45Z</time>
      </trkpt>
      <trkpt lat="50.47333" lon="6.14396">
        <ele>560.11</ele>
        <time>2019-07-06T15:07:48Z</time>
      </trkpt>
      <trkpt lat="50.47332" lon="6.14393">
        <ele>560.11</ele>
        <time>2019-07-06T15:07:49Z</time>
      </trkpt>
      <trkpt lat="50.47331" lon="6.1439">
        <ele>560.11</ele>
        <time>2019-07-06T15:07:50Z</time>
      </trkpt>
      <trkpt lat="50.47329" lon="6.14388">
        <ele>560.11</ele>
        <time>2019-07-06T15:07:51Z</time>
      </trkpt>
      <trkpt lat="50.47326" lon="6.14386">
        <ele>560.11</ele>
        <time>2019-07-06T15:07:52Z</time>
      </trkpt>
      <trkpt lat="50.47322" lon="6.14383">
        <ele>560.11</ele>
        <time>2019-07-06T15:07:53Z</time>
      </trkpt>
      <trkpt lat="50.47319" lon="6.14379">
        <ele>560.11</ele>
        <time>2019-07-06T15:07:54Z</time>
      </trkpt>
      <trkpt lat="50.47315" lon="6.14376">
        <ele>560.11</ele>
        <time>2019-07-06T15:07:55Z</time>
      </trkpt>
      <trkpt lat="50.47249" lon="6.14321">
        <ele>560.11</ele>
        <time>2019-07-06T15:08:07Z</time>
      </trkpt>
      <trkpt lat="50.47179" lon="6.14275">
        <ele>560.11</ele>
        <time>2019-07-06T15:08:19Z</time>
      </trkpt>
      <trkpt lat="50.47108" lon="6.14261">
        <ele>559.14</ele>
        <time>2019-07-06T15:08:31Z</time>
      </trkpt>
      <trkpt lat="50.47098" lon="6.14257">
        <ele>558.66</ele>
        <time>2019-07-06T15:08:39Z</time>
      </trkpt>
      <trkpt lat="50.471" lon="6.14254">
        <ele>558.66</ele>
        <time>2019-07-06T15:08:50Z</time>
      </trkpt>
      <trkpt lat="50.47104" lon="6.14258">
        <ele>558.66</ele>
        <time>2019-07-06T15:08:59Z</time>
      </trkpt>
      <trkpt lat="50.4712" lon="6.1426">
        <ele>558.66</ele>
        <time>2019-07-06T15:09:15Z</time>
      </trkpt>
      <trkpt lat="50.47126" lon="6.14257">
        <ele>558.66</ele>
        <time>2019-07-06T15:09:29Z</time>
      </trkpt>
      <trkpt lat="50.47127" lon="6.14258">
        <ele>558.66</ele>
        <time>2019-07-06T15:09:50Z</time>
      </trkpt>
      <trkpt lat="50.47126" lon="6.14257">
        <ele>559.14</ele>
        <time>2019-07-06T15:10:32Z</time>
      </trkpt>
      <trkpt lat="50.47126" lon="6.14256">
        <ele>559.14</ele>
        <time>2019-07-06T15:11:08Z</time>
      </trkpt>
      <trkpt lat="50.47127" lon="6.14258">
        <ele>559.14</ele>
        <time>2019-07-06T15:11:48Z</time>
      </trkpt>
      <trkpt lat="50.47128" lon="6.14258">
        <ele>559.14</ele>
        <time>2019-07-06T15:12:34Z</time>
      </trkpt>
      <trkpt lat="50.47126" lon="6.1426">
        <ele>559.14</ele>
        <time>2019-07-06T15:12:46Z</time>
      </trkpt>
      <trkpt lat="50.47125" lon="6.1426">
        <ele>559.14</ele>
        <time>2019-07-06T15:13:05Z</time>
      </trkpt>
      <trkpt lat="50.47124" lon="6.14259">
        <ele>559.62</ele>
        <time>2019-07-06T15:13:26Z</time>
      </trkpt>
      <trkpt lat="50.47123" lon="6.1426">
        <ele>559.62</ele>
        <time>2019-07-06T15:13:41Z</time>
      </trkpt>
      <trkpt lat="50.47121" lon="6.1426">
        <ele>559.62</ele>
        <time>2019-07-06T15:13:55Z</time>
      </trkpt>
      <trkpt lat="50.4712" lon="6.1426">
        <ele>559.62</ele>
        <time>2019-07-06T15:13:56Z</time>
      </trkpt>
      <trkpt lat="50.47085" lon="6.14254">
        <ele>559.62</ele>
        <time>2019-07-06T15:14:09Z</time>
      </trkpt>
      <trkpt lat="50.47055" lon="6.14217">
        <ele>559.62</ele>
        <time>2019-07-06T15:14:20Z</time>
      </trkpt>
      <trkpt lat="50.47052" lon="6.14213">
        <ele>559.62</ele>
        <time>2019-07-06T15:14:21Z</time>
      </trkpt>
      <trkpt lat="50.47011" lon="6.14167">
        <ele>558.18</ele>
        <time>2019-07-06T15:14:31Z</time>
      </trkpt>
      <trkpt lat="50.47005" lon="6.14163">
        <ele>557.7</ele>
        <time>2019-07-06T15:14:32Z</time>
      </trkpt>
      <trkpt lat="50.46998" lon="6.14159">
        <ele>556.74</ele>
        <time>2019-07-06T15:14:33Z</time>
      </trkpt>
      <trkpt lat="50.46991" lon="6.14157">
        <ele>556.74</ele>
        <time>2019-07-06T15:14:34Z</time>
      </trkpt>
      <trkpt lat="50.46984" lon="6.14156">
        <ele>555.78</ele>
        <time>2019-07-06T15:14:35Z</time>
      </trkpt>
      <trkpt lat="50.46968" lon="6.14151">
        <ele>554.34</ele>
        <time>2019-07-06T15:14:37Z</time>
      </trkpt>
      <trkpt lat="50.46893" lon="6.14127">
        <ele>551.45</ele>
        <time>2019-07-06T15:14:46Z</time>
      </trkpt>
      <trkpt lat="50.46877" lon="6.14117">
        <ele>550.97</ele>
        <time>2019-07-06T15:14:48Z</time>
      </trkpt>
      <trkpt lat="50.46869" lon="6.14108">
        <ele>550.97</ele>
        <time>2019-07-06T15:14:49Z</time>
      </trkpt>
      <trkpt lat="50.46864" lon="6.14097">
        <ele>550.49</ele>
        <time>2019-07-06T15:14:50Z</time>
      </trkpt>
      <trkpt lat="50.4686" lon="6.14085">
        <ele>550.49</ele>
        <time>2019-07-06T15:14:51Z</time>
      </trkpt>
      <trkpt lat="50.46856" lon="6.14073">
        <ele>550.49</ele>
        <time>2019-07-06T15:14:52Z</time>
      </trkpt>
      <trkpt lat="50.46852" lon="6.14062">
        <ele>550.49</ele>
        <time>2019-07-06T15:14:53Z</time>
      </trkpt>
      <trkpt lat="50.46847" lon="6.14052">
        <ele>550.49</ele>
        <time>2019-07-06T15:14:54Z</time>
      </trkpt>
      <trkpt lat="50.46841" lon="6.14046">
        <ele>550.01</ele>
        <time>2019-07-06T15:14:55Z</time>
      </trkpt>
      <trkpt lat="50.46834" lon="6.14043">
        <ele>550.01</ele>
        <time>2019-07-06T15:14:56Z</time>
      </trkpt>
      <trkpt lat="50.46827" lon="6.14042">
        <ele>550.01</ele>
        <time>2019-07-06T15:14:57Z</time>
      </trkpt>
      <trkpt lat="50.4682" lon="6.14041">
        <ele>550.01</ele>
        <time>2019-07-06T15:14:58Z</time>
      </trkpt>
      <trkpt lat="50.46813" lon="6.14039">
        <ele>550.01</ele>
        <time>2019-07-06T15:14:59Z</time>
      </trkpt>
      <trkpt lat="50.46807" lon="6.14037">
        <ele>550.01</ele>
        <time>2019-07-06T15:15:00Z</time>
      </trkpt>
      <trkpt lat="50.468" lon="6.14033">
        <ele>550.01</ele>
        <time>2019-07-06T15:15:01Z</time>
      </trkpt>
      <trkpt lat="50.46794" lon="6.14028">
        <ele>550.01</ele>
        <time>2019-07-06T15:15:02Z</time>
      </trkpt>
      <trkpt lat="50.46788" lon="6.14022">
        <ele>550.01</ele>
        <time>2019-07-06T15:15:03Z</time>
      </trkpt>
      <trkpt lat="50.46782" lon="6.14017">
        <ele>550.01</ele>
        <time>2019-07-06T15:15:04Z</time>
      </trkpt>
      <trkpt lat="50.46686" lon="6.13915">
        <ele>551.93</ele>
        <time>2019-07-06T15:15:22Z</time>
      </trkpt>
      <trkpt lat="50.46593" lon="6.13819">
        <ele>554.34</ele>
        <time>2019-07-06T15:15:40Z</time>
      </trkpt>
      <trkpt lat="50.46557" lon="6.13772">
        <ele>554.82</ele>
        <time>2019-07-06T15:15:48Z</time>
      </trkpt>
      <trkpt lat="50.46495" lon="6.13653">
        <ele>556.74</ele>
        <time>2019-07-06T15:16:05Z</time>
      </trkpt>
      <trkpt lat="50.46443" lon="6.13538">
        <ele>557.22</ele>
        <time>2019-07-06T15:16:20Z</time>
      </trkpt>
      <trkpt lat="50.46413" lon="6.13416">
        <ele>557.22</ele>
        <time>2019-07-06T15:16:33Z</time>
      </trkpt>
      <trkpt lat="50.4641" lon="6.13396">
        <ele>555.78</ele>
        <time>2019-07-06T15:16:35Z</time>
      </trkpt>
      <trkpt lat="50.46402" lon="6.13317">
        <ele>555.3</ele>
        <time>2019-07-06T15:16:43Z</time>
      </trkpt>
      <trkpt lat="50.46403" lon="6.13308">
        <ele>555.3</ele>
        <time>2019-07-06T15:16:44Z</time>
      </trkpt>
      <trkpt lat="50.46405" lon="6.13291">
        <ele>555.3</ele>
        <time>2019-07-06T15:16:46Z</time>
      </trkpt>
      <trkpt lat="50.46403" lon="6.13283">
        <ele>555.3</ele>
        <time>2019-07-06T15:16:47Z</time>
      </trkpt>
      <trkpt lat="50.46398" lon="6.13276">
        <ele>555.3</ele>
        <time>2019-07-06T15:16:48Z</time>
      </trkpt>
      <trkpt lat="50.46394" lon="6.13269">
        <ele>555.3</ele>
        <time>2019-07-06T15:16:49Z</time>
      </trkpt>
      <trkpt lat="50.4639" lon="6.13262">
        <ele>555.3</ele>
        <time>2019-07-06T15:16:50Z</time>
      </trkpt>
      <trkpt lat="50.46387" lon="6.13252">
        <ele>554.82</ele>
        <time>2019-07-06T15:16:51Z</time>
      </trkpt>
      <trkpt lat="50.46384" lon="6.13243">
        <ele>554.82</ele>
        <time>2019-07-06T15:16:52Z</time>
      </trkpt>
      <trkpt lat="50.4638" lon="6.13234">
        <ele>554.82</ele>
        <time>2019-07-06T15:16:53Z</time>
      </trkpt>
      <trkpt lat="50.46376" lon="6.13224">
        <ele>554.34</ele>
        <time>2019-07-06T15:16:54Z</time>
      </trkpt>
      <trkpt lat="50.46371" lon="6.13216">
        <ele>553.86</ele>
        <time>2019-07-06T15:16:55Z</time>
      </trkpt>
      <trkpt lat="50.46365" lon="6.13209">
        <ele>553.86</ele>
        <time>2019-07-06T15:16:56Z</time>
      </trkpt>
      <trkpt lat="50.46359" lon="6.13202">
        <ele>553.38</ele>
        <time>2019-07-06T15:16:57Z</time>
      </trkpt>
      <trkpt lat="50.46319" lon="6.1316">
        <ele>551.45</ele>
        <time>2019-07-06T15:17:03Z</time>
      </trkpt>
      <trkpt lat="50.4621" lon="6.1303">
        <ele>550.01</ele>
        <time>2019-07-06T15:17:21Z</time>
      </trkpt>
      <trkpt lat="50.46181" lon="6.12982">
        <ele>548.57</ele>
        <time>2019-07-06T15:17:27Z</time>
      </trkpt>
      <trkpt lat="50.46179" lon="6.12977">
        <ele>548.57</ele>
        <time>2019-07-06T15:17:28Z</time>
      </trkpt>
      <trkpt lat="50.46176" lon="6.12971">
        <ele>548.57</ele>
        <time>2019-07-06T15:17:29Z</time>
      </trkpt>
      <trkpt lat="50.46171" lon="6.12959">
        <ele>548.57</ele>
        <time>2019-07-06T15:17:31Z</time>
      </trkpt>
      <trkpt lat="50.46167" lon="6.12955">
        <ele>548.57</ele>
        <time>2019-07-06T15:17:32Z</time>
      </trkpt>
      <trkpt lat="50.46163" lon="6.12952">
        <ele>548.57</ele>
        <time>2019-07-06T15:17:33Z</time>
      </trkpt>
      <trkpt lat="50.46157" lon="6.1295">
        <ele>548.57</ele>
        <time>2019-07-06T15:17:34Z</time>
      </trkpt>
      <trkpt lat="50.46152" lon="6.12951">
        <ele>548.57</ele>
        <time>2019-07-06T15:17:35Z</time>
      </trkpt>
      <trkpt lat="50.46145" lon="6.12953">
        <ele>548.57</ele>
        <time>2019-07-06T15:17:36Z</time>
      </trkpt>
      <trkpt lat="50.4606" lon="6.12963">
        <ele>548.57</ele>
        <time>2019-07-06T15:17:49Z</time>
      </trkpt>
      <trkpt lat="50.45925" lon="6.1294">
        <ele>546.65</ele>
        <time>2019-07-06T15:18:08Z</time>
      </trkpt>
      <trkpt lat="50.45895" lon="6.12923">
        <ele>546.17</ele>
        <time>2019-07-06T15:18:12Z</time>
      </trkpt>
      <trkpt lat="50.45888" lon="6.12916">
        <ele>546.17</ele>
        <time>2019-07-06T15:18:13Z</time>
      </trkpt>
      <trkpt lat="50.45817" lon="6.12805">
        <ele>542.8</ele>
        <time>2019-07-06T15:18:25Z</time>
      </trkpt>
      <trkpt lat="50.45752" lon="6.12705">
        <ele>538.96</ele>
        <time>2019-07-06T15:18:35Z</time>
      </trkpt>
      <trkpt lat="50.45746" lon="6.12692">
        <ele>538.48</ele>
        <time>2019-07-06T15:18:36Z</time>
      </trkpt>
      <trkpt lat="50.45697" lon="6.12558">
        <ele>535.11</ele>
        <time>2019-07-06T15:18:46Z</time>
      </trkpt>
      <trkpt lat="50.45615" lon="6.124">
        <ele>532.71</ele>
        <time>2019-07-06T15:19:00Z</time>
      </trkpt>
      <trkpt lat="50.45517" lon="6.1231">
        <ele>528.86</ele>
        <time>2019-07-06T15:19:13Z</time>
      </trkpt>
      <trkpt lat="50.45481" lon="6.12272">
        <ele>528.38</ele>
        <time>2019-07-06T15:19:18Z</time>
      </trkpt>
      <trkpt lat="50.45464" lon="6.12247">
        <ele>527.42</ele>
        <time>2019-07-06T15:19:21Z</time>
      </trkpt>
      <trkpt lat="50.4546" lon="6.12238">
        <ele>526.94</ele>
        <time>2019-07-06T15:19:22Z</time>
      </trkpt>
      <trkpt lat="50.45458" lon="6.12228">
        <ele>526.46</ele>
        <time>2019-07-06T15:19:23Z</time>
      </trkpt>
      <trkpt lat="50.45453" lon="6.12185">
        <ele>526.46</ele>
        <time>2019-07-06T15:19:27Z</time>
      </trkpt>
      <trkpt lat="50.45452" lon="6.12174">
        <ele>526.46</ele>
        <time>2019-07-06T15:19:28Z</time>
      </trkpt>
      <trkpt lat="50.45456" lon="6.12115">
        <ele>524.54</ele>
        <time>2019-07-06T15:19:33Z</time>
      </trkpt>
      <trkpt lat="50.45459" lon="6.12103">
        <ele>524.54</ele>
        <time>2019-07-06T15:19:34Z</time>
      </trkpt>
      <trkpt lat="50.45463" lon="6.12091">
        <ele>524.54</ele>
        <time>2019-07-06T15:19:35Z</time>
      </trkpt>
      <trkpt lat="50.45469" lon="6.1208">
        <ele>524.06</ele>
        <time>2019-07-06T15:19:36Z</time>
      </trkpt>
      <trkpt lat="50.45475" lon="6.12069">
        <ele>523.58</ele>
        <time>2019-07-06T15:19:37Z</time>
      </trkpt>
      <trkpt lat="50.45521" lon="6.1199">
        <ele>519.73</ele>
        <time>2019-07-06T15:19:44Z</time>
      </trkpt>
      <trkpt lat="50.45534" lon="6.11966">
        <ele>518.77</ele>
        <time>2019-07-06T15:19:46Z</time>
      </trkpt>
      <trkpt lat="50.45539" lon="6.11952">
        <ele>518.29</ele>
        <time>2019-07-06T15:19:47Z</time>
      </trkpt>
      <trkpt lat="50.45543" lon="6.11937">
        <ele>517.33</ele>
        <time>2019-07-06T15:19:48Z</time>
      </trkpt>
      <trkpt lat="50.45547" lon="6.11922">
        <ele>516.85</ele>
        <time>2019-07-06T15:19:49Z</time>
      </trkpt>
      <trkpt lat="50.45549" lon="6.11906">
        <ele>515.4</ele>
        <time>2019-07-06T15:19:50Z</time>
      </trkpt>
      <trkpt lat="50.45552" lon="6.1189">
        <ele>513.96</ele>
        <time>2019-07-06T15:19:51Z</time>
      </trkpt>
      <trkpt lat="50.45557" lon="6.11875">
        <ele>513</ele>
        <time>2019-07-06T15:19:52Z</time>
      </trkpt>
      <trkpt lat="50.45565" lon="6.11862">
        <ele>511.08</ele>
        <time>2019-07-06T15:19:53Z</time>
      </trkpt>
      <trkpt lat="50.45575" lon="6.11854">
        <ele>510.12</ele>
        <time>2019-07-06T15:19:54Z</time>
      </trkpt>
      <trkpt lat="50.45586" lon="6.1185">
        <ele>509.16</ele>
        <time>2019-07-06T15:19:55Z</time>
      </trkpt>
      <trkpt lat="50.45597" lon="6.11849">
        <ele>508.19</ele>
        <time>2019-07-06T15:19:56Z</time>
      </trkpt>
      <trkpt lat="50.4561" lon="6.1185">
        <ele>507.71</ele>
        <time>2019-07-06T15:19:57Z</time>
      </trkpt>
      <trkpt lat="50.45621" lon="6.11856">
        <ele>507.23</ele>
        <time>2019-07-06T15:19:58Z</time>
      </trkpt>
      <trkpt lat="50.45631" lon="6.11862">
        <ele>507.23</ele>
        <time>2019-07-06T15:19:59Z</time>
      </trkpt>
      <trkpt lat="50.4566" lon="6.11874">
        <ele>504.83</ele>
        <time>2019-07-06T15:20:02Z</time>
      </trkpt>
      <trkpt lat="50.45667" lon="6.11872">
        <ele>504.83</ele>
        <time>2019-07-06T15:20:03Z</time>
      </trkpt>
      <trkpt lat="50.45675" lon="6.11866">
        <ele>503.87</ele>
        <time>2019-07-06T15:20:04Z</time>
      </trkpt>
      <trkpt lat="50.4568" lon="6.11856">
        <ele>503.39</ele>
        <time>2019-07-06T15:20:05Z</time>
      </trkpt>
      <trkpt lat="50.45683" lon="6.11845">
        <ele>503.39</ele>
        <time>2019-07-06T15:20:06Z</time>
      </trkpt>
      <trkpt lat="50.45685" lon="6.11829">
        <ele>503.39</ele>
        <time>2019-07-06T15:20:07Z</time>
      </trkpt>
      <trkpt lat="50.45683" lon="6.11819">
        <ele>503.39</ele>
        <time>2019-07-06T15:20:08Z</time>
      </trkpt>
      <trkpt lat="50.45679" lon="6.11808">
        <ele>503.39</ele>
        <time>2019-07-06T15:20:09Z</time>
      </trkpt>
      <trkpt lat="50.45674" lon="6.11798">
        <ele>502.91</ele>
        <time>2019-07-06T15:20:10Z</time>
      </trkpt>
      <trkpt lat="50.45669" lon="6.11788">
        <ele>502.91</ele>
        <time>2019-07-06T15:20:11Z</time>
      </trkpt>
      <trkpt lat="50.45664" lon="6.11777">
        <ele>502.91</ele>
        <time>2019-07-06T15:20:12Z</time>
      </trkpt>
      <trkpt lat="50.45653" lon="6.11746">
        <ele>502.91</ele>
        <time>2019-07-06T15:20:15Z</time>
      </trkpt>
      <trkpt lat="50.45651" lon="6.11734">
        <ele>504.83</ele>
        <time>2019-07-06T15:20:16Z</time>
      </trkpt>
      <trkpt lat="50.4565" lon="6.11724">
        <ele>504.83</ele>
        <time>2019-07-06T15:20:17Z</time>
      </trkpt>
      <trkpt lat="50.45649" lon="6.11714">
        <ele>505.79</ele>
        <time>2019-07-06T15:20:18Z</time>
      </trkpt>
      <trkpt lat="50.45649" lon="6.11705">
        <ele>506.75</ele>
        <time>2019-07-06T15:20:19Z</time>
      </trkpt>
      <trkpt lat="50.45649" lon="6.11696">
        <ele>506.75</ele>
        <time>2019-07-06T15:20:20Z</time>
      </trkpt>
      <trkpt lat="50.4565" lon="6.11687">
        <ele>506.75</ele>
        <time>2019-07-06T15:20:21Z</time>
      </trkpt>
      <trkpt lat="50.45655" lon="6.11626">
        <ele>510.6</ele>
        <time>2019-07-06T15:20:29Z</time>
      </trkpt>
      <trkpt lat="50.45654" lon="6.11619">
        <ele>511.08</ele>
        <time>2019-07-06T15:20:30Z</time>
      </trkpt>
      <trkpt lat="50.45653" lon="6.11612">
        <ele>511.08</ele>
        <time>2019-07-06T15:20:31Z</time>
      </trkpt>
      <trkpt lat="50.45652" lon="6.11606">
        <ele>512.04</ele>
        <time>2019-07-06T15:20:32Z</time>
      </trkpt>
      <trkpt lat="50.4565" lon="6.11599">
        <ele>512.04</ele>
        <time>2019-07-06T15:20:33Z</time>
      </trkpt>
      <trkpt lat="50.45647" lon="6.11593">
        <ele>512.52</ele>
        <time>2019-07-06T15:20:34Z</time>
      </trkpt>
      <trkpt lat="50.45645" lon="6.11587">
        <ele>512.52</ele>
        <time>2019-07-06T15:20:35Z</time>
      </trkpt>
      <trkpt lat="50.4563" lon="6.11563">
        <ele>513.96</ele>
        <time>2019-07-06T15:20:40Z</time>
      </trkpt>
      <trkpt lat="50.45627" lon="6.11557">
        <ele>514.44</ele>
        <time>2019-07-06T15:20:41Z</time>
      </trkpt>
      <trkpt lat="50.45626" lon="6.11551">
        <ele>514.44</ele>
        <time>2019-07-06T15:20:42Z</time>
      </trkpt>
      <trkpt lat="50.45626" lon="6.11544">
        <ele>514.92</ele>
        <time>2019-07-06T15:20:43Z</time>
      </trkpt>
      <trkpt lat="50.45627" lon="6.11537">
        <ele>514.92</ele>
        <time>2019-07-06T15:20:44Z</time>
      </trkpt>
      <trkpt lat="50.45629" lon="6.11531">
        <ele>515.4</ele>
        <time>2019-07-06T15:20:45Z</time>
      </trkpt>
      <trkpt lat="50.45632" lon="6.11526">
        <ele>515.4</ele>
        <time>2019-07-06T15:20:46Z</time>
      </trkpt>
      <trkpt lat="50.45655" lon="6.11484">
        <ele>518.77</ele>
        <time>2019-07-06T15:20:55Z</time>
      </trkpt>
      <trkpt lat="50.45679" lon="6.11437">
        <ele>522.13</ele>
        <time>2019-07-06T15:21:04Z</time>
      </trkpt>
      <trkpt lat="50.45704" lon="6.11376">
        <ele>525.5</ele>
        <time>2019-07-06T15:21:16Z</time>
      </trkpt>
      <trkpt lat="50.45735" lon="6.11311">
        <ele>528.86</ele>
        <time>2019-07-06T15:21:29Z</time>
      </trkpt>
      <trkpt lat="50.45765" lon="6.1127">
        <ele>531.27</ele>
        <time>2019-07-06T15:21:39Z</time>
      </trkpt>
      <trkpt lat="50.45773" lon="6.11264">
        <ele>531.75</ele>
        <time>2019-07-06T15:21:41Z</time>
      </trkpt>
      <trkpt lat="50.45814" lon="6.11231">
        <ele>534.63</ele>
        <time>2019-07-06T15:21:53Z</time>
      </trkpt>
      <trkpt lat="50.45848" lon="6.11178">
        <ele>536.55</ele>
        <time>2019-07-06T15:22:06Z</time>
      </trkpt>
      <trkpt lat="50.45868" lon="6.1114">
        <ele>537.03</ele>
        <time>2019-07-06T15:22:14Z</time>
      </trkpt>
      <trkpt lat="50.45871" lon="6.11136">
        <ele>537.51</ele>
        <time>2019-07-06T15:22:15Z</time>
      </trkpt>
      <trkpt lat="50.4593" lon="6.11081">
        <ele>537.51</ele>
        <time>2019-07-06T15:22:30Z</time>
      </trkpt>
      <trkpt lat="50.45946" lon="6.11067">
        <ele>537.51</ele>
        <time>2019-07-06T15:22:34Z</time>
      </trkpt>
      <trkpt lat="50.46022" lon="6.11007">
        <ele>537.99</ele>
        <time>2019-07-06T15:22:52Z</time>
      </trkpt>
      <trkpt lat="50.46102" lon="6.10942">
        <ele>540.4</ele>
        <time>2019-07-06T15:23:12Z</time>
      </trkpt>
      <trkpt lat="50.46127" lon="6.10925">
        <ele>541.36</ele>
        <time>2019-07-06T15:23:18Z</time>
      </trkpt>
      <trkpt lat="50.46131" lon="6.10923">
        <ele>541.36</ele>
        <time>2019-07-06T15:23:19Z</time>
      </trkpt>
      <trkpt lat="50.4614" lon="6.10918">
        <ele>541.84</ele>
        <time>2019-07-06T15:23:21Z</time>
      </trkpt>
      <trkpt lat="50.46193" lon="6.10901">
        <ele>545.2</ele>
        <time>2019-07-06T15:23:34Z</time>
      </trkpt>
      <trkpt lat="50.46248" lon="6.10884">
        <ele>548.57</ele>
        <time>2019-07-06T15:23:48Z</time>
      </trkpt>
      <trkpt lat="50.46303" lon="6.10864">
        <ele>551.93</ele>
        <time>2019-07-06T15:24:03Z</time>
      </trkpt>
      <trkpt lat="50.4634" lon="6.10824">
        <ele>555.3</ele>
        <time>2019-07-06T15:24:15Z</time>
      </trkpt>
      <trkpt lat="50.46366" lon="6.10769">
        <ele>558.18</ele>
        <time>2019-07-06T15:24:27Z</time>
      </trkpt>
      <trkpt lat="50.46381" lon="6.10735">
        <ele>560.11</ele>
        <time>2019-07-06T15:24:39Z</time>
      </trkpt>
      <trkpt lat="50.46381" lon="6.10732">
        <ele>560.59</ele>
        <time>2019-07-06T15:24:40Z</time>
      </trkpt>
      <trkpt lat="50.4638" lon="6.10729">
        <ele>560.59</ele>
        <time>2019-07-06T15:24:41Z</time>
      </trkpt>
      <trkpt lat="50.4638" lon="6.10726">
        <ele>560.59</ele>
        <time>2019-07-06T15:24:42Z</time>
      </trkpt>
      <trkpt lat="50.46379" lon="6.10722">
        <ele>560.59</ele>
        <time>2019-07-06T15:24:43Z</time>
      </trkpt>
      <trkpt lat="50.46378" lon="6.10719">
        <ele>560.59</ele>
        <time>2019-07-06T15:24:44Z</time>
      </trkpt>
      <trkpt lat="50.46378" lon="6.10715">
        <ele>560.59</ele>
        <time>2019-07-06T15:24:45Z</time>
      </trkpt>
      <trkpt lat="50.46379" lon="6.10654">
        <ele>562.03</ele>
        <time>2019-07-06T15:24:59Z</time>
      </trkpt>
      <trkpt lat="50.46397" lon="6.10596">
        <ele>563.47</ele>
        <time>2019-07-06T15:25:12Z</time>
      </trkpt>
      <trkpt lat="50.46427" lon="6.10531">
        <ele>565.39</ele>
        <time>2019-07-06T15:25:26Z</time>
      </trkpt>
      <trkpt lat="50.46458" lon="6.10475">
        <ele>566.35</ele>
        <time>2019-07-06T15:25:38Z</time>
      </trkpt>
      <trkpt lat="50.46474" lon="6.1045">
        <ele>566.35</ele>
        <time>2019-07-06T15:25:43Z</time>
      </trkpt>
      <trkpt lat="50.46501" lon="6.10417">
        <ele>566.35</ele>
        <time>2019-07-06T15:25:52Z</time>
      </trkpt>
      <trkpt lat="50.46501" lon="6.10415">
        <ele>566.35</ele>
        <time>2019-07-06T15:25:53Z</time>
      </trkpt>
      <trkpt lat="50.465" lon="6.10416">
        <ele>566.35</ele>
        <time>2019-07-06T15:25:54Z</time>
      </trkpt>
      <trkpt lat="50.46498" lon="6.10417">
        <ele>566.35</ele>
        <time>2019-07-06T15:25:55Z</time>
      </trkpt>
      <trkpt lat="50.46497" lon="6.10419">
        <ele>566.35</ele>
        <time>2019-07-06T15:25:56Z</time>
      </trkpt>
      <trkpt lat="50.46495" lon="6.10421">
        <ele>566.35</ele>
        <time>2019-07-06T15:25:57Z</time>
      </trkpt>
      <trkpt lat="50.46474" lon="6.10449">
        <ele>566.35</ele>
        <time>2019-07-06T15:26:11Z</time>
      </trkpt>
      <trkpt lat="50.46462" lon="6.10457">
        <ele>566.35</ele>
        <time>2019-07-06T15:26:17Z</time>
      </trkpt>
      <trkpt lat="50.46461" lon="6.10459">
        <ele>566.35</ele>
        <time>2019-07-06T15:26:18Z</time>
      </trkpt>
      <trkpt lat="50.4646" lon="6.10462">
        <ele>566.35</ele>
        <time>2019-07-06T15:26:19Z</time>
      </trkpt>
      <trkpt lat="50.46459" lon="6.10466">
        <ele>566.35</ele>
        <time>2019-07-06T15:26:20Z</time>
      </trkpt>
      <trkpt lat="50.46458" lon="6.10471">
        <ele>566.35</ele>
        <time>2019-07-06T15:26:21Z</time>
      </trkpt>
      <trkpt lat="50.46456" lon="6.10476">
        <ele>566.35</ele>
        <time>2019-07-06T15:26:22Z</time>
      </trkpt>
      <trkpt lat="50.46454" lon="6.1048">
        <ele>566.35</ele>
        <time>2019-07-06T15:26:23Z</time>
      </trkpt>
      <trkpt lat="50.46451" lon="6.10485">
        <ele>566.35</ele>
        <time>2019-07-06T15:26:24Z</time>
      </trkpt>
      <trkpt lat="50.46447" lon="6.10491">
        <ele>566.35</ele>
        <time>2019-07-06T15:26:25Z</time>
      </trkpt>
      <trkpt lat="50.46443" lon="6.10498">
        <ele>566.35</ele>
        <time>2019-07-06T15:26:26Z</time>
      </trkpt>
      <trkpt lat="50.4643" lon="6.1052">
        <ele>566.35</ele>
        <time>2019-07-06T15:26:29Z</time>
      </trkpt>
      <trkpt lat="50.46384" lon="6.10627">
        <ele>563.47</ele>
        <time>2019-07-06T15:26:41Z</time>
      </trkpt>
      <trkpt lat="50.46379" lon="6.10649">
        <ele>563.47</ele>
        <time>2019-07-06T15:26:43Z</time>
      </trkpt>
      <trkpt lat="50.46378" lon="6.10661">
        <ele>562.51</ele>
        <time>2019-07-06T15:26:44Z</time>
      </trkpt>
      <trkpt lat="50.46377" lon="6.10672">
        <ele>562.51</ele>
        <time>2019-07-06T15:26:45Z</time>
      </trkpt>
      <trkpt lat="50.46377" lon="6.10703">
        <ele>561.55</ele>
        <time>2019-07-06T15:26:48Z</time>
      </trkpt>
      <trkpt lat="50.46377" lon="6.10712">
        <ele>561.07</ele>
        <time>2019-07-06T15:26:49Z</time>
      </trkpt>
      <trkpt lat="50.46382" lon="6.10736">
        <ele>560.59</ele>
        <time>2019-07-06T15:26:56Z</time>
      </trkpt>
      <trkpt lat="50.46383" lon="6.10736">
        <ele>560.59</ele>
        <time>2019-07-06T15:26:57Z</time>
      </trkpt>
      <trkpt lat="50.46384" lon="6.10735">
        <ele>560.59</ele>
        <time>2019-07-06T15:26:58Z</time>
      </trkpt>
      <trkpt lat="50.46384" lon="6.10734">
        <ele>560.59</ele>
        <time>2019-07-06T15:26:59Z</time>
      </trkpt>
      <trkpt lat="50.46383" lon="6.1073">
        <ele>560.59</ele>
        <time>2019-07-06T15:27:04Z</time>
      </trkpt>
      <trkpt lat="50.46381" lon="6.10727">
        <ele>560.59</ele>
        <time>2019-07-06T15:27:05Z</time>
      </trkpt>
      <trkpt lat="50.4638" lon="6.10724">
        <ele>560.59</ele>
        <time>2019-07-06T15:27:06Z</time>
      </trkpt>
      <trkpt lat="50.4638" lon="6.10721">
        <ele>560.59</ele>
        <time>2019-07-06T15:27:07Z</time>
      </trkpt>
      <trkpt lat="50.46379" lon="6.10718">
        <ele>560.59</ele>
        <time>2019-07-06T15:27:08Z</time>
      </trkpt>
      <trkpt lat="50.46378" lon="6.10694">
        <ele>560.59</ele>
        <time>2019-07-06T15:27:12Z</time>
      </trkpt>
      <trkpt lat="50.46378" lon="6.10671">
        <ele>562.03</ele>
        <time>2019-07-06T15:27:15Z</time>
      </trkpt>
      <trkpt lat="50.46379" lon="6.10663">
        <ele>562.03</ele>
        <time>2019-07-06T15:27:16Z</time>
      </trkpt>
      <trkpt lat="50.46379" lon="6.10656">
        <ele>562.03</ele>
        <time>2019-07-06T15:27:17Z</time>
      </trkpt>
      <trkpt lat="50.4638" lon="6.10649">
        <ele>562.51</ele>
        <time>2019-07-06T15:27:18Z</time>
      </trkpt>
      <trkpt lat="50.46381" lon="6.10642">
        <ele>562.51</ele>
        <time>2019-07-06T15:27:19Z</time>
      </trkpt>
      <trkpt lat="50.46385" lon="6.10628">
        <ele>562.51</ele>
        <time>2019-07-06T15:27:21Z</time>
      </trkpt>
      <trkpt lat="50.46415" lon="6.10557">
        <ele>564.91</ele>
        <time>2019-07-06T15:27:32Z</time>
      </trkpt>
      <trkpt lat="50.46418" lon="6.10552">
        <ele>564.91</ele>
        <time>2019-07-06T15:27:33Z</time>
      </trkpt>
      <trkpt lat="50.4642" lon="6.10545">
        <ele>564.91</ele>
        <time>2019-07-06T15:27:34Z</time>
      </trkpt>
      <trkpt lat="50.46431" lon="6.10519">
        <ele>565.87</ele>
        <time>2019-07-06T15:27:38Z</time>
      </trkpt>
      <trkpt lat="50.46441" lon="6.10502">
        <ele>565.87</ele>
        <time>2019-07-06T15:27:41Z</time>
      </trkpt>
      <trkpt lat="50.46479" lon="6.10447">
        <ele>566.83</ele>
        <time>2019-07-06T15:27:52Z</time>
      </trkpt>
      <trkpt lat="50.46531" lon="6.10385">
        <ele>566.83</ele>
        <time>2019-07-06T15:28:04Z</time>
      </trkpt>
      <trkpt lat="50.46577" lon="6.10336">
        <ele>564.91</ele>
        <time>2019-07-06T15:28:15Z</time>
      </trkpt>
      <trkpt lat="50.46578" lon="6.1033">
        <ele>564.91</ele>
        <time>2019-07-06T15:28:16Z</time>
      </trkpt>
      <trkpt lat="50.46578" lon="6.10321">
        <ele>564.91</ele>
        <time>2019-07-06T15:28:17Z</time>
      </trkpt>
      <trkpt lat="50.46578" lon="6.10315">
        <ele>564.91</ele>
        <time>2019-07-06T15:28:18Z</time>
      </trkpt>
      <trkpt lat="50.46569" lon="6.10216">
        <ele>562.03</ele>
        <time>2019-07-06T15:28:27Z</time>
      </trkpt>
      <trkpt lat="50.46563" lon="6.10133">
        <ele>559.14</ele>
        <time>2019-07-06T15:28:33Z</time>
      </trkpt>
      <trkpt lat="50.4656" lon="6.10118">
        <ele>558.66</ele>
        <time>2019-07-06T15:28:34Z</time>
      </trkpt>
      <trkpt lat="50.46556" lon="6.10105">
        <ele>557.7</ele>
        <time>2019-07-06T15:28:35Z</time>
      </trkpt>
      <trkpt lat="50.46552" lon="6.10091">
        <ele>556.74</ele>
        <time>2019-07-06T15:28:36Z</time>
      </trkpt>
      <trkpt lat="50.46547" lon="6.10077">
        <ele>556.26</ele>
        <time>2019-07-06T15:28:37Z</time>
      </trkpt>
      <trkpt lat="50.46542" lon="6.10063">
        <ele>556.26</ele>
        <time>2019-07-06T15:28:38Z</time>
      </trkpt>
      <trkpt lat="50.46527" lon="6.10017">
        <ele>553.38</ele>
        <time>2019-07-06T15:28:41Z</time>
      </trkpt>
      <trkpt lat="50.46523" lon="6.1">
        <ele>552.41</ele>
        <time>2019-07-06T15:28:42Z</time>
      </trkpt>
      <trkpt lat="50.46514" lon="6.09924">
        <ele>548.57</ele>
        <time>2019-07-06T15:28:46Z</time>
      </trkpt>
      <trkpt lat="50.4651" lon="6.09868">
        <ele>545.2</ele>
        <time>2019-07-06T15:28:49Z</time>
      </trkpt>
      <trkpt lat="50.46508" lon="6.09814">
        <ele>542.32</ele>
        <time>2019-07-06T15:28:52Z</time>
      </trkpt>
      <trkpt lat="50.46509" lon="6.09756">
        <ele>538.96</ele>
        <time>2019-07-06T15:28:55Z</time>
      </trkpt>
      <trkpt lat="50.46516" lon="6.09698">
        <ele>535.11</ele>
        <time>2019-07-06T15:28:58Z</time>
      </trkpt>
      <trkpt lat="50.46529" lon="6.09645">
        <ele>531.75</ele>
        <time>2019-07-06T15:29:01Z</time>
      </trkpt>
      <trkpt lat="50.46546" lon="6.09591">
        <ele>528.38</ele>
        <time>2019-07-06T15:29:04Z</time>
      </trkpt>
      <trkpt lat="50.46563" lon="6.09541">
        <ele>524.54</ele>
        <time>2019-07-06T15:29:07Z</time>
      </trkpt>
      <trkpt lat="50.46571" lon="6.09504">
        <ele>521.65</ele>
        <time>2019-07-06T15:29:09Z</time>
      </trkpt>
      <trkpt lat="50.46573" lon="6.09487">
        <ele>520.69</ele>
        <time>2019-07-06T15:29:10Z</time>
      </trkpt>
      <trkpt lat="50.46574" lon="6.0947">
        <ele>519.25</ele>
        <time>2019-07-06T15:29:11Z</time>
      </trkpt>
      <trkpt lat="50.46573" lon="6.0945">
        <ele>518.29</ele>
        <time>2019-07-06T15:29:12Z</time>
      </trkpt>
      <trkpt lat="50.46572" lon="6.09432">
        <ele>517.33</ele>
        <time>2019-07-06T15:29:13Z</time>
      </trkpt>
      <trkpt lat="50.46566" lon="6.09374">
        <ele>513.96</ele>
        <time>2019-07-06T15:29:16Z</time>
      </trkpt>
      <trkpt lat="50.46559" lon="6.09321">
        <ele>510.6</ele>
        <time>2019-07-06T15:29:19Z</time>
      </trkpt>
      <trkpt lat="50.46555" lon="6.09305">
        <ele>509.16</ele>
        <time>2019-07-06T15:29:20Z</time>
      </trkpt>
      <trkpt lat="50.46545" lon="6.09266">
        <ele>505.79</ele>
        <time>2019-07-06T15:29:23Z</time>
      </trkpt>
      <trkpt lat="50.46544" lon="6.09254">
        <ele>504.83</ele>
        <time>2019-07-06T15:29:24Z</time>
      </trkpt>
      <trkpt lat="50.46545" lon="6.09244">
        <ele>503.87</ele>
        <time>2019-07-06T15:29:25Z</time>
      </trkpt>
      <trkpt lat="50.46547" lon="6.09233">
        <ele>502.91</ele>
        <time>2019-07-06T15:29:26Z</time>
      </trkpt>
      <trkpt lat="50.46552" lon="6.09223">
        <ele>501.95</ele>
        <time>2019-07-06T15:29:27Z</time>
      </trkpt>
      <trkpt lat="50.46559" lon="6.09216">
        <ele>500.98</ele>
        <time>2019-07-06T15:29:28Z</time>
      </trkpt>
      <trkpt lat="50.46566" lon="6.09212">
        <ele>500.5</ele>
        <time>2019-07-06T15:29:29Z</time>
      </trkpt>
      <trkpt lat="50.46573" lon="6.09211">
        <ele>499.54</ele>
        <time>2019-07-06T15:29:30Z</time>
      </trkpt>
      <trkpt lat="50.46581" lon="6.09217">
        <ele>498.58</ele>
        <time>2019-07-06T15:29:31Z</time>
      </trkpt>
      <trkpt lat="50.46589" lon="6.09225">
        <ele>497.62</ele>
        <time>2019-07-06T15:29:32Z</time>
      </trkpt>
      <trkpt lat="50.46594" lon="6.09236">
        <ele>497.14</ele>
        <time>2019-07-06T15:29:33Z</time>
      </trkpt>
      <trkpt lat="50.46597" lon="6.09248">
        <ele>496.18</ele>
        <time>2019-07-06T15:29:34Z</time>
      </trkpt>
      <trkpt lat="50.46598" lon="6.09261">
        <ele>495.7</ele>
        <time>2019-07-06T15:29:35Z</time>
      </trkpt>
      <trkpt lat="50.46599" lon="6.09274">
        <ele>495.22</ele>
        <time>2019-07-06T15:29:36Z</time>
      </trkpt>
      <trkpt lat="50.46606" lon="6.09324">
        <ele>493.29</ele>
        <time>2019-07-06T15:29:40Z</time>
      </trkpt>
      <trkpt lat="50.4662" lon="6.09362">
        <ele>491.37</ele>
        <time>2019-07-06T15:29:43Z</time>
      </trkpt>
      <trkpt lat="50.46625" lon="6.0937">
        <ele>490.89</ele>
        <time>2019-07-06T15:29:44Z</time>
      </trkpt>
      <trkpt lat="50.4663" lon="6.09376">
        <ele>490.41</ele>
        <time>2019-07-06T15:29:45Z</time>
      </trkpt>
      <trkpt lat="50.46635" lon="6.09379">
        <ele>490.41</ele>
        <time>2019-07-06T15:29:46Z</time>
      </trkpt>
      <trkpt lat="50.46643" lon="6.09377">
        <ele>489.45</ele>
        <time>2019-07-06T15:29:47Z</time>
      </trkpt>
      <trkpt lat="50.46649" lon="6.09373">
        <ele>488.97</ele>
        <time>2019-07-06T15:29:48Z</time>
      </trkpt>
      <trkpt lat="50.46656" lon="6.09365">
        <ele>488.49</ele>
        <time>2019-07-06T15:29:49Z</time>
      </trkpt>
      <trkpt lat="50.46662" lon="6.09355">
        <ele>488.49</ele>
        <time>2019-07-06T15:29:50Z</time>
      </trkpt>
      <trkpt lat="50.46667" lon="6.09345">
        <ele>487.53</ele>
        <time>2019-07-06T15:29:51Z</time>
      </trkpt>
      <trkpt lat="50.46671" lon="6.09334">
        <ele>487.53</ele>
        <time>2019-07-06T15:29:52Z</time>
      </trkpt>
      <trkpt lat="50.46696" lon="6.09244">
        <ele>484.16</ele>
        <time>2019-07-06T15:29:59Z</time>
      </trkpt>
      <trkpt lat="50.46699" lon="6.0923">
        <ele>483.68</ele>
        <time>2019-07-06T15:30:00Z</time>
      </trkpt>
      <trkpt lat="50.46704" lon="6.09217">
        <ele>482.72</ele>
        <time>2019-07-06T15:30:01Z</time>
      </trkpt>
      <trkpt lat="50.46711" lon="6.09206">
        <ele>482.24</ele>
        <time>2019-07-06T15:30:02Z</time>
      </trkpt>
      <trkpt lat="50.4672" lon="6.09198">
        <ele>481.76</ele>
        <time>2019-07-06T15:30:03Z</time>
      </trkpt>
      <trkpt lat="50.46729" lon="6.09193">
        <ele>480.8</ele>
        <time>2019-07-06T15:30:04Z</time>
      </trkpt>
      <trkpt lat="50.4674" lon="6.09193">
        <ele>480.32</ele>
        <time>2019-07-06T15:30:05Z</time>
      </trkpt>
      <trkpt lat="50.46751" lon="6.09194">
        <ele>479.35</ele>
        <time>2019-07-06T15:30:06Z</time>
      </trkpt>
      <trkpt lat="50.46762" lon="6.09196">
        <ele>478.39</ele>
        <time>2019-07-06T15:30:07Z</time>
      </trkpt>
      <trkpt lat="50.4678" lon="6.09203">
        <ele>476.95</ele>
        <time>2019-07-06T15:30:09Z</time>
      </trkpt>
      <trkpt lat="50.46788" lon="6.09205">
        <ele>475.99</ele>
        <time>2019-07-06T15:30:10Z</time>
      </trkpt>
      <trkpt lat="50.46796" lon="6.09204">
        <ele>475.51</ele>
        <time>2019-07-06T15:30:11Z</time>
      </trkpt>
      <trkpt lat="50.46804" lon="6.09199">
        <ele>474.55</ele>
        <time>2019-07-06T15:30:12Z</time>
      </trkpt>
      <trkpt lat="50.46811" lon="6.09192">
        <ele>474.55</ele>
        <time>2019-07-06T15:30:13Z</time>
      </trkpt>
      <trkpt lat="50.46816" lon="6.09181">
        <ele>474.55</ele>
        <time>2019-07-06T15:30:14Z</time>
      </trkpt>
      <trkpt lat="50.46816" lon="6.09169">
        <ele>474.55</ele>
        <time>2019-07-06T15:30:15Z</time>
      </trkpt>
      <trkpt lat="50.46815" lon="6.0916">
        <ele>474.55</ele>
        <time>2019-07-06T15:30:16Z</time>
      </trkpt>
      <trkpt lat="50.46809" lon="6.0915">
        <ele>474.07</ele>
        <time>2019-07-06T15:30:17Z</time>
      </trkpt>
      <trkpt lat="50.46805" lon="6.09142">
        <ele>474.55</ele>
        <time>2019-07-06T15:30:18Z</time>
      </trkpt>
      <trkpt lat="50.46799" lon="6.09135">
        <ele>474.55</ele>
        <time>2019-07-06T15:30:19Z</time>
      </trkpt>
      <trkpt lat="50.46794" lon="6.09128">
        <ele>474.55</ele>
        <time>2019-07-06T15:30:20Z</time>
      </trkpt>
      <trkpt lat="50.46785" lon="6.09115">
        <ele>475.51</ele>
        <time>2019-07-06T15:30:22Z</time>
      </trkpt>
      <trkpt lat="50.46752" lon="6.09072">
        <ele>478.87</ele>
        <time>2019-07-06T15:30:30Z</time>
      </trkpt>
      <trkpt lat="50.46731" lon="6.09046">
        <ele>480.8</ele>
        <time>2019-07-06T15:30:36Z</time>
      </trkpt>
      <trkpt lat="50.46707" lon="6.0901">
        <ele>484.16</ele>
        <time>2019-07-06T15:30:45Z</time>
      </trkpt>
      <trkpt lat="50.46679" lon="6.08972">
        <ele>488.01</ele>
        <time>2019-07-06T15:30:55Z</time>
      </trkpt>
      <trkpt lat="50.46647" lon="6.08925">
        <ele>490.89</ele>
        <time>2019-07-06T15:31:07Z</time>
      </trkpt>
      <trkpt lat="50.46635" lon="6.08878">
        <ele>493.77</ele>
        <time>2019-07-06T15:31:17Z</time>
      </trkpt>
      <trkpt lat="50.46632" lon="6.08826">
        <ele>497.14</ele>
        <time>2019-07-06T15:31:28Z</time>
      </trkpt>
      <trkpt lat="50.46662" lon="6.08813">
        <ele>500.98</ele>
        <time>2019-07-06T15:31:39Z</time>
      </trkpt>
      <trkpt lat="50.46698" lon="6.08814">
        <ele>503.87</ele>
        <time>2019-07-06T15:31:52Z</time>
      </trkpt>
      <trkpt lat="50.46716" lon="6.08772">
        <ele>506.75</ele>
        <time>2019-07-06T15:32:03Z</time>
      </trkpt>
      <trkpt lat="50.46726" lon="6.08708">
        <ele>509.64</ele>
        <time>2019-07-06T15:32:20Z</time>
      </trkpt>
      <trkpt lat="50.46745" lon="6.08639">
        <ele>512.52</ele>
        <time>2019-07-06T15:32:37Z</time>
      </trkpt>
      <trkpt lat="50.4677" lon="6.08616">
        <ele>513.96</ele>
        <time>2019-07-06T15:32:46Z</time>
      </trkpt>
      <trkpt lat="50.46817" lon="6.08614">
        <ele>517.33</ele>
        <time>2019-07-06T15:32:57Z</time>
      </trkpt>
      <trkpt lat="50.46842" lon="6.08615">
        <ele>518.29</ele>
        <time>2019-07-06T15:33:03Z</time>
      </trkpt>
      <trkpt lat="50.46855" lon="6.08612">
        <ele>518.29</ele>
        <time>2019-07-06T15:33:06Z</time>
      </trkpt>
      <trkpt lat="50.4691" lon="6.08557">
        <ele>521.17</ele>
        <time>2019-07-06T15:33:21Z</time>
      </trkpt>
      <trkpt lat="50.46952" lon="6.08515">
        <ele>524.54</ele>
        <time>2019-07-06T15:33:32Z</time>
      </trkpt>
      <trkpt lat="50.4696" lon="6.08507">
        <ele>524.54</ele>
        <time>2019-07-06T15:33:34Z</time>
      </trkpt>
      <trkpt lat="50.46993" lon="6.08481">
        <ele>526.46</ele>
        <time>2019-07-06T15:33:42Z</time>
      </trkpt>
      <trkpt lat="50.47027" lon="6.0845">
        <ele>529.34</ele>
        <time>2019-07-06T15:33:51Z</time>
      </trkpt>
      <trkpt lat="50.47029" lon="6.08445">
        <ele>529.34</ele>
        <time>2019-07-06T15:33:52Z</time>
      </trkpt>
      <trkpt lat="50.47032" lon="6.08439">
        <ele>529.34</ele>
        <time>2019-07-06T15:33:53Z</time>
      </trkpt>
      <trkpt lat="50.47046" lon="6.08394">
        <ele>530.79</ele>
        <time>2019-07-06T15:34:00Z</time>
      </trkpt>
      <trkpt lat="50.47047" lon="6.08388">
        <ele>530.79</ele>
        <time>2019-07-06T15:34:01Z</time>
      </trkpt>
      <trkpt lat="50.47048" lon="6.08382">
        <ele>530.79</ele>
        <time>2019-07-06T15:34:02Z</time>
      </trkpt>
      <trkpt lat="50.47058" lon="6.08336">
        <ele>532.71</ele>
        <time>2019-07-06T15:34:09Z</time>
      </trkpt>
      <trkpt lat="50.4706" lon="6.0833">
        <ele>532.71</ele>
        <time>2019-07-06T15:34:10Z</time>
      </trkpt>
      <trkpt lat="50.47089" lon="6.08249">
        <ele>535.11</ele>
        <time>2019-07-06T15:34:26Z</time>
      </trkpt>
      <trkpt lat="50.47128" lon="6.08207">
        <ele>536.55</ele>
        <time>2019-07-06T15:34:40Z</time>
      </trkpt>
      <trkpt lat="50.4717" lon="6.08181">
        <ele>539.44</ele>
        <time>2019-07-06T15:34:55Z</time>
      </trkpt>
      <trkpt lat="50.47193" lon="6.0813">
        <ele>541.36</ele>
        <time>2019-07-06T15:35:09Z</time>
      </trkpt>
      <trkpt lat="50.47194" lon="6.0805">
        <ele>544.24</ele>
        <time>2019-07-06T15:35:25Z</time>
      </trkpt>
      <trkpt lat="50.47187" lon="6.07995">
        <ele>544.72</ele>
        <time>2019-07-06T15:35:38Z</time>
      </trkpt>
      <trkpt lat="50.47177" lon="6.07966">
        <ele>544.72</ele>
        <time>2019-07-06T15:35:44Z</time>
      </trkpt>
      <trkpt lat="50.47173" lon="6.07954">
        <ele>543.28</ele>
        <time>2019-07-06T15:35:46Z</time>
      </trkpt>
      <trkpt lat="50.47125" lon="6.07875">
        <ele>541.84</ele>
        <time>2019-07-06T15:36:00Z</time>
      </trkpt>
      <trkpt lat="50.47088" lon="6.07766">
        <ele>540.4</ele>
        <time>2019-07-06T15:36:13Z</time>
      </trkpt>
      <trkpt lat="50.47054" lon="6.07639">
        <ele>541.84</ele>
        <time>2019-07-06T15:36:28Z</time>
      </trkpt>
      <trkpt lat="50.47039" lon="6.07597">
        <ele>542.32</ele>
        <time>2019-07-06T15:36:33Z</time>
      </trkpt>
      <trkpt lat="50.47019" lon="6.07543">
        <ele>542.32</ele>
        <time>2019-07-06T15:36:40Z</time>
      </trkpt>
      <trkpt lat="50.47015" lon="6.0753">
        <ele>542.32</ele>
        <time>2019-07-06T15:36:42Z</time>
      </trkpt>
      <trkpt lat="50.47013" lon="6.07523">
        <ele>542.32</ele>
        <time>2019-07-06T15:36:43Z</time>
      </trkpt>
      <trkpt lat="50.4701" lon="6.07516">
        <ele>542.32</ele>
        <time>2019-07-06T15:36:44Z</time>
      </trkpt>
      <trkpt lat="50.47008" lon="6.07509">
        <ele>542.32</ele>
        <time>2019-07-06T15:36:45Z</time>
      </trkpt>
      <trkpt lat="50.47005" lon="6.07501">
        <ele>542.8</ele>
        <time>2019-07-06T15:36:46Z</time>
      </trkpt>
      <trkpt lat="50.47003" lon="6.07494">
        <ele>542.8</ele>
        <time>2019-07-06T15:36:47Z</time>
      </trkpt>
      <trkpt lat="50.46987" lon="6.07446">
        <ele>543.28</ele>
        <time>2019-07-06T15:36:54Z</time>
      </trkpt>
      <trkpt lat="50.4697" lon="6.07394">
        <ele>543.28</ele>
        <time>2019-07-06T15:37:06Z</time>
      </trkpt>
      <trkpt lat="50.46968" lon="6.07394">
        <ele>543.28</ele>
        <time>2019-07-06T15:37:28Z</time>
      </trkpt>
      <trkpt lat="50.46967" lon="6.07394">
        <ele>543.28</ele>
        <time>2019-07-06T15:37:44Z</time>
      </trkpt>
      <trkpt lat="50.46967" lon="6.07393">
        <ele>543.76</ele>
        <time>2019-07-06T15:38:04Z</time>
      </trkpt>
      <trkpt lat="50.46966" lon="6.0739">
        <ele>543.76</ele>
        <time>2019-07-06T15:38:09Z</time>
      </trkpt>
      <trkpt lat="50.46964" lon="6.07388">
        <ele>543.76</ele>
        <time>2019-07-06T15:38:10Z</time>
      </trkpt>
      <trkpt lat="50.46964" lon="6.07385">
        <ele>543.76</ele>
        <time>2019-07-06T15:38:11Z</time>
      </trkpt>
      <trkpt lat="50.46946" lon="6.07329">
        <ele>542.32</ele>
        <time>2019-07-06T15:38:20Z</time>
      </trkpt>
      <trkpt lat="50.46913" lon="6.07256">
        <ele>539.44</ele>
        <time>2019-07-06T15:38:28Z</time>
      </trkpt>
      <trkpt lat="50.46878" lon="6.0721">
        <ele>536.55</ele>
        <time>2019-07-06T15:38:34Z</time>
      </trkpt>
      <trkpt lat="50.46828" lon="6.0718">
        <ele>533.67</ele>
        <time>2019-07-06T15:38:40Z</time>
      </trkpt>
      <trkpt lat="50.46798" lon="6.07172">
        <ele>532.23</ele>
        <time>2019-07-06T15:38:43Z</time>
      </trkpt>
      <trkpt lat="50.46745" lon="6.07154">
        <ele>528.38</ele>
        <time>2019-07-06T15:38:48Z</time>
      </trkpt>
      <trkpt lat="50.46717" lon="6.07143">
        <ele>526.46</ele>
        <time>2019-07-06T15:38:51Z</time>
      </trkpt>
      <trkpt lat="50.46708" lon="6.07136">
        <ele>525.98</ele>
        <time>2019-07-06T15:38:52Z</time>
      </trkpt>
      <trkpt lat="50.46701" lon="6.07127">
        <ele>525.02</ele>
        <time>2019-07-06T15:38:53Z</time>
      </trkpt>
      <trkpt lat="50.46695" lon="6.07116">
        <ele>525.02</ele>
        <time>2019-07-06T15:38:54Z</time>
      </trkpt>
      <trkpt lat="50.4669" lon="6.07102">
        <ele>524.06</ele>
        <time>2019-07-06T15:38:55Z</time>
      </trkpt>
      <trkpt lat="50.46688" lon="6.07087">
        <ele>523.58</ele>
        <time>2019-07-06T15:38:56Z</time>
      </trkpt>
      <trkpt lat="50.46688" lon="6.07071">
        <ele>523.09</ele>
        <time>2019-07-06T15:38:57Z</time>
      </trkpt>
      <trkpt lat="50.46689" lon="6.07055">
        <ele>522.61</ele>
        <time>2019-07-06T15:38:58Z</time>
      </trkpt>
      <trkpt lat="50.46693" lon="6.07039">
        <ele>522.13</ele>
        <time>2019-07-06T15:38:59Z</time>
      </trkpt>
      <trkpt lat="50.46697" lon="6.07025">
        <ele>521.17</ele>
        <time>2019-07-06T15:39:00Z</time>
      </trkpt>
      <trkpt lat="50.46702" lon="6.07013">
        <ele>520.69</ele>
        <time>2019-07-06T15:39:01Z</time>
      </trkpt>
      <trkpt lat="50.46709" lon="6.07002">
        <ele>520.21</ele>
        <time>2019-07-06T15:39:02Z</time>
      </trkpt>
      <trkpt lat="50.46717" lon="6.06996">
        <ele>519.73</ele>
        <time>2019-07-06T15:39:03Z</time>
      </trkpt>
      <trkpt lat="50.46726" lon="6.06994">
        <ele>518.77</ele>
        <time>2019-07-06T15:39:04Z</time>
      </trkpt>
      <trkpt lat="50.46734" lon="6.06993">
        <ele>518.29</ele>
        <time>2019-07-06T15:39:05Z</time>
      </trkpt>
      <trkpt lat="50.46742" lon="6.06991">
        <ele>517.81</ele>
        <time>2019-07-06T15:39:06Z</time>
      </trkpt>
      <trkpt lat="50.4675" lon="6.06987">
        <ele>517.33</ele>
        <time>2019-07-06T15:39:07Z</time>
      </trkpt>
      <trkpt lat="50.46756" lon="6.06982">
        <ele>517.33</ele>
        <time>2019-07-06T15:39:08Z</time>
      </trkpt>
      <trkpt lat="50.46762" lon="6.06974">
        <ele>516.37</ele>
        <time>2019-07-06T15:39:09Z</time>
      </trkpt>
      <trkpt lat="50.46767" lon="6.06963">
        <ele>515.88</ele>
        <time>2019-07-06T15:39:10Z</time>
      </trkpt>
      <trkpt lat="50.4677" lon="6.06951">
        <ele>515.4</ele>
        <time>2019-07-06T15:39:11Z</time>
      </trkpt>
      <trkpt lat="50.46771" lon="6.06938">
        <ele>514.92</ele>
        <time>2019-07-06T15:39:12Z</time>
      </trkpt>
      <trkpt lat="50.4677" lon="6.06924">
        <ele>514.92</ele>
        <time>2019-07-06T15:39:13Z</time>
      </trkpt>
      <trkpt lat="50.46769" lon="6.06911">
        <ele>514.44</ele>
        <time>2019-07-06T15:39:14Z</time>
      </trkpt>
      <trkpt lat="50.46756" lon="6.06812">
        <ele>511.56</ele>
        <time>2019-07-06T15:39:21Z</time>
      </trkpt>
      <trkpt lat="50.46751" lon="6.068">
        <ele>511.56</ele>
        <time>2019-07-06T15:39:22Z</time>
      </trkpt>
      <trkpt lat="50.46745" lon="6.06789">
        <ele>510.6</ele>
        <time>2019-07-06T15:39:23Z</time>
      </trkpt>
      <trkpt lat="50.46738" lon="6.06781">
        <ele>510.6</ele>
        <time>2019-07-06T15:39:24Z</time>
      </trkpt>
      <trkpt lat="50.46729" lon="6.06776">
        <ele>510.12</ele>
        <time>2019-07-06T15:39:25Z</time>
      </trkpt>
      <trkpt lat="50.46721" lon="6.06772">
        <ele>510.12</ele>
        <time>2019-07-06T15:39:26Z</time>
      </trkpt>
      <trkpt lat="50.46712" lon="6.06771">
        <ele>510.12</ele>
        <time>2019-07-06T15:39:27Z</time>
      </trkpt>
      <trkpt lat="50.46705" lon="6.0677">
        <ele>510.12</ele>
        <time>2019-07-06T15:39:28Z</time>
      </trkpt>
      <trkpt lat="50.46696" lon="6.06773">
        <ele>509.64</ele>
        <time>2019-07-06T15:39:29Z</time>
      </trkpt>
      <trkpt lat="50.46688" lon="6.06777">
        <ele>509.64</ele>
        <time>2019-07-06T15:39:30Z</time>
      </trkpt>
      <trkpt lat="50.4668" lon="6.06783">
        <ele>509.16</ele>
        <time>2019-07-06T15:39:31Z</time>
      </trkpt>
      <trkpt lat="50.46672" lon="6.06791">
        <ele>509.16</ele>
        <time>2019-07-06T15:39:32Z</time>
      </trkpt>
      <trkpt lat="50.46666" lon="6.06801">
        <ele>509.16</ele>
        <time>2019-07-06T15:39:33Z</time>
      </trkpt>
      <trkpt lat="50.4666" lon="6.06813">
        <ele>508.67</ele>
        <time>2019-07-06T15:39:34Z</time>
      </trkpt>
      <trkpt lat="50.46656" lon="6.06824">
        <ele>508.67</ele>
        <time>2019-07-06T15:39:35Z</time>
      </trkpt>
      <trkpt lat="50.46651" lon="6.06837">
        <ele>508.67</ele>
        <time>2019-07-06T15:39:36Z</time>
      </trkpt>
      <trkpt lat="50.46646" lon="6.06849">
        <ele>508.67</ele>
        <time>2019-07-06T15:39:37Z</time>
      </trkpt>
      <trkpt lat="50.4664" lon="6.06859">
        <ele>508.67</ele>
        <time>2019-07-06T15:39:38Z</time>
      </trkpt>
      <trkpt lat="50.46633" lon="6.06869">
        <ele>509.64</ele>
        <time>2019-07-06T15:39:39Z</time>
      </trkpt>
      <trkpt lat="50.46626" lon="6.06877">
        <ele>510.12</ele>
        <time>2019-07-06T15:39:40Z</time>
      </trkpt>
      <trkpt lat="50.46617" lon="6.06885">
        <ele>510.6</ele>
        <time>2019-07-06T15:39:41Z</time>
      </trkpt>
      <trkpt lat="50.4661" lon="6.0689">
        <ele>510.6</ele>
        <time>2019-07-06T15:39:42Z</time>
      </trkpt>
      <trkpt lat="50.46601" lon="6.06896">
        <ele>511.08</ele>
        <time>2019-07-06T15:39:43Z</time>
      </trkpt>
      <trkpt lat="50.46593" lon="6.069">
        <ele>511.08</ele>
        <time>2019-07-06T15:39:44Z</time>
      </trkpt>
      <trkpt lat="50.46586" lon="6.06904">
        <ele>511.08</ele>
        <time>2019-07-06T15:39:45Z</time>
      </trkpt>
      <trkpt lat="50.46578" lon="6.06909">
        <ele>511.08</ele>
        <time>2019-07-06T15:39:46Z</time>
      </trkpt>
      <trkpt lat="50.4657" lon="6.06915">
        <ele>511.08</ele>
        <time>2019-07-06T15:39:47Z</time>
      </trkpt>
      <trkpt lat="50.46563" lon="6.0692">
        <ele>511.08</ele>
        <time>2019-07-06T15:39:48Z</time>
      </trkpt>
      <trkpt lat="50.46521" lon="6.06945">
        <ele>511.56</ele>
        <time>2019-07-06T15:39:54Z</time>
      </trkpt>
      <trkpt lat="50.46515" lon="6.06946">
        <ele>512.04</ele>
        <time>2019-07-06T15:39:55Z</time>
      </trkpt>
      <trkpt lat="50.46508" lon="6.06944">
        <ele>512.04</ele>
        <time>2019-07-06T15:39:56Z</time>
      </trkpt>
      <trkpt lat="50.465" lon="6.06941">
        <ele>512.04</ele>
        <time>2019-07-06T15:39:57Z</time>
      </trkpt>
      <trkpt lat="50.46494" lon="6.06938">
        <ele>512.52</ele>
        <time>2019-07-06T15:39:58Z</time>
      </trkpt>
      <trkpt lat="50.46469" lon="6.06926">
        <ele>513</ele>
        <time>2019-07-06T15:40:02Z</time>
      </trkpt>
      <trkpt lat="50.46434" lon="6.06919">
        <ele>514.92</ele>
        <time>2019-07-06T15:40:08Z</time>
      </trkpt>
      <trkpt lat="50.46427" lon="6.06916">
        <ele>515.4</ele>
        <time>2019-07-06T15:40:09Z</time>
      </trkpt>
      <trkpt lat="50.46421" lon="6.06912">
        <ele>515.4</ele>
        <time>2019-07-06T15:40:10Z</time>
      </trkpt>
      <trkpt lat="50.46406" lon="6.06899">
        <ele>516.37</ele>
        <time>2019-07-06T15:40:13Z</time>
      </trkpt>
      <trkpt lat="50.46359" lon="6.06843">
        <ele>517.33</ele>
        <time>2019-07-06T15:40:25Z</time>
      </trkpt>
      <trkpt lat="50.46355" lon="6.06836">
        <ele>517.33</ele>
        <time>2019-07-06T15:40:26Z</time>
      </trkpt>
      <trkpt lat="50.46352" lon="6.06831">
        <ele>517.33</ele>
        <time>2019-07-06T15:40:27Z</time>
      </trkpt>
      <trkpt lat="50.46349" lon="6.06824">
        <ele>517.33</ele>
        <time>2019-07-06T15:40:28Z</time>
      </trkpt>
      <trkpt lat="50.46346" lon="6.06818">
        <ele>517.33</ele>
        <time>2019-07-06T15:40:29Z</time>
      </trkpt>
      <trkpt lat="50.46301" lon="6.06724">
        <ele>518.77</ele>
        <time>2019-07-06T15:40:46Z</time>
      </trkpt>
      <trkpt lat="50.46298" lon="6.06718">
        <ele>518.77</ele>
        <time>2019-07-06T15:40:53Z</time>
      </trkpt>
      <trkpt lat="50.46296" lon="6.06718">
        <ele>518.77</ele>
        <time>2019-07-06T15:40:54Z</time>
      </trkpt>
      <trkpt lat="50.46294" lon="6.06719">
        <ele>518.77</ele>
        <time>2019-07-06T15:40:55Z</time>
      </trkpt>
      <trkpt lat="50.46292" lon="6.06721">
        <ele>518.77</ele>
        <time>2019-07-06T15:40:56Z</time>
      </trkpt>
      <trkpt lat="50.4629" lon="6.06723">
        <ele>518.77</ele>
        <time>2019-07-06T15:40:57Z</time>
      </trkpt>
      <trkpt lat="50.46288" lon="6.06726">
        <ele>518.77</ele>
        <time>2019-07-06T15:40:58Z</time>
      </trkpt>
      <trkpt lat="50.46285" lon="6.06729">
        <ele>518.77</ele>
        <time>2019-07-06T15:40:59Z</time>
      </trkpt>
      <trkpt lat="50.46282" lon="6.06734">
        <ele>518.77</ele>
        <time>2019-07-06T15:41:00Z</time>
      </trkpt>
      <trkpt lat="50.46231" lon="6.06813">
        <ele>517.33</ele>
        <time>2019-07-06T15:41:13Z</time>
      </trkpt>
      <trkpt lat="50.46154" lon="6.06874">
        <ele>515.88</ele>
        <time>2019-07-06T15:41:25Z</time>
      </trkpt>
      <trkpt lat="50.46067" lon="6.06933">
        <ele>513.48</ele>
        <time>2019-07-06T15:41:36Z</time>
      </trkpt>
      <trkpt lat="50.4606" lon="6.06941">
        <ele>513</ele>
        <time>2019-07-06T15:41:37Z</time>
      </trkpt>
      <trkpt lat="50.46055" lon="6.06949">
        <ele>513</ele>
        <time>2019-07-06T15:41:38Z</time>
      </trkpt>
      <trkpt lat="50.46021" lon="6.07007">
        <ele>511.56</ele>
        <time>2019-07-06T15:41:44Z</time>
      </trkpt>
      <trkpt lat="50.46015" lon="6.07013">
        <ele>511.56</ele>
        <time>2019-07-06T15:41:45Z</time>
      </trkpt>
      <trkpt lat="50.46006" lon="6.07016">
        <ele>511.56</ele>
        <time>2019-07-06T15:41:46Z</time>
      </trkpt>
      <trkpt lat="50.45999" lon="6.07015">
        <ele>511.56</ele>
        <time>2019-07-06T15:41:47Z</time>
      </trkpt>
      <trkpt lat="50.45991" lon="6.07011">
        <ele>511.08</ele>
        <time>2019-07-06T15:41:48Z</time>
      </trkpt>
      <trkpt lat="50.45985" lon="6.07005">
        <ele>511.08</ele>
        <time>2019-07-06T15:41:49Z</time>
      </trkpt>
      <trkpt lat="50.45978" lon="6.06998">
        <ele>511.08</ele>
        <time>2019-07-06T15:41:50Z</time>
      </trkpt>
      <trkpt lat="50.45871" lon="6.06894">
        <ele>509.16</ele>
        <time>2019-07-06T15:42:07Z</time>
      </trkpt>
      <trkpt lat="50.45809" lon="6.06844">
        <ele>508.19</ele>
        <time>2019-07-06T15:42:18Z</time>
      </trkpt>
      <trkpt lat="50.45805" lon="6.0684">
        <ele>508.19</ele>
        <time>2019-07-06T15:42:19Z</time>
      </trkpt>
      <trkpt lat="50.45801" lon="6.06835">
        <ele>508.19</ele>
        <time>2019-07-06T15:42:20Z</time>
      </trkpt>
      <trkpt lat="50.45799" lon="6.06827">
        <ele>508.19</ele>
        <time>2019-07-06T15:42:21Z</time>
      </trkpt>
      <trkpt lat="50.458" lon="6.06817">
        <ele>508.19</ele>
        <time>2019-07-06T15:42:22Z</time>
      </trkpt>
      <trkpt lat="50.45801" lon="6.06809">
        <ele>508.19</ele>
        <time>2019-07-06T15:42:23Z</time>
      </trkpt>
      <trkpt lat="50.45803" lon="6.06798">
        <ele>507.23</ele>
        <time>2019-07-06T15:42:24Z</time>
      </trkpt>
      <trkpt lat="50.45815" lon="6.06722">
        <ele>503.87</ele>
        <time>2019-07-06T15:42:30Z</time>
      </trkpt>
      <trkpt lat="50.45817" lon="6.06707">
        <ele>503.87</ele>
        <time>2019-07-06T15:42:31Z</time>
      </trkpt>
      <trkpt lat="50.45821" lon="6.06607">
        <ele>500.5</ele>
        <time>2019-07-06T15:42:38Z</time>
      </trkpt>
      <trkpt lat="50.45823" lon="6.06532">
        <ele>498.1</ele>
        <time>2019-07-06T15:42:43Z</time>
      </trkpt>
      <trkpt lat="50.45825" lon="6.06501">
        <ele>497.62</ele>
        <time>2019-07-06T15:42:45Z</time>
      </trkpt>
      <trkpt lat="50.45825" lon="6.06484">
        <ele>496.66</ele>
        <time>2019-07-06T15:42:46Z</time>
      </trkpt>
      <trkpt lat="50.45823" lon="6.06469">
        <ele>496.18</ele>
        <time>2019-07-06T15:42:47Z</time>
      </trkpt>
      <trkpt lat="50.45805" lon="6.06374">
        <ele>492.81</ele>
        <time>2019-07-06T15:42:53Z</time>
      </trkpt>
      <trkpt lat="50.4579" lon="6.06305">
        <ele>488.97</ele>
        <time>2019-07-06T15:42:57Z</time>
      </trkpt>
      <trkpt lat="50.45779" lon="6.06249">
        <ele>485.12</ele>
        <time>2019-07-06T15:43:00Z</time>
      </trkpt>
      <trkpt lat="50.45766" lon="6.06191">
        <ele>481.76</ele>
        <time>2019-07-06T15:43:03Z</time>
      </trkpt>
      <trkpt lat="50.4575" lon="6.06111">
        <ele>477.91</ele>
        <time>2019-07-06T15:43:07Z</time>
      </trkpt>
      <trkpt lat="50.45745" lon="6.06092">
        <ele>477.91</ele>
        <time>2019-07-06T15:43:08Z</time>
      </trkpt>
      <trkpt lat="50.45699" lon="6.05966">
        <ele>475.03</ele>
        <time>2019-07-06T15:43:16Z</time>
      </trkpt>
      <trkpt lat="50.45638" lon="6.05809">
        <ele>474.07</ele>
        <time>2019-07-06T15:43:29Z</time>
      </trkpt>
      <trkpt lat="50.45591" lon="6.05688">
        <ele>476.95</ele>
        <time>2019-07-06T15:43:41Z</time>
      </trkpt>
      <trkpt lat="50.45552" lon="6.05626">
        <ele>480.32</ele>
        <time>2019-07-06T15:43:51Z</time>
      </trkpt>
      <trkpt lat="50.45548" lon="6.05622">
        <ele>480.32</ele>
        <time>2019-07-06T15:43:52Z</time>
      </trkpt>
      <trkpt lat="50.45509" lon="6.05568">
        <ele>483.68</ele>
        <time>2019-07-06T15:44:03Z</time>
      </trkpt>
      <trkpt lat="50.45477" lon="6.05514">
        <ele>486.56</ele>
        <time>2019-07-06T15:44:13Z</time>
      </trkpt>
      <trkpt lat="50.45458" lon="6.05488">
        <ele>488.01</ele>
        <time>2019-07-06T15:44:19Z</time>
      </trkpt>
      <trkpt lat="50.45406" lon="6.05453">
        <ele>491.37</ele>
        <time>2019-07-06T15:44:33Z</time>
      </trkpt>
      <trkpt lat="50.45402" lon="6.05452">
        <ele>491.37</ele>
        <time>2019-07-06T15:44:34Z</time>
      </trkpt>
      <trkpt lat="50.45397" lon="6.05453">
        <ele>491.85</ele>
        <time>2019-07-06T15:44:35Z</time>
      </trkpt>
      <trkpt lat="50.45393" lon="6.05454">
        <ele>491.85</ele>
        <time>2019-07-06T15:44:36Z</time>
      </trkpt>
      <trkpt lat="50.45389" lon="6.05455">
        <ele>492.33</ele>
        <time>2019-07-06T15:44:37Z</time>
      </trkpt>
      <trkpt lat="50.45352" lon="6.05485">
        <ele>494.74</ele>
        <time>2019-07-06T15:44:49Z</time>
      </trkpt>
      <trkpt lat="50.45339" lon="6.05503">
        <ele>496.66</ele>
        <time>2019-07-06T15:44:54Z</time>
      </trkpt>
      <trkpt lat="50.45333" lon="6.055">
        <ele>497.14</ele>
        <time>2019-07-06T15:44:56Z</time>
      </trkpt>
      <trkpt lat="50.45333" lon="6.05494">
        <ele>497.62</ele>
        <time>2019-07-06T15:44:57Z</time>
      </trkpt>
      <trkpt lat="50.45333" lon="6.05491">
        <ele>497.62</ele>
        <time>2019-07-06T15:44:58Z</time>
      </trkpt>
      <trkpt lat="50.45333" lon="6.05486">
        <ele>497.62</ele>
        <time>2019-07-06T15:44:59Z</time>
      </trkpt>
      <trkpt lat="50.45332" lon="6.05474">
        <ele>498.1</ele>
        <time>2019-07-06T15:45:02Z</time>
      </trkpt>
      <trkpt lat="50.45305" lon="6.05423">
        <ele>501.46</ele>
        <time>2019-07-06T15:45:15Z</time>
      </trkpt>
      <trkpt lat="50.45272" lon="6.05377">
        <ele>502.91</ele>
        <time>2019-07-06T15:45:29Z</time>
      </trkpt>
      <trkpt lat="50.45269" lon="6.05372">
        <ele>502.91</ele>
        <time>2019-07-06T15:45:30Z</time>
      </trkpt>
      <trkpt lat="50.45266" lon="6.05367">
        <ele>502.91</ele>
        <time>2019-07-06T15:45:31Z</time>
      </trkpt>
      <trkpt lat="50.45264" lon="6.05361">
        <ele>502.91</ele>
        <time>2019-07-06T15:45:32Z</time>
      </trkpt>
      <trkpt lat="50.45258" lon="6.05346">
        <ele>501.46</ele>
        <time>2019-07-06T15:45:34Z</time>
      </trkpt>
      <trkpt lat="50.45243" lon="6.05295">
        <ele>498.1</ele>
        <time>2019-07-06T15:45:41Z</time>
      </trkpt>
      <trkpt lat="50.45227" lon="6.0525">
        <ele>498.1</ele>
        <time>2019-07-06T15:45:47Z</time>
      </trkpt>
      <trkpt lat="50.45225" lon="6.05242">
        <ele>497.62</ele>
        <time>2019-07-06T15:45:48Z</time>
      </trkpt>
      <trkpt lat="50.45225" lon="6.05233">
        <ele>497.62</ele>
        <time>2019-07-06T15:45:49Z</time>
      </trkpt>
      <trkpt lat="50.45227" lon="6.05223">
        <ele>497.14</ele>
        <time>2019-07-06T15:45:50Z</time>
      </trkpt>
      <trkpt lat="50.4523" lon="6.05214">
        <ele>496.18</ele>
        <time>2019-07-06T15:45:51Z</time>
      </trkpt>
      <trkpt lat="50.45234" lon="6.05206">
        <ele>495.7</ele>
        <time>2019-07-06T15:45:52Z</time>
      </trkpt>
      <trkpt lat="50.45237" lon="6.05197">
        <ele>495.7</ele>
        <time>2019-07-06T15:45:53Z</time>
      </trkpt>
      <trkpt lat="50.45238" lon="6.05188">
        <ele>495.7</ele>
        <time>2019-07-06T15:45:54Z</time>
      </trkpt>
      <trkpt lat="50.45236" lon="6.05179">
        <ele>495.7</ele>
        <time>2019-07-06T15:45:55Z</time>
      </trkpt>
      <trkpt lat="50.45232" lon="6.05173">
        <ele>495.22</ele>
        <time>2019-07-06T15:45:56Z</time>
      </trkpt>
      <trkpt lat="50.45226" lon="6.05169">
        <ele>494.74</ele>
        <time>2019-07-06T15:45:57Z</time>
      </trkpt>
      <trkpt lat="50.4522" lon="6.05166">
        <ele>494.74</ele>
        <time>2019-07-06T15:45:58Z</time>
      </trkpt>
      <trkpt lat="50.45191" lon="6.05149">
        <ele>492.33</ele>
        <time>2019-07-06T15:46:02Z</time>
      </trkpt>
      <trkpt lat="50.45185" lon="6.0514">
        <ele>491.37</ele>
        <time>2019-07-06T15:46:03Z</time>
      </trkpt>
      <trkpt lat="50.45179" lon="6.0513">
        <ele>490.89</ele>
        <time>2019-07-06T15:46:04Z</time>
      </trkpt>
      <trkpt lat="50.45174" lon="6.05117">
        <ele>489.93</ele>
        <time>2019-07-06T15:46:05Z</time>
      </trkpt>
      <trkpt lat="50.45169" lon="6.05105">
        <ele>489.45</ele>
        <time>2019-07-06T15:46:06Z</time>
      </trkpt>
      <trkpt lat="50.45124" lon="6.05012">
        <ele>487.53</ele>
        <time>2019-07-06T15:46:14Z</time>
      </trkpt>
      <trkpt lat="50.45117" lon="6.05004">
        <ele>487.05</ele>
        <time>2019-07-06T15:46:15Z</time>
      </trkpt>
      <trkpt lat="50.45097" lon="6.04983">
        <ele>486.56</ele>
        <time>2019-07-06T15:46:18Z</time>
      </trkpt>
      <trkpt lat="50.45089" lon="6.04977">
        <ele>485.6</ele>
        <time>2019-07-06T15:46:19Z</time>
      </trkpt>
      <trkpt lat="50.45045" lon="6.04953">
        <ele>482.24</ele>
        <time>2019-07-06T15:46:24Z</time>
      </trkpt>
      <trkpt lat="50.45035" lon="6.04949">
        <ele>481.76</ele>
        <time>2019-07-06T15:46:25Z</time>
      </trkpt>
      <trkpt lat="50.45025" lon="6.04947">
        <ele>480.8</ele>
        <time>2019-07-06T15:46:26Z</time>
      </trkpt>
      <trkpt lat="50.44974" lon="6.04932">
        <ele>476.95</ele>
        <time>2019-07-06T15:46:31Z</time>
      </trkpt>
      <trkpt lat="50.44932" lon="6.04924">
        <ele>473.59</ele>
        <time>2019-07-06T15:46:36Z</time>
      </trkpt>
      <trkpt lat="50.44916" lon="6.04923">
        <ele>473.11</ele>
        <time>2019-07-06T15:46:38Z</time>
      </trkpt>
      <trkpt lat="50.4489" lon="6.04921">
        <ele>469.26</ele>
        <time>2019-07-06T15:46:42Z</time>
      </trkpt>
      <trkpt lat="50.44877" lon="6.0492">
        <ele>467.34</ele>
        <time>2019-07-06T15:46:44Z</time>
      </trkpt>
      <trkpt lat="50.4487" lon="6.04918">
        <ele>465.9</ele>
        <time>2019-07-06T15:46:45Z</time>
      </trkpt>
      <trkpt lat="50.44862" lon="6.04913">
        <ele>464.93</ele>
        <time>2019-07-06T15:46:46Z</time>
      </trkpt>
      <trkpt lat="50.44854" lon="6.04908">
        <ele>463.49</ele>
        <time>2019-07-06T15:46:47Z</time>
      </trkpt>
      <trkpt lat="50.44846" lon="6.049">
        <ele>462.05</ele>
        <time>2019-07-06T15:46:48Z</time>
      </trkpt>
      <trkpt lat="50.44838" lon="6.04891">
        <ele>461.09</ele>
        <time>2019-07-06T15:46:49Z</time>
      </trkpt>
      <trkpt lat="50.44816" lon="6.04866">
        <ele>457.24</ele>
        <time>2019-07-06T15:46:52Z</time>
      </trkpt>
      <trkpt lat="50.44797" lon="6.04845">
        <ele>453.88</ele>
        <time>2019-07-06T15:46:55Z</time>
      </trkpt>
      <trkpt lat="50.44777" lon="6.04826">
        <ele>450.03</ele>
        <time>2019-07-06T15:46:58Z</time>
      </trkpt>
      <trkpt lat="50.44759" lon="6.04806">
        <ele>446.67</ele>
        <time>2019-07-06T15:47:01Z</time>
      </trkpt>
      <trkpt lat="50.4474" lon="6.0479">
        <ele>443.31</ele>
        <time>2019-07-06T15:47:04Z</time>
      </trkpt>
      <trkpt lat="50.44728" lon="6.04782">
        <ele>441.38</ele>
        <time>2019-07-06T15:47:06Z</time>
      </trkpt>
      <trkpt lat="50.44722" lon="6.0478">
        <ele>440.42</ele>
        <time>2019-07-06T15:47:07Z</time>
      </trkpt>
      <trkpt lat="50.44716" lon="6.04781">
        <ele>439.46</ele>
        <time>2019-07-06T15:47:08Z</time>
      </trkpt>
      <trkpt lat="50.44708" lon="6.04784">
        <ele>438.5</ele>
        <time>2019-07-06T15:47:09Z</time>
      </trkpt>
      <trkpt lat="50.44701" lon="6.04789">
        <ele>437.54</ele>
        <time>2019-07-06T15:47:10Z</time>
      </trkpt>
      <trkpt lat="50.44677" lon="6.048">
        <ele>433.69</ele>
        <time>2019-07-06T15:47:13Z</time>
      </trkpt>
      <trkpt lat="50.44654" lon="6.04809">
        <ele>431.29</ele>
        <time>2019-07-06T15:47:17Z</time>
      </trkpt>
      <trkpt lat="50.44649" lon="6.04809">
        <ele>431.29</ele>
        <time>2019-07-06T15:47:18Z</time>
      </trkpt>
      <trkpt lat="50.44643" lon="6.04808">
        <ele>430.33</ele>
        <time>2019-07-06T15:47:19Z</time>
      </trkpt>
      <trkpt lat="50.44637" lon="6.04808">
        <ele>430.33</ele>
        <time>2019-07-06T15:47:20Z</time>
      </trkpt>
      <trkpt lat="50.44631" lon="6.04809">
        <ele>429.85</ele>
        <time>2019-07-06T15:47:21Z</time>
      </trkpt>
      <trkpt lat="50.44624" lon="6.0481">
        <ele>429.85</ele>
        <time>2019-07-06T15:47:22Z</time>
      </trkpt>
      <trkpt lat="50.44618" lon="6.04812">
        <ele>428.89</ele>
        <time>2019-07-06T15:47:23Z</time>
      </trkpt>
      <trkpt lat="50.44611" lon="6.04816">
        <ele>428.89</ele>
        <time>2019-07-06T15:47:24Z</time>
      </trkpt>
      <trkpt lat="50.44542" lon="6.04873">
        <ele>426.48</ele>
        <time>2019-07-06T15:47:34Z</time>
      </trkpt>
      <trkpt lat="50.44534" lon="6.04875">
        <ele>425.52</ele>
        <time>2019-07-06T15:47:35Z</time>
      </trkpt>
      <trkpt lat="50.44527" lon="6.04872">
        <ele>425.52</ele>
        <time>2019-07-06T15:47:36Z</time>
      </trkpt>
      <trkpt lat="50.44521" lon="6.04865">
        <ele>425.52</ele>
        <time>2019-07-06T15:47:37Z</time>
      </trkpt>
      <trkpt lat="50.44518" lon="6.04853">
        <ele>424.08</ele>
        <time>2019-07-06T15:47:38Z</time>
      </trkpt>
      <trkpt lat="50.44519" lon="6.04839">
        <ele>424.08</ele>
        <time>2019-07-06T15:47:39Z</time>
      </trkpt>
      <trkpt lat="50.44523" lon="6.04828">
        <ele>423.6</ele>
        <time>2019-07-06T15:47:40Z</time>
      </trkpt>
      <trkpt lat="50.44529" lon="6.04818">
        <ele>423.12</ele>
        <time>2019-07-06T15:47:41Z</time>
      </trkpt>
      <trkpt lat="50.44536" lon="6.04811">
        <ele>423.12</ele>
        <time>2019-07-06T15:47:42Z</time>
      </trkpt>
      <trkpt lat="50.44543" lon="6.04804">
        <ele>422.64</ele>
        <time>2019-07-06T15:47:43Z</time>
      </trkpt>
      <trkpt lat="50.44551" lon="6.04798">
        <ele>422.64</ele>
        <time>2019-07-06T15:47:44Z</time>
      </trkpt>
      <trkpt lat="50.4461" lon="6.04769">
        <ele>420.23</ele>
        <time>2019-07-06T15:47:51Z</time>
      </trkpt>
      <trkpt lat="50.44618" lon="6.04766">
        <ele>419.27</ele>
        <time>2019-07-06T15:47:52Z</time>
      </trkpt>
      <trkpt lat="50.44665" lon="6.04734">
        <ele>418.31</ele>
        <time>2019-07-06T15:47:58Z</time>
      </trkpt>
      <trkpt lat="50.44672" lon="6.04727">
        <ele>417.83</ele>
        <time>2019-07-06T15:47:59Z</time>
      </trkpt>
      <trkpt lat="50.44709" lon="6.04687">
        <ele>415.91</ele>
        <time>2019-07-06T15:48:04Z</time>
      </trkpt>
      <trkpt lat="50.44775" lon="6.04642">
        <ele>412.54</ele>
        <time>2019-07-06T15:48:12Z</time>
      </trkpt>
      <trkpt lat="50.44781" lon="6.04634">
        <ele>412.06</ele>
        <time>2019-07-06T15:48:13Z</time>
      </trkpt>
      <trkpt lat="50.44785" lon="6.04624">
        <ele>412.06</ele>
        <time>2019-07-06T15:48:14Z</time>
      </trkpt>
      <trkpt lat="50.44785" lon="6.04612">
        <ele>411.1</ele>
        <time>2019-07-06T15:48:15Z</time>
      </trkpt>
      <trkpt lat="50.44782" lon="6.04602">
        <ele>411.1</ele>
        <time>2019-07-06T15:48:16Z</time>
      </trkpt>
      <trkpt lat="50.44776" lon="6.04593">
        <ele>411.1</ele>
        <time>2019-07-06T15:48:17Z</time>
      </trkpt>
      <trkpt lat="50.44769" lon="6.04586">
        <ele>410.62</ele>
        <time>2019-07-06T15:48:18Z</time>
      </trkpt>
      <trkpt lat="50.44756" lon="6.0457">
        <ele>409.66</ele>
        <time>2019-07-06T15:48:20Z</time>
      </trkpt>
      <trkpt lat="50.44735" lon="6.04543">
        <ele>407.26</ele>
        <time>2019-07-06T15:48:23Z</time>
      </trkpt>
      <trkpt lat="50.44729" lon="6.04531">
        <ele>406.77</ele>
        <time>2019-07-06T15:48:24Z</time>
      </trkpt>
      <trkpt lat="50.44726" lon="6.04517">
        <ele>406.29</ele>
        <time>2019-07-06T15:48:25Z</time>
      </trkpt>
      <trkpt lat="50.44725" lon="6.04502">
        <ele>405.33</ele>
        <time>2019-07-06T15:48:26Z</time>
      </trkpt>
      <trkpt lat="50.44728" lon="6.04486">
        <ele>404.85</ele>
        <time>2019-07-06T15:48:27Z</time>
      </trkpt>
      <trkpt lat="50.44733" lon="6.04472">
        <ele>404.37</ele>
        <time>2019-07-06T15:48:28Z</time>
      </trkpt>
      <trkpt lat="50.4474" lon="6.0446">
        <ele>404.37</ele>
        <time>2019-07-06T15:48:29Z</time>
      </trkpt>
      <trkpt lat="50.44748" lon="6.04449">
        <ele>403.89</ele>
        <time>2019-07-06T15:48:30Z</time>
      </trkpt>
      <trkpt lat="50.44763" lon="6.04427">
        <ele>402.93</ele>
        <time>2019-07-06T15:48:32Z</time>
      </trkpt>
      <trkpt lat="50.44769" lon="6.04413">
        <ele>401.97</ele>
        <time>2019-07-06T15:48:33Z</time>
      </trkpt>
      <trkpt lat="50.44772" lon="6.04396">
        <ele>401.49</ele>
        <time>2019-07-06T15:48:34Z</time>
      </trkpt>
      <trkpt lat="50.44772" lon="6.0438">
        <ele>401.01</ele>
        <time>2019-07-06T15:48:35Z</time>
      </trkpt>
      <trkpt lat="50.4477" lon="6.04363">
        <ele>400.53</ele>
        <time>2019-07-06T15:48:36Z</time>
      </trkpt>
      <trkpt lat="50.4477" lon="6.04346">
        <ele>399.57</ele>
        <time>2019-07-06T15:48:37Z</time>
      </trkpt>
      <trkpt lat="50.4477" lon="6.04329">
        <ele>398.6</ele>
        <time>2019-07-06T15:48:38Z</time>
      </trkpt>
      <trkpt lat="50.44772" lon="6.04312">
        <ele>398.12</ele>
        <time>2019-07-06T15:48:39Z</time>
      </trkpt>
      <trkpt lat="50.44775" lon="6.04295">
        <ele>397.64</ele>
        <time>2019-07-06T15:48:40Z</time>
      </trkpt>
      <trkpt lat="50.44779" lon="6.0428">
        <ele>396.68</ele>
        <time>2019-07-06T15:48:41Z</time>
      </trkpt>
      <trkpt lat="50.44785" lon="6.04265">
        <ele>396.2</ele>
        <time>2019-07-06T15:48:42Z</time>
      </trkpt>
      <trkpt lat="50.44792" lon="6.04252">
        <ele>395.72</ele>
        <time>2019-07-06T15:48:43Z</time>
      </trkpt>
      <trkpt lat="50.44801" lon="6.04239">
        <ele>394.76</ele>
        <time>2019-07-06T15:48:44Z</time>
      </trkpt>
      <trkpt lat="50.44809" lon="6.04228">
        <ele>394.28</ele>
        <time>2019-07-06T15:48:45Z</time>
      </trkpt>
      <trkpt lat="50.44847" lon="6.04175">
        <ele>392.36</ele>
        <time>2019-07-06T15:48:50Z</time>
      </trkpt>
      <trkpt lat="50.44851" lon="6.04164">
        <ele>391.39</ele>
        <time>2019-07-06T15:48:51Z</time>
      </trkpt>
      <trkpt lat="50.44853" lon="6.0415">
        <ele>391.39</ele>
        <time>2019-07-06T15:48:52Z</time>
      </trkpt>
      <trkpt lat="50.44852" lon="6.04137">
        <ele>390.43</ele>
        <time>2019-07-06T15:48:53Z</time>
      </trkpt>
      <trkpt lat="50.4485" lon="6.04125">
        <ele>390.43</ele>
        <time>2019-07-06T15:48:54Z</time>
      </trkpt>
      <trkpt lat="50.44846" lon="6.04113">
        <ele>390.43</ele>
        <time>2019-07-06T15:48:55Z</time>
      </trkpt>
      <trkpt lat="50.4484" lon="6.04105">
        <ele>390.43</ele>
        <time>2019-07-06T15:48:56Z</time>
      </trkpt>
      <trkpt lat="50.44832" lon="6.04101">
        <ele>390.43</ele>
        <time>2019-07-06T15:48:57Z</time>
      </trkpt>
      <trkpt lat="50.44825" lon="6.04102">
        <ele>390.43</ele>
        <time>2019-07-06T15:48:58Z</time>
      </trkpt>
      <trkpt lat="50.44817" lon="6.04105">
        <ele>390.43</ele>
        <time>2019-07-06T15:48:59Z</time>
      </trkpt>
      <trkpt lat="50.4481" lon="6.04112">
        <ele>390.43</ele>
        <time>2019-07-06T15:49:00Z</time>
      </trkpt>
      <trkpt lat="50.44802" lon="6.0412">
        <ele>389.95</ele>
        <time>2019-07-06T15:49:01Z</time>
      </trkpt>
      <trkpt lat="50.44734" lon="6.04216">
        <ele>388.03</ele>
        <time>2019-07-06T15:49:11Z</time>
      </trkpt>
      <trkpt lat="50.44712" lon="6.0424">
        <ele>387.07</ele>
        <time>2019-07-06T15:49:14Z</time>
      </trkpt>
      <trkpt lat="50.44681" lon="6.04269">
        <ele>386.59</ele>
        <time>2019-07-06T15:49:18Z</time>
      </trkpt>
      <trkpt lat="50.44674" lon="6.04278">
        <ele>386.59</ele>
        <time>2019-07-06T15:49:19Z</time>
      </trkpt>
      <trkpt lat="50.44669" lon="6.04288">
        <ele>386.59</ele>
        <time>2019-07-06T15:49:20Z</time>
      </trkpt>
      <trkpt lat="50.44664" lon="6.04298">
        <ele>386.11</ele>
        <time>2019-07-06T15:49:21Z</time>
      </trkpt>
      <trkpt lat="50.44661" lon="6.0431">
        <ele>385.63</ele>
        <time>2019-07-06T15:49:22Z</time>
      </trkpt>
      <trkpt lat="50.44657" lon="6.04322">
        <ele>385.63</ele>
        <time>2019-07-06T15:49:23Z</time>
      </trkpt>
      <trkpt lat="50.44654" lon="6.04334">
        <ele>385.15</ele>
        <time>2019-07-06T15:49:24Z</time>
      </trkpt>
      <trkpt lat="50.4465" lon="6.04346">
        <ele>384.18</ele>
        <time>2019-07-06T15:49:25Z</time>
      </trkpt>
      <trkpt lat="50.44644" lon="6.04356">
        <ele>384.18</ele>
        <time>2019-07-06T15:49:26Z</time>
      </trkpt>
      <trkpt lat="50.44637" lon="6.04364">
        <ele>383.7</ele>
        <time>2019-07-06T15:49:27Z</time>
      </trkpt>
      <trkpt lat="50.44629" lon="6.04371">
        <ele>383.22</ele>
        <time>2019-07-06T15:49:28Z</time>
      </trkpt>
      <trkpt lat="50.44621" lon="6.04375">
        <ele>383.22</ele>
        <time>2019-07-06T15:49:29Z</time>
      </trkpt>
      <trkpt lat="50.44612" lon="6.04378">
        <ele>383.22</ele>
        <time>2019-07-06T15:49:30Z</time>
      </trkpt>
      <trkpt lat="50.44603" lon="6.0438">
        <ele>382.74</ele>
        <time>2019-07-06T15:49:31Z</time>
      </trkpt>
      <trkpt lat="50.44559" lon="6.04382">
        <ele>382.74</ele>
        <time>2019-07-06T15:49:36Z</time>
      </trkpt>
      <trkpt lat="50.44522" lon="6.04377">
        <ele>381.3</ele>
        <time>2019-07-06T15:49:40Z</time>
      </trkpt>
      <trkpt lat="50.44438" lon="6.04394">
        <ele>378.42</ele>
        <time>2019-07-06T15:49:49Z</time>
      </trkpt>
      <trkpt lat="50.44364" lon="6.04423">
        <ele>375.05</ele>
        <time>2019-07-06T15:49:57Z</time>
      </trkpt>
      <trkpt lat="50.44353" lon="6.04424">
        <ele>374.57</ele>
        <time>2019-07-06T15:49:58Z</time>
      </trkpt>
      <trkpt lat="50.44343" lon="6.04421">
        <ele>374.09</ele>
        <time>2019-07-06T15:49:59Z</time>
      </trkpt>
      <trkpt lat="50.44333" lon="6.04414">
        <ele>373.61</ele>
        <time>2019-07-06T15:50:00Z</time>
      </trkpt>
      <trkpt lat="50.44324" lon="6.04405">
        <ele>372.17</ele>
        <time>2019-07-06T15:50:01Z</time>
      </trkpt>
      <trkpt lat="50.44316" lon="6.04393">
        <ele>372.17</ele>
        <time>2019-07-06T15:50:02Z</time>
      </trkpt>
      <trkpt lat="50.44309" lon="6.04379">
        <ele>371.69</ele>
        <time>2019-07-06T15:50:03Z</time>
      </trkpt>
      <trkpt lat="50.44303" lon="6.04365">
        <ele>371.21</ele>
        <time>2019-07-06T15:50:04Z</time>
      </trkpt>
      <trkpt lat="50.44274" lon="6.0429">
        <ele>368.32</ele>
        <time>2019-07-06T15:50:09Z</time>
      </trkpt>
      <trkpt lat="50.44253" lon="6.04208">
        <ele>364.96</ele>
        <time>2019-07-06T15:50:14Z</time>
      </trkpt>
      <trkpt lat="50.44249" lon="6.04191">
        <ele>364.48</ele>
        <time>2019-07-06T15:50:15Z</time>
      </trkpt>
      <trkpt lat="50.4422" lon="6.04077">
        <ele>361.11</ele>
        <time>2019-07-06T15:50:22Z</time>
      </trkpt>
      <trkpt lat="50.44201" lon="6.0402">
        <ele>359.19</ele>
        <time>2019-07-06T15:50:26Z</time>
      </trkpt>
      <trkpt lat="50.44194" lon="6.04009">
        <ele>359.19</ele>
        <time>2019-07-06T15:50:27Z</time>
      </trkpt>
      <trkpt lat="50.44187" lon="6.03999">
        <ele>359.19</ele>
        <time>2019-07-06T15:50:28Z</time>
      </trkpt>
      <trkpt lat="50.44179" lon="6.03991">
        <ele>358.71</ele>
        <time>2019-07-06T15:50:29Z</time>
      </trkpt>
      <trkpt lat="50.44171" lon="6.03983">
        <ele>358.71</ele>
        <time>2019-07-06T15:50:30Z</time>
      </trkpt>
      <trkpt lat="50.44164" lon="6.03976">
        <ele>358.23</ele>
        <time>2019-07-06T15:50:31Z</time>
      </trkpt>
      <trkpt lat="50.44157" lon="6.03968">
        <ele>358.23</ele>
        <time>2019-07-06T15:50:32Z</time>
      </trkpt>
      <trkpt lat="50.44151" lon="6.03957">
        <ele>358.23</ele>
        <time>2019-07-06T15:50:33Z</time>
      </trkpt>
      <trkpt lat="50.44147" lon="6.03946">
        <ele>358.23</ele>
        <time>2019-07-06T15:50:34Z</time>
      </trkpt>
      <trkpt lat="50.44144" lon="6.03934">
        <ele>358.23</ele>
        <time>2019-07-06T15:50:35Z</time>
      </trkpt>
      <trkpt lat="50.44142" lon="6.03923">
        <ele>358.23</ele>
        <time>2019-07-06T15:50:36Z</time>
      </trkpt>
      <trkpt lat="50.4411" lon="6.03761">
        <ele>354.86</ele>
        <time>2019-07-06T15:50:49Z</time>
      </trkpt>
      <trkpt lat="50.44095" lon="6.03609">
        <ele>352.94</ele>
        <time>2019-07-06T15:51:03Z</time>
      </trkpt>
      <trkpt lat="50.4409" lon="6.03576">
        <ele>352.94</ele>
        <time>2019-07-06T15:51:08Z</time>
      </trkpt>
      <trkpt lat="50.44088" lon="6.03572">
        <ele>352.94</ele>
        <time>2019-07-06T15:51:09Z</time>
      </trkpt>
      <trkpt lat="50.44086" lon="6.03568">
        <ele>352.94</ele>
        <time>2019-07-06T15:51:10Z</time>
      </trkpt>
      <trkpt lat="50.44084" lon="6.03566">
        <ele>352.94</ele>
        <time>2019-07-06T15:51:11Z</time>
      </trkpt>
      <trkpt lat="50.44082" lon="6.03561">
        <ele>352.94</ele>
        <time>2019-07-06T15:51:12Z</time>
      </trkpt>
      <trkpt lat="50.4408" lon="6.03555">
        <ele>352.94</ele>
        <time>2019-07-06T15:51:13Z</time>
      </trkpt>
      <trkpt lat="50.44079" lon="6.03548">
        <ele>353.42</ele>
        <time>2019-07-06T15:51:14Z</time>
      </trkpt>
      <trkpt lat="50.44078" lon="6.03544">
        <ele>352.94</ele>
        <time>2019-07-06T15:51:15Z</time>
      </trkpt>
      <trkpt lat="50.44078" lon="6.03539">
        <ele>352.94</ele>
        <time>2019-07-06T15:51:16Z</time>
      </trkpt>
      <trkpt lat="50.44077" lon="6.03536">
        <ele>353.42</ele>
        <time>2019-07-06T15:51:17Z</time>
      </trkpt>
      <trkpt lat="50.44076" lon="6.03532">
        <ele>352.94</ele>
        <time>2019-07-06T15:51:18Z</time>
      </trkpt>
      <trkpt lat="50.44076" lon="6.03529">
        <ele>352.94</ele>
        <time>2019-07-06T15:51:19Z</time>
      </trkpt>
      <trkpt lat="50.44075" lon="6.03525">
        <ele>352.94</ele>
        <time>2019-07-06T15:51:28Z</time>
      </trkpt>
      <trkpt lat="50.44076" lon="6.0354">
        <ele>352.94</ele>
        <time>2019-07-06T15:51:40Z</time>
      </trkpt>
      <trkpt lat="50.44076" lon="6.03541">
        <ele>352.46</ele>
        <time>2019-07-06T15:51:57Z</time>
      </trkpt>
    </trkseg>
  </trk>
</gpx>